<?xml version="1.0" encoding="UTF-8" standalone="no" ?>
<gpx xmlns="http://www.topografix.com/GPX/1/1" xmlns:xsi="http://www.w3.org/2001/XMLSchema-instance" xsi:schemaLocation="http://www.topografix.com/GPX/1/1 http://www.topografix.com/GPX/1/1/gpx.xsd" version="1.1" creator="VisuGPX - https://www.visugpx.com">
  <metadata>
    <name>2010 Cross de la foire de Quaix</name>
    <desc><![CDATA[2010 Cross de la foire de Quaix en Chartreuse]]></desc>
  </metadata>
  <trk>
    <name><![CDATA[2010 Cross de la foire de Quaix_1]]></name>
    <trkseg>
      <trkpt lat="45.25325" lon="5.71731">
        <ele>526</ele>
        <time>2010-05-09T07:00:17Z</time>
      </trkpt>
      <trkpt lat="45.25311" lon="5.71764">
        <ele>525</ele>
        <time>2010-05-09T07:00:28Z</time>
      </trkpt>
      <trkpt lat="45.25308" lon="5.71768">
        <ele>525</ele>
        <time>2010-05-09T07:00:29Z</time>
      </trkpt>
      <trkpt lat="45.25305" lon="5.71771">
        <ele>525</ele>
        <time>2010-05-09T07:00:30Z</time>
      </trkpt>
      <trkpt lat="45.25302" lon="5.71774">
        <ele>525</ele>
        <time>2010-05-09T07:00:31Z</time>
      </trkpt>
      <trkpt lat="45.253" lon="5.71777">
        <ele>525</ele>
        <time>2010-05-09T07:00:32Z</time>
      </trkpt>
      <trkpt lat="45.25297" lon="5.7178">
        <ele>525</ele>
        <time>2010-05-09T07:00:33Z</time>
      </trkpt>
      <trkpt lat="45.25295" lon="5.71782">
        <ele>525</ele>
        <time>2010-05-09T07:00:34Z</time>
      </trkpt>
      <trkpt lat="45.25292" lon="5.71785">
        <ele>525</ele>
        <time>2010-05-09T07:00:35Z</time>
      </trkpt>
      <trkpt lat="45.2529" lon="5.71788">
        <ele>525</ele>
        <time>2010-05-09T07:00:36Z</time>
      </trkpt>
      <trkpt lat="45.25288" lon="5.71791">
        <ele>525</ele>
        <time>2010-05-09T07:00:37Z</time>
      </trkpt>
      <trkpt lat="45.25286" lon="5.71795">
        <ele>525</ele>
        <time>2010-05-09T07:00:38Z</time>
      </trkpt>
      <trkpt lat="45.25283" lon="5.71799">
        <ele>525</ele>
        <time>2010-05-09T07:00:39Z</time>
      </trkpt>
      <trkpt lat="45.25281" lon="5.71803">
        <ele>525</ele>
        <time>2010-05-09T07:00:40Z</time>
      </trkpt>
      <trkpt lat="45.25278" lon="5.71808">
        <ele>525</ele>
        <time>2010-05-09T07:00:41Z</time>
      </trkpt>
      <trkpt lat="45.25276" lon="5.71812">
        <ele>525</ele>
        <time>2010-05-09T07:00:42Z</time>
      </trkpt>
      <trkpt lat="45.25274" lon="5.71816">
        <ele>525</ele>
        <time>2010-05-09T07:00:43Z</time>
      </trkpt>
      <trkpt lat="45.25272" lon="5.71821">
        <ele>525</ele>
        <time>2010-05-09T07:00:44Z</time>
      </trkpt>
      <trkpt lat="45.25271" lon="5.71827">
        <ele>525</ele>
        <time>2010-05-09T07:00:45Z</time>
      </trkpt>
      <trkpt lat="45.25271" lon="5.71833">
        <ele>525</ele>
        <time>2010-05-09T07:00:46Z</time>
      </trkpt>
      <trkpt lat="45.2527" lon="5.71839">
        <ele>525</ele>
        <time>2010-05-09T07:00:47Z</time>
      </trkpt>
      <trkpt lat="45.2527" lon="5.71846">
        <ele>525</ele>
        <time>2010-05-09T07:00:48Z</time>
      </trkpt>
      <trkpt lat="45.25272" lon="5.71852">
        <ele>525</ele>
        <time>2010-05-09T07:00:49Z</time>
      </trkpt>
      <trkpt lat="45.25274" lon="5.71858">
        <ele>525</ele>
        <time>2010-05-09T07:00:50Z</time>
      </trkpt>
      <trkpt lat="45.25276" lon="5.71864">
        <ele>525</ele>
        <time>2010-05-09T07:00:51Z</time>
      </trkpt>
      <trkpt lat="45.25278" lon="5.7187">
        <ele>525</ele>
        <time>2010-05-09T07:00:52Z</time>
      </trkpt>
      <trkpt lat="45.2528" lon="5.71875">
        <ele>525</ele>
        <time>2010-05-09T07:00:53Z</time>
      </trkpt>
      <trkpt lat="45.25281" lon="5.71881">
        <ele>525</ele>
        <time>2010-05-09T07:00:54Z</time>
      </trkpt>
      <trkpt lat="45.25282" lon="5.71886">
        <ele>525</ele>
        <time>2010-05-09T07:00:55Z</time>
      </trkpt>
      <trkpt lat="45.25283" lon="5.71892">
        <ele>525</ele>
        <time>2010-05-09T07:00:56Z</time>
      </trkpt>
      <trkpt lat="45.25285" lon="5.71897">
        <ele>525</ele>
        <time>2010-05-09T07:00:57Z</time>
      </trkpt>
      <trkpt lat="45.25286" lon="5.71903">
        <ele>525</ele>
        <time>2010-05-09T07:00:58Z</time>
      </trkpt>
      <trkpt lat="45.25287" lon="5.71909">
        <ele>525</ele>
        <time>2010-05-09T07:00:59Z</time>
      </trkpt>
      <trkpt lat="45.25288" lon="5.71915">
        <ele>525</ele>
        <time>2010-05-09T07:01:00Z</time>
      </trkpt>
      <trkpt lat="45.25288" lon="5.7192">
        <ele>525</ele>
        <time>2010-05-09T07:01:01Z</time>
      </trkpt>
      <trkpt lat="45.25288" lon="5.71927">
        <ele>525</ele>
        <time>2010-05-09T07:01:02Z</time>
      </trkpt>
      <trkpt lat="45.25289" lon="5.71933">
        <ele>524</ele>
        <time>2010-05-09T07:01:03Z</time>
      </trkpt>
      <trkpt lat="45.25289" lon="5.71938">
        <ele>524</ele>
        <time>2010-05-09T07:01:04Z</time>
      </trkpt>
      <trkpt lat="45.2529" lon="5.71944">
        <ele>524</ele>
        <time>2010-05-09T07:01:05Z</time>
      </trkpt>
      <trkpt lat="45.25291" lon="5.71949">
        <ele>524</ele>
        <time>2010-05-09T07:01:06Z</time>
      </trkpt>
      <trkpt lat="45.25292" lon="5.71954">
        <ele>524</ele>
        <time>2010-05-09T07:01:07Z</time>
      </trkpt>
      <trkpt lat="45.25292" lon="5.7196">
        <ele>524</ele>
        <time>2010-05-09T07:01:08Z</time>
      </trkpt>
      <trkpt lat="45.25293" lon="5.71965">
        <ele>524</ele>
        <time>2010-05-09T07:01:09Z</time>
      </trkpt>
      <trkpt lat="45.25294" lon="5.7197">
        <ele>524</ele>
        <time>2010-05-09T07:01:10Z</time>
      </trkpt>
      <trkpt lat="45.25295" lon="5.71976">
        <ele>524</ele>
        <time>2010-05-09T07:01:11Z</time>
      </trkpt>
      <trkpt lat="45.25298" lon="5.71981">
        <ele>524</ele>
        <time>2010-05-09T07:01:12Z</time>
      </trkpt>
      <trkpt lat="45.253" lon="5.71985">
        <ele>524</ele>
        <time>2010-05-09T07:01:13Z</time>
      </trkpt>
      <trkpt lat="45.25302" lon="5.71989">
        <ele>524</ele>
        <time>2010-05-09T07:01:14Z</time>
      </trkpt>
      <trkpt lat="45.25306" lon="5.71991">
        <ele>524</ele>
        <time>2010-05-09T07:01:15Z</time>
      </trkpt>
      <trkpt lat="45.25311" lon="5.71989">
        <ele>524</ele>
        <time>2010-05-09T07:01:16Z</time>
      </trkpt>
      <trkpt lat="45.25316" lon="5.71987">
        <ele>524</ele>
        <time>2010-05-09T07:01:17Z</time>
      </trkpt>
      <trkpt lat="45.2532" lon="5.71987">
        <ele>524</ele>
        <time>2010-05-09T07:01:18Z</time>
      </trkpt>
      <trkpt lat="45.25324" lon="5.71988">
        <ele>524</ele>
        <time>2010-05-09T07:01:19Z</time>
      </trkpt>
      <trkpt lat="45.25328" lon="5.71988">
        <ele>524</ele>
        <time>2010-05-09T07:01:20Z</time>
      </trkpt>
      <trkpt lat="45.25332" lon="5.71987">
        <ele>524</ele>
        <time>2010-05-09T07:01:21Z</time>
      </trkpt>
      <trkpt lat="45.25336" lon="5.71987">
        <ele>524</ele>
        <time>2010-05-09T07:01:22Z</time>
      </trkpt>
      <trkpt lat="45.2534" lon="5.71988">
        <ele>524</ele>
        <time>2010-05-09T07:01:23Z</time>
      </trkpt>
      <trkpt lat="45.25343" lon="5.7199">
        <ele>524</ele>
        <time>2010-05-09T07:01:24Z</time>
      </trkpt>
      <trkpt lat="45.25347" lon="5.71993">
        <ele>524</ele>
        <time>2010-05-09T07:01:25Z</time>
      </trkpt>
      <trkpt lat="45.25348" lon="5.71997">
        <ele>524</ele>
        <time>2010-05-09T07:01:26Z</time>
      </trkpt>
      <trkpt lat="45.25346" lon="5.72003">
        <ele>524</ele>
        <time>2010-05-09T07:01:27Z</time>
      </trkpt>
      <trkpt lat="45.25343" lon="5.72007">
        <ele>524</ele>
        <time>2010-05-09T07:01:28Z</time>
      </trkpt>
      <trkpt lat="45.25338" lon="5.72011">
        <ele>524</ele>
        <time>2010-05-09T07:01:29Z</time>
      </trkpt>
      <trkpt lat="45.25335" lon="5.72016">
        <ele>524</ele>
        <time>2010-05-09T07:01:30Z</time>
      </trkpt>
      <trkpt lat="45.25331" lon="5.7202">
        <ele>524</ele>
        <time>2010-05-09T07:01:31Z</time>
      </trkpt>
      <trkpt lat="45.25327" lon="5.72024">
        <ele>524</ele>
        <time>2010-05-09T07:01:32Z</time>
      </trkpt>
      <trkpt lat="45.25323" lon="5.72026">
        <ele>524</ele>
        <time>2010-05-09T07:01:33Z</time>
      </trkpt>
      <trkpt lat="45.25321" lon="5.72028">
        <ele>524</ele>
        <time>2010-05-09T07:01:34Z</time>
      </trkpt>
      <trkpt lat="45.25317" lon="5.72031">
        <ele>524</ele>
        <time>2010-05-09T07:01:35Z</time>
      </trkpt>
      <trkpt lat="45.25314" lon="5.72035">
        <ele>524</ele>
        <time>2010-05-09T07:01:36Z</time>
      </trkpt>
      <trkpt lat="45.25309" lon="5.72039">
        <ele>524</ele>
        <time>2010-05-09T07:01:37Z</time>
      </trkpt>
      <trkpt lat="45.25305" lon="5.72043">
        <ele>524</ele>
        <time>2010-05-09T07:01:38Z</time>
      </trkpt>
      <trkpt lat="45.25302" lon="5.72045">
        <ele>524</ele>
        <time>2010-05-09T07:01:39Z</time>
      </trkpt>
      <trkpt lat="45.25298" lon="5.72048">
        <ele>524</ele>
        <time>2010-05-09T07:01:40Z</time>
      </trkpt>
      <trkpt lat="45.25295" lon="5.7205">
        <ele>524</ele>
        <time>2010-05-09T07:01:41Z</time>
      </trkpt>
      <trkpt lat="45.25291" lon="5.72053">
        <ele>524</ele>
        <time>2010-05-09T07:01:42Z</time>
      </trkpt>
      <trkpt lat="45.25288" lon="5.72058">
        <ele>524</ele>
        <time>2010-05-09T07:01:43Z</time>
      </trkpt>
      <trkpt lat="45.25286" lon="5.72062">
        <ele>524</ele>
        <time>2010-05-09T07:01:44Z</time>
      </trkpt>
      <trkpt lat="45.25283" lon="5.72065">
        <ele>524</ele>
        <time>2010-05-09T07:01:45Z</time>
      </trkpt>
      <trkpt lat="45.2528" lon="5.72068">
        <ele>524</ele>
        <time>2010-05-09T07:01:46Z</time>
      </trkpt>
      <trkpt lat="45.25277" lon="5.72071">
        <ele>524</ele>
        <time>2010-05-09T07:01:47Z</time>
      </trkpt>
      <trkpt lat="45.25273" lon="5.72073">
        <ele>524</ele>
        <time>2010-05-09T07:01:48Z</time>
      </trkpt>
      <trkpt lat="45.25269" lon="5.72077">
        <ele>524</ele>
        <time>2010-05-09T07:01:49Z</time>
      </trkpt>
      <trkpt lat="45.25265" lon="5.72081">
        <ele>524</ele>
        <time>2010-05-09T07:01:50Z</time>
      </trkpt>
      <trkpt lat="45.25262" lon="5.72085">
        <ele>524</ele>
        <time>2010-05-09T07:01:51Z</time>
      </trkpt>
      <trkpt lat="45.25258" lon="5.72088">
        <ele>524</ele>
        <time>2010-05-09T07:01:52Z</time>
      </trkpt>
      <trkpt lat="45.25254" lon="5.7209">
        <ele>524</ele>
        <time>2010-05-09T07:01:53Z</time>
      </trkpt>
      <trkpt lat="45.25251" lon="5.72093">
        <ele>524</ele>
        <time>2010-05-09T07:01:54Z</time>
      </trkpt>
      <trkpt lat="45.25248" lon="5.72095">
        <ele>523</ele>
        <time>2010-05-09T07:01:55Z</time>
      </trkpt>
      <trkpt lat="45.25245" lon="5.72098">
        <ele>522</ele>
        <time>2010-05-09T07:01:56Z</time>
      </trkpt>
      <trkpt lat="45.25244" lon="5.72102">
        <ele>522</ele>
        <time>2010-05-09T07:01:57Z</time>
      </trkpt>
      <trkpt lat="45.25242" lon="5.72107">
        <ele>521</ele>
        <time>2010-05-09T07:01:58Z</time>
      </trkpt>
      <trkpt lat="45.25241" lon="5.72111">
        <ele>521</ele>
        <time>2010-05-09T07:01:59Z</time>
      </trkpt>
      <trkpt lat="45.2524" lon="5.72116">
        <ele>521</ele>
        <time>2010-05-09T07:02:00Z</time>
      </trkpt>
      <trkpt lat="45.2524" lon="5.72121">
        <ele>521</ele>
        <time>2010-05-09T07:02:01Z</time>
      </trkpt>
      <trkpt lat="45.25239" lon="5.72126">
        <ele>521</ele>
        <time>2010-05-09T07:02:02Z</time>
      </trkpt>
      <trkpt lat="45.25238" lon="5.72131">
        <ele>521</ele>
        <time>2010-05-09T07:02:03Z</time>
      </trkpt>
      <trkpt lat="45.25238" lon="5.72137">
        <ele>520</ele>
        <time>2010-05-09T07:02:04Z</time>
      </trkpt>
      <trkpt lat="45.25237" lon="5.72142">
        <ele>520</ele>
        <time>2010-05-09T07:02:05Z</time>
      </trkpt>
      <trkpt lat="45.25235" lon="5.72147">
        <ele>520</ele>
        <time>2010-05-09T07:02:06Z</time>
      </trkpt>
      <trkpt lat="45.25235" lon="5.72152">
        <ele>519</ele>
        <time>2010-05-09T07:02:07Z</time>
      </trkpt>
      <trkpt lat="45.25235" lon="5.72157">
        <ele>518</ele>
        <time>2010-05-09T07:02:08Z</time>
      </trkpt>
      <trkpt lat="45.25233" lon="5.72162">
        <ele>518</ele>
        <time>2010-05-09T07:02:09Z</time>
      </trkpt>
      <trkpt lat="45.25232" lon="5.72167">
        <ele>517</ele>
        <time>2010-05-09T07:02:10Z</time>
      </trkpt>
      <trkpt lat="45.2523" lon="5.72172">
        <ele>517</ele>
        <time>2010-05-09T07:02:11Z</time>
      </trkpt>
      <trkpt lat="45.25227" lon="5.72176">
        <ele>517</ele>
        <time>2010-05-09T07:02:12Z</time>
      </trkpt>
      <trkpt lat="45.25226" lon="5.72181">
        <ele>516</ele>
        <time>2010-05-09T07:02:13Z</time>
      </trkpt>
      <trkpt lat="45.25223" lon="5.72185">
        <ele>516</ele>
        <time>2010-05-09T07:02:14Z</time>
      </trkpt>
      <trkpt lat="45.2522" lon="5.72189">
        <ele>516</ele>
        <time>2010-05-09T07:02:15Z</time>
      </trkpt>
      <trkpt lat="45.25218" lon="5.72193">
        <ele>516</ele>
        <time>2010-05-09T07:02:16Z</time>
      </trkpt>
      <trkpt lat="45.25215" lon="5.72196">
        <ele>516</ele>
        <time>2010-05-09T07:02:17Z</time>
      </trkpt>
      <trkpt lat="45.25212" lon="5.722">
        <ele>516</ele>
        <time>2010-05-09T07:02:18Z</time>
      </trkpt>
      <trkpt lat="45.25208" lon="5.72204">
        <ele>516</ele>
        <time>2010-05-09T07:02:19Z</time>
      </trkpt>
      <trkpt lat="45.25205" lon="5.72208">
        <ele>516</ele>
        <time>2010-05-09T07:02:20Z</time>
      </trkpt>
      <trkpt lat="45.25201" lon="5.72212">
        <ele>516</ele>
        <time>2010-05-09T07:02:21Z</time>
      </trkpt>
      <trkpt lat="45.25198" lon="5.72216">
        <ele>516</ele>
        <time>2010-05-09T07:02:22Z</time>
      </trkpt>
      <trkpt lat="45.25195" lon="5.7222">
        <ele>515</ele>
        <time>2010-05-09T07:02:23Z</time>
      </trkpt>
      <trkpt lat="45.25193" lon="5.72223">
        <ele>515</ele>
        <time>2010-05-09T07:02:24Z</time>
      </trkpt>
      <trkpt lat="45.2519" lon="5.72227">
        <ele>515</ele>
        <time>2010-05-09T07:02:25Z</time>
      </trkpt>
      <trkpt lat="45.25188" lon="5.7223">
        <ele>515</ele>
        <time>2010-05-09T07:02:26Z</time>
      </trkpt>
      <trkpt lat="45.25186" lon="5.72234">
        <ele>515</ele>
        <time>2010-05-09T07:02:27Z</time>
      </trkpt>
      <trkpt lat="45.25183" lon="5.72238">
        <ele>515</ele>
        <time>2010-05-09T07:02:28Z</time>
      </trkpt>
      <trkpt lat="45.2518" lon="5.72243">
        <ele>515</ele>
        <time>2010-05-09T07:02:29Z</time>
      </trkpt>
      <trkpt lat="45.25177" lon="5.72247">
        <ele>514</ele>
        <time>2010-05-09T07:02:30Z</time>
      </trkpt>
      <trkpt lat="45.25174" lon="5.72251">
        <ele>514</ele>
        <time>2010-05-09T07:02:31Z</time>
      </trkpt>
      <trkpt lat="45.25171" lon="5.72255">
        <ele>514</ele>
        <time>2010-05-09T07:02:32Z</time>
      </trkpt>
      <trkpt lat="45.25168" lon="5.72259">
        <ele>513</ele>
        <time>2010-05-09T07:02:33Z</time>
      </trkpt>
      <trkpt lat="45.25165" lon="5.72263">
        <ele>512</ele>
        <time>2010-05-09T07:02:34Z</time>
      </trkpt>
      <trkpt lat="45.25162" lon="5.72267">
        <ele>512</ele>
        <time>2010-05-09T07:02:35Z</time>
      </trkpt>
      <trkpt lat="45.2516" lon="5.72271">
        <ele>511</ele>
        <time>2010-05-09T07:02:36Z</time>
      </trkpt>
      <trkpt lat="45.25158" lon="5.72276">
        <ele>510</ele>
        <time>2010-05-09T07:02:37Z</time>
      </trkpt>
      <trkpt lat="45.25156" lon="5.7228">
        <ele>510</ele>
        <time>2010-05-09T07:02:38Z</time>
      </trkpt>
      <trkpt lat="45.25153" lon="5.72285">
        <ele>510</ele>
        <time>2010-05-09T07:02:39Z</time>
      </trkpt>
      <trkpt lat="45.25151" lon="5.7229">
        <ele>509</ele>
        <time>2010-05-09T07:02:40Z</time>
      </trkpt>
      <trkpt lat="45.25148" lon="5.72294">
        <ele>509</ele>
        <time>2010-05-09T07:02:41Z</time>
      </trkpt>
      <trkpt lat="45.25146" lon="5.72299">
        <ele>509</ele>
        <time>2010-05-09T07:02:42Z</time>
      </trkpt>
      <trkpt lat="45.25144" lon="5.72303">
        <ele>508</ele>
        <time>2010-05-09T07:02:43Z</time>
      </trkpt>
      <trkpt lat="45.25142" lon="5.72307">
        <ele>508</ele>
        <time>2010-05-09T07:02:44Z</time>
      </trkpt>
      <trkpt lat="45.2514" lon="5.72312">
        <ele>507</ele>
        <time>2010-05-09T07:02:45Z</time>
      </trkpt>
      <trkpt lat="45.25138" lon="5.72317">
        <ele>507</ele>
        <time>2010-05-09T07:02:46Z</time>
      </trkpt>
      <trkpt lat="45.25136" lon="5.72321">
        <ele>507</ele>
        <time>2010-05-09T07:02:47Z</time>
      </trkpt>
      <trkpt lat="45.25134" lon="5.72325">
        <ele>506</ele>
        <time>2010-05-09T07:02:48Z</time>
      </trkpt>
      <trkpt lat="45.25132" lon="5.7233">
        <ele>506</ele>
        <time>2010-05-09T07:02:49Z</time>
      </trkpt>
      <trkpt lat="45.2513" lon="5.72334">
        <ele>506</ele>
        <time>2010-05-09T07:02:50Z</time>
      </trkpt>
      <trkpt lat="45.25129" lon="5.72338">
        <ele>505</ele>
        <time>2010-05-09T07:02:51Z</time>
      </trkpt>
      <trkpt lat="45.25126" lon="5.72344">
        <ele>505</ele>
        <time>2010-05-09T07:02:52Z</time>
      </trkpt>
      <trkpt lat="45.25124" lon="5.72349">
        <ele>504</ele>
        <time>2010-05-09T07:02:53Z</time>
      </trkpt>
      <trkpt lat="45.25122" lon="5.72354">
        <ele>504</ele>
        <time>2010-05-09T07:02:54Z</time>
      </trkpt>
      <trkpt lat="45.2512" lon="5.72359">
        <ele>503</ele>
        <time>2010-05-09T07:02:55Z</time>
      </trkpt>
      <trkpt lat="45.25118" lon="5.72363">
        <ele>503</ele>
        <time>2010-05-09T07:02:56Z</time>
      </trkpt>
      <trkpt lat="45.25116" lon="5.72368">
        <ele>503</ele>
        <time>2010-05-09T07:02:57Z</time>
      </trkpt>
      <trkpt lat="45.25114" lon="5.72373">
        <ele>502</ele>
        <time>2010-05-09T07:02:58Z</time>
      </trkpt>
      <trkpt lat="45.25111" lon="5.72379">
        <ele>502</ele>
        <time>2010-05-09T07:02:59Z</time>
      </trkpt>
      <trkpt lat="45.25109" lon="5.72384">
        <ele>502</ele>
        <time>2010-05-09T07:03:00Z</time>
      </trkpt>
      <trkpt lat="45.25107" lon="5.72389">
        <ele>501</ele>
        <time>2010-05-09T07:03:01Z</time>
      </trkpt>
      <trkpt lat="45.25105" lon="5.72393">
        <ele>501</ele>
        <time>2010-05-09T07:03:02Z</time>
      </trkpt>
      <trkpt lat="45.25102" lon="5.72399">
        <ele>501</ele>
        <time>2010-05-09T07:03:03Z</time>
      </trkpt>
      <trkpt lat="45.251" lon="5.72403">
        <ele>500</ele>
        <time>2010-05-09T07:03:04Z</time>
      </trkpt>
      <trkpt lat="45.25098" lon="5.72408">
        <ele>500</ele>
        <time>2010-05-09T07:03:05Z</time>
      </trkpt>
      <trkpt lat="45.25095" lon="5.72413">
        <ele>500</ele>
        <time>2010-05-09T07:03:06Z</time>
      </trkpt>
      <trkpt lat="45.25093" lon="5.72418">
        <ele>499</ele>
        <time>2010-05-09T07:03:07Z</time>
      </trkpt>
      <trkpt lat="45.2509" lon="5.72422">
        <ele>499</ele>
        <time>2010-05-09T07:03:08Z</time>
      </trkpt>
      <trkpt lat="45.25088" lon="5.72426">
        <ele>499</ele>
        <time>2010-05-09T07:03:09Z</time>
      </trkpt>
      <trkpt lat="45.25084" lon="5.72429">
        <ele>499</ele>
        <time>2010-05-09T07:03:10Z</time>
      </trkpt>
      <trkpt lat="45.2508" lon="5.72431">
        <ele>499</ele>
        <time>2010-05-09T07:03:11Z</time>
      </trkpt>
      <trkpt lat="45.25076" lon="5.72432">
        <ele>499</ele>
        <time>2010-05-09T07:03:12Z</time>
      </trkpt>
      <trkpt lat="45.25071" lon="5.72431">
        <ele>499</ele>
        <time>2010-05-09T07:03:13Z</time>
      </trkpt>
      <trkpt lat="45.25067" lon="5.72428">
        <ele>499</ele>
        <time>2010-05-09T07:03:14Z</time>
      </trkpt>
      <trkpt lat="45.25064" lon="5.72425">
        <ele>499</ele>
        <time>2010-05-09T07:03:15Z</time>
      </trkpt>
      <trkpt lat="45.25062" lon="5.72422">
        <ele>498</ele>
        <time>2010-05-09T07:03:16Z</time>
      </trkpt>
      <trkpt lat="45.25062" lon="5.72416">
        <ele>498</ele>
        <time>2010-05-09T07:03:17Z</time>
      </trkpt>
      <trkpt lat="45.25062" lon="5.72409">
        <ele>497</ele>
        <time>2010-05-09T07:03:18Z</time>
      </trkpt>
      <trkpt lat="45.25063" lon="5.72403">
        <ele>497</ele>
        <time>2010-05-09T07:03:19Z</time>
      </trkpt>
      <trkpt lat="45.25064" lon="5.72397">
        <ele>496</ele>
        <time>2010-05-09T07:03:20Z</time>
      </trkpt>
      <trkpt lat="45.25065" lon="5.72392">
        <ele>495</ele>
        <time>2010-05-09T07:03:21Z</time>
      </trkpt>
      <trkpt lat="45.25066" lon="5.72386">
        <ele>494</ele>
        <time>2010-05-09T07:03:22Z</time>
      </trkpt>
      <trkpt lat="45.25066" lon="5.72379">
        <ele>493</ele>
        <time>2010-05-09T07:03:23Z</time>
      </trkpt>
      <trkpt lat="45.25067" lon="5.72372">
        <ele>492</ele>
        <time>2010-05-09T07:03:24Z</time>
      </trkpt>
      <trkpt lat="45.25068" lon="5.72366">
        <ele>491</ele>
        <time>2010-05-09T07:03:25Z</time>
      </trkpt>
      <trkpt lat="45.25068" lon="5.7236">
        <ele>490</ele>
        <time>2010-05-09T07:03:26Z</time>
      </trkpt>
      <trkpt lat="45.25069" lon="5.72354">
        <ele>490</ele>
        <time>2010-05-09T07:03:27Z</time>
      </trkpt>
      <trkpt lat="45.2507" lon="5.72349">
        <ele>489</ele>
        <time>2010-05-09T07:03:28Z</time>
      </trkpt>
      <trkpt lat="45.25071" lon="5.72342">
        <ele>489</ele>
        <time>2010-05-09T07:03:29Z</time>
      </trkpt>
      <trkpt lat="45.25071" lon="5.72336">
        <ele>488</ele>
        <time>2010-05-09T07:03:30Z</time>
      </trkpt>
      <trkpt lat="45.25071" lon="5.72331">
        <ele>488</ele>
        <time>2010-05-09T07:03:31Z</time>
      </trkpt>
      <trkpt lat="45.25071" lon="5.72326">
        <ele>487</ele>
        <time>2010-05-09T07:03:32Z</time>
      </trkpt>
      <trkpt lat="45.2507" lon="5.72321">
        <ele>487</ele>
        <time>2010-05-09T07:03:33Z</time>
      </trkpt>
      <trkpt lat="45.25069" lon="5.72315">
        <ele>487</ele>
        <time>2010-05-09T07:03:34Z</time>
      </trkpt>
      <trkpt lat="45.25067" lon="5.72309">
        <ele>487</ele>
        <time>2010-05-09T07:03:35Z</time>
      </trkpt>
      <trkpt lat="45.25065" lon="5.72304">
        <ele>487</ele>
        <time>2010-05-09T07:03:36Z</time>
      </trkpt>
      <trkpt lat="45.25064" lon="5.72298">
        <ele>487</ele>
        <time>2010-05-09T07:03:37Z</time>
      </trkpt>
      <trkpt lat="45.25062" lon="5.72293">
        <ele>487</ele>
        <time>2010-05-09T07:03:38Z</time>
      </trkpt>
      <trkpt lat="45.2506" lon="5.72287">
        <ele>487</ele>
        <time>2010-05-09T07:03:39Z</time>
      </trkpt>
      <trkpt lat="45.25058" lon="5.72281">
        <ele>487</ele>
        <time>2010-05-09T07:03:40Z</time>
      </trkpt>
      <trkpt lat="45.25057" lon="5.72274">
        <ele>487</ele>
        <time>2010-05-09T07:03:41Z</time>
      </trkpt>
      <trkpt lat="45.25057" lon="5.72269">
        <ele>487</ele>
        <time>2010-05-09T07:03:42Z</time>
      </trkpt>
      <trkpt lat="45.25057" lon="5.72263">
        <ele>487</ele>
        <time>2010-05-09T07:03:43Z</time>
      </trkpt>
      <trkpt lat="45.25057" lon="5.72256">
        <ele>487</ele>
        <time>2010-05-09T07:03:44Z</time>
      </trkpt>
      <trkpt lat="45.25057" lon="5.72249">
        <ele>487</ele>
        <time>2010-05-09T07:03:45Z</time>
      </trkpt>
      <trkpt lat="45.25057" lon="5.72242">
        <ele>487</ele>
        <time>2010-05-09T07:03:46Z</time>
      </trkpt>
      <trkpt lat="45.25058" lon="5.72235">
        <ele>487</ele>
        <time>2010-05-09T07:03:47Z</time>
      </trkpt>
      <trkpt lat="45.25058" lon="5.72229">
        <ele>487</ele>
        <time>2010-05-09T07:03:48Z</time>
      </trkpt>
      <trkpt lat="45.25058" lon="5.72223">
        <ele>487</ele>
        <time>2010-05-09T07:03:49Z</time>
      </trkpt>
      <trkpt lat="45.25059" lon="5.72216">
        <ele>487</ele>
        <time>2010-05-09T07:03:50Z</time>
      </trkpt>
      <trkpt lat="45.25059" lon="5.7221">
        <ele>487</ele>
        <time>2010-05-09T07:03:51Z</time>
      </trkpt>
      <trkpt lat="45.25059" lon="5.72204">
        <ele>487</ele>
        <time>2010-05-09T07:03:52Z</time>
      </trkpt>
      <trkpt lat="45.25059" lon="5.72198">
        <ele>487</ele>
        <time>2010-05-09T07:03:53Z</time>
      </trkpt>
      <trkpt lat="45.25059" lon="5.72192">
        <ele>487</ele>
        <time>2010-05-09T07:03:54Z</time>
      </trkpt>
      <trkpt lat="45.25059" lon="5.72186">
        <ele>487</ele>
        <time>2010-05-09T07:03:55Z</time>
      </trkpt>
      <trkpt lat="45.25058" lon="5.7218">
        <ele>487</ele>
        <time>2010-05-09T07:03:56Z</time>
      </trkpt>
      <trkpt lat="45.25056" lon="5.72174">
        <ele>487</ele>
        <time>2010-05-09T07:03:57Z</time>
      </trkpt>
      <trkpt lat="45.25055" lon="5.72169">
        <ele>487</ele>
        <time>2010-05-09T07:03:58Z</time>
      </trkpt>
      <trkpt lat="45.25052" lon="5.72165">
        <ele>486</ele>
        <time>2010-05-09T07:03:59Z</time>
      </trkpt>
      <trkpt lat="45.25048" lon="5.72161">
        <ele>486</ele>
        <time>2010-05-09T07:04:00Z</time>
      </trkpt>
      <trkpt lat="45.25045" lon="5.72157">
        <ele>485</ele>
        <time>2010-05-09T07:04:01Z</time>
      </trkpt>
      <trkpt lat="45.25042" lon="5.72154">
        <ele>485</ele>
        <time>2010-05-09T07:04:02Z</time>
      </trkpt>
      <trkpt lat="45.25038" lon="5.72152">
        <ele>485</ele>
        <time>2010-05-09T07:04:03Z</time>
      </trkpt>
      <trkpt lat="45.25034" lon="5.72151">
        <ele>484</ele>
        <time>2010-05-09T07:04:04Z</time>
      </trkpt>
      <trkpt lat="45.25031" lon="5.7215">
        <ele>483</ele>
        <time>2010-05-09T07:04:05Z</time>
      </trkpt>
      <trkpt lat="45.25028" lon="5.7215">
        <ele>483</ele>
        <time>2010-05-09T07:04:06Z</time>
      </trkpt>
      <trkpt lat="45.25026" lon="5.72153">
        <ele>482</ele>
        <time>2010-05-09T07:04:07Z</time>
      </trkpt>
      <trkpt lat="45.25023" lon="5.72157">
        <ele>481</ele>
        <time>2010-05-09T07:04:08Z</time>
      </trkpt>
      <trkpt lat="45.25021" lon="5.72163">
        <ele>480</ele>
        <time>2010-05-09T07:04:09Z</time>
      </trkpt>
      <trkpt lat="45.2502" lon="5.72169">
        <ele>479</ele>
        <time>2010-05-09T07:04:10Z</time>
      </trkpt>
      <trkpt lat="45.25019" lon="5.72177">
        <ele>478</ele>
        <time>2010-05-09T07:04:11Z</time>
      </trkpt>
      <trkpt lat="45.25019" lon="5.72184">
        <ele>477</ele>
        <time>2010-05-09T07:04:12Z</time>
      </trkpt>
      <trkpt lat="45.25019" lon="5.7219">
        <ele>476</ele>
        <time>2010-05-09T07:04:13Z</time>
      </trkpt>
      <trkpt lat="45.25019" lon="5.72196">
        <ele>476</ele>
        <time>2010-05-09T07:04:14Z</time>
      </trkpt>
      <trkpt lat="45.2502" lon="5.72202">
        <ele>475</ele>
        <time>2010-05-09T07:04:15Z</time>
      </trkpt>
      <trkpt lat="45.25021" lon="5.72208">
        <ele>475</ele>
        <time>2010-05-09T07:04:16Z</time>
      </trkpt>
      <trkpt lat="45.25022" lon="5.72214">
        <ele>474</ele>
        <time>2010-05-09T07:04:17Z</time>
      </trkpt>
      <trkpt lat="45.25023" lon="5.7222">
        <ele>474</ele>
        <time>2010-05-09T07:04:18Z</time>
      </trkpt>
      <trkpt lat="45.25024" lon="5.72226">
        <ele>474</ele>
        <time>2010-05-09T07:04:19Z</time>
      </trkpt>
      <trkpt lat="45.25024" lon="5.72231">
        <ele>474</ele>
        <time>2010-05-09T07:04:20Z</time>
      </trkpt>
      <trkpt lat="45.25024" lon="5.72236">
        <ele>473</ele>
        <time>2010-05-09T07:04:21Z</time>
      </trkpt>
      <trkpt lat="45.25024" lon="5.72241">
        <ele>473</ele>
        <time>2010-05-09T07:04:22Z</time>
      </trkpt>
      <trkpt lat="45.25024" lon="5.72248">
        <ele>473</ele>
        <time>2010-05-09T07:04:23Z</time>
      </trkpt>
      <trkpt lat="45.25024" lon="5.72254">
        <ele>472</ele>
        <time>2010-05-09T07:04:24Z</time>
      </trkpt>
      <trkpt lat="45.25024" lon="5.72259">
        <ele>471</ele>
        <time>2010-05-09T07:04:25Z</time>
      </trkpt>
      <trkpt lat="45.25023" lon="5.72264">
        <ele>471</ele>
        <time>2010-05-09T07:04:26Z</time>
      </trkpt>
      <trkpt lat="45.25023" lon="5.7227">
        <ele>470</ele>
        <time>2010-05-09T07:04:27Z</time>
      </trkpt>
      <trkpt lat="45.25023" lon="5.72276">
        <ele>470</ele>
        <time>2010-05-09T07:04:28Z</time>
      </trkpt>
      <trkpt lat="45.25022" lon="5.72283">
        <ele>470</ele>
        <time>2010-05-09T07:04:29Z</time>
      </trkpt>
      <trkpt lat="45.25022" lon="5.72289">
        <ele>470</ele>
        <time>2010-05-09T07:04:30Z</time>
      </trkpt>
      <trkpt lat="45.25022" lon="5.72295">
        <ele>470</ele>
        <time>2010-05-09T07:04:31Z</time>
      </trkpt>
      <trkpt lat="45.25023" lon="5.723">
        <ele>470</ele>
        <time>2010-05-09T07:04:32Z</time>
      </trkpt>
      <trkpt lat="45.25023" lon="5.72305">
        <ele>470</ele>
        <time>2010-05-09T07:04:33Z</time>
      </trkpt>
      <trkpt lat="45.25022" lon="5.7231">
        <ele>470</ele>
        <time>2010-05-09T07:04:34Z</time>
      </trkpt>
      <trkpt lat="45.25021" lon="5.72315">
        <ele>470</ele>
        <time>2010-05-09T07:04:35Z</time>
      </trkpt>
      <trkpt lat="45.2502" lon="5.7232">
        <ele>470</ele>
        <time>2010-05-09T07:04:36Z</time>
      </trkpt>
      <trkpt lat="45.25019" lon="5.72326">
        <ele>470</ele>
        <time>2010-05-09T07:04:37Z</time>
      </trkpt>
      <trkpt lat="45.25017" lon="5.72331">
        <ele>470</ele>
        <time>2010-05-09T07:04:38Z</time>
      </trkpt>
      <trkpt lat="45.25015" lon="5.72336">
        <ele>470</ele>
        <time>2010-05-09T07:04:39Z</time>
      </trkpt>
      <trkpt lat="45.25012" lon="5.72342">
        <ele>470</ele>
        <time>2010-05-09T07:04:40Z</time>
      </trkpt>
      <trkpt lat="45.2501" lon="5.72347">
        <ele>470</ele>
        <time>2010-05-09T07:04:41Z</time>
      </trkpt>
      <trkpt lat="45.25008" lon="5.72353">
        <ele>470</ele>
        <time>2010-05-09T07:04:42Z</time>
      </trkpt>
      <trkpt lat="45.25007" lon="5.7236">
        <ele>470</ele>
        <time>2010-05-09T07:04:43Z</time>
      </trkpt>
      <trkpt lat="45.25005" lon="5.72365">
        <ele>470</ele>
        <time>2010-05-09T07:04:44Z</time>
      </trkpt>
      <trkpt lat="45.25003" lon="5.7237">
        <ele>470</ele>
        <time>2010-05-09T07:04:45Z</time>
      </trkpt>
      <trkpt lat="45.25" lon="5.72375">
        <ele>470</ele>
        <time>2010-05-09T07:04:46Z</time>
      </trkpt>
      <trkpt lat="45.24997" lon="5.7238">
        <ele>470</ele>
        <time>2010-05-09T07:04:47Z</time>
      </trkpt>
      <trkpt lat="45.24995" lon="5.72385">
        <ele>470</ele>
        <time>2010-05-09T07:04:48Z</time>
      </trkpt>
      <trkpt lat="45.24992" lon="5.72389">
        <ele>470</ele>
        <time>2010-05-09T07:04:49Z</time>
      </trkpt>
      <trkpt lat="45.24989" lon="5.72395">
        <ele>470</ele>
        <time>2010-05-09T07:04:50Z</time>
      </trkpt>
      <trkpt lat="45.24985" lon="5.72401">
        <ele>470</ele>
        <time>2010-05-09T07:04:51Z</time>
      </trkpt>
      <trkpt lat="45.24982" lon="5.72405">
        <ele>470</ele>
        <time>2010-05-09T07:04:52Z</time>
      </trkpt>
      <trkpt lat="45.24978" lon="5.7241">
        <ele>469</ele>
        <time>2010-05-09T07:04:53Z</time>
      </trkpt>
      <trkpt lat="45.24975" lon="5.72414">
        <ele>468</ele>
        <time>2010-05-09T07:04:54Z</time>
      </trkpt>
      <trkpt lat="45.24972" lon="5.72417">
        <ele>467</ele>
        <time>2010-05-09T07:04:55Z</time>
      </trkpt>
      <trkpt lat="45.24969" lon="5.7242">
        <ele>466</ele>
        <time>2010-05-09T07:04:56Z</time>
      </trkpt>
      <trkpt lat="45.24966" lon="5.72423">
        <ele>465</ele>
        <time>2010-05-09T07:04:57Z</time>
      </trkpt>
      <trkpt lat="45.24964" lon="5.72427">
        <ele>465</ele>
        <time>2010-05-09T07:04:58Z</time>
      </trkpt>
      <trkpt lat="45.24962" lon="5.72431">
        <ele>465</ele>
        <time>2010-05-09T07:04:59Z</time>
      </trkpt>
      <trkpt lat="45.24961" lon="5.72435">
        <ele>465</ele>
        <time>2010-05-09T07:05:00Z</time>
      </trkpt>
      <trkpt lat="45.24961" lon="5.7244">
        <ele>465</ele>
        <time>2010-05-09T07:05:01Z</time>
      </trkpt>
      <trkpt lat="45.24961" lon="5.72445">
        <ele>465</ele>
        <time>2010-05-09T07:05:02Z</time>
      </trkpt>
      <trkpt lat="45.24961" lon="5.72451">
        <ele>465</ele>
        <time>2010-05-09T07:05:03Z</time>
      </trkpt>
      <trkpt lat="45.24961" lon="5.72457">
        <ele>465</ele>
        <time>2010-05-09T07:05:04Z</time>
      </trkpt>
      <trkpt lat="45.24961" lon="5.72465">
        <ele>465</ele>
        <time>2010-05-09T07:05:05Z</time>
      </trkpt>
      <trkpt lat="45.24962" lon="5.72472">
        <ele>465</ele>
        <time>2010-05-09T07:05:06Z</time>
      </trkpt>
      <trkpt lat="45.24961" lon="5.72478">
        <ele>465</ele>
        <time>2010-05-09T07:05:07Z</time>
      </trkpt>
      <trkpt lat="45.24961" lon="5.72484">
        <ele>464</ele>
        <time>2010-05-09T07:05:08Z</time>
      </trkpt>
      <trkpt lat="45.2496" lon="5.7249">
        <ele>463</ele>
        <time>2010-05-09T07:05:09Z</time>
      </trkpt>
      <trkpt lat="45.24959" lon="5.72495">
        <ele>462</ele>
        <time>2010-05-09T07:05:10Z</time>
      </trkpt>
      <trkpt lat="45.24958" lon="5.72501">
        <ele>461</ele>
        <time>2010-05-09T07:05:11Z</time>
      </trkpt>
      <trkpt lat="45.24956" lon="5.72508">
        <ele>460</ele>
        <time>2010-05-09T07:05:12Z</time>
      </trkpt>
      <trkpt lat="45.24955" lon="5.72514">
        <ele>459</ele>
        <time>2010-05-09T07:05:13Z</time>
      </trkpt>
      <trkpt lat="45.24955" lon="5.7252">
        <ele>458</ele>
        <time>2010-05-09T07:05:14Z</time>
      </trkpt>
      <trkpt lat="45.24953" lon="5.72527">
        <ele>457</ele>
        <time>2010-05-09T07:05:15Z</time>
      </trkpt>
      <trkpt lat="45.24952" lon="5.72533">
        <ele>456</ele>
        <time>2010-05-09T07:05:16Z</time>
      </trkpt>
      <trkpt lat="45.24951" lon="5.72539">
        <ele>455</ele>
        <time>2010-05-09T07:05:17Z</time>
      </trkpt>
      <trkpt lat="45.2495" lon="5.72545">
        <ele>454</ele>
        <time>2010-05-09T07:05:18Z</time>
      </trkpt>
      <trkpt lat="45.2495" lon="5.72552">
        <ele>453</ele>
        <time>2010-05-09T07:05:19Z</time>
      </trkpt>
      <trkpt lat="45.2495" lon="5.72558">
        <ele>453</ele>
        <time>2010-05-09T07:05:20Z</time>
      </trkpt>
      <trkpt lat="45.2495" lon="5.72564">
        <ele>453</ele>
        <time>2010-05-09T07:05:21Z</time>
      </trkpt>
      <trkpt lat="45.24951" lon="5.72569">
        <ele>452</ele>
        <time>2010-05-09T07:05:22Z</time>
      </trkpt>
      <trkpt lat="45.24952" lon="5.72575">
        <ele>452</ele>
        <time>2010-05-09T07:05:23Z</time>
      </trkpt>
      <trkpt lat="45.24951" lon="5.7258">
        <ele>452</ele>
        <time>2010-05-09T07:05:24Z</time>
      </trkpt>
      <trkpt lat="45.2495" lon="5.72585">
        <ele>452</ele>
        <time>2010-05-09T07:05:25Z</time>
      </trkpt>
      <trkpt lat="45.24947" lon="5.7259">
        <ele>452</ele>
        <time>2010-05-09T07:05:26Z</time>
      </trkpt>
      <trkpt lat="45.24944" lon="5.72593">
        <ele>452</ele>
        <time>2010-05-09T07:05:27Z</time>
      </trkpt>
      <trkpt lat="45.24941" lon="5.72597">
        <ele>452</ele>
        <time>2010-05-09T07:05:28Z</time>
      </trkpt>
      <trkpt lat="45.24937" lon="5.72598">
        <ele>452</ele>
        <time>2010-05-09T07:05:29Z</time>
      </trkpt>
      <trkpt lat="45.24934" lon="5.726">
        <ele>452</ele>
        <time>2010-05-09T07:05:30Z</time>
      </trkpt>
      <trkpt lat="45.2493" lon="5.72601">
        <ele>452</ele>
        <time>2010-05-09T07:05:31Z</time>
      </trkpt>
      <trkpt lat="45.24926" lon="5.726">
        <ele>452</ele>
        <time>2010-05-09T07:05:32Z</time>
      </trkpt>
      <trkpt lat="45.24924" lon="5.72599">
        <ele>452</ele>
        <time>2010-05-09T07:05:33Z</time>
      </trkpt>
      <trkpt lat="45.24921" lon="5.72595">
        <ele>452</ele>
        <time>2010-05-09T07:05:34Z</time>
      </trkpt>
      <trkpt lat="45.24918" lon="5.72591">
        <ele>452</ele>
        <time>2010-05-09T07:05:35Z</time>
      </trkpt>
      <trkpt lat="45.24916" lon="5.72587">
        <ele>452</ele>
        <time>2010-05-09T07:05:36Z</time>
      </trkpt>
      <trkpt lat="45.24914" lon="5.72582">
        <ele>452</ele>
        <time>2010-05-09T07:05:37Z</time>
      </trkpt>
      <trkpt lat="45.24913" lon="5.72577">
        <ele>451</ele>
        <time>2010-05-09T07:05:38Z</time>
      </trkpt>
      <trkpt lat="45.24911" lon="5.72572">
        <ele>451</ele>
        <time>2010-05-09T07:05:39Z</time>
      </trkpt>
      <trkpt lat="45.2491" lon="5.72567">
        <ele>451</ele>
        <time>2010-05-09T07:05:40Z</time>
      </trkpt>
      <trkpt lat="45.24909" lon="5.72563">
        <ele>451</ele>
        <time>2010-05-09T07:05:41Z</time>
      </trkpt>
      <trkpt lat="45.24908" lon="5.72558">
        <ele>451</ele>
        <time>2010-05-09T07:05:42Z</time>
      </trkpt>
      <trkpt lat="45.24906" lon="5.72553">
        <ele>451</ele>
        <time>2010-05-09T07:05:43Z</time>
      </trkpt>
      <trkpt lat="45.24905" lon="5.72549">
        <ele>451</ele>
        <time>2010-05-09T07:05:44Z</time>
      </trkpt>
      <trkpt lat="45.24904" lon="5.72545">
        <ele>450</ele>
        <time>2010-05-09T07:05:45Z</time>
      </trkpt>
      <trkpt lat="45.24903" lon="5.7254">
        <ele>450</ele>
        <time>2010-05-09T07:05:46Z</time>
      </trkpt>
      <trkpt lat="45.24901" lon="5.72535">
        <ele>450</ele>
        <time>2010-05-09T07:05:47Z</time>
      </trkpt>
      <trkpt lat="45.24899" lon="5.7253">
        <ele>450</ele>
        <time>2010-05-09T07:05:48Z</time>
      </trkpt>
      <trkpt lat="45.24897" lon="5.72526">
        <ele>450</ele>
        <time>2010-05-09T07:05:49Z</time>
      </trkpt>
      <trkpt lat="45.24896" lon="5.72523">
        <ele>450</ele>
        <time>2010-05-09T07:05:50Z</time>
      </trkpt>
      <trkpt lat="45.24894" lon="5.72519">
        <ele>449</ele>
        <time>2010-05-09T07:05:51Z</time>
      </trkpt>
      <trkpt lat="45.24892" lon="5.72516">
        <ele>449</ele>
        <time>2010-05-09T07:05:52Z</time>
      </trkpt>
      <trkpt lat="45.2489" lon="5.72512">
        <ele>449</ele>
        <time>2010-05-09T07:05:53Z</time>
      </trkpt>
      <trkpt lat="45.24888" lon="5.72508">
        <ele>449</ele>
        <time>2010-05-09T07:05:54Z</time>
      </trkpt>
      <trkpt lat="45.24886" lon="5.72506">
        <ele>449</ele>
        <time>2010-05-09T07:05:55Z</time>
      </trkpt>
      <trkpt lat="45.24883" lon="5.72502">
        <ele>449</ele>
        <time>2010-05-09T07:05:56Z</time>
      </trkpt>
      <trkpt lat="45.24881" lon="5.72498">
        <ele>449</ele>
        <time>2010-05-09T07:05:57Z</time>
      </trkpt>
      <trkpt lat="45.24878" lon="5.72494">
        <ele>449</ele>
        <time>2010-05-09T07:05:58Z</time>
      </trkpt>
      <trkpt lat="45.24876" lon="5.7249">
        <ele>449</ele>
        <time>2010-05-09T07:05:59Z</time>
      </trkpt>
      <trkpt lat="45.24873" lon="5.72486">
        <ele>449</ele>
        <time>2010-05-09T07:06:00Z</time>
      </trkpt>
      <trkpt lat="45.24871" lon="5.72482">
        <ele>449</ele>
        <time>2010-05-09T07:06:01Z</time>
      </trkpt>
      <trkpt lat="45.24869" lon="5.72478">
        <ele>449</ele>
        <time>2010-05-09T07:06:02Z</time>
      </trkpt>
      <trkpt lat="45.24868" lon="5.72474">
        <ele>449</ele>
        <time>2010-05-09T07:06:03Z</time>
      </trkpt>
      <trkpt lat="45.24866" lon="5.72471">
        <ele>449</ele>
        <time>2010-05-09T07:06:04Z</time>
      </trkpt>
      <trkpt lat="45.24864" lon="5.72467">
        <ele>449</ele>
        <time>2010-05-09T07:06:05Z</time>
      </trkpt>
      <trkpt lat="45.24862" lon="5.72462">
        <ele>449</ele>
        <time>2010-05-09T07:06:06Z</time>
      </trkpt>
      <trkpt lat="45.2486" lon="5.72457">
        <ele>449</ele>
        <time>2010-05-09T07:06:07Z</time>
      </trkpt>
      <trkpt lat="45.24858" lon="5.72453">
        <ele>449</ele>
        <time>2010-05-09T07:06:08Z</time>
      </trkpt>
      <trkpt lat="45.24857" lon="5.7245">
        <ele>449</ele>
        <time>2010-05-09T07:06:09Z</time>
      </trkpt>
      <trkpt lat="45.24855" lon="5.72446">
        <ele>450</ele>
        <time>2010-05-09T07:06:10Z</time>
      </trkpt>
      <trkpt lat="45.24853" lon="5.72441">
        <ele>450</ele>
        <time>2010-05-09T07:06:11Z</time>
      </trkpt>
      <trkpt lat="45.24852" lon="5.72437">
        <ele>451</ele>
        <time>2010-05-09T07:06:12Z</time>
      </trkpt>
      <trkpt lat="45.2485" lon="5.72434">
        <ele>451</ele>
        <time>2010-05-09T07:06:13Z</time>
      </trkpt>
      <trkpt lat="45.24849" lon="5.7243">
        <ele>451</ele>
        <time>2010-05-09T07:06:14Z</time>
      </trkpt>
      <trkpt lat="45.24847" lon="5.72427">
        <ele>452</ele>
        <time>2010-05-09T07:06:15Z</time>
      </trkpt>
      <trkpt lat="45.24846" lon="5.72423">
        <ele>452</ele>
        <time>2010-05-09T07:06:16Z</time>
      </trkpt>
      <trkpt lat="45.24845" lon="5.7242">
        <ele>452</ele>
        <time>2010-05-09T07:06:17Z</time>
      </trkpt>
      <trkpt lat="45.24844" lon="5.72416">
        <ele>453</ele>
        <time>2010-05-09T07:06:18Z</time>
      </trkpt>
      <trkpt lat="45.24842" lon="5.72412">
        <ele>453</ele>
        <time>2010-05-09T07:06:19Z</time>
      </trkpt>
      <trkpt lat="45.24841" lon="5.72409">
        <ele>454</ele>
        <time>2010-05-09T07:06:20Z</time>
      </trkpt>
      <trkpt lat="45.24841" lon="5.72406">
        <ele>454</ele>
        <time>2010-05-09T07:06:21Z</time>
      </trkpt>
      <trkpt lat="45.24839" lon="5.72402">
        <ele>454</ele>
        <time>2010-05-09T07:06:22Z</time>
      </trkpt>
      <trkpt lat="45.24838" lon="5.72398">
        <ele>455</ele>
        <time>2010-05-09T07:06:23Z</time>
      </trkpt>
      <trkpt lat="45.24837" lon="5.72394">
        <ele>456</ele>
        <time>2010-05-09T07:06:24Z</time>
      </trkpt>
      <trkpt lat="45.24836" lon="5.7239">
        <ele>456</ele>
        <time>2010-05-09T07:06:25Z</time>
      </trkpt>
      <trkpt lat="45.24834" lon="5.72386">
        <ele>457</ele>
        <time>2010-05-09T07:06:26Z</time>
      </trkpt>
      <trkpt lat="45.24833" lon="5.72381">
        <ele>458</ele>
        <time>2010-05-09T07:06:27Z</time>
      </trkpt>
      <trkpt lat="45.24831" lon="5.72377">
        <ele>458</ele>
        <time>2010-05-09T07:06:28Z</time>
      </trkpt>
      <trkpt lat="45.2483" lon="5.72373">
        <ele>458</ele>
        <time>2010-05-09T07:06:29Z</time>
      </trkpt>
      <trkpt lat="45.24828" lon="5.72369">
        <ele>459</ele>
        <time>2010-05-09T07:06:30Z</time>
      </trkpt>
      <trkpt lat="45.24826" lon="5.72366">
        <ele>459</ele>
        <time>2010-05-09T07:06:31Z</time>
      </trkpt>
      <trkpt lat="45.24825" lon="5.72362">
        <ele>459</ele>
        <time>2010-05-09T07:06:32Z</time>
      </trkpt>
      <trkpt lat="45.24824" lon="5.72357">
        <ele>459</ele>
        <time>2010-05-09T07:06:33Z</time>
      </trkpt>
      <trkpt lat="45.24822" lon="5.72352">
        <ele>460</ele>
        <time>2010-05-09T07:06:34Z</time>
      </trkpt>
      <trkpt lat="45.2482" lon="5.72348">
        <ele>460</ele>
        <time>2010-05-09T07:06:35Z</time>
      </trkpt>
      <trkpt lat="45.24819" lon="5.72345">
        <ele>460</ele>
        <time>2010-05-09T07:06:36Z</time>
      </trkpt>
      <trkpt lat="45.24817" lon="5.72342">
        <ele>460</ele>
        <time>2010-05-09T07:06:37Z</time>
      </trkpt>
      <trkpt lat="45.24814" lon="5.72339">
        <ele>460</ele>
        <time>2010-05-09T07:06:38Z</time>
      </trkpt>
      <trkpt lat="45.24812" lon="5.72336">
        <ele>460</ele>
        <time>2010-05-09T07:06:39Z</time>
      </trkpt>
      <trkpt lat="45.2481" lon="5.72333">
        <ele>461</ele>
        <time>2010-05-09T07:06:40Z</time>
      </trkpt>
      <trkpt lat="45.24809" lon="5.7233">
        <ele>461</ele>
        <time>2010-05-09T07:06:41Z</time>
      </trkpt>
      <trkpt lat="45.24806" lon="5.72326">
        <ele>461</ele>
        <time>2010-05-09T07:06:42Z</time>
      </trkpt>
      <trkpt lat="45.24804" lon="5.72322">
        <ele>461</ele>
        <time>2010-05-09T07:06:43Z</time>
      </trkpt>
      <trkpt lat="45.24803" lon="5.72319">
        <ele>461</ele>
        <time>2010-05-09T07:06:44Z</time>
      </trkpt>
      <trkpt lat="45.24801" lon="5.72317">
        <ele>461</ele>
        <time>2010-05-09T07:06:45Z</time>
      </trkpt>
      <trkpt lat="45.24799" lon="5.72314">
        <ele>461</ele>
        <time>2010-05-09T07:06:46Z</time>
      </trkpt>
      <trkpt lat="45.24797" lon="5.72311">
        <ele>462</ele>
        <time>2010-05-09T07:06:47Z</time>
      </trkpt>
      <trkpt lat="45.24795" lon="5.72308">
        <ele>462</ele>
        <time>2010-05-09T07:06:48Z</time>
      </trkpt>
      <trkpt lat="45.24792" lon="5.72305">
        <ele>462</ele>
        <time>2010-05-09T07:06:49Z</time>
      </trkpt>
      <trkpt lat="45.2479" lon="5.72302">
        <ele>462</ele>
        <time>2010-05-09T07:06:50Z</time>
      </trkpt>
      <trkpt lat="45.24787" lon="5.72299">
        <ele>463</ele>
        <time>2010-05-09T07:06:51Z</time>
      </trkpt>
      <trkpt lat="45.24784" lon="5.72296">
        <ele>463</ele>
        <time>2010-05-09T07:06:52Z</time>
      </trkpt>
      <trkpt lat="45.24782" lon="5.72295">
        <ele>463</ele>
        <time>2010-05-09T07:06:53Z</time>
      </trkpt>
      <trkpt lat="45.24779" lon="5.72294">
        <ele>463</ele>
        <time>2010-05-09T07:06:54Z</time>
      </trkpt>
      <trkpt lat="45.24776" lon="5.72292">
        <ele>463</ele>
        <time>2010-05-09T07:06:55Z</time>
      </trkpt>
      <trkpt lat="45.24773" lon="5.7229">
        <ele>463</ele>
        <time>2010-05-09T07:06:56Z</time>
      </trkpt>
      <trkpt lat="45.2477" lon="5.72289">
        <ele>463</ele>
        <time>2010-05-09T07:06:57Z</time>
      </trkpt>
      <trkpt lat="45.24767" lon="5.72287">
        <ele>463</ele>
        <time>2010-05-09T07:06:58Z</time>
      </trkpt>
      <trkpt lat="45.24764" lon="5.72286">
        <ele>463</ele>
        <time>2010-05-09T07:06:59Z</time>
      </trkpt>
      <trkpt lat="45.2476" lon="5.72284">
        <ele>463</ele>
        <time>2010-05-09T07:07:00Z</time>
      </trkpt>
      <trkpt lat="45.24757" lon="5.72281">
        <ele>463</ele>
        <time>2010-05-09T07:07:01Z</time>
      </trkpt>
      <trkpt lat="45.24755" lon="5.72278">
        <ele>463</ele>
        <time>2010-05-09T07:07:02Z</time>
      </trkpt>
      <trkpt lat="45.24752" lon="5.72274">
        <ele>463</ele>
        <time>2010-05-09T07:07:03Z</time>
      </trkpt>
      <trkpt lat="45.2475" lon="5.7227">
        <ele>463</ele>
        <time>2010-05-09T07:07:04Z</time>
      </trkpt>
      <trkpt lat="45.24748" lon="5.72265">
        <ele>463</ele>
        <time>2010-05-09T07:07:05Z</time>
      </trkpt>
      <trkpt lat="45.24747" lon="5.7226">
        <ele>463</ele>
        <time>2010-05-09T07:07:06Z</time>
      </trkpt>
      <trkpt lat="45.24746" lon="5.72254">
        <ele>463</ele>
        <time>2010-05-09T07:07:07Z</time>
      </trkpt>
      <trkpt lat="45.24747" lon="5.72249">
        <ele>463</ele>
        <time>2010-05-09T07:07:08Z</time>
      </trkpt>
      <trkpt lat="45.24748" lon="5.72244">
        <ele>463</ele>
        <time>2010-05-09T07:07:09Z</time>
      </trkpt>
      <trkpt lat="45.24749" lon="5.7224">
        <ele>463</ele>
        <time>2010-05-09T07:07:10Z</time>
      </trkpt>
      <trkpt lat="45.24751" lon="5.72235">
        <ele>463</ele>
        <time>2010-05-09T07:07:11Z</time>
      </trkpt>
      <trkpt lat="45.24752" lon="5.72231">
        <ele>463</ele>
        <time>2010-05-09T07:07:12Z</time>
      </trkpt>
      <trkpt lat="45.24753" lon="5.72226">
        <ele>463</ele>
        <time>2010-05-09T07:07:13Z</time>
      </trkpt>
      <trkpt lat="45.24754" lon="5.72222">
        <ele>463</ele>
        <time>2010-05-09T07:07:14Z</time>
      </trkpt>
      <trkpt lat="45.24754" lon="5.72218">
        <ele>463</ele>
        <time>2010-05-09T07:07:15Z</time>
      </trkpt>
      <trkpt lat="45.24754" lon="5.72213">
        <ele>463</ele>
        <time>2010-05-09T07:07:16Z</time>
      </trkpt>
      <trkpt lat="45.24754" lon="5.72209">
        <ele>463</ele>
        <time>2010-05-09T07:07:17Z</time>
      </trkpt>
      <trkpt lat="45.24754" lon="5.72204">
        <ele>463</ele>
        <time>2010-05-09T07:07:18Z</time>
      </trkpt>
      <trkpt lat="45.24753" lon="5.722">
        <ele>463</ele>
        <time>2010-05-09T07:07:19Z</time>
      </trkpt>
      <trkpt lat="45.24752" lon="5.72196">
        <ele>463</ele>
        <time>2010-05-09T07:07:20Z</time>
      </trkpt>
      <trkpt lat="45.24752" lon="5.72192">
        <ele>463</ele>
        <time>2010-05-09T07:07:21Z</time>
      </trkpt>
      <trkpt lat="45.24751" lon="5.72188">
        <ele>463</ele>
        <time>2010-05-09T07:07:22Z</time>
      </trkpt>
      <trkpt lat="45.2475" lon="5.72184">
        <ele>463</ele>
        <time>2010-05-09T07:07:23Z</time>
      </trkpt>
      <trkpt lat="45.24749" lon="5.7218">
        <ele>463</ele>
        <time>2010-05-09T07:07:24Z</time>
      </trkpt>
      <trkpt lat="45.24748" lon="5.72175">
        <ele>463</ele>
        <time>2010-05-09T07:07:25Z</time>
      </trkpt>
      <trkpt lat="45.24747" lon="5.72171">
        <ele>463</ele>
        <time>2010-05-09T07:07:26Z</time>
      </trkpt>
      <trkpt lat="45.24746" lon="5.72167">
        <ele>463</ele>
        <time>2010-05-09T07:07:27Z</time>
      </trkpt>
      <trkpt lat="45.24746" lon="5.72163">
        <ele>464</ele>
        <time>2010-05-09T07:07:28Z</time>
      </trkpt>
      <trkpt lat="45.24745" lon="5.72159">
        <ele>464</ele>
        <time>2010-05-09T07:07:29Z</time>
      </trkpt>
      <trkpt lat="45.24744" lon="5.72155">
        <ele>464</ele>
        <time>2010-05-09T07:07:30Z</time>
      </trkpt>
      <trkpt lat="45.24743" lon="5.72151">
        <ele>464</ele>
        <time>2010-05-09T07:07:31Z</time>
      </trkpt>
      <trkpt lat="45.24742" lon="5.72147">
        <ele>465</ele>
        <time>2010-05-09T07:07:32Z</time>
      </trkpt>
      <trkpt lat="45.24741" lon="5.72144">
        <ele>465</ele>
        <time>2010-05-09T07:07:33Z</time>
      </trkpt>
      <trkpt lat="45.2474" lon="5.7214">
        <ele>465</ele>
        <time>2010-05-09T07:07:34Z</time>
      </trkpt>
      <trkpt lat="45.24739" lon="5.72135">
        <ele>466</ele>
        <time>2010-05-09T07:07:35Z</time>
      </trkpt>
      <trkpt lat="45.24738" lon="5.72131">
        <ele>466</ele>
        <time>2010-05-09T07:07:36Z</time>
      </trkpt>
      <trkpt lat="45.24737" lon="5.72127">
        <ele>466</ele>
        <time>2010-05-09T07:07:37Z</time>
      </trkpt>
      <trkpt lat="45.24736" lon="5.72122">
        <ele>466</ele>
        <time>2010-05-09T07:07:38Z</time>
      </trkpt>
      <trkpt lat="45.24735" lon="5.72118">
        <ele>467</ele>
        <time>2010-05-09T07:07:39Z</time>
      </trkpt>
      <trkpt lat="45.24734" lon="5.72114">
        <ele>467</ele>
        <time>2010-05-09T07:07:40Z</time>
      </trkpt>
      <trkpt lat="45.24733" lon="5.72111">
        <ele>467</ele>
        <time>2010-05-09T07:07:41Z</time>
      </trkpt>
      <trkpt lat="45.24731" lon="5.72107">
        <ele>467</ele>
        <time>2010-05-09T07:07:42Z</time>
      </trkpt>
      <trkpt lat="45.2473" lon="5.72103">
        <ele>468</ele>
        <time>2010-05-09T07:07:43Z</time>
      </trkpt>
      <trkpt lat="45.24729" lon="5.72099">
        <ele>468</ele>
        <time>2010-05-09T07:07:44Z</time>
      </trkpt>
      <trkpt lat="45.24727" lon="5.72095">
        <ele>468</ele>
        <time>2010-05-09T07:07:45Z</time>
      </trkpt>
      <trkpt lat="45.24726" lon="5.72092">
        <ele>468</ele>
        <time>2010-05-09T07:07:46Z</time>
      </trkpt>
      <trkpt lat="45.24725" lon="5.72088">
        <ele>468</ele>
        <time>2010-05-09T07:07:47Z</time>
      </trkpt>
      <trkpt lat="45.24723" lon="5.72085">
        <ele>468</ele>
        <time>2010-05-09T07:07:48Z</time>
      </trkpt>
      <trkpt lat="45.24722" lon="5.72081">
        <ele>468</ele>
        <time>2010-05-09T07:07:49Z</time>
      </trkpt>
      <trkpt lat="45.24721" lon="5.72077">
        <ele>468</ele>
        <time>2010-05-09T07:07:50Z</time>
      </trkpt>
      <trkpt lat="45.2472" lon="5.72073">
        <ele>468</ele>
        <time>2010-05-09T07:07:51Z</time>
      </trkpt>
      <trkpt lat="45.2472" lon="5.72069">
        <ele>468</ele>
        <time>2010-05-09T07:07:52Z</time>
      </trkpt>
      <trkpt lat="45.24718" lon="5.72065">
        <ele>468</ele>
        <time>2010-05-09T07:07:53Z</time>
      </trkpt>
      <trkpt lat="45.24717" lon="5.72061">
        <ele>468</ele>
        <time>2010-05-09T07:07:54Z</time>
      </trkpt>
      <trkpt lat="45.24716" lon="5.72057">
        <ele>468</ele>
        <time>2010-05-09T07:07:55Z</time>
      </trkpt>
      <trkpt lat="45.24715" lon="5.72052">
        <ele>468</ele>
        <time>2010-05-09T07:07:56Z</time>
      </trkpt>
      <trkpt lat="45.24715" lon="5.72048">
        <ele>468</ele>
        <time>2010-05-09T07:07:57Z</time>
      </trkpt>
      <trkpt lat="45.24714" lon="5.72043">
        <ele>469</ele>
        <time>2010-05-09T07:07:58Z</time>
      </trkpt>
      <trkpt lat="45.24714" lon="5.72039">
        <ele>469</ele>
        <time>2010-05-09T07:07:59Z</time>
      </trkpt>
      <trkpt lat="45.24714" lon="5.72034">
        <ele>469</ele>
        <time>2010-05-09T07:08:00Z</time>
      </trkpt>
      <trkpt lat="45.24713" lon="5.72029">
        <ele>470</ele>
        <time>2010-05-09T07:08:01Z</time>
      </trkpt>
      <trkpt lat="45.24713" lon="5.72025">
        <ele>470</ele>
        <time>2010-05-09T07:08:02Z</time>
      </trkpt>
      <trkpt lat="45.24713" lon="5.72021">
        <ele>471</ele>
        <time>2010-05-09T07:08:03Z</time>
      </trkpt>
      <trkpt lat="45.24714" lon="5.72017">
        <ele>471</ele>
        <time>2010-05-09T07:08:04Z</time>
      </trkpt>
      <trkpt lat="45.24714" lon="5.72012">
        <ele>471</ele>
        <time>2010-05-09T07:08:05Z</time>
      </trkpt>
      <trkpt lat="45.24714" lon="5.72007">
        <ele>471</ele>
        <time>2010-05-09T07:08:06Z</time>
      </trkpt>
      <trkpt lat="45.24715" lon="5.72003">
        <ele>472</ele>
        <time>2010-05-09T07:08:07Z</time>
      </trkpt>
      <trkpt lat="45.24715" lon="5.71999">
        <ele>472</ele>
        <time>2010-05-09T07:08:08Z</time>
      </trkpt>
      <trkpt lat="45.24714" lon="5.71994">
        <ele>472</ele>
        <time>2010-05-09T07:08:09Z</time>
      </trkpt>
      <trkpt lat="45.24714" lon="5.71989">
        <ele>472</ele>
        <time>2010-05-09T07:08:10Z</time>
      </trkpt>
      <trkpt lat="45.24714" lon="5.71983">
        <ele>472</ele>
        <time>2010-05-09T07:08:11Z</time>
      </trkpt>
      <trkpt lat="45.24714" lon="5.71978">
        <ele>472</ele>
        <time>2010-05-09T07:08:12Z</time>
      </trkpt>
      <trkpt lat="45.24714" lon="5.71973">
        <ele>473</ele>
        <time>2010-05-09T07:08:13Z</time>
      </trkpt>
      <trkpt lat="45.24714" lon="5.71969">
        <ele>473</ele>
        <time>2010-05-09T07:08:14Z</time>
      </trkpt>
      <trkpt lat="45.24714" lon="5.71964">
        <ele>474</ele>
        <time>2010-05-09T07:08:15Z</time>
      </trkpt>
      <trkpt lat="45.24713" lon="5.71959">
        <ele>474</ele>
        <time>2010-05-09T07:08:16Z</time>
      </trkpt>
      <trkpt lat="45.24713" lon="5.71954">
        <ele>474</ele>
        <time>2010-05-09T07:08:17Z</time>
      </trkpt>
      <trkpt lat="45.24712" lon="5.71949">
        <ele>475</ele>
        <time>2010-05-09T07:08:18Z</time>
      </trkpt>
      <trkpt lat="45.24712" lon="5.71944">
        <ele>475</ele>
        <time>2010-05-09T07:08:19Z</time>
      </trkpt>
      <trkpt lat="45.24712" lon="5.7194">
        <ele>476</ele>
        <time>2010-05-09T07:08:20Z</time>
      </trkpt>
      <trkpt lat="45.24712" lon="5.71935">
        <ele>476</ele>
        <time>2010-05-09T07:08:21Z</time>
      </trkpt>
      <trkpt lat="45.24712" lon="5.71931">
        <ele>476</ele>
        <time>2010-05-09T07:08:22Z</time>
      </trkpt>
      <trkpt lat="45.24712" lon="5.71926">
        <ele>476</ele>
        <time>2010-05-09T07:08:23Z</time>
      </trkpt>
      <trkpt lat="45.24712" lon="5.71921">
        <ele>477</ele>
        <time>2010-05-09T07:08:24Z</time>
      </trkpt>
      <trkpt lat="45.24712" lon="5.71917">
        <ele>477</ele>
        <time>2010-05-09T07:08:25Z</time>
      </trkpt>
      <trkpt lat="45.24712" lon="5.71912">
        <ele>477</ele>
        <time>2010-05-09T07:08:26Z</time>
      </trkpt>
      <trkpt lat="45.24712" lon="5.71906">
        <ele>477</ele>
        <time>2010-05-09T07:08:27Z</time>
      </trkpt>
      <trkpt lat="45.24712" lon="5.71902">
        <ele>477</ele>
        <time>2010-05-09T07:08:28Z</time>
      </trkpt>
      <trkpt lat="45.24713" lon="5.71897">
        <ele>477</ele>
        <time>2010-05-09T07:08:29Z</time>
      </trkpt>
      <trkpt lat="45.24714" lon="5.71892">
        <ele>477</ele>
        <time>2010-05-09T07:08:30Z</time>
      </trkpt>
      <trkpt lat="45.24715" lon="5.71887">
        <ele>477</ele>
        <time>2010-05-09T07:08:31Z</time>
      </trkpt>
      <trkpt lat="45.24716" lon="5.71882">
        <ele>477</ele>
        <time>2010-05-09T07:08:32Z</time>
      </trkpt>
      <trkpt lat="45.24717" lon="5.71877">
        <ele>478</ele>
        <time>2010-05-09T07:08:33Z</time>
      </trkpt>
      <trkpt lat="45.24718" lon="5.71873">
        <ele>478</ele>
        <time>2010-05-09T07:08:34Z</time>
      </trkpt>
      <trkpt lat="45.24719" lon="5.71869">
        <ele>478</ele>
        <time>2010-05-09T07:08:35Z</time>
      </trkpt>
      <trkpt lat="45.24721" lon="5.71864">
        <ele>478</ele>
        <time>2010-05-09T07:08:36Z</time>
      </trkpt>
      <trkpt lat="45.24722" lon="5.7186">
        <ele>478</ele>
        <time>2010-05-09T07:08:37Z</time>
      </trkpt>
      <trkpt lat="45.24723" lon="5.71855">
        <ele>479</ele>
        <time>2010-05-09T07:08:38Z</time>
      </trkpt>
      <trkpt lat="45.24724" lon="5.71851">
        <ele>479</ele>
        <time>2010-05-09T07:08:39Z</time>
      </trkpt>
      <trkpt lat="45.24725" lon="5.71847">
        <ele>479</ele>
        <time>2010-05-09T07:08:40Z</time>
      </trkpt>
      <trkpt lat="45.24726" lon="5.71842">
        <ele>479</ele>
        <time>2010-05-09T07:08:41Z</time>
      </trkpt>
      <trkpt lat="45.24728" lon="5.71837">
        <ele>479</ele>
        <time>2010-05-09T07:08:42Z</time>
      </trkpt>
      <trkpt lat="45.24729" lon="5.71832">
        <ele>479</ele>
        <time>2010-05-09T07:08:43Z</time>
      </trkpt>
      <trkpt lat="45.2473" lon="5.71826">
        <ele>479</ele>
        <time>2010-05-09T07:08:44Z</time>
      </trkpt>
      <trkpt lat="45.2473" lon="5.71821">
        <ele>479</ele>
        <time>2010-05-09T07:08:45Z</time>
      </trkpt>
      <trkpt lat="45.2473" lon="5.71815">
        <ele>479</ele>
        <time>2010-05-09T07:08:46Z</time>
      </trkpt>
      <trkpt lat="45.24731" lon="5.71811">
        <ele>479</ele>
        <time>2010-05-09T07:08:47Z</time>
      </trkpt>
      <trkpt lat="45.24732" lon="5.71807">
        <ele>479</ele>
        <time>2010-05-09T07:08:48Z</time>
      </trkpt>
      <trkpt lat="45.24732" lon="5.71803">
        <ele>479</ele>
        <time>2010-05-09T07:08:49Z</time>
      </trkpt>
      <trkpt lat="45.24731" lon="5.71799">
        <ele>479</ele>
        <time>2010-05-09T07:08:50Z</time>
      </trkpt>
      <trkpt lat="45.24731" lon="5.71793">
        <ele>479</ele>
        <time>2010-05-09T07:08:51Z</time>
      </trkpt>
      <trkpt lat="45.24731" lon="5.71788">
        <ele>479</ele>
        <time>2010-05-09T07:08:52Z</time>
      </trkpt>
      <trkpt lat="45.24731" lon="5.71783">
        <ele>479</ele>
        <time>2010-05-09T07:08:53Z</time>
      </trkpt>
      <trkpt lat="45.24731" lon="5.71778">
        <ele>479</ele>
        <time>2010-05-09T07:08:54Z</time>
      </trkpt>
      <trkpt lat="45.24732" lon="5.71774">
        <ele>479</ele>
        <time>2010-05-09T07:08:55Z</time>
      </trkpt>
      <trkpt lat="45.24733" lon="5.7177">
        <ele>479</ele>
        <time>2010-05-09T07:08:56Z</time>
      </trkpt>
      <trkpt lat="45.24733" lon="5.71765">
        <ele>479</ele>
        <time>2010-05-09T07:08:57Z</time>
      </trkpt>
      <trkpt lat="45.24734" lon="5.7176">
        <ele>479</ele>
        <time>2010-05-09T07:08:58Z</time>
      </trkpt>
      <trkpt lat="45.24735" lon="5.71756">
        <ele>479</ele>
        <time>2010-05-09T07:08:59Z</time>
      </trkpt>
      <trkpt lat="45.24736" lon="5.7175">
        <ele>479</ele>
        <time>2010-05-09T07:09:00Z</time>
      </trkpt>
      <trkpt lat="45.24737" lon="5.71745">
        <ele>479</ele>
        <time>2010-05-09T07:09:01Z</time>
      </trkpt>
      <trkpt lat="45.24738" lon="5.71739">
        <ele>479</ele>
        <time>2010-05-09T07:09:02Z</time>
      </trkpt>
      <trkpt lat="45.24739" lon="5.71735">
        <ele>479</ele>
        <time>2010-05-09T07:09:03Z</time>
      </trkpt>
      <trkpt lat="45.24739" lon="5.7173">
        <ele>479</ele>
        <time>2010-05-09T07:09:04Z</time>
      </trkpt>
      <trkpt lat="45.24739" lon="5.71725">
        <ele>479</ele>
        <time>2010-05-09T07:09:05Z</time>
      </trkpt>
      <trkpt lat="45.24739" lon="5.7172">
        <ele>479</ele>
        <time>2010-05-09T07:09:06Z</time>
      </trkpt>
      <trkpt lat="45.2474" lon="5.71716">
        <ele>479</ele>
        <time>2010-05-09T07:09:07Z</time>
      </trkpt>
      <trkpt lat="45.2474" lon="5.71711">
        <ele>479</ele>
        <time>2010-05-09T07:09:08Z</time>
      </trkpt>
      <trkpt lat="45.2474" lon="5.71706">
        <ele>479</ele>
        <time>2010-05-09T07:09:09Z</time>
      </trkpt>
      <trkpt lat="45.2474" lon="5.71701">
        <ele>478</ele>
        <time>2010-05-09T07:09:10Z</time>
      </trkpt>
      <trkpt lat="45.2474" lon="5.71698">
        <ele>477</ele>
        <time>2010-05-09T07:09:11Z</time>
      </trkpt>
      <trkpt lat="45.24741" lon="5.71693">
        <ele>477</ele>
        <time>2010-05-09T07:09:12Z</time>
      </trkpt>
      <trkpt lat="45.24741" lon="5.71688">
        <ele>476</ele>
        <time>2010-05-09T07:09:13Z</time>
      </trkpt>
      <trkpt lat="45.24742" lon="5.71682">
        <ele>475</ele>
        <time>2010-05-09T07:09:14Z</time>
      </trkpt>
      <trkpt lat="45.24742" lon="5.71676">
        <ele>474</ele>
        <time>2010-05-09T07:09:15Z</time>
      </trkpt>
      <trkpt lat="45.24744" lon="5.71671">
        <ele>473</ele>
        <time>2010-05-09T07:09:16Z</time>
      </trkpt>
      <trkpt lat="45.24744" lon="5.71666">
        <ele>473</ele>
        <time>2010-05-09T07:09:17Z</time>
      </trkpt>
      <trkpt lat="45.24746" lon="5.71662">
        <ele>473</ele>
        <time>2010-05-09T07:09:18Z</time>
      </trkpt>
      <trkpt lat="45.24747" lon="5.71657">
        <ele>473</ele>
        <time>2010-05-09T07:09:19Z</time>
      </trkpt>
      <trkpt lat="45.24749" lon="5.71652">
        <ele>473</ele>
        <time>2010-05-09T07:09:20Z</time>
      </trkpt>
      <trkpt lat="45.2475" lon="5.71648">
        <ele>473</ele>
        <time>2010-05-09T07:09:21Z</time>
      </trkpt>
      <trkpt lat="45.24751" lon="5.71643">
        <ele>473</ele>
        <time>2010-05-09T07:09:22Z</time>
      </trkpt>
      <trkpt lat="45.24753" lon="5.7164">
        <ele>473</ele>
        <time>2010-05-09T07:09:23Z</time>
      </trkpt>
      <trkpt lat="45.24755" lon="5.71637">
        <ele>472</ele>
        <time>2010-05-09T07:09:24Z</time>
      </trkpt>
      <trkpt lat="45.24756" lon="5.71633">
        <ele>471</ele>
        <time>2010-05-09T07:09:25Z</time>
      </trkpt>
      <trkpt lat="45.24758" lon="5.71629">
        <ele>470</ele>
        <time>2010-05-09T07:09:26Z</time>
      </trkpt>
      <trkpt lat="45.2476" lon="5.71625">
        <ele>469</ele>
        <time>2010-05-09T07:09:27Z</time>
      </trkpt>
      <trkpt lat="45.24762" lon="5.71621">
        <ele>469</ele>
        <time>2010-05-09T07:09:28Z</time>
      </trkpt>
      <trkpt lat="45.24764" lon="5.71617">
        <ele>468</ele>
        <time>2010-05-09T07:09:29Z</time>
      </trkpt>
      <trkpt lat="45.24766" lon="5.71613">
        <ele>468</ele>
        <time>2010-05-09T07:09:30Z</time>
      </trkpt>
      <trkpt lat="45.24767" lon="5.71608">
        <ele>468</ele>
        <time>2010-05-09T07:09:31Z</time>
      </trkpt>
      <trkpt lat="45.24768" lon="5.71605">
        <ele>468</ele>
        <time>2010-05-09T07:09:32Z</time>
      </trkpt>
      <trkpt lat="45.24769" lon="5.71601">
        <ele>468</ele>
        <time>2010-05-09T07:09:33Z</time>
      </trkpt>
      <trkpt lat="45.2477" lon="5.71598">
        <ele>468</ele>
        <time>2010-05-09T07:09:34Z</time>
      </trkpt>
      <trkpt lat="45.24772" lon="5.71596">
        <ele>468</ele>
        <time>2010-05-09T07:09:35Z</time>
      </trkpt>
      <trkpt lat="45.24773" lon="5.71594">
        <ele>468</ele>
        <time>2010-05-09T07:09:36Z</time>
      </trkpt>
      <trkpt lat="45.24774" lon="5.71591">
        <ele>468</ele>
        <time>2010-05-09T07:09:37Z</time>
      </trkpt>
      <trkpt lat="45.24774" lon="5.71587">
        <ele>468</ele>
        <time>2010-05-09T07:09:38Z</time>
      </trkpt>
      <trkpt lat="45.24775" lon="5.71583">
        <ele>468</ele>
        <time>2010-05-09T07:09:39Z</time>
      </trkpt>
      <trkpt lat="45.24775" lon="5.71579">
        <ele>468</ele>
        <time>2010-05-09T07:09:40Z</time>
      </trkpt>
      <trkpt lat="45.24776" lon="5.71575">
        <ele>468</ele>
        <time>2010-05-09T07:09:41Z</time>
      </trkpt>
      <trkpt lat="45.24777" lon="5.71571">
        <ele>468</ele>
        <time>2010-05-09T07:09:42Z</time>
      </trkpt>
      <trkpt lat="45.24778" lon="5.71568">
        <ele>468</ele>
        <time>2010-05-09T07:09:43Z</time>
      </trkpt>
      <trkpt lat="45.24778" lon="5.71565">
        <ele>468</ele>
        <time>2010-05-09T07:09:44Z</time>
      </trkpt>
      <trkpt lat="45.24778" lon="5.71563">
        <ele>468</ele>
        <time>2010-05-09T07:09:45Z</time>
      </trkpt>
      <trkpt lat="45.24779" lon="5.7156">
        <ele>468</ele>
        <time>2010-05-09T07:09:46Z</time>
      </trkpt>
      <trkpt lat="45.24779" lon="5.71557">
        <ele>468</ele>
        <time>2010-05-09T07:09:47Z</time>
      </trkpt>
      <trkpt lat="45.2478" lon="5.71555">
        <ele>468</ele>
        <time>2010-05-09T07:09:48Z</time>
      </trkpt>
      <trkpt lat="45.24781" lon="5.71552">
        <ele>468</ele>
        <time>2010-05-09T07:09:49Z</time>
      </trkpt>
      <trkpt lat="45.24781" lon="5.7155">
        <ele>468</ele>
        <time>2010-05-09T07:09:50Z</time>
      </trkpt>
      <trkpt lat="45.24782" lon="5.71546">
        <ele>468</ele>
        <time>2010-05-09T07:09:51Z</time>
      </trkpt>
      <trkpt lat="45.24782" lon="5.71543">
        <ele>468</ele>
        <time>2010-05-09T07:09:52Z</time>
      </trkpt>
      <trkpt lat="45.24783" lon="5.7154">
        <ele>468</ele>
        <time>2010-05-09T07:09:53Z</time>
      </trkpt>
      <trkpt lat="45.24783" lon="5.71537">
        <ele>468</ele>
        <time>2010-05-09T07:09:54Z</time>
      </trkpt>
      <trkpt lat="45.24783" lon="5.71533">
        <ele>468</ele>
        <time>2010-05-09T07:09:55Z</time>
      </trkpt>
      <trkpt lat="45.24783" lon="5.7153">
        <ele>468</ele>
        <time>2010-05-09T07:09:56Z</time>
      </trkpt>
      <trkpt lat="45.24783" lon="5.71527">
        <ele>469</ele>
        <time>2010-05-09T07:09:57Z</time>
      </trkpt>
      <trkpt lat="45.24782" lon="5.71525">
        <ele>470</ele>
        <time>2010-05-09T07:09:58Z</time>
      </trkpt>
      <trkpt lat="45.24782" lon="5.71522">
        <ele>470</ele>
        <time>2010-05-09T07:09:59Z</time>
      </trkpt>
      <trkpt lat="45.24781" lon="5.7152">
        <ele>470</ele>
        <time>2010-05-09T07:10:00Z</time>
      </trkpt>
      <trkpt lat="45.24782" lon="5.71517">
        <ele>470</ele>
        <time>2010-05-09T07:10:01Z</time>
      </trkpt>
      <trkpt lat="45.24782" lon="5.71515">
        <ele>470</ele>
        <time>2010-05-09T07:10:02Z</time>
      </trkpt>
      <trkpt lat="45.24781" lon="5.71511">
        <ele>470</ele>
        <time>2010-05-09T07:10:03Z</time>
      </trkpt>
      <trkpt lat="45.24782" lon="5.71509">
        <ele>471</ele>
        <time>2010-05-09T07:10:04Z</time>
      </trkpt>
      <trkpt lat="45.24783" lon="5.71505">
        <ele>472</ele>
        <time>2010-05-09T07:10:05Z</time>
      </trkpt>
      <trkpt lat="45.24783" lon="5.71503">
        <ele>473</ele>
        <time>2010-05-09T07:10:06Z</time>
      </trkpt>
      <trkpt lat="45.24785" lon="5.71499">
        <ele>474</ele>
        <time>2010-05-09T07:10:08Z</time>
      </trkpt>
      <trkpt lat="45.24785" lon="5.71498">
        <ele>474</ele>
        <time>2010-05-09T07:10:09Z</time>
      </trkpt>
      <trkpt lat="45.24786" lon="5.71496">
        <ele>474</ele>
        <time>2010-05-09T07:10:10Z</time>
      </trkpt>
      <trkpt lat="45.24786" lon="5.71494">
        <ele>474</ele>
        <time>2010-05-09T07:10:11Z</time>
      </trkpt>
      <trkpt lat="45.24787" lon="5.71491">
        <ele>474</ele>
        <time>2010-05-09T07:10:12Z</time>
      </trkpt>
      <trkpt lat="45.24787" lon="5.71488">
        <ele>475</ele>
        <time>2010-05-09T07:10:13Z</time>
      </trkpt>
      <trkpt lat="45.24789" lon="5.71485">
        <ele>476</ele>
        <time>2010-05-09T07:10:14Z</time>
      </trkpt>
      <trkpt lat="45.2479" lon="5.71481">
        <ele>477</ele>
        <time>2010-05-09T07:10:15Z</time>
      </trkpt>
      <trkpt lat="45.24791" lon="5.71478">
        <ele>477</ele>
        <time>2010-05-09T07:10:16Z</time>
      </trkpt>
      <trkpt lat="45.24792" lon="5.71475">
        <ele>477</ele>
        <time>2010-05-09T07:10:17Z</time>
      </trkpt>
      <trkpt lat="45.24793" lon="5.71471">
        <ele>477</ele>
        <time>2010-05-09T07:10:18Z</time>
      </trkpt>
      <trkpt lat="45.24795" lon="5.71469">
        <ele>477</ele>
        <time>2010-05-09T07:10:19Z</time>
      </trkpt>
      <trkpt lat="45.24797" lon="5.71467">
        <ele>478</ele>
        <time>2010-05-09T07:10:20Z</time>
      </trkpt>
      <trkpt lat="45.24799" lon="5.71466">
        <ele>478</ele>
        <time>2010-05-09T07:10:21Z</time>
      </trkpt>
      <trkpt lat="45.24801" lon="5.71464">
        <ele>479</ele>
        <time>2010-05-09T07:10:22Z</time>
      </trkpt>
      <trkpt lat="45.24803" lon="5.71463">
        <ele>479</ele>
        <time>2010-05-09T07:10:23Z</time>
      </trkpt>
      <trkpt lat="45.24805" lon="5.7146">
        <ele>480</ele>
        <time>2010-05-09T07:10:24Z</time>
      </trkpt>
      <trkpt lat="45.24807" lon="5.71458">
        <ele>480</ele>
        <time>2010-05-09T07:10:25Z</time>
      </trkpt>
      <trkpt lat="45.24808" lon="5.71457">
        <ele>481</ele>
        <time>2010-05-09T07:10:26Z</time>
      </trkpt>
      <trkpt lat="45.24809" lon="5.71455">
        <ele>482</ele>
        <time>2010-05-09T07:10:27Z</time>
      </trkpt>
      <trkpt lat="45.24812" lon="5.71453">
        <ele>483</ele>
        <time>2010-05-09T07:10:28Z</time>
      </trkpt>
      <trkpt lat="45.24814" lon="5.7145">
        <ele>484</ele>
        <time>2010-05-09T07:10:29Z</time>
      </trkpt>
      <trkpt lat="45.24816" lon="5.71447">
        <ele>484</ele>
        <time>2010-05-09T07:10:30Z</time>
      </trkpt>
      <trkpt lat="45.24818" lon="5.71445">
        <ele>484</ele>
        <time>2010-05-09T07:10:31Z</time>
      </trkpt>
      <trkpt lat="45.24821" lon="5.71443">
        <ele>484</ele>
        <time>2010-05-09T07:10:32Z</time>
      </trkpt>
      <trkpt lat="45.24823" lon="5.7144">
        <ele>484</ele>
        <time>2010-05-09T07:10:33Z</time>
      </trkpt>
      <trkpt lat="45.24826" lon="5.71438">
        <ele>484</ele>
        <time>2010-05-09T07:10:34Z</time>
      </trkpt>
      <trkpt lat="45.24828" lon="5.71435">
        <ele>484</ele>
        <time>2010-05-09T07:10:35Z</time>
      </trkpt>
      <trkpt lat="45.2483" lon="5.71432">
        <ele>484</ele>
        <time>2010-05-09T07:10:36Z</time>
      </trkpt>
      <trkpt lat="45.24832" lon="5.7143">
        <ele>484</ele>
        <time>2010-05-09T07:10:37Z</time>
      </trkpt>
      <trkpt lat="45.24834" lon="5.71427">
        <ele>483</ele>
        <time>2010-05-09T07:10:38Z</time>
      </trkpt>
      <trkpt lat="45.24836" lon="5.71423">
        <ele>482</ele>
        <time>2010-05-09T07:10:39Z</time>
      </trkpt>
      <trkpt lat="45.24838" lon="5.7142">
        <ele>481</ele>
        <time>2010-05-09T07:10:40Z</time>
      </trkpt>
      <trkpt lat="45.24839" lon="5.71417">
        <ele>480</ele>
        <time>2010-05-09T07:10:41Z</time>
      </trkpt>
      <trkpt lat="45.24841" lon="5.71413">
        <ele>480</ele>
        <time>2010-05-09T07:10:42Z</time>
      </trkpt>
      <trkpt lat="45.24842" lon="5.71409">
        <ele>480</ele>
        <time>2010-05-09T07:10:43Z</time>
      </trkpt>
      <trkpt lat="45.24844" lon="5.71406">
        <ele>479</ele>
        <time>2010-05-09T07:10:44Z</time>
      </trkpt>
      <trkpt lat="45.24846" lon="5.71402">
        <ele>479</ele>
        <time>2010-05-09T07:10:45Z</time>
      </trkpt>
      <trkpt lat="45.24848" lon="5.71398">
        <ele>479</ele>
        <time>2010-05-09T07:10:46Z</time>
      </trkpt>
      <trkpt lat="45.24849" lon="5.71395">
        <ele>479</ele>
        <time>2010-05-09T07:10:47Z</time>
      </trkpt>
      <trkpt lat="45.24851" lon="5.71391">
        <ele>479</ele>
        <time>2010-05-09T07:10:48Z</time>
      </trkpt>
      <trkpt lat="45.24852" lon="5.71387">
        <ele>479</ele>
        <time>2010-05-09T07:10:49Z</time>
      </trkpt>
      <trkpt lat="45.24853" lon="5.71384">
        <ele>479</ele>
        <time>2010-05-09T07:10:50Z</time>
      </trkpt>
      <trkpt lat="45.24854" lon="5.7138">
        <ele>479</ele>
        <time>2010-05-09T07:10:51Z</time>
      </trkpt>
      <trkpt lat="45.24856" lon="5.71377">
        <ele>479</ele>
        <time>2010-05-09T07:10:52Z</time>
      </trkpt>
      <trkpt lat="45.24857" lon="5.71373">
        <ele>479</ele>
        <time>2010-05-09T07:10:53Z</time>
      </trkpt>
      <trkpt lat="45.24859" lon="5.7137">
        <ele>479</ele>
        <time>2010-05-09T07:10:54Z</time>
      </trkpt>
      <trkpt lat="45.2486" lon="5.71366">
        <ele>479</ele>
        <time>2010-05-09T07:10:55Z</time>
      </trkpt>
      <trkpt lat="45.24862" lon="5.71363">
        <ele>479</ele>
        <time>2010-05-09T07:10:56Z</time>
      </trkpt>
      <trkpt lat="45.24864" lon="5.71359">
        <ele>479</ele>
        <time>2010-05-09T07:10:57Z</time>
      </trkpt>
      <trkpt lat="45.24865" lon="5.71355">
        <ele>479</ele>
        <time>2010-05-09T07:10:58Z</time>
      </trkpt>
      <trkpt lat="45.24866" lon="5.71351">
        <ele>479</ele>
        <time>2010-05-09T07:10:59Z</time>
      </trkpt>
      <trkpt lat="45.24867" lon="5.71346">
        <ele>479</ele>
        <time>2010-05-09T07:11:00Z</time>
      </trkpt>
      <trkpt lat="45.24869" lon="5.71342">
        <ele>480</ele>
        <time>2010-05-09T07:11:01Z</time>
      </trkpt>
      <trkpt lat="45.24871" lon="5.71338">
        <ele>481</ele>
        <time>2010-05-09T07:11:02Z</time>
      </trkpt>
      <trkpt lat="45.24872" lon="5.71334">
        <ele>482</ele>
        <time>2010-05-09T07:11:03Z</time>
      </trkpt>
      <trkpt lat="45.24874" lon="5.71329">
        <ele>483</ele>
        <time>2010-05-09T07:11:04Z</time>
      </trkpt>
      <trkpt lat="45.24876" lon="5.71326">
        <ele>484</ele>
        <time>2010-05-09T07:11:05Z</time>
      </trkpt>
      <trkpt lat="45.24878" lon="5.71322">
        <ele>485</ele>
        <time>2010-05-09T07:11:06Z</time>
      </trkpt>
      <trkpt lat="45.24879" lon="5.71318">
        <ele>486</ele>
        <time>2010-05-09T07:11:07Z</time>
      </trkpt>
      <trkpt lat="45.2488" lon="5.71313">
        <ele>487</ele>
        <time>2010-05-09T07:11:08Z</time>
      </trkpt>
      <trkpt lat="45.24881" lon="5.71309">
        <ele>488</ele>
        <time>2010-05-09T07:11:09Z</time>
      </trkpt>
      <trkpt lat="45.24883" lon="5.71305">
        <ele>489</ele>
        <time>2010-05-09T07:11:10Z</time>
      </trkpt>
      <trkpt lat="45.24884" lon="5.71302">
        <ele>490</ele>
        <time>2010-05-09T07:11:11Z</time>
      </trkpt>
      <trkpt lat="45.24885" lon="5.71298">
        <ele>491</ele>
        <time>2010-05-09T07:11:12Z</time>
      </trkpt>
      <trkpt lat="45.24886" lon="5.71293">
        <ele>492</ele>
        <time>2010-05-09T07:11:13Z</time>
      </trkpt>
      <trkpt lat="45.24886" lon="5.71289">
        <ele>493</ele>
        <time>2010-05-09T07:11:14Z</time>
      </trkpt>
      <trkpt lat="45.24887" lon="5.71285">
        <ele>494</ele>
        <time>2010-05-09T07:11:15Z</time>
      </trkpt>
      <trkpt lat="45.24888" lon="5.71281">
        <ele>494</ele>
        <time>2010-05-09T07:11:16Z</time>
      </trkpt>
      <trkpt lat="45.24889" lon="5.71278">
        <ele>494</ele>
        <time>2010-05-09T07:11:17Z</time>
      </trkpt>
      <trkpt lat="45.24889" lon="5.71274">
        <ele>494</ele>
        <time>2010-05-09T07:11:18Z</time>
      </trkpt>
      <trkpt lat="45.2489" lon="5.71271">
        <ele>494</ele>
        <time>2010-05-09T07:11:19Z</time>
      </trkpt>
      <trkpt lat="45.24891" lon="5.71267">
        <ele>494</ele>
        <time>2010-05-09T07:11:20Z</time>
      </trkpt>
      <trkpt lat="45.24892" lon="5.71263">
        <ele>494</ele>
        <time>2010-05-09T07:11:21Z</time>
      </trkpt>
      <trkpt lat="45.24892" lon="5.71259">
        <ele>494</ele>
        <time>2010-05-09T07:11:22Z</time>
      </trkpt>
      <trkpt lat="45.24893" lon="5.71256">
        <ele>494</ele>
        <time>2010-05-09T07:11:23Z</time>
      </trkpt>
      <trkpt lat="45.24894" lon="5.71252">
        <ele>494</ele>
        <time>2010-05-09T07:11:24Z</time>
      </trkpt>
      <trkpt lat="45.24895" lon="5.71249">
        <ele>494</ele>
        <time>2010-05-09T07:11:25Z</time>
      </trkpt>
      <trkpt lat="45.24895" lon="5.71246">
        <ele>494</ele>
        <time>2010-05-09T07:11:26Z</time>
      </trkpt>
      <trkpt lat="45.24896" lon="5.71243">
        <ele>494</ele>
        <time>2010-05-09T07:11:27Z</time>
      </trkpt>
      <trkpt lat="45.24896" lon="5.71239">
        <ele>494</ele>
        <time>2010-05-09T07:11:28Z</time>
      </trkpt>
      <trkpt lat="45.24897" lon="5.71235">
        <ele>494</ele>
        <time>2010-05-09T07:11:29Z</time>
      </trkpt>
      <trkpt lat="45.24897" lon="5.71231">
        <ele>494</ele>
        <time>2010-05-09T07:11:30Z</time>
      </trkpt>
      <trkpt lat="45.24897" lon="5.71227">
        <ele>494</ele>
        <time>2010-05-09T07:11:31Z</time>
      </trkpt>
      <trkpt lat="45.24897" lon="5.71223">
        <ele>494</ele>
        <time>2010-05-09T07:11:32Z</time>
      </trkpt>
      <trkpt lat="45.24896" lon="5.7122">
        <ele>494</ele>
        <time>2010-05-09T07:11:33Z</time>
      </trkpt>
      <trkpt lat="45.24895" lon="5.71216">
        <ele>494</ele>
        <time>2010-05-09T07:11:34Z</time>
      </trkpt>
      <trkpt lat="45.24893" lon="5.71212">
        <ele>494</ele>
        <time>2010-05-09T07:11:35Z</time>
      </trkpt>
      <trkpt lat="45.24891" lon="5.71209">
        <ele>494</ele>
        <time>2010-05-09T07:11:36Z</time>
      </trkpt>
      <trkpt lat="45.24888" lon="5.71205">
        <ele>494</ele>
        <time>2010-05-09T07:11:37Z</time>
      </trkpt>
      <trkpt lat="45.24886" lon="5.71202">
        <ele>494</ele>
        <time>2010-05-09T07:11:38Z</time>
      </trkpt>
      <trkpt lat="45.24883" lon="5.71199">
        <ele>494</ele>
        <time>2010-05-09T07:11:39Z</time>
      </trkpt>
      <trkpt lat="45.2488" lon="5.71195">
        <ele>494</ele>
        <time>2010-05-09T07:11:40Z</time>
      </trkpt>
      <trkpt lat="45.24877" lon="5.71192">
        <ele>494</ele>
        <time>2010-05-09T07:11:41Z</time>
      </trkpt>
      <trkpt lat="45.24874" lon="5.71188">
        <ele>494</ele>
        <time>2010-05-09T07:11:42Z</time>
      </trkpt>
      <trkpt lat="45.24871" lon="5.71186">
        <ele>494</ele>
        <time>2010-05-09T07:11:43Z</time>
      </trkpt>
      <trkpt lat="45.24868" lon="5.71184">
        <ele>493</ele>
        <time>2010-05-09T07:11:44Z</time>
      </trkpt>
      <trkpt lat="45.24865" lon="5.71183">
        <ele>493</ele>
        <time>2010-05-09T07:11:45Z</time>
      </trkpt>
      <trkpt lat="45.24862" lon="5.71181">
        <ele>492</ele>
        <time>2010-05-09T07:11:46Z</time>
      </trkpt>
      <trkpt lat="45.24859" lon="5.71179">
        <ele>491</ele>
        <time>2010-05-09T07:11:47Z</time>
      </trkpt>
      <trkpt lat="45.24857" lon="5.71177">
        <ele>490</ele>
        <time>2010-05-09T07:11:48Z</time>
      </trkpt>
      <trkpt lat="45.24854" lon="5.71173">
        <ele>490</ele>
        <time>2010-05-09T07:11:49Z</time>
      </trkpt>
      <trkpt lat="45.24851" lon="5.71171">
        <ele>490</ele>
        <time>2010-05-09T07:11:50Z</time>
      </trkpt>
      <trkpt lat="45.24849" lon="5.71169">
        <ele>490</ele>
        <time>2010-05-09T07:11:51Z</time>
      </trkpt>
      <trkpt lat="45.24847" lon="5.71167">
        <ele>490</ele>
        <time>2010-05-09T07:11:52Z</time>
      </trkpt>
      <trkpt lat="45.24845" lon="5.71167">
        <ele>491</ele>
        <time>2010-05-09T07:11:53Z</time>
      </trkpt>
      <trkpt lat="45.24843" lon="5.71168">
        <ele>492</ele>
        <time>2010-05-09T07:11:54Z</time>
      </trkpt>
      <trkpt lat="45.24842" lon="5.71167">
        <ele>493</ele>
        <time>2010-05-09T07:11:55Z</time>
      </trkpt>
      <trkpt lat="45.2484" lon="5.71166">
        <ele>494</ele>
        <time>2010-05-09T07:11:56Z</time>
      </trkpt>
      <trkpt lat="45.24838" lon="5.71164">
        <ele>495</ele>
        <time>2010-05-09T07:11:57Z</time>
      </trkpt>
      <trkpt lat="45.24837" lon="5.71164">
        <ele>496</ele>
        <time>2010-05-09T07:11:58Z</time>
      </trkpt>
      <trkpt lat="45.24835" lon="5.71164">
        <ele>496</ele>
        <time>2010-05-09T07:11:59Z</time>
      </trkpt>
      <trkpt lat="45.24834" lon="5.71164">
        <ele>496</ele>
        <time>2010-05-09T07:12:00Z</time>
      </trkpt>
      <trkpt lat="45.24833" lon="5.71164">
        <ele>496</ele>
        <time>2010-05-09T07:12:01Z</time>
      </trkpt>
      <trkpt lat="45.2483" lon="5.71167">
        <ele>496</ele>
        <time>2010-05-09T07:12:03Z</time>
      </trkpt>
      <trkpt lat="45.24828" lon="5.7117">
        <ele>496</ele>
        <time>2010-05-09T07:12:04Z</time>
      </trkpt>
      <trkpt lat="45.24826" lon="5.7117">
        <ele>496</ele>
        <time>2010-05-09T07:12:05Z</time>
      </trkpt>
      <trkpt lat="45.24824" lon="5.71169">
        <ele>496</ele>
        <time>2010-05-09T07:12:07Z</time>
      </trkpt>
      <trkpt lat="45.24821" lon="5.71169">
        <ele>497</ele>
        <time>2010-05-09T07:12:09Z</time>
      </trkpt>
      <trkpt lat="45.2482" lon="5.71169">
        <ele>497</ele>
        <time>2010-05-09T07:12:10Z</time>
      </trkpt>
      <trkpt lat="45.24819" lon="5.71168">
        <ele>498</ele>
        <time>2010-05-09T07:12:11Z</time>
      </trkpt>
      <trkpt lat="45.24818" lon="5.71168">
        <ele>500</ele>
        <time>2010-05-09T07:12:13Z</time>
      </trkpt>
      <trkpt lat="45.24816" lon="5.7117">
        <ele>502</ele>
        <time>2010-05-09T07:12:15Z</time>
      </trkpt>
      <trkpt lat="45.24815" lon="5.71172">
        <ele>503</ele>
        <time>2010-05-09T07:12:16Z</time>
      </trkpt>
      <trkpt lat="45.24814" lon="5.71175">
        <ele>504</ele>
        <time>2010-05-09T07:12:17Z</time>
      </trkpt>
      <trkpt lat="45.24815" lon="5.71178">
        <ele>507</ele>
        <time>2010-05-09T07:12:19Z</time>
      </trkpt>
      <trkpt lat="45.24816" lon="5.71179">
        <ele>508</ele>
        <time>2010-05-09T07:12:20Z</time>
      </trkpt>
      <trkpt lat="45.24817" lon="5.71182">
        <ele>509</ele>
        <time>2010-05-09T07:12:21Z</time>
      </trkpt>
      <trkpt lat="45.24818" lon="5.71183">
        <ele>510</ele>
        <time>2010-05-09T07:12:22Z</time>
      </trkpt>
      <trkpt lat="45.2482" lon="5.71185">
        <ele>512</ele>
        <time>2010-05-09T07:12:24Z</time>
      </trkpt>
      <trkpt lat="45.24821" lon="5.71186">
        <ele>513</ele>
        <time>2010-05-09T07:12:25Z</time>
      </trkpt>
      <trkpt lat="45.24821" lon="5.71188">
        <ele>514</ele>
        <time>2010-05-09T07:12:26Z</time>
      </trkpt>
      <trkpt lat="45.24823" lon="5.71191">
        <ele>516</ele>
        <time>2010-05-09T07:12:28Z</time>
      </trkpt>
      <trkpt lat="45.24824" lon="5.71192">
        <ele>517</ele>
        <time>2010-05-09T07:12:29Z</time>
      </trkpt>
      <trkpt lat="45.24826" lon="5.71194">
        <ele>518</ele>
        <time>2010-05-09T07:12:30Z</time>
      </trkpt>
      <trkpt lat="45.24827" lon="5.71196">
        <ele>519</ele>
        <time>2010-05-09T07:12:31Z</time>
      </trkpt>
      <trkpt lat="45.24828" lon="5.71198">
        <ele>520</ele>
        <time>2010-05-09T07:12:32Z</time>
      </trkpt>
      <trkpt lat="45.24829" lon="5.712">
        <ele>521</ele>
        <time>2010-05-09T07:12:33Z</time>
      </trkpt>
      <trkpt lat="45.2483" lon="5.71202">
        <ele>522</ele>
        <time>2010-05-09T07:12:34Z</time>
      </trkpt>
      <trkpt lat="45.24832" lon="5.71204">
        <ele>523</ele>
        <time>2010-05-09T07:12:35Z</time>
      </trkpt>
      <trkpt lat="45.24833" lon="5.71206">
        <ele>524</ele>
        <time>2010-05-09T07:12:36Z</time>
      </trkpt>
      <trkpt lat="45.24834" lon="5.71208">
        <ele>525</ele>
        <time>2010-05-09T07:12:37Z</time>
      </trkpt>
      <trkpt lat="45.24836" lon="5.7121">
        <ele>525</ele>
        <time>2010-05-09T07:12:38Z</time>
      </trkpt>
      <trkpt lat="45.24837" lon="5.71213">
        <ele>525</ele>
        <time>2010-05-09T07:12:39Z</time>
      </trkpt>
      <trkpt lat="45.24838" lon="5.71216">
        <ele>525</ele>
        <time>2010-05-09T07:12:40Z</time>
      </trkpt>
      <trkpt lat="45.24839" lon="5.71218">
        <ele>525</ele>
        <time>2010-05-09T07:12:41Z</time>
      </trkpt>
      <trkpt lat="45.24839" lon="5.71221">
        <ele>524</ele>
        <time>2010-05-09T07:12:42Z</time>
      </trkpt>
      <trkpt lat="45.2484" lon="5.71224">
        <ele>523</ele>
        <time>2010-05-09T07:12:43Z</time>
      </trkpt>
      <trkpt lat="45.2484" lon="5.71227">
        <ele>522</ele>
        <time>2010-05-09T07:12:44Z</time>
      </trkpt>
      <trkpt lat="45.24839" lon="5.7123">
        <ele>521</ele>
        <time>2010-05-09T07:12:45Z</time>
      </trkpt>
      <trkpt lat="45.24837" lon="5.71233">
        <ele>520</ele>
        <time>2010-05-09T07:12:46Z</time>
      </trkpt>
      <trkpt lat="45.24836" lon="5.71235">
        <ele>520</ele>
        <time>2010-05-09T07:12:47Z</time>
      </trkpt>
      <trkpt lat="45.24835" lon="5.71239">
        <ele>520</ele>
        <time>2010-05-09T07:12:48Z</time>
      </trkpt>
      <trkpt lat="45.24833" lon="5.71242">
        <ele>520</ele>
        <time>2010-05-09T07:12:49Z</time>
      </trkpt>
      <trkpt lat="45.24831" lon="5.71245">
        <ele>520</ele>
        <time>2010-05-09T07:12:50Z</time>
      </trkpt>
      <trkpt lat="45.24828" lon="5.71248">
        <ele>520</ele>
        <time>2010-05-09T07:12:51Z</time>
      </trkpt>
      <trkpt lat="45.24826" lon="5.71251">
        <ele>520</ele>
        <time>2010-05-09T07:12:52Z</time>
      </trkpt>
      <trkpt lat="45.24824" lon="5.71254">
        <ele>520</ele>
        <time>2010-05-09T07:12:53Z</time>
      </trkpt>
      <trkpt lat="45.24822" lon="5.71257">
        <ele>520</ele>
        <time>2010-05-09T07:12:55Z</time>
      </trkpt>
      <trkpt lat="45.24822" lon="5.71259">
        <ele>520</ele>
        <time>2010-05-09T07:12:56Z</time>
      </trkpt>
      <trkpt lat="45.24821" lon="5.71262">
        <ele>520</ele>
        <time>2010-05-09T07:12:57Z</time>
      </trkpt>
      <trkpt lat="45.2482" lon="5.71266">
        <ele>520</ele>
        <time>2010-05-09T07:12:58Z</time>
      </trkpt>
      <trkpt lat="45.24818" lon="5.7127">
        <ele>520</ele>
        <time>2010-05-09T07:12:59Z</time>
      </trkpt>
      <trkpt lat="45.24817" lon="5.71274">
        <ele>520</ele>
        <time>2010-05-09T07:13:00Z</time>
      </trkpt>
      <trkpt lat="45.24816" lon="5.71277">
        <ele>520</ele>
        <time>2010-05-09T07:13:01Z</time>
      </trkpt>
      <trkpt lat="45.24814" lon="5.71281">
        <ele>520</ele>
        <time>2010-05-09T07:13:02Z</time>
      </trkpt>
      <trkpt lat="45.24812" lon="5.71283">
        <ele>520</ele>
        <time>2010-05-09T07:13:03Z</time>
      </trkpt>
      <trkpt lat="45.2481" lon="5.71287">
        <ele>520</ele>
        <time>2010-05-09T07:13:04Z</time>
      </trkpt>
      <trkpt lat="45.24809" lon="5.7129">
        <ele>520</ele>
        <time>2010-05-09T07:13:05Z</time>
      </trkpt>
      <trkpt lat="45.24807" lon="5.71293">
        <ele>520</ele>
        <time>2010-05-09T07:13:06Z</time>
      </trkpt>
      <trkpt lat="45.24806" lon="5.71298">
        <ele>520</ele>
        <time>2010-05-09T07:13:07Z</time>
      </trkpt>
      <trkpt lat="45.24805" lon="5.71302">
        <ele>520</ele>
        <time>2010-05-09T07:13:08Z</time>
      </trkpt>
      <trkpt lat="45.24804" lon="5.71307">
        <ele>520</ele>
        <time>2010-05-09T07:13:09Z</time>
      </trkpt>
      <trkpt lat="45.24804" lon="5.71311">
        <ele>520</ele>
        <time>2010-05-09T07:13:10Z</time>
      </trkpt>
      <trkpt lat="45.24803" lon="5.71316">
        <ele>520</ele>
        <time>2010-05-09T07:13:11Z</time>
      </trkpt>
      <trkpt lat="45.24801" lon="5.71319">
        <ele>520</ele>
        <time>2010-05-09T07:13:12Z</time>
      </trkpt>
      <trkpt lat="45.24799" lon="5.71324">
        <ele>520</ele>
        <time>2010-05-09T07:13:13Z</time>
      </trkpt>
      <trkpt lat="45.24797" lon="5.71328">
        <ele>520</ele>
        <time>2010-05-09T07:13:14Z</time>
      </trkpt>
      <trkpt lat="45.24796" lon="5.71331">
        <ele>520</ele>
        <time>2010-05-09T07:13:15Z</time>
      </trkpt>
      <trkpt lat="45.24795" lon="5.71334">
        <ele>520</ele>
        <time>2010-05-09T07:13:16Z</time>
      </trkpt>
      <trkpt lat="45.24793" lon="5.71338">
        <ele>520</ele>
        <time>2010-05-09T07:13:17Z</time>
      </trkpt>
      <trkpt lat="45.24791" lon="5.71342">
        <ele>520</ele>
        <time>2010-05-09T07:13:18Z</time>
      </trkpt>
      <trkpt lat="45.24789" lon="5.71346">
        <ele>520</ele>
        <time>2010-05-09T07:13:19Z</time>
      </trkpt>
      <trkpt lat="45.24786" lon="5.7135">
        <ele>520</ele>
        <time>2010-05-09T07:13:20Z</time>
      </trkpt>
      <trkpt lat="45.24783" lon="5.71355">
        <ele>520</ele>
        <time>2010-05-09T07:13:21Z</time>
      </trkpt>
      <trkpt lat="45.2478" lon="5.71359">
        <ele>520</ele>
        <time>2010-05-09T07:13:22Z</time>
      </trkpt>
      <trkpt lat="45.24777" lon="5.71363">
        <ele>520</ele>
        <time>2010-05-09T07:13:23Z</time>
      </trkpt>
      <trkpt lat="45.24774" lon="5.71367">
        <ele>520</ele>
        <time>2010-05-09T07:13:24Z</time>
      </trkpt>
      <trkpt lat="45.24772" lon="5.71369">
        <ele>520</ele>
        <time>2010-05-09T07:13:25Z</time>
      </trkpt>
      <trkpt lat="45.24769" lon="5.71372">
        <ele>520</ele>
        <time>2010-05-09T07:13:26Z</time>
      </trkpt>
      <trkpt lat="45.24766" lon="5.71376">
        <ele>520</ele>
        <time>2010-05-09T07:13:27Z</time>
      </trkpt>
      <trkpt lat="45.24763" lon="5.7138">
        <ele>520</ele>
        <time>2010-05-09T07:13:28Z</time>
      </trkpt>
      <trkpt lat="45.24761" lon="5.71383">
        <ele>520</ele>
        <time>2010-05-09T07:13:29Z</time>
      </trkpt>
      <trkpt lat="45.24759" lon="5.71387">
        <ele>520</ele>
        <time>2010-05-09T07:13:30Z</time>
      </trkpt>
      <trkpt lat="45.24756" lon="5.71391">
        <ele>520</ele>
        <time>2010-05-09T07:13:31Z</time>
      </trkpt>
      <trkpt lat="45.24754" lon="5.71393">
        <ele>520</ele>
        <time>2010-05-09T07:13:32Z</time>
      </trkpt>
      <trkpt lat="45.24751" lon="5.71396">
        <ele>520</ele>
        <time>2010-05-09T07:13:33Z</time>
      </trkpt>
      <trkpt lat="45.24749" lon="5.71398">
        <ele>520</ele>
        <time>2010-05-09T07:13:34Z</time>
      </trkpt>
      <trkpt lat="45.24747" lon="5.71402">
        <ele>520</ele>
        <time>2010-05-09T07:13:35Z</time>
      </trkpt>
      <trkpt lat="45.24744" lon="5.71405">
        <ele>520</ele>
        <time>2010-05-09T07:13:36Z</time>
      </trkpt>
      <trkpt lat="45.24743" lon="5.71409">
        <ele>520</ele>
        <time>2010-05-09T07:13:37Z</time>
      </trkpt>
      <trkpt lat="45.2474" lon="5.71412">
        <ele>520</ele>
        <time>2010-05-09T07:13:38Z</time>
      </trkpt>
      <trkpt lat="45.24738" lon="5.71415">
        <ele>520</ele>
        <time>2010-05-09T07:13:39Z</time>
      </trkpt>
      <trkpt lat="45.24737" lon="5.71419">
        <ele>520</ele>
        <time>2010-05-09T07:13:40Z</time>
      </trkpt>
      <trkpt lat="45.24736" lon="5.71422">
        <ele>520</ele>
        <time>2010-05-09T07:13:41Z</time>
      </trkpt>
      <trkpt lat="45.24735" lon="5.71425">
        <ele>520</ele>
        <time>2010-05-09T07:13:42Z</time>
      </trkpt>
      <trkpt lat="45.24733" lon="5.71428">
        <ele>520</ele>
        <time>2010-05-09T07:13:43Z</time>
      </trkpt>
      <trkpt lat="45.24731" lon="5.71433">
        <ele>520</ele>
        <time>2010-05-09T07:13:44Z</time>
      </trkpt>
      <trkpt lat="45.24728" lon="5.71439">
        <ele>520</ele>
        <time>2010-05-09T07:13:45Z</time>
      </trkpt>
      <trkpt lat="45.24725" lon="5.71446">
        <ele>520</ele>
        <time>2010-05-09T07:13:46Z</time>
      </trkpt>
      <trkpt lat="45.24723" lon="5.7145">
        <ele>520</ele>
        <time>2010-05-09T07:13:47Z</time>
      </trkpt>
      <trkpt lat="45.2472" lon="5.71453">
        <ele>521</ele>
        <time>2010-05-09T07:13:48Z</time>
      </trkpt>
      <trkpt lat="45.24718" lon="5.71456">
        <ele>522</ele>
        <time>2010-05-09T07:13:49Z</time>
      </trkpt>
      <trkpt lat="45.24715" lon="5.7146">
        <ele>523</ele>
        <time>2010-05-09T07:13:50Z</time>
      </trkpt>
      <trkpt lat="45.24713" lon="5.71463">
        <ele>523</ele>
        <time>2010-05-09T07:13:51Z</time>
      </trkpt>
      <trkpt lat="45.24711" lon="5.71467">
        <ele>523</ele>
        <time>2010-05-09T07:13:52Z</time>
      </trkpt>
      <trkpt lat="45.24709" lon="5.71472">
        <ele>523</ele>
        <time>2010-05-09T07:13:53Z</time>
      </trkpt>
      <trkpt lat="45.24707" lon="5.71477">
        <ele>523</ele>
        <time>2010-05-09T07:13:54Z</time>
      </trkpt>
      <trkpt lat="45.24704" lon="5.71483">
        <ele>523</ele>
        <time>2010-05-09T07:13:55Z</time>
      </trkpt>
      <trkpt lat="45.24702" lon="5.71488">
        <ele>523</ele>
        <time>2010-05-09T07:13:56Z</time>
      </trkpt>
      <trkpt lat="45.24701" lon="5.71493">
        <ele>523</ele>
        <time>2010-05-09T07:13:57Z</time>
      </trkpt>
      <trkpt lat="45.24699" lon="5.71497">
        <ele>523</ele>
        <time>2010-05-09T07:13:58Z</time>
      </trkpt>
      <trkpt lat="45.24697" lon="5.71502">
        <ele>523</ele>
        <time>2010-05-09T07:13:59Z</time>
      </trkpt>
      <trkpt lat="45.24695" lon="5.71506">
        <ele>523</ele>
        <time>2010-05-09T07:14:00Z</time>
      </trkpt>
      <trkpt lat="45.24694" lon="5.71509">
        <ele>523</ele>
        <time>2010-05-09T07:14:01Z</time>
      </trkpt>
      <trkpt lat="45.24692" lon="5.71512">
        <ele>523</ele>
        <time>2010-05-09T07:14:02Z</time>
      </trkpt>
      <trkpt lat="45.24691" lon="5.71517">
        <ele>523</ele>
        <time>2010-05-09T07:14:03Z</time>
      </trkpt>
      <trkpt lat="45.24689" lon="5.7152">
        <ele>523</ele>
        <time>2010-05-09T07:14:04Z</time>
      </trkpt>
      <trkpt lat="45.24686" lon="5.71524">
        <ele>523</ele>
        <time>2010-05-09T07:14:05Z</time>
      </trkpt>
      <trkpt lat="45.24684" lon="5.71528">
        <ele>523</ele>
        <time>2010-05-09T07:14:06Z</time>
      </trkpt>
      <trkpt lat="45.24682" lon="5.71532">
        <ele>523</ele>
        <time>2010-05-09T07:14:07Z</time>
      </trkpt>
      <trkpt lat="45.2468" lon="5.71537">
        <ele>523</ele>
        <time>2010-05-09T07:14:08Z</time>
      </trkpt>
      <trkpt lat="45.24678" lon="5.7154">
        <ele>523</ele>
        <time>2010-05-09T07:14:09Z</time>
      </trkpt>
      <trkpt lat="45.24675" lon="5.71544">
        <ele>523</ele>
        <time>2010-05-09T07:14:10Z</time>
      </trkpt>
      <trkpt lat="45.24674" lon="5.71547">
        <ele>523</ele>
        <time>2010-05-09T07:14:11Z</time>
      </trkpt>
      <trkpt lat="45.24672" lon="5.71551">
        <ele>523</ele>
        <time>2010-05-09T07:14:12Z</time>
      </trkpt>
      <trkpt lat="45.2467" lon="5.71556">
        <ele>523</ele>
        <time>2010-05-09T07:14:13Z</time>
      </trkpt>
      <trkpt lat="45.24668" lon="5.71561">
        <ele>523</ele>
        <time>2010-05-09T07:14:14Z</time>
      </trkpt>
      <trkpt lat="45.24666" lon="5.71565">
        <ele>523</ele>
        <time>2010-05-09T07:14:15Z</time>
      </trkpt>
      <trkpt lat="45.24664" lon="5.71568">
        <ele>523</ele>
        <time>2010-05-09T07:14:16Z</time>
      </trkpt>
      <trkpt lat="45.24662" lon="5.7157">
        <ele>522</ele>
        <time>2010-05-09T07:14:17Z</time>
      </trkpt>
      <trkpt lat="45.2466" lon="5.71574">
        <ele>522</ele>
        <time>2010-05-09T07:14:18Z</time>
      </trkpt>
      <trkpt lat="45.24658" lon="5.71578">
        <ele>521</ele>
        <time>2010-05-09T07:14:19Z</time>
      </trkpt>
      <trkpt lat="45.24656" lon="5.71581">
        <ele>520</ele>
        <time>2010-05-09T07:14:20Z</time>
      </trkpt>
      <trkpt lat="45.24653" lon="5.71585">
        <ele>519</ele>
        <time>2010-05-09T07:14:21Z</time>
      </trkpt>
      <trkpt lat="45.24651" lon="5.7159">
        <ele>519</ele>
        <time>2010-05-09T07:14:22Z</time>
      </trkpt>
      <trkpt lat="45.24649" lon="5.71594">
        <ele>518</ele>
        <time>2010-05-09T07:14:23Z</time>
      </trkpt>
      <trkpt lat="45.24645" lon="5.71599">
        <ele>518</ele>
        <time>2010-05-09T07:14:24Z</time>
      </trkpt>
      <trkpt lat="45.24643" lon="5.71605">
        <ele>518</ele>
        <time>2010-05-09T07:14:25Z</time>
      </trkpt>
      <trkpt lat="45.24641" lon="5.7161">
        <ele>518</ele>
        <time>2010-05-09T07:14:26Z</time>
      </trkpt>
      <trkpt lat="45.24639" lon="5.71615">
        <ele>518</ele>
        <time>2010-05-09T07:14:27Z</time>
      </trkpt>
      <trkpt lat="45.24636" lon="5.71619">
        <ele>518</ele>
        <time>2010-05-09T07:14:28Z</time>
      </trkpt>
      <trkpt lat="45.24634" lon="5.71623">
        <ele>518</ele>
        <time>2010-05-09T07:14:29Z</time>
      </trkpt>
      <trkpt lat="45.24633" lon="5.71627">
        <ele>518</ele>
        <time>2010-05-09T07:14:30Z</time>
      </trkpt>
      <trkpt lat="45.24631" lon="5.71631">
        <ele>518</ele>
        <time>2010-05-09T07:14:31Z</time>
      </trkpt>
      <trkpt lat="45.2463" lon="5.71635">
        <ele>518</ele>
        <time>2010-05-09T07:14:32Z</time>
      </trkpt>
      <trkpt lat="45.24629" lon="5.71638">
        <ele>518</ele>
        <time>2010-05-09T07:14:33Z</time>
      </trkpt>
      <trkpt lat="45.24627" lon="5.71642">
        <ele>518</ele>
        <time>2010-05-09T07:14:34Z</time>
      </trkpt>
      <trkpt lat="45.24626" lon="5.71645">
        <ele>517</ele>
        <time>2010-05-09T07:14:35Z</time>
      </trkpt>
      <trkpt lat="45.24625" lon="5.71649">
        <ele>516</ele>
        <time>2010-05-09T07:14:36Z</time>
      </trkpt>
      <trkpt lat="45.24623" lon="5.71655">
        <ele>516</ele>
        <time>2010-05-09T07:14:37Z</time>
      </trkpt>
      <trkpt lat="45.24621" lon="5.71661">
        <ele>516</ele>
        <time>2010-05-09T07:14:38Z</time>
      </trkpt>
      <trkpt lat="45.2462" lon="5.71665">
        <ele>516</ele>
        <time>2010-05-09T07:14:39Z</time>
      </trkpt>
      <trkpt lat="45.2462" lon="5.7167">
        <ele>516</ele>
        <time>2010-05-09T07:14:40Z</time>
      </trkpt>
      <trkpt lat="45.24619" lon="5.71673">
        <ele>516</ele>
        <time>2010-05-09T07:14:41Z</time>
      </trkpt>
      <trkpt lat="45.24617" lon="5.71678">
        <ele>516</ele>
        <time>2010-05-09T07:14:42Z</time>
      </trkpt>
      <trkpt lat="45.24617" lon="5.71684">
        <ele>516</ele>
        <time>2010-05-09T07:14:43Z</time>
      </trkpt>
      <trkpt lat="45.24615" lon="5.71689">
        <ele>515</ele>
        <time>2010-05-09T07:14:44Z</time>
      </trkpt>
      <trkpt lat="45.24614" lon="5.71695">
        <ele>515</ele>
        <time>2010-05-09T07:14:45Z</time>
      </trkpt>
      <trkpt lat="45.24614" lon="5.71701">
        <ele>515</ele>
        <time>2010-05-09T07:14:46Z</time>
      </trkpt>
      <trkpt lat="45.24613" lon="5.71705">
        <ele>515</ele>
        <time>2010-05-09T07:14:47Z</time>
      </trkpt>
      <trkpt lat="45.24612" lon="5.7171">
        <ele>515</ele>
        <time>2010-05-09T07:14:48Z</time>
      </trkpt>
      <trkpt lat="45.24612" lon="5.71714">
        <ele>515</ele>
        <time>2010-05-09T07:14:49Z</time>
      </trkpt>
      <trkpt lat="45.24612" lon="5.71716">
        <ele>515</ele>
        <time>2010-05-09T07:14:50Z</time>
      </trkpt>
      <trkpt lat="45.24612" lon="5.71721">
        <ele>515</ele>
        <time>2010-05-09T07:14:51Z</time>
      </trkpt>
      <trkpt lat="45.24611" lon="5.71726">
        <ele>515</ele>
        <time>2010-05-09T07:14:52Z</time>
      </trkpt>
      <trkpt lat="45.2461" lon="5.71731">
        <ele>515</ele>
        <time>2010-05-09T07:14:53Z</time>
      </trkpt>
      <trkpt lat="45.2461" lon="5.71735">
        <ele>515</ele>
        <time>2010-05-09T07:14:54Z</time>
      </trkpt>
      <trkpt lat="45.24609" lon="5.71738">
        <ele>515</ele>
        <time>2010-05-09T07:14:55Z</time>
      </trkpt>
      <trkpt lat="45.2461" lon="5.71742">
        <ele>515</ele>
        <time>2010-05-09T07:14:56Z</time>
      </trkpt>
      <trkpt lat="45.2461" lon="5.71746">
        <ele>515</ele>
        <time>2010-05-09T07:14:57Z</time>
      </trkpt>
      <trkpt lat="45.24611" lon="5.7175">
        <ele>515</ele>
        <time>2010-05-09T07:14:58Z</time>
      </trkpt>
      <trkpt lat="45.24611" lon="5.71754">
        <ele>515</ele>
        <time>2010-05-09T07:14:59Z</time>
      </trkpt>
      <trkpt lat="45.2461" lon="5.71758">
        <ele>515</ele>
        <time>2010-05-09T07:15:00Z</time>
      </trkpt>
      <trkpt lat="45.2461" lon="5.71763">
        <ele>515</ele>
        <time>2010-05-09T07:15:01Z</time>
      </trkpt>
      <trkpt lat="45.24609" lon="5.71767">
        <ele>515</ele>
        <time>2010-05-09T07:15:02Z</time>
      </trkpt>
      <trkpt lat="45.24609" lon="5.71771">
        <ele>515</ele>
        <time>2010-05-09T07:15:03Z</time>
      </trkpt>
      <trkpt lat="45.24608" lon="5.71774">
        <ele>515</ele>
        <time>2010-05-09T07:15:04Z</time>
      </trkpt>
      <trkpt lat="45.24607" lon="5.71778">
        <ele>515</ele>
        <time>2010-05-09T07:15:05Z</time>
      </trkpt>
      <trkpt lat="45.24606" lon="5.71782">
        <ele>515</ele>
        <time>2010-05-09T07:15:06Z</time>
      </trkpt>
      <trkpt lat="45.24605" lon="5.71786">
        <ele>515</ele>
        <time>2010-05-09T07:15:07Z</time>
      </trkpt>
      <trkpt lat="45.24603" lon="5.7179">
        <ele>516</ele>
        <time>2010-05-09T07:15:08Z</time>
      </trkpt>
      <trkpt lat="45.24601" lon="5.71795">
        <ele>516</ele>
        <time>2010-05-09T07:15:09Z</time>
      </trkpt>
      <trkpt lat="45.24599" lon="5.718">
        <ele>516</ele>
        <time>2010-05-09T07:15:10Z</time>
      </trkpt>
      <trkpt lat="45.24597" lon="5.71804">
        <ele>516</ele>
        <time>2010-05-09T07:15:11Z</time>
      </trkpt>
      <trkpt lat="45.24594" lon="5.71811">
        <ele>516</ele>
        <time>2010-05-09T07:15:12Z</time>
      </trkpt>
      <trkpt lat="45.24592" lon="5.71816">
        <ele>517</ele>
        <time>2010-05-09T07:15:13Z</time>
      </trkpt>
      <trkpt lat="45.24591" lon="5.7182">
        <ele>517</ele>
        <time>2010-05-09T07:15:14Z</time>
      </trkpt>
      <trkpt lat="45.2459" lon="5.71824">
        <ele>518</ele>
        <time>2010-05-09T07:15:15Z</time>
      </trkpt>
      <trkpt lat="45.2459" lon="5.71827">
        <ele>518</ele>
        <time>2010-05-09T07:15:16Z</time>
      </trkpt>
      <trkpt lat="45.24588" lon="5.71831">
        <ele>519</ele>
        <time>2010-05-09T07:15:17Z</time>
      </trkpt>
      <trkpt lat="45.24587" lon="5.71835">
        <ele>519</ele>
        <time>2010-05-09T07:15:18Z</time>
      </trkpt>
      <trkpt lat="45.24586" lon="5.71839">
        <ele>519</ele>
        <time>2010-05-09T07:15:19Z</time>
      </trkpt>
      <trkpt lat="45.24584" lon="5.71843">
        <ele>519</ele>
        <time>2010-05-09T07:15:20Z</time>
      </trkpt>
      <trkpt lat="45.24582" lon="5.71847">
        <ele>519</ele>
        <time>2010-05-09T07:15:21Z</time>
      </trkpt>
      <trkpt lat="45.2458" lon="5.71851">
        <ele>519</ele>
        <time>2010-05-09T07:15:22Z</time>
      </trkpt>
      <trkpt lat="45.24577" lon="5.71855">
        <ele>519</ele>
        <time>2010-05-09T07:15:23Z</time>
      </trkpt>
      <trkpt lat="45.24575" lon="5.71859">
        <ele>519</ele>
        <time>2010-05-09T07:15:24Z</time>
      </trkpt>
      <trkpt lat="45.24572" lon="5.71862">
        <ele>519</ele>
        <time>2010-05-09T07:15:25Z</time>
      </trkpt>
      <trkpt lat="45.24569" lon="5.71865">
        <ele>520</ele>
        <time>2010-05-09T07:15:26Z</time>
      </trkpt>
      <trkpt lat="45.24567" lon="5.71867">
        <ele>520</ele>
        <time>2010-05-09T07:15:27Z</time>
      </trkpt>
      <trkpt lat="45.24565" lon="5.71869">
        <ele>520</ele>
        <time>2010-05-09T07:15:28Z</time>
      </trkpt>
      <trkpt lat="45.24563" lon="5.71871">
        <ele>520</ele>
        <time>2010-05-09T07:15:29Z</time>
      </trkpt>
      <trkpt lat="45.24561" lon="5.71872">
        <ele>520</ele>
        <time>2010-05-09T07:15:30Z</time>
      </trkpt>
      <trkpt lat="45.24558" lon="5.71874">
        <ele>520</ele>
        <time>2010-05-09T07:15:31Z</time>
      </trkpt>
      <trkpt lat="45.24556" lon="5.71876">
        <ele>520</ele>
        <time>2010-05-09T07:15:32Z</time>
      </trkpt>
      <trkpt lat="45.24555" lon="5.71877">
        <ele>520</ele>
        <time>2010-05-09T07:15:33Z</time>
      </trkpt>
      <trkpt lat="45.24553" lon="5.71879">
        <ele>520</ele>
        <time>2010-05-09T07:15:34Z</time>
      </trkpt>
      <trkpt lat="45.24551" lon="5.71881">
        <ele>521</ele>
        <time>2010-05-09T07:15:35Z</time>
      </trkpt>
      <trkpt lat="45.2455" lon="5.71883">
        <ele>521</ele>
        <time>2010-05-09T07:15:36Z</time>
      </trkpt>
      <trkpt lat="45.24548" lon="5.71886">
        <ele>522</ele>
        <time>2010-05-09T07:15:37Z</time>
      </trkpt>
      <trkpt lat="45.24546" lon="5.71889">
        <ele>522</ele>
        <time>2010-05-09T07:15:38Z</time>
      </trkpt>
      <trkpt lat="45.24543" lon="5.71893">
        <ele>522</ele>
        <time>2010-05-09T07:15:39Z</time>
      </trkpt>
      <trkpt lat="45.24541" lon="5.71895">
        <ele>522</ele>
        <time>2010-05-09T07:15:40Z</time>
      </trkpt>
      <trkpt lat="45.24539" lon="5.71898">
        <ele>523</ele>
        <time>2010-05-09T07:15:41Z</time>
      </trkpt>
      <trkpt lat="45.24538" lon="5.71899">
        <ele>523</ele>
        <time>2010-05-09T07:15:42Z</time>
      </trkpt>
      <trkpt lat="45.24535" lon="5.71902">
        <ele>523</ele>
        <time>2010-05-09T07:15:43Z</time>
      </trkpt>
      <trkpt lat="45.24532" lon="5.71906">
        <ele>524</ele>
        <time>2010-05-09T07:15:44Z</time>
      </trkpt>
      <trkpt lat="45.2453" lon="5.71909">
        <ele>525</ele>
        <time>2010-05-09T07:15:45Z</time>
      </trkpt>
      <trkpt lat="45.24529" lon="5.71912">
        <ele>526</ele>
        <time>2010-05-09T07:15:46Z</time>
      </trkpt>
      <trkpt lat="45.24527" lon="5.71914">
        <ele>526</ele>
        <time>2010-05-09T07:15:47Z</time>
      </trkpt>
      <trkpt lat="45.24526" lon="5.71917">
        <ele>527</ele>
        <time>2010-05-09T07:15:48Z</time>
      </trkpt>
      <trkpt lat="45.24524" lon="5.7192">
        <ele>528</ele>
        <time>2010-05-09T07:15:49Z</time>
      </trkpt>
      <trkpt lat="45.24522" lon="5.71923">
        <ele>528</ele>
        <time>2010-05-09T07:15:50Z</time>
      </trkpt>
      <trkpt lat="45.2452" lon="5.71925">
        <ele>529</ele>
        <time>2010-05-09T07:15:51Z</time>
      </trkpt>
      <trkpt lat="45.24519" lon="5.71928">
        <ele>529</ele>
        <time>2010-05-09T07:15:52Z</time>
      </trkpt>
      <trkpt lat="45.24518" lon="5.71931">
        <ele>529</ele>
        <time>2010-05-09T07:15:53Z</time>
      </trkpt>
      <trkpt lat="45.24517" lon="5.71935">
        <ele>529</ele>
        <time>2010-05-09T07:15:54Z</time>
      </trkpt>
      <trkpt lat="45.24515" lon="5.71939">
        <ele>529</ele>
        <time>2010-05-09T07:15:55Z</time>
      </trkpt>
      <trkpt lat="45.24514" lon="5.71944">
        <ele>529</ele>
        <time>2010-05-09T07:15:56Z</time>
      </trkpt>
      <trkpt lat="45.24511" lon="5.71948">
        <ele>529</ele>
        <time>2010-05-09T07:15:57Z</time>
      </trkpt>
      <trkpt lat="45.24509" lon="5.7195">
        <ele>529</ele>
        <time>2010-05-09T07:15:58Z</time>
      </trkpt>
      <trkpt lat="45.24508" lon="5.71953">
        <ele>529</ele>
        <time>2010-05-09T07:15:59Z</time>
      </trkpt>
      <trkpt lat="45.24506" lon="5.71956">
        <ele>529</ele>
        <time>2010-05-09T07:16:00Z</time>
      </trkpt>
      <trkpt lat="45.24504" lon="5.71959">
        <ele>529</ele>
        <time>2010-05-09T07:16:01Z</time>
      </trkpt>
      <trkpt lat="45.24501" lon="5.71962">
        <ele>529</ele>
        <time>2010-05-09T07:16:02Z</time>
      </trkpt>
      <trkpt lat="45.24499" lon="5.71966">
        <ele>529</ele>
        <time>2010-05-09T07:16:03Z</time>
      </trkpt>
      <trkpt lat="45.24495" lon="5.71972">
        <ele>529</ele>
        <time>2010-05-09T07:16:04Z</time>
      </trkpt>
      <trkpt lat="45.24492" lon="5.71975">
        <ele>529</ele>
        <time>2010-05-09T07:16:05Z</time>
      </trkpt>
      <trkpt lat="45.24489" lon="5.71978">
        <ele>529</ele>
        <time>2010-05-09T07:16:06Z</time>
      </trkpt>
      <trkpt lat="45.24485" lon="5.71981">
        <ele>529</ele>
        <time>2010-05-09T07:16:07Z</time>
      </trkpt>
      <trkpt lat="45.24482" lon="5.71983">
        <ele>529</ele>
        <time>2010-05-09T07:16:08Z</time>
      </trkpt>
      <trkpt lat="45.24479" lon="5.71985">
        <ele>529</ele>
        <time>2010-05-09T07:16:09Z</time>
      </trkpt>
      <trkpt lat="45.24477" lon="5.71985">
        <ele>529</ele>
        <time>2010-05-09T07:16:10Z</time>
      </trkpt>
      <trkpt lat="45.24473" lon="5.71986">
        <ele>529</ele>
        <time>2010-05-09T07:16:11Z</time>
      </trkpt>
      <trkpt lat="45.24471" lon="5.71986">
        <ele>529</ele>
        <time>2010-05-09T07:16:12Z</time>
      </trkpt>
      <trkpt lat="45.24467" lon="5.71987">
        <ele>529</ele>
        <time>2010-05-09T07:16:13Z</time>
      </trkpt>
      <trkpt lat="45.24465" lon="5.71986">
        <ele>529</ele>
        <time>2010-05-09T07:16:14Z</time>
      </trkpt>
      <trkpt lat="45.24462" lon="5.71987">
        <ele>529</ele>
        <time>2010-05-09T07:16:15Z</time>
      </trkpt>
      <trkpt lat="45.2446" lon="5.71986">
        <ele>529</ele>
        <time>2010-05-09T07:16:16Z</time>
      </trkpt>
      <trkpt lat="45.24458" lon="5.71985">
        <ele>529</ele>
        <time>2010-05-09T07:16:17Z</time>
      </trkpt>
      <trkpt lat="45.24456" lon="5.71985">
        <ele>529</ele>
        <time>2010-05-09T07:16:18Z</time>
      </trkpt>
      <trkpt lat="45.24453" lon="5.71986">
        <ele>529</ele>
        <time>2010-05-09T07:16:19Z</time>
      </trkpt>
      <trkpt lat="45.24449" lon="5.71987">
        <ele>529</ele>
        <time>2010-05-09T07:16:20Z</time>
      </trkpt>
      <trkpt lat="45.24446" lon="5.71989">
        <ele>528</ele>
        <time>2010-05-09T07:16:21Z</time>
      </trkpt>
      <trkpt lat="45.24443" lon="5.7199">
        <ele>528</ele>
        <time>2010-05-09T07:16:22Z</time>
      </trkpt>
      <trkpt lat="45.2444" lon="5.71992">
        <ele>528</ele>
        <time>2010-05-09T07:16:23Z</time>
      </trkpt>
      <trkpt lat="45.24438" lon="5.71993">
        <ele>528</ele>
        <time>2010-05-09T07:16:24Z</time>
      </trkpt>
      <trkpt lat="45.24436" lon="5.71994">
        <ele>528</ele>
        <time>2010-05-09T07:16:25Z</time>
      </trkpt>
      <trkpt lat="45.24432" lon="5.71996">
        <ele>528</ele>
        <time>2010-05-09T07:16:26Z</time>
      </trkpt>
      <trkpt lat="45.2443" lon="5.71998">
        <ele>528</ele>
        <time>2010-05-09T07:16:27Z</time>
      </trkpt>
      <trkpt lat="45.24427" lon="5.72001">
        <ele>528</ele>
        <time>2010-05-09T07:16:28Z</time>
      </trkpt>
      <trkpt lat="45.24425" lon="5.72003">
        <ele>528</ele>
        <time>2010-05-09T07:16:29Z</time>
      </trkpt>
      <trkpt lat="45.24423" lon="5.72004">
        <ele>528</ele>
        <time>2010-05-09T07:16:30Z</time>
      </trkpt>
      <trkpt lat="45.2442" lon="5.72006">
        <ele>528</ele>
        <time>2010-05-09T07:16:31Z</time>
      </trkpt>
      <trkpt lat="45.24417" lon="5.72009">
        <ele>528</ele>
        <time>2010-05-09T07:16:32Z</time>
      </trkpt>
      <trkpt lat="45.24414" lon="5.7201">
        <ele>528</ele>
        <time>2010-05-09T07:16:33Z</time>
      </trkpt>
      <trkpt lat="45.24412" lon="5.72012">
        <ele>528</ele>
        <time>2010-05-09T07:16:34Z</time>
      </trkpt>
      <trkpt lat="45.24409" lon="5.72014">
        <ele>528</ele>
        <time>2010-05-09T07:16:35Z</time>
      </trkpt>
      <trkpt lat="45.24407" lon="5.72017">
        <ele>528</ele>
        <time>2010-05-09T07:16:36Z</time>
      </trkpt>
      <trkpt lat="45.24404" lon="5.7202">
        <ele>528</ele>
        <time>2010-05-09T07:16:37Z</time>
      </trkpt>
      <trkpt lat="45.24401" lon="5.72024">
        <ele>528</ele>
        <time>2010-05-09T07:16:38Z</time>
      </trkpt>
      <trkpt lat="45.244" lon="5.72025">
        <ele>528</ele>
        <time>2010-05-09T07:16:39Z</time>
      </trkpt>
      <trkpt lat="45.24397" lon="5.72028">
        <ele>529</ele>
        <time>2010-05-09T07:16:40Z</time>
      </trkpt>
      <trkpt lat="45.24394" lon="5.72032">
        <ele>530</ele>
        <time>2010-05-09T07:16:41Z</time>
      </trkpt>
      <trkpt lat="45.24391" lon="5.72035">
        <ele>531</ele>
        <time>2010-05-09T07:16:42Z</time>
      </trkpt>
      <trkpt lat="45.24389" lon="5.72037">
        <ele>532</ele>
        <time>2010-05-09T07:16:43Z</time>
      </trkpt>
      <trkpt lat="45.24387" lon="5.72039">
        <ele>533</ele>
        <time>2010-05-09T07:16:44Z</time>
      </trkpt>
      <trkpt lat="45.24385" lon="5.7204">
        <ele>533</ele>
        <time>2010-05-09T07:16:45Z</time>
      </trkpt>
      <trkpt lat="45.24383" lon="5.72041">
        <ele>533</ele>
        <time>2010-05-09T07:16:46Z</time>
      </trkpt>
      <trkpt lat="45.24381" lon="5.72042">
        <ele>533</ele>
        <time>2010-05-09T07:16:47Z</time>
      </trkpt>
      <trkpt lat="45.24378" lon="5.72044">
        <ele>533</ele>
        <time>2010-05-09T07:16:48Z</time>
      </trkpt>
      <trkpt lat="45.24377" lon="5.72044">
        <ele>533</ele>
        <time>2010-05-09T07:16:49Z</time>
      </trkpt>
      <trkpt lat="45.24375" lon="5.72045">
        <ele>533</ele>
        <time>2010-05-09T07:16:50Z</time>
      </trkpt>
      <trkpt lat="45.24373" lon="5.72046">
        <ele>533</ele>
        <time>2010-05-09T07:16:51Z</time>
      </trkpt>
      <trkpt lat="45.24372" lon="5.72048">
        <ele>533</ele>
        <time>2010-05-09T07:16:52Z</time>
      </trkpt>
      <trkpt lat="45.2437" lon="5.72049">
        <ele>533</ele>
        <time>2010-05-09T07:16:53Z</time>
      </trkpt>
      <trkpt lat="45.24369" lon="5.7205">
        <ele>533</ele>
        <time>2010-05-09T07:16:54Z</time>
      </trkpt>
      <trkpt lat="45.24366" lon="5.72052">
        <ele>533</ele>
        <time>2010-05-09T07:16:55Z</time>
      </trkpt>
      <trkpt lat="45.24364" lon="5.72054">
        <ele>533</ele>
        <time>2010-05-09T07:16:56Z</time>
      </trkpt>
      <trkpt lat="45.24363" lon="5.72056">
        <ele>533</ele>
        <time>2010-05-09T07:16:57Z</time>
      </trkpt>
      <trkpt lat="45.24361" lon="5.72058">
        <ele>533</ele>
        <time>2010-05-09T07:16:58Z</time>
      </trkpt>
      <trkpt lat="45.2436" lon="5.72059">
        <ele>533</ele>
        <time>2010-05-09T07:16:59Z</time>
      </trkpt>
      <trkpt lat="45.24358" lon="5.7206">
        <ele>533</ele>
        <time>2010-05-09T07:17:00Z</time>
      </trkpt>
      <trkpt lat="45.24357" lon="5.7206">
        <ele>533</ele>
        <time>2010-05-09T07:17:01Z</time>
      </trkpt>
      <trkpt lat="45.24355" lon="5.72061">
        <ele>534</ele>
        <time>2010-05-09T07:17:02Z</time>
      </trkpt>
      <trkpt lat="45.24353" lon="5.72062">
        <ele>534</ele>
        <time>2010-05-09T07:17:03Z</time>
      </trkpt>
      <trkpt lat="45.24351" lon="5.72065">
        <ele>534</ele>
        <time>2010-05-09T07:17:04Z</time>
      </trkpt>
      <trkpt lat="45.24348" lon="5.7207">
        <ele>535</ele>
        <time>2010-05-09T07:17:05Z</time>
      </trkpt>
      <trkpt lat="45.24347" lon="5.72072">
        <ele>535</ele>
        <time>2010-05-09T07:17:06Z</time>
      </trkpt>
      <trkpt lat="45.24346" lon="5.72074">
        <ele>536</ele>
        <time>2010-05-09T07:17:07Z</time>
      </trkpt>
      <trkpt lat="45.24345" lon="5.72076">
        <ele>536</ele>
        <time>2010-05-09T07:17:08Z</time>
      </trkpt>
      <trkpt lat="45.24343" lon="5.72079">
        <ele>537</ele>
        <time>2010-05-09T07:17:09Z</time>
      </trkpt>
      <trkpt lat="45.24342" lon="5.72082">
        <ele>537</ele>
        <time>2010-05-09T07:17:10Z</time>
      </trkpt>
      <trkpt lat="45.2434" lon="5.72085">
        <ele>537</ele>
        <time>2010-05-09T07:17:11Z</time>
      </trkpt>
      <trkpt lat="45.24339" lon="5.72088">
        <ele>538</ele>
        <time>2010-05-09T07:17:12Z</time>
      </trkpt>
      <trkpt lat="45.24337" lon="5.72091">
        <ele>538</ele>
        <time>2010-05-09T07:17:13Z</time>
      </trkpt>
      <trkpt lat="45.24336" lon="5.72093">
        <ele>538</ele>
        <time>2010-05-09T07:17:14Z</time>
      </trkpt>
      <trkpt lat="45.24334" lon="5.72096">
        <ele>538</ele>
        <time>2010-05-09T07:17:15Z</time>
      </trkpt>
      <trkpt lat="45.24333" lon="5.72099">
        <ele>538</ele>
        <time>2010-05-09T07:17:16Z</time>
      </trkpt>
      <trkpt lat="45.24332" lon="5.72103">
        <ele>538</ele>
        <time>2010-05-09T07:17:17Z</time>
      </trkpt>
      <trkpt lat="45.24331" lon="5.72107">
        <ele>538</ele>
        <time>2010-05-09T07:17:18Z</time>
      </trkpt>
      <trkpt lat="45.24329" lon="5.7211">
        <ele>538</ele>
        <time>2010-05-09T07:17:19Z</time>
      </trkpt>
      <trkpt lat="45.24328" lon="5.72113">
        <ele>538</ele>
        <time>2010-05-09T07:17:20Z</time>
      </trkpt>
      <trkpt lat="45.24327" lon="5.72116">
        <ele>538</ele>
        <time>2010-05-09T07:17:21Z</time>
      </trkpt>
      <trkpt lat="45.24326" lon="5.72119">
        <ele>538</ele>
        <time>2010-05-09T07:17:22Z</time>
      </trkpt>
      <trkpt lat="45.24325" lon="5.72122">
        <ele>538</ele>
        <time>2010-05-09T07:17:23Z</time>
      </trkpt>
      <trkpt lat="45.24324" lon="5.72125">
        <ele>538</ele>
        <time>2010-05-09T07:17:24Z</time>
      </trkpt>
      <trkpt lat="45.24322" lon="5.72128">
        <ele>538</ele>
        <time>2010-05-09T07:17:25Z</time>
      </trkpt>
      <trkpt lat="45.2432" lon="5.72131">
        <ele>538</ele>
        <time>2010-05-09T07:17:26Z</time>
      </trkpt>
      <trkpt lat="45.24318" lon="5.72133">
        <ele>538</ele>
        <time>2010-05-09T07:17:27Z</time>
      </trkpt>
      <trkpt lat="45.24316" lon="5.72133">
        <ele>538</ele>
        <time>2010-05-09T07:17:28Z</time>
      </trkpt>
      <trkpt lat="45.24314" lon="5.7213">
        <ele>539</ele>
        <time>2010-05-09T07:17:29Z</time>
      </trkpt>
      <trkpt lat="45.24313" lon="5.72128">
        <ele>539</ele>
        <time>2010-05-09T07:17:30Z</time>
      </trkpt>
      <trkpt lat="45.24312" lon="5.72126">
        <ele>539</ele>
        <time>2010-05-09T07:17:31Z</time>
      </trkpt>
      <trkpt lat="45.24311" lon="5.72124">
        <ele>539</ele>
        <time>2010-05-09T07:17:33Z</time>
      </trkpt>
      <trkpt lat="45.24309" lon="5.72123">
        <ele>539</ele>
        <time>2010-05-09T07:17:34Z</time>
      </trkpt>
      <trkpt lat="45.24308" lon="5.72121">
        <ele>539</ele>
        <time>2010-05-09T07:17:35Z</time>
      </trkpt>
      <trkpt lat="45.24306" lon="5.72121">
        <ele>539</ele>
        <time>2010-05-09T07:17:36Z</time>
      </trkpt>
      <trkpt lat="45.24305" lon="5.7212">
        <ele>539</ele>
        <time>2010-05-09T07:17:37Z</time>
      </trkpt>
      <trkpt lat="45.24303" lon="5.72118">
        <ele>539</ele>
        <time>2010-05-09T07:17:38Z</time>
      </trkpt>
      <trkpt lat="45.24302" lon="5.72116">
        <ele>539</ele>
        <time>2010-05-09T07:17:39Z</time>
      </trkpt>
      <trkpt lat="45.243" lon="5.72114">
        <ele>539</ele>
        <time>2010-05-09T07:17:40Z</time>
      </trkpt>
      <trkpt lat="45.243" lon="5.72111">
        <ele>539</ele>
        <time>2010-05-09T07:17:41Z</time>
      </trkpt>
      <trkpt lat="45.24298" lon="5.72109">
        <ele>539</ele>
        <time>2010-05-09T07:17:42Z</time>
      </trkpt>
      <trkpt lat="45.24297" lon="5.72108">
        <ele>539</ele>
        <time>2010-05-09T07:17:43Z</time>
      </trkpt>
      <trkpt lat="45.24295" lon="5.72106">
        <ele>539</ele>
        <time>2010-05-09T07:17:44Z</time>
      </trkpt>
      <trkpt lat="45.24295" lon="5.72104">
        <ele>539</ele>
        <time>2010-05-09T07:17:45Z</time>
      </trkpt>
      <trkpt lat="45.24294" lon="5.72101">
        <ele>539</ele>
        <time>2010-05-09T07:17:46Z</time>
      </trkpt>
      <trkpt lat="45.24294" lon="5.72098">
        <ele>539</ele>
        <time>2010-05-09T07:17:47Z</time>
      </trkpt>
      <trkpt lat="45.24293" lon="5.72095">
        <ele>539</ele>
        <time>2010-05-09T07:17:48Z</time>
      </trkpt>
      <trkpt lat="45.24292" lon="5.72093">
        <ele>539</ele>
        <time>2010-05-09T07:17:49Z</time>
      </trkpt>
      <trkpt lat="45.24291" lon="5.72091">
        <ele>539</ele>
        <time>2010-05-09T07:17:50Z</time>
      </trkpt>
      <trkpt lat="45.24289" lon="5.7209">
        <ele>538</ele>
        <time>2010-05-09T07:17:51Z</time>
      </trkpt>
      <trkpt lat="45.24288" lon="5.72088">
        <ele>538</ele>
        <time>2010-05-09T07:17:52Z</time>
      </trkpt>
      <trkpt lat="45.24286" lon="5.72086">
        <ele>538</ele>
        <time>2010-05-09T07:17:53Z</time>
      </trkpt>
      <trkpt lat="45.24284" lon="5.72084">
        <ele>538</ele>
        <time>2010-05-09T07:17:54Z</time>
      </trkpt>
      <trkpt lat="45.24283" lon="5.72084">
        <ele>538</ele>
        <time>2010-05-09T07:17:55Z</time>
      </trkpt>
      <trkpt lat="45.24281" lon="5.72083">
        <ele>538</ele>
        <time>2010-05-09T07:17:56Z</time>
      </trkpt>
      <trkpt lat="45.24279" lon="5.72084">
        <ele>538</ele>
        <time>2010-05-09T07:17:57Z</time>
      </trkpt>
      <trkpt lat="45.24276" lon="5.72084">
        <ele>538</ele>
        <time>2010-05-09T07:17:58Z</time>
      </trkpt>
      <trkpt lat="45.24275" lon="5.72084">
        <ele>539</ele>
        <time>2010-05-09T07:17:59Z</time>
      </trkpt>
      <trkpt lat="45.24273" lon="5.72085">
        <ele>540</ele>
        <time>2010-05-09T07:18:00Z</time>
      </trkpt>
      <trkpt lat="45.24271" lon="5.72084">
        <ele>541</ele>
        <time>2010-05-09T07:18:01Z</time>
      </trkpt>
      <trkpt lat="45.24269" lon="5.72083">
        <ele>542</ele>
        <time>2010-05-09T07:18:02Z</time>
      </trkpt>
      <trkpt lat="45.24268" lon="5.72083">
        <ele>543</ele>
        <time>2010-05-09T07:18:03Z</time>
      </trkpt>
      <trkpt lat="45.24266" lon="5.72083">
        <ele>543</ele>
        <time>2010-05-09T07:18:04Z</time>
      </trkpt>
      <trkpt lat="45.24265" lon="5.72083">
        <ele>544</ele>
        <time>2010-05-09T07:18:05Z</time>
      </trkpt>
      <trkpt lat="45.24264" lon="5.72083">
        <ele>544</ele>
        <time>2010-05-09T07:18:06Z</time>
      </trkpt>
      <trkpt lat="45.24262" lon="5.72083">
        <ele>544</ele>
        <time>2010-05-09T07:18:07Z</time>
      </trkpt>
      <trkpt lat="45.2426" lon="5.72082">
        <ele>544</ele>
        <time>2010-05-09T07:18:08Z</time>
      </trkpt>
      <trkpt lat="45.24259" lon="5.72083">
        <ele>544</ele>
        <time>2010-05-09T07:18:09Z</time>
      </trkpt>
      <trkpt lat="45.24257" lon="5.72083">
        <ele>545</ele>
        <time>2010-05-09T07:18:10Z</time>
      </trkpt>
      <trkpt lat="45.24256" lon="5.72083">
        <ele>545</ele>
        <time>2010-05-09T07:18:11Z</time>
      </trkpt>
      <trkpt lat="45.24255" lon="5.72083">
        <ele>545</ele>
        <time>2010-05-09T07:18:12Z</time>
      </trkpt>
      <trkpt lat="45.24253" lon="5.72083">
        <ele>546</ele>
        <time>2010-05-09T07:18:13Z</time>
      </trkpt>
      <trkpt lat="45.24252" lon="5.72083">
        <ele>546</ele>
        <time>2010-05-09T07:18:14Z</time>
      </trkpt>
      <trkpt lat="45.2425" lon="5.72082">
        <ele>547</ele>
        <time>2010-05-09T07:18:15Z</time>
      </trkpt>
      <trkpt lat="45.24249" lon="5.72082">
        <ele>547</ele>
        <time>2010-05-09T07:18:16Z</time>
      </trkpt>
      <trkpt lat="45.24247" lon="5.72081">
        <ele>547</ele>
        <time>2010-05-09T07:18:17Z</time>
      </trkpt>
      <trkpt lat="45.24246" lon="5.72081">
        <ele>548</ele>
        <time>2010-05-09T07:18:18Z</time>
      </trkpt>
      <trkpt lat="45.24244" lon="5.72082">
        <ele>548</ele>
        <time>2010-05-09T07:18:19Z</time>
      </trkpt>
      <trkpt lat="45.24242" lon="5.72081">
        <ele>550</ele>
        <time>2010-05-09T07:18:21Z</time>
      </trkpt>
      <trkpt lat="45.24241" lon="5.7208">
        <ele>550</ele>
        <time>2010-05-09T07:18:22Z</time>
      </trkpt>
      <trkpt lat="45.24239" lon="5.72081">
        <ele>550</ele>
        <time>2010-05-09T07:18:23Z</time>
      </trkpt>
      <trkpt lat="45.24237" lon="5.72082">
        <ele>551</ele>
        <time>2010-05-09T07:18:24Z</time>
      </trkpt>
      <trkpt lat="45.24236" lon="5.72083">
        <ele>551</ele>
        <time>2010-05-09T07:18:25Z</time>
      </trkpt>
      <trkpt lat="45.24234" lon="5.72085">
        <ele>551</ele>
        <time>2010-05-09T07:18:26Z</time>
      </trkpt>
      <trkpt lat="45.24233" lon="5.72086">
        <ele>552</ele>
        <time>2010-05-09T07:18:27Z</time>
      </trkpt>
      <trkpt lat="45.24231" lon="5.72088">
        <ele>552</ele>
        <time>2010-05-09T07:18:28Z</time>
      </trkpt>
      <trkpt lat="45.24229" lon="5.72088">
        <ele>553</ele>
        <time>2010-05-09T07:18:29Z</time>
      </trkpt>
      <trkpt lat="45.24228" lon="5.7209">
        <ele>553</ele>
        <time>2010-05-09T07:18:30Z</time>
      </trkpt>
      <trkpt lat="45.24226" lon="5.72091">
        <ele>554</ele>
        <time>2010-05-09T07:18:31Z</time>
      </trkpt>
      <trkpt lat="45.24225" lon="5.72092">
        <ele>555</ele>
        <time>2010-05-09T07:18:32Z</time>
      </trkpt>
      <trkpt lat="45.24224" lon="5.72093">
        <ele>555</ele>
        <time>2010-05-09T07:18:33Z</time>
      </trkpt>
      <trkpt lat="45.24222" lon="5.72095">
        <ele>556</ele>
        <time>2010-05-09T07:18:34Z</time>
      </trkpt>
      <trkpt lat="45.24221" lon="5.72097">
        <ele>557</ele>
        <time>2010-05-09T07:18:35Z</time>
      </trkpt>
      <trkpt lat="45.24219" lon="5.72099">
        <ele>557</ele>
        <time>2010-05-09T07:18:36Z</time>
      </trkpt>
      <trkpt lat="45.24217" lon="5.72099">
        <ele>558</ele>
        <time>2010-05-09T07:18:37Z</time>
      </trkpt>
      <trkpt lat="45.24215" lon="5.72102">
        <ele>560</ele>
        <time>2010-05-09T07:18:39Z</time>
      </trkpt>
      <trkpt lat="45.24212" lon="5.72104">
        <ele>560</ele>
        <time>2010-05-09T07:18:40Z</time>
      </trkpt>
      <trkpt lat="45.2421" lon="5.72106">
        <ele>561</ele>
        <time>2010-05-09T07:18:41Z</time>
      </trkpt>
      <trkpt lat="45.24208" lon="5.72107">
        <ele>562</ele>
        <time>2010-05-09T07:18:42Z</time>
      </trkpt>
      <trkpt lat="45.24207" lon="5.72108">
        <ele>563</ele>
        <time>2010-05-09T07:18:43Z</time>
      </trkpt>
      <trkpt lat="45.24205" lon="5.72108">
        <ele>563</ele>
        <time>2010-05-09T07:18:44Z</time>
      </trkpt>
      <trkpt lat="45.24203" lon="5.7211">
        <ele>564</ele>
        <time>2010-05-09T07:18:45Z</time>
      </trkpt>
      <trkpt lat="45.24201" lon="5.72112">
        <ele>564</ele>
        <time>2010-05-09T07:18:46Z</time>
      </trkpt>
      <trkpt lat="45.242" lon="5.72114">
        <ele>565</ele>
        <time>2010-05-09T07:18:47Z</time>
      </trkpt>
      <trkpt lat="45.24198" lon="5.72116">
        <ele>565</ele>
        <time>2010-05-09T07:18:48Z</time>
      </trkpt>
      <trkpt lat="45.24197" lon="5.72118">
        <ele>567</ele>
        <time>2010-05-09T07:18:50Z</time>
      </trkpt>
      <trkpt lat="45.24195" lon="5.7212">
        <ele>568</ele>
        <time>2010-05-09T07:18:52Z</time>
      </trkpt>
      <trkpt lat="45.24192" lon="5.72122">
        <ele>568</ele>
        <time>2010-05-09T07:18:54Z</time>
      </trkpt>
      <trkpt lat="45.24191" lon="5.72123">
        <ele>568</ele>
        <time>2010-05-09T07:18:55Z</time>
      </trkpt>
      <trkpt lat="45.24189" lon="5.72124">
        <ele>569</ele>
        <time>2010-05-09T07:18:56Z</time>
      </trkpt>
      <trkpt lat="45.24188" lon="5.72125">
        <ele>569</ele>
        <time>2010-05-09T07:18:57Z</time>
      </trkpt>
      <trkpt lat="45.24186" lon="5.72126">
        <ele>569</ele>
        <time>2010-05-09T07:18:58Z</time>
      </trkpt>
      <trkpt lat="45.24184" lon="5.72127">
        <ele>569</ele>
        <time>2010-05-09T07:18:59Z</time>
      </trkpt>
      <trkpt lat="45.24183" lon="5.72128">
        <ele>569</ele>
        <time>2010-05-09T07:19:00Z</time>
      </trkpt>
      <trkpt lat="45.24181" lon="5.72129">
        <ele>569</ele>
        <time>2010-05-09T07:19:01Z</time>
      </trkpt>
      <trkpt lat="45.2418" lon="5.7213">
        <ele>569</ele>
        <time>2010-05-09T07:19:02Z</time>
      </trkpt>
      <trkpt lat="45.24178" lon="5.7213">
        <ele>569</ele>
        <time>2010-05-09T07:19:03Z</time>
      </trkpt>
      <trkpt lat="45.24176" lon="5.72134">
        <ele>569</ele>
        <time>2010-05-09T07:19:04Z</time>
      </trkpt>
      <trkpt lat="45.24174" lon="5.72136">
        <ele>569</ele>
        <time>2010-05-09T07:19:05Z</time>
      </trkpt>
      <trkpt lat="45.24172" lon="5.72137">
        <ele>569</ele>
        <time>2010-05-09T07:19:06Z</time>
      </trkpt>
      <trkpt lat="45.24171" lon="5.72138">
        <ele>569</ele>
        <time>2010-05-09T07:19:07Z</time>
      </trkpt>
      <trkpt lat="45.24169" lon="5.72139">
        <ele>570</ele>
        <time>2010-05-09T07:19:08Z</time>
      </trkpt>
      <trkpt lat="45.24168" lon="5.72141">
        <ele>570</ele>
        <time>2010-05-09T07:19:09Z</time>
      </trkpt>
      <trkpt lat="45.24167" lon="5.72142">
        <ele>570</ele>
        <time>2010-05-09T07:19:10Z</time>
      </trkpt>
      <trkpt lat="45.24165" lon="5.72144">
        <ele>571</ele>
        <time>2010-05-09T07:19:11Z</time>
      </trkpt>
      <trkpt lat="45.24163" lon="5.72146">
        <ele>571</ele>
        <time>2010-05-09T07:19:12Z</time>
      </trkpt>
      <trkpt lat="45.24161" lon="5.72147">
        <ele>571</ele>
        <time>2010-05-09T07:19:13Z</time>
      </trkpt>
      <trkpt lat="45.24159" lon="5.7215">
        <ele>571</ele>
        <time>2010-05-09T07:19:14Z</time>
      </trkpt>
      <trkpt lat="45.24158" lon="5.7215">
        <ele>572</ele>
        <time>2010-05-09T07:19:15Z</time>
      </trkpt>
      <trkpt lat="45.24156" lon="5.72151">
        <ele>572</ele>
        <time>2010-05-09T07:19:16Z</time>
      </trkpt>
      <trkpt lat="45.24155" lon="5.72152">
        <ele>573</ele>
        <time>2010-05-09T07:19:17Z</time>
      </trkpt>
      <trkpt lat="45.24153" lon="5.72153">
        <ele>573</ele>
        <time>2010-05-09T07:19:18Z</time>
      </trkpt>
      <trkpt lat="45.24151" lon="5.72154">
        <ele>574</ele>
        <time>2010-05-09T07:19:19Z</time>
      </trkpt>
      <trkpt lat="45.2415" lon="5.72155">
        <ele>574</ele>
        <time>2010-05-09T07:19:20Z</time>
      </trkpt>
      <trkpt lat="45.24149" lon="5.72154">
        <ele>575</ele>
        <time>2010-05-09T07:19:21Z</time>
      </trkpt>
      <trkpt lat="45.24147" lon="5.72153">
        <ele>575</ele>
        <time>2010-05-09T07:19:23Z</time>
      </trkpt>
      <trkpt lat="45.24145" lon="5.72153">
        <ele>575</ele>
        <time>2010-05-09T07:19:24Z</time>
      </trkpt>
      <trkpt lat="45.24143" lon="5.72153">
        <ele>575</ele>
        <time>2010-05-09T07:19:25Z</time>
      </trkpt>
      <trkpt lat="45.24142" lon="5.72154">
        <ele>576</ele>
        <time>2010-05-09T07:19:26Z</time>
      </trkpt>
      <trkpt lat="45.24141" lon="5.72155">
        <ele>576</ele>
        <time>2010-05-09T07:19:27Z</time>
      </trkpt>
      <trkpt lat="45.24139" lon="5.72156">
        <ele>576</ele>
        <time>2010-05-09T07:19:28Z</time>
      </trkpt>
      <trkpt lat="45.24137" lon="5.72156">
        <ele>577</ele>
        <time>2010-05-09T07:19:30Z</time>
      </trkpt>
      <trkpt lat="45.24135" lon="5.72157">
        <ele>577</ele>
        <time>2010-05-09T07:19:31Z</time>
      </trkpt>
      <trkpt lat="45.24133" lon="5.72159">
        <ele>578</ele>
        <time>2010-05-09T07:19:32Z</time>
      </trkpt>
      <trkpt lat="45.24132" lon="5.7216">
        <ele>578</ele>
        <time>2010-05-09T07:19:33Z</time>
      </trkpt>
      <trkpt lat="45.24131" lon="5.72161">
        <ele>579</ele>
        <time>2010-05-09T07:19:34Z</time>
      </trkpt>
      <trkpt lat="45.24129" lon="5.72162">
        <ele>579</ele>
        <time>2010-05-09T07:19:35Z</time>
      </trkpt>
      <trkpt lat="45.24128" lon="5.72162">
        <ele>580</ele>
        <time>2010-05-09T07:19:36Z</time>
      </trkpt>
      <trkpt lat="45.24127" lon="5.72163">
        <ele>580</ele>
        <time>2010-05-09T07:19:37Z</time>
      </trkpt>
      <trkpt lat="45.24125" lon="5.72164">
        <ele>580</ele>
        <time>2010-05-09T07:19:38Z</time>
      </trkpt>
      <trkpt lat="45.24123" lon="5.72165">
        <ele>580</ele>
        <time>2010-05-09T07:19:39Z</time>
      </trkpt>
      <trkpt lat="45.24122" lon="5.72165">
        <ele>580</ele>
        <time>2010-05-09T07:19:40Z</time>
      </trkpt>
      <trkpt lat="45.2412" lon="5.72165">
        <ele>581</ele>
        <time>2010-05-09T07:19:41Z</time>
      </trkpt>
      <trkpt lat="45.24118" lon="5.72166">
        <ele>581</ele>
        <time>2010-05-09T07:19:42Z</time>
      </trkpt>
      <trkpt lat="45.24117" lon="5.72167">
        <ele>582</ele>
        <time>2010-05-09T07:19:43Z</time>
      </trkpt>
      <trkpt lat="45.24115" lon="5.72167">
        <ele>582</ele>
        <time>2010-05-09T07:19:44Z</time>
      </trkpt>
      <trkpt lat="45.24113" lon="5.72167">
        <ele>583</ele>
        <time>2010-05-09T07:19:45Z</time>
      </trkpt>
      <trkpt lat="45.24111" lon="5.72167">
        <ele>583</ele>
        <time>2010-05-09T07:19:46Z</time>
      </trkpt>
      <trkpt lat="45.2411" lon="5.72167">
        <ele>583</ele>
        <time>2010-05-09T07:19:47Z</time>
      </trkpt>
      <trkpt lat="45.24108" lon="5.72165">
        <ele>584</ele>
        <time>2010-05-09T07:19:48Z</time>
      </trkpt>
      <trkpt lat="45.24107" lon="5.72165">
        <ele>584</ele>
        <time>2010-05-09T07:19:49Z</time>
      </trkpt>
      <trkpt lat="45.24106" lon="5.72164">
        <ele>584</ele>
        <time>2010-05-09T07:19:50Z</time>
      </trkpt>
      <trkpt lat="45.24105" lon="5.72164">
        <ele>584</ele>
        <time>2010-05-09T07:19:51Z</time>
      </trkpt>
      <trkpt lat="45.24103" lon="5.72163">
        <ele>584</ele>
        <time>2010-05-09T07:19:52Z</time>
      </trkpt>
      <trkpt lat="45.24101" lon="5.72163">
        <ele>584</ele>
        <time>2010-05-09T07:19:53Z</time>
      </trkpt>
      <trkpt lat="45.24099" lon="5.72164">
        <ele>584</ele>
        <time>2010-05-09T07:19:54Z</time>
      </trkpt>
      <trkpt lat="45.24096" lon="5.72167">
        <ele>584</ele>
        <time>2010-05-09T07:19:55Z</time>
      </trkpt>
      <trkpt lat="45.24094" lon="5.72168">
        <ele>584</ele>
        <time>2010-05-09T07:19:56Z</time>
      </trkpt>
      <trkpt lat="45.24092" lon="5.72168">
        <ele>584</ele>
        <time>2010-05-09T07:19:57Z</time>
      </trkpt>
      <trkpt lat="45.2409" lon="5.7217">
        <ele>585</ele>
        <time>2010-05-09T07:19:58Z</time>
      </trkpt>
      <trkpt lat="45.24088" lon="5.72172">
        <ele>586</ele>
        <time>2010-05-09T07:19:59Z</time>
      </trkpt>
      <trkpt lat="45.24085" lon="5.72172">
        <ele>586</ele>
        <time>2010-05-09T07:20:00Z</time>
      </trkpt>
      <trkpt lat="45.24083" lon="5.72173">
        <ele>586</ele>
        <time>2010-05-09T07:20:01Z</time>
      </trkpt>
      <trkpt lat="45.24082" lon="5.72173">
        <ele>586</ele>
        <time>2010-05-09T07:20:02Z</time>
      </trkpt>
      <trkpt lat="45.2408" lon="5.72174">
        <ele>586</ele>
        <time>2010-05-09T07:20:03Z</time>
      </trkpt>
      <trkpt lat="45.24078" lon="5.72173">
        <ele>586</ele>
        <time>2010-05-09T07:20:05Z</time>
      </trkpt>
      <trkpt lat="45.24076" lon="5.72172">
        <ele>586</ele>
        <time>2010-05-09T07:20:07Z</time>
      </trkpt>
      <trkpt lat="45.24074" lon="5.72173">
        <ele>586</ele>
        <time>2010-05-09T07:20:08Z</time>
      </trkpt>
      <trkpt lat="45.24073" lon="5.72174">
        <ele>586</ele>
        <time>2010-05-09T07:20:09Z</time>
      </trkpt>
      <trkpt lat="45.24071" lon="5.72175">
        <ele>586</ele>
        <time>2010-05-09T07:20:10Z</time>
      </trkpt>
      <trkpt lat="45.24069" lon="5.72176">
        <ele>586</ele>
        <time>2010-05-09T07:20:11Z</time>
      </trkpt>
      <trkpt lat="45.24068" lon="5.72177">
        <ele>586</ele>
        <time>2010-05-09T07:20:12Z</time>
      </trkpt>
      <trkpt lat="45.24067" lon="5.72178">
        <ele>586</ele>
        <time>2010-05-09T07:20:13Z</time>
      </trkpt>
      <trkpt lat="45.24065" lon="5.72178">
        <ele>586</ele>
        <time>2010-05-09T07:20:14Z</time>
      </trkpt>
      <trkpt lat="45.24064" lon="5.72178">
        <ele>586</ele>
        <time>2010-05-09T07:20:15Z</time>
      </trkpt>
      <trkpt lat="45.24062" lon="5.72179">
        <ele>586</ele>
        <time>2010-05-09T07:20:16Z</time>
      </trkpt>
      <trkpt lat="45.2406" lon="5.72179">
        <ele>586</ele>
        <time>2010-05-09T07:20:17Z</time>
      </trkpt>
      <trkpt lat="45.24058" lon="5.72179">
        <ele>585</ele>
        <time>2010-05-09T07:20:18Z</time>
      </trkpt>
      <trkpt lat="45.24056" lon="5.72179">
        <ele>585</ele>
        <time>2010-05-09T07:20:19Z</time>
      </trkpt>
      <trkpt lat="45.24054" lon="5.7218">
        <ele>584</ele>
        <time>2010-05-09T07:20:20Z</time>
      </trkpt>
      <trkpt lat="45.24052" lon="5.72181">
        <ele>584</ele>
        <time>2010-05-09T07:20:21Z</time>
      </trkpt>
      <trkpt lat="45.24051" lon="5.72182">
        <ele>584</ele>
        <time>2010-05-09T07:20:22Z</time>
      </trkpt>
      <trkpt lat="45.24049" lon="5.72183">
        <ele>584</ele>
        <time>2010-05-09T07:20:23Z</time>
      </trkpt>
      <trkpt lat="45.24047" lon="5.72183">
        <ele>584</ele>
        <time>2010-05-09T07:20:24Z</time>
      </trkpt>
      <trkpt lat="45.24045" lon="5.72184">
        <ele>584</ele>
        <time>2010-05-09T07:20:25Z</time>
      </trkpt>
      <trkpt lat="45.24043" lon="5.72185">
        <ele>584</ele>
        <time>2010-05-09T07:20:26Z</time>
      </trkpt>
      <trkpt lat="45.24041" lon="5.72186">
        <ele>584</ele>
        <time>2010-05-09T07:20:27Z</time>
      </trkpt>
      <trkpt lat="45.24039" lon="5.72186">
        <ele>584</ele>
        <time>2010-05-09T07:20:28Z</time>
      </trkpt>
      <trkpt lat="45.24037" lon="5.72186">
        <ele>584</ele>
        <time>2010-05-09T07:20:29Z</time>
      </trkpt>
      <trkpt lat="45.24035" lon="5.72186">
        <ele>584</ele>
        <time>2010-05-09T07:20:30Z</time>
      </trkpt>
      <trkpt lat="45.24033" lon="5.72188">
        <ele>584</ele>
        <time>2010-05-09T07:20:31Z</time>
      </trkpt>
      <trkpt lat="45.24031" lon="5.72189">
        <ele>584</ele>
        <time>2010-05-09T07:20:32Z</time>
      </trkpt>
      <trkpt lat="45.24029" lon="5.72191">
        <ele>584</ele>
        <time>2010-05-09T07:20:33Z</time>
      </trkpt>
      <trkpt lat="45.24027" lon="5.72191">
        <ele>584</ele>
        <time>2010-05-09T07:20:34Z</time>
      </trkpt>
      <trkpt lat="45.24025" lon="5.72193">
        <ele>584</ele>
        <time>2010-05-09T07:20:35Z</time>
      </trkpt>
      <trkpt lat="45.24022" lon="5.72196">
        <ele>584</ele>
        <time>2010-05-09T07:20:36Z</time>
      </trkpt>
      <trkpt lat="45.24019" lon="5.72198">
        <ele>584</ele>
        <time>2010-05-09T07:20:37Z</time>
      </trkpt>
      <trkpt lat="45.24017" lon="5.72199">
        <ele>584</ele>
        <time>2010-05-09T07:20:38Z</time>
      </trkpt>
      <trkpt lat="45.24016" lon="5.72201">
        <ele>585</ele>
        <time>2010-05-09T07:20:39Z</time>
      </trkpt>
      <trkpt lat="45.24014" lon="5.72202">
        <ele>586</ele>
        <time>2010-05-09T07:20:40Z</time>
      </trkpt>
      <trkpt lat="45.24012" lon="5.72204">
        <ele>586</ele>
        <time>2010-05-09T07:20:41Z</time>
      </trkpt>
      <trkpt lat="45.2401" lon="5.72206">
        <ele>586</ele>
        <time>2010-05-09T07:20:42Z</time>
      </trkpt>
      <trkpt lat="45.24008" lon="5.72208">
        <ele>587</ele>
        <time>2010-05-09T07:20:43Z</time>
      </trkpt>
      <trkpt lat="45.24006" lon="5.72208">
        <ele>587</ele>
        <time>2010-05-09T07:20:44Z</time>
      </trkpt>
      <trkpt lat="45.24004" lon="5.72209">
        <ele>587</ele>
        <time>2010-05-09T07:20:45Z</time>
      </trkpt>
      <trkpt lat="45.24002" lon="5.7221">
        <ele>587</ele>
        <time>2010-05-09T07:20:46Z</time>
      </trkpt>
      <trkpt lat="45.24" lon="5.72212">
        <ele>587</ele>
        <time>2010-05-09T07:20:47Z</time>
      </trkpt>
      <trkpt lat="45.23997" lon="5.72214">
        <ele>587</ele>
        <time>2010-05-09T07:20:48Z</time>
      </trkpt>
      <trkpt lat="45.23994" lon="5.72216">
        <ele>588</ele>
        <time>2010-05-09T07:20:49Z</time>
      </trkpt>
      <trkpt lat="45.23992" lon="5.72218">
        <ele>588</ele>
        <time>2010-05-09T07:20:50Z</time>
      </trkpt>
      <trkpt lat="45.23989" lon="5.72219">
        <ele>589</ele>
        <time>2010-05-09T07:20:51Z</time>
      </trkpt>
      <trkpt lat="45.23987" lon="5.72219">
        <ele>589</ele>
        <time>2010-05-09T07:20:52Z</time>
      </trkpt>
      <trkpt lat="45.23985" lon="5.7222">
        <ele>590</ele>
        <time>2010-05-09T07:20:53Z</time>
      </trkpt>
      <trkpt lat="45.23983" lon="5.7222">
        <ele>590</ele>
        <time>2010-05-09T07:20:54Z</time>
      </trkpt>
      <trkpt lat="45.23981" lon="5.72221">
        <ele>590</ele>
        <time>2010-05-09T07:20:55Z</time>
      </trkpt>
      <trkpt lat="45.23978" lon="5.72222">
        <ele>590</ele>
        <time>2010-05-09T07:20:56Z</time>
      </trkpt>
      <trkpt lat="45.23975" lon="5.72224">
        <ele>591</ele>
        <time>2010-05-09T07:20:57Z</time>
      </trkpt>
      <trkpt lat="45.23973" lon="5.72225">
        <ele>591</ele>
        <time>2010-05-09T07:20:58Z</time>
      </trkpt>
      <trkpt lat="45.2397" lon="5.72226">
        <ele>591</ele>
        <time>2010-05-09T07:20:59Z</time>
      </trkpt>
      <trkpt lat="45.23967" lon="5.72227">
        <ele>592</ele>
        <time>2010-05-09T07:21:00Z</time>
      </trkpt>
      <trkpt lat="45.23965" lon="5.72227">
        <ele>592</ele>
        <time>2010-05-09T07:21:01Z</time>
      </trkpt>
      <trkpt lat="45.23963" lon="5.72227">
        <ele>593</ele>
        <time>2010-05-09T07:21:02Z</time>
      </trkpt>
      <trkpt lat="45.2396" lon="5.72227">
        <ele>593</ele>
        <time>2010-05-09T07:21:03Z</time>
      </trkpt>
      <trkpt lat="45.23957" lon="5.72228">
        <ele>594</ele>
        <time>2010-05-09T07:21:04Z</time>
      </trkpt>
      <trkpt lat="45.23954" lon="5.72229">
        <ele>594</ele>
        <time>2010-05-09T07:21:05Z</time>
      </trkpt>
      <trkpt lat="45.23951" lon="5.7223">
        <ele>594</ele>
        <time>2010-05-09T07:21:06Z</time>
      </trkpt>
      <trkpt lat="45.23949" lon="5.72231">
        <ele>594</ele>
        <time>2010-05-09T07:21:07Z</time>
      </trkpt>
      <trkpt lat="45.23947" lon="5.72231">
        <ele>595</ele>
        <time>2010-05-09T07:21:08Z</time>
      </trkpt>
      <trkpt lat="45.23945" lon="5.72231">
        <ele>595</ele>
        <time>2010-05-09T07:21:09Z</time>
      </trkpt>
      <trkpt lat="45.23942" lon="5.72234">
        <ele>595</ele>
        <time>2010-05-09T07:21:10Z</time>
      </trkpt>
      <trkpt lat="45.23939" lon="5.72235">
        <ele>595</ele>
        <time>2010-05-09T07:21:11Z</time>
      </trkpt>
      <trkpt lat="45.23936" lon="5.72235">
        <ele>595</ele>
        <time>2010-05-09T07:21:12Z</time>
      </trkpt>
      <trkpt lat="45.23934" lon="5.72235">
        <ele>595</ele>
        <time>2010-05-09T07:21:13Z</time>
      </trkpt>
      <trkpt lat="45.23932" lon="5.72236">
        <ele>596</ele>
        <time>2010-05-09T07:21:14Z</time>
      </trkpt>
      <trkpt lat="45.23929" lon="5.72236">
        <ele>596</ele>
        <time>2010-05-09T07:21:15Z</time>
      </trkpt>
      <trkpt lat="45.23926" lon="5.72236">
        <ele>596</ele>
        <time>2010-05-09T07:21:16Z</time>
      </trkpt>
      <trkpt lat="45.23924" lon="5.72237">
        <ele>596</ele>
        <time>2010-05-09T07:21:17Z</time>
      </trkpt>
      <trkpt lat="45.23922" lon="5.72237">
        <ele>596</ele>
        <time>2010-05-09T07:21:18Z</time>
      </trkpt>
      <trkpt lat="45.23919" lon="5.72237">
        <ele>596</ele>
        <time>2010-05-09T07:21:19Z</time>
      </trkpt>
      <trkpt lat="45.23917" lon="5.72238">
        <ele>597</ele>
        <time>2010-05-09T07:21:20Z</time>
      </trkpt>
      <trkpt lat="45.23914" lon="5.7224">
        <ele>597</ele>
        <time>2010-05-09T07:21:21Z</time>
      </trkpt>
      <trkpt lat="45.23911" lon="5.72242">
        <ele>598</ele>
        <time>2010-05-09T07:21:22Z</time>
      </trkpt>
      <trkpt lat="45.23909" lon="5.72244">
        <ele>598</ele>
        <time>2010-05-09T07:21:23Z</time>
      </trkpt>
      <trkpt lat="45.23906" lon="5.72245">
        <ele>599</ele>
        <time>2010-05-09T07:21:24Z</time>
      </trkpt>
      <trkpt lat="45.23903" lon="5.72246">
        <ele>599</ele>
        <time>2010-05-09T07:21:25Z</time>
      </trkpt>
      <trkpt lat="45.23901" lon="5.72247">
        <ele>599</ele>
        <time>2010-05-09T07:21:26Z</time>
      </trkpt>
      <trkpt lat="45.23898" lon="5.72248">
        <ele>599</ele>
        <time>2010-05-09T07:21:27Z</time>
      </trkpt>
      <trkpt lat="45.23895" lon="5.72249">
        <ele>599</ele>
        <time>2010-05-09T07:21:28Z</time>
      </trkpt>
      <trkpt lat="45.23892" lon="5.7225">
        <ele>599</ele>
        <time>2010-05-09T07:21:29Z</time>
      </trkpt>
      <trkpt lat="45.23889" lon="5.72251">
        <ele>599</ele>
        <time>2010-05-09T07:21:30Z</time>
      </trkpt>
      <trkpt lat="45.23886" lon="5.72251">
        <ele>599</ele>
        <time>2010-05-09T07:21:31Z</time>
      </trkpt>
      <trkpt lat="45.23883" lon="5.72252">
        <ele>599</ele>
        <time>2010-05-09T07:21:32Z</time>
      </trkpt>
      <trkpt lat="45.23881" lon="5.72253">
        <ele>599</ele>
        <time>2010-05-09T07:21:33Z</time>
      </trkpt>
      <trkpt lat="45.23879" lon="5.72253">
        <ele>599</ele>
        <time>2010-05-09T07:21:34Z</time>
      </trkpt>
      <trkpt lat="45.23876" lon="5.72254">
        <ele>599</ele>
        <time>2010-05-09T07:21:35Z</time>
      </trkpt>
      <trkpt lat="45.23874" lon="5.72255">
        <ele>599</ele>
        <time>2010-05-09T07:21:36Z</time>
      </trkpt>
      <trkpt lat="45.23871" lon="5.72255">
        <ele>599</ele>
        <time>2010-05-09T07:21:37Z</time>
      </trkpt>
      <trkpt lat="45.23869" lon="5.72255">
        <ele>599</ele>
        <time>2010-05-09T07:21:38Z</time>
      </trkpt>
      <trkpt lat="45.23866" lon="5.72255">
        <ele>599</ele>
        <time>2010-05-09T07:21:39Z</time>
      </trkpt>
      <trkpt lat="45.23864" lon="5.72256">
        <ele>599</ele>
        <time>2010-05-09T07:21:40Z</time>
      </trkpt>
      <trkpt lat="45.23861" lon="5.72257">
        <ele>599</ele>
        <time>2010-05-09T07:21:41Z</time>
      </trkpt>
      <trkpt lat="45.23859" lon="5.72258">
        <ele>599</ele>
        <time>2010-05-09T07:21:42Z</time>
      </trkpt>
      <trkpt lat="45.23856" lon="5.72259">
        <ele>599</ele>
        <time>2010-05-09T07:21:43Z</time>
      </trkpt>
      <trkpt lat="45.23853" lon="5.7226">
        <ele>599</ele>
        <time>2010-05-09T07:21:44Z</time>
      </trkpt>
      <trkpt lat="45.2385" lon="5.7226">
        <ele>599</ele>
        <time>2010-05-09T07:21:45Z</time>
      </trkpt>
      <trkpt lat="45.23848" lon="5.72261">
        <ele>599</ele>
        <time>2010-05-09T07:21:46Z</time>
      </trkpt>
      <trkpt lat="45.23845" lon="5.72261">
        <ele>599</ele>
        <time>2010-05-09T07:21:47Z</time>
      </trkpt>
      <trkpt lat="45.23842" lon="5.72262">
        <ele>600</ele>
        <time>2010-05-09T07:21:48Z</time>
      </trkpt>
      <trkpt lat="45.23839" lon="5.72262">
        <ele>600</ele>
        <time>2010-05-09T07:21:49Z</time>
      </trkpt>
      <trkpt lat="45.23837" lon="5.72261">
        <ele>600</ele>
        <time>2010-05-09T07:21:50Z</time>
      </trkpt>
      <trkpt lat="45.23835" lon="5.7226">
        <ele>600</ele>
        <time>2010-05-09T07:21:51Z</time>
      </trkpt>
      <trkpt lat="45.23832" lon="5.7226">
        <ele>600</ele>
        <time>2010-05-09T07:21:52Z</time>
      </trkpt>
      <trkpt lat="45.2383" lon="5.72259">
        <ele>600</ele>
        <time>2010-05-09T07:21:53Z</time>
      </trkpt>
      <trkpt lat="45.23827" lon="5.72259">
        <ele>601</ele>
        <time>2010-05-09T07:21:54Z</time>
      </trkpt>
      <trkpt lat="45.23825" lon="5.72257">
        <ele>601</ele>
        <time>2010-05-09T07:21:55Z</time>
      </trkpt>
      <trkpt lat="45.23822" lon="5.72256">
        <ele>601</ele>
        <time>2010-05-09T07:21:56Z</time>
      </trkpt>
      <trkpt lat="45.23819" lon="5.72256">
        <ele>601</ele>
        <time>2010-05-09T07:21:57Z</time>
      </trkpt>
      <trkpt lat="45.23816" lon="5.72256">
        <ele>601</ele>
        <time>2010-05-09T07:21:58Z</time>
      </trkpt>
      <trkpt lat="45.23814" lon="5.72256">
        <ele>601</ele>
        <time>2010-05-09T07:21:59Z</time>
      </trkpt>
      <trkpt lat="45.23811" lon="5.72256">
        <ele>601</ele>
        <time>2010-05-09T07:22:00Z</time>
      </trkpt>
      <trkpt lat="45.23808" lon="5.72258">
        <ele>602</ele>
        <time>2010-05-09T07:22:01Z</time>
      </trkpt>
      <trkpt lat="45.23805" lon="5.72258">
        <ele>602</ele>
        <time>2010-05-09T07:22:02Z</time>
      </trkpt>
      <trkpt lat="45.23803" lon="5.72259">
        <ele>602</ele>
        <time>2010-05-09T07:22:03Z</time>
      </trkpt>
      <trkpt lat="45.238" lon="5.72259">
        <ele>602</ele>
        <time>2010-05-09T07:22:04Z</time>
      </trkpt>
      <trkpt lat="45.23798" lon="5.72259">
        <ele>603</ele>
        <time>2010-05-09T07:22:05Z</time>
      </trkpt>
      <trkpt lat="45.23796" lon="5.7226">
        <ele>603</ele>
        <time>2010-05-09T07:22:06Z</time>
      </trkpt>
      <trkpt lat="45.23793" lon="5.7226">
        <ele>604</ele>
        <time>2010-05-09T07:22:07Z</time>
      </trkpt>
      <trkpt lat="45.23791" lon="5.72261">
        <ele>604</ele>
        <time>2010-05-09T07:22:08Z</time>
      </trkpt>
      <trkpt lat="45.23788" lon="5.72262">
        <ele>605</ele>
        <time>2010-05-09T07:22:09Z</time>
      </trkpt>
      <trkpt lat="45.23786" lon="5.72263">
        <ele>605</ele>
        <time>2010-05-09T07:22:10Z</time>
      </trkpt>
      <trkpt lat="45.23783" lon="5.72264">
        <ele>606</ele>
        <time>2010-05-09T07:22:11Z</time>
      </trkpt>
      <trkpt lat="45.2378" lon="5.72265">
        <ele>606</ele>
        <time>2010-05-09T07:22:12Z</time>
      </trkpt>
      <trkpt lat="45.23778" lon="5.72265">
        <ele>606</ele>
        <time>2010-05-09T07:22:13Z</time>
      </trkpt>
      <trkpt lat="45.23776" lon="5.72265">
        <ele>607</ele>
        <time>2010-05-09T07:22:14Z</time>
      </trkpt>
      <trkpt lat="45.23774" lon="5.72265">
        <ele>607</ele>
        <time>2010-05-09T07:22:15Z</time>
      </trkpt>
      <trkpt lat="45.23772" lon="5.72265">
        <ele>607</ele>
        <time>2010-05-09T07:22:16Z</time>
      </trkpt>
      <trkpt lat="45.23769" lon="5.72266">
        <ele>608</ele>
        <time>2010-05-09T07:22:17Z</time>
      </trkpt>
      <trkpt lat="45.23767" lon="5.72267">
        <ele>608</ele>
        <time>2010-05-09T07:22:18Z</time>
      </trkpt>
      <trkpt lat="45.23764" lon="5.72269">
        <ele>608</ele>
        <time>2010-05-09T07:22:19Z</time>
      </trkpt>
      <trkpt lat="45.23762" lon="5.7227">
        <ele>609</ele>
        <time>2010-05-09T07:22:20Z</time>
      </trkpt>
      <trkpt lat="45.23759" lon="5.7227">
        <ele>609</ele>
        <time>2010-05-09T07:22:21Z</time>
      </trkpt>
      <trkpt lat="45.23756" lon="5.72272">
        <ele>609</ele>
        <time>2010-05-09T07:22:22Z</time>
      </trkpt>
      <trkpt lat="45.23755" lon="5.72272">
        <ele>610</ele>
        <time>2010-05-09T07:22:23Z</time>
      </trkpt>
      <trkpt lat="45.23752" lon="5.72273">
        <ele>610</ele>
        <time>2010-05-09T07:22:24Z</time>
      </trkpt>
      <trkpt lat="45.2375" lon="5.72274">
        <ele>610</ele>
        <time>2010-05-09T07:22:25Z</time>
      </trkpt>
      <trkpt lat="45.23747" lon="5.72274">
        <ele>610</ele>
        <time>2010-05-09T07:22:26Z</time>
      </trkpt>
      <trkpt lat="45.23745" lon="5.72276">
        <ele>610</ele>
        <time>2010-05-09T07:22:27Z</time>
      </trkpt>
      <trkpt lat="45.23742" lon="5.72277">
        <ele>610</ele>
        <time>2010-05-09T07:22:28Z</time>
      </trkpt>
      <trkpt lat="45.2374" lon="5.72279">
        <ele>610</ele>
        <time>2010-05-09T07:22:29Z</time>
      </trkpt>
      <trkpt lat="45.23737" lon="5.72281">
        <ele>610</ele>
        <time>2010-05-09T07:22:30Z</time>
      </trkpt>
      <trkpt lat="45.23735" lon="5.72283">
        <ele>610</ele>
        <time>2010-05-09T07:22:31Z</time>
      </trkpt>
      <trkpt lat="45.23732" lon="5.72285">
        <ele>610</ele>
        <time>2010-05-09T07:22:32Z</time>
      </trkpt>
      <trkpt lat="45.2373" lon="5.72287">
        <ele>611</ele>
        <time>2010-05-09T07:22:33Z</time>
      </trkpt>
      <trkpt lat="45.23729" lon="5.72289">
        <ele>611</ele>
        <time>2010-05-09T07:22:34Z</time>
      </trkpt>
      <trkpt lat="45.23727" lon="5.7229">
        <ele>611</ele>
        <time>2010-05-09T07:22:35Z</time>
      </trkpt>
      <trkpt lat="45.23725" lon="5.72292">
        <ele>612</ele>
        <time>2010-05-09T07:22:36Z</time>
      </trkpt>
      <trkpt lat="45.23722" lon="5.72294">
        <ele>612</ele>
        <time>2010-05-09T07:22:37Z</time>
      </trkpt>
      <trkpt lat="45.2372" lon="5.72296">
        <ele>613</ele>
        <time>2010-05-09T07:22:38Z</time>
      </trkpt>
      <trkpt lat="45.23718" lon="5.72298">
        <ele>613</ele>
        <time>2010-05-09T07:22:39Z</time>
      </trkpt>
      <trkpt lat="45.23716" lon="5.72299">
        <ele>614</ele>
        <time>2010-05-09T07:22:40Z</time>
      </trkpt>
      <trkpt lat="45.23713" lon="5.72301">
        <ele>614</ele>
        <time>2010-05-09T07:22:41Z</time>
      </trkpt>
      <trkpt lat="45.23711" lon="5.72303">
        <ele>614</ele>
        <time>2010-05-09T07:22:42Z</time>
      </trkpt>
      <trkpt lat="45.23708" lon="5.72303">
        <ele>614</ele>
        <time>2010-05-09T07:22:43Z</time>
      </trkpt>
      <trkpt lat="45.23706" lon="5.72304">
        <ele>614</ele>
        <time>2010-05-09T07:22:44Z</time>
      </trkpt>
      <trkpt lat="45.23704" lon="5.72304">
        <ele>614</ele>
        <time>2010-05-09T07:22:45Z</time>
      </trkpt>
      <trkpt lat="45.23701" lon="5.72303">
        <ele>614</ele>
        <time>2010-05-09T07:22:46Z</time>
      </trkpt>
      <trkpt lat="45.23699" lon="5.72304">
        <ele>614</ele>
        <time>2010-05-09T07:22:47Z</time>
      </trkpt>
      <trkpt lat="45.23696" lon="5.72304">
        <ele>614</ele>
        <time>2010-05-09T07:22:48Z</time>
      </trkpt>
      <trkpt lat="45.23694" lon="5.72304">
        <ele>614</ele>
        <time>2010-05-09T07:22:49Z</time>
      </trkpt>
      <trkpt lat="45.23691" lon="5.72304">
        <ele>614</ele>
        <time>2010-05-09T07:22:50Z</time>
      </trkpt>
      <trkpt lat="45.23689" lon="5.72305">
        <ele>614</ele>
        <time>2010-05-09T07:22:51Z</time>
      </trkpt>
      <trkpt lat="45.23686" lon="5.72305">
        <ele>614</ele>
        <time>2010-05-09T07:22:52Z</time>
      </trkpt>
      <trkpt lat="45.23685" lon="5.72304">
        <ele>614</ele>
        <time>2010-05-09T07:22:53Z</time>
      </trkpt>
      <trkpt lat="45.23683" lon="5.72304">
        <ele>614</ele>
        <time>2010-05-09T07:22:54Z</time>
      </trkpt>
      <trkpt lat="45.23682" lon="5.72304">
        <ele>615</ele>
        <time>2010-05-09T07:22:55Z</time>
      </trkpt>
      <trkpt lat="45.2368" lon="5.72304">
        <ele>615</ele>
        <time>2010-05-09T07:22:56Z</time>
      </trkpt>
      <trkpt lat="45.23677" lon="5.72304">
        <ele>615</ele>
        <time>2010-05-09T07:22:57Z</time>
      </trkpt>
      <trkpt lat="45.23675" lon="5.72303">
        <ele>615</ele>
        <time>2010-05-09T07:22:58Z</time>
      </trkpt>
      <trkpt lat="45.23673" lon="5.72303">
        <ele>615</ele>
        <time>2010-05-09T07:22:59Z</time>
      </trkpt>
      <trkpt lat="45.23671" lon="5.72302">
        <ele>615</ele>
        <time>2010-05-09T07:23:00Z</time>
      </trkpt>
      <trkpt lat="45.23669" lon="5.72301">
        <ele>616</ele>
        <time>2010-05-09T07:23:01Z</time>
      </trkpt>
      <trkpt lat="45.23667" lon="5.72301">
        <ele>616</ele>
        <time>2010-05-09T07:23:02Z</time>
      </trkpt>
      <trkpt lat="45.23666" lon="5.72301">
        <ele>616</ele>
        <time>2010-05-09T07:23:03Z</time>
      </trkpt>
      <trkpt lat="45.23663" lon="5.723">
        <ele>617</ele>
        <time>2010-05-09T07:23:04Z</time>
      </trkpt>
      <trkpt lat="45.23661" lon="5.723">
        <ele>618</ele>
        <time>2010-05-09T07:23:05Z</time>
      </trkpt>
      <trkpt lat="45.23659" lon="5.723">
        <ele>619</ele>
        <time>2010-05-09T07:23:06Z</time>
      </trkpt>
      <trkpt lat="45.23657" lon="5.723">
        <ele>619</ele>
        <time>2010-05-09T07:23:07Z</time>
      </trkpt>
      <trkpt lat="45.23655" lon="5.723">
        <ele>620</ele>
        <time>2010-05-09T07:23:08Z</time>
      </trkpt>
      <trkpt lat="45.23653" lon="5.72301">
        <ele>621</ele>
        <time>2010-05-09T07:23:09Z</time>
      </trkpt>
      <trkpt lat="45.23651" lon="5.72303">
        <ele>622</ele>
        <time>2010-05-09T07:23:10Z</time>
      </trkpt>
      <trkpt lat="45.23648" lon="5.72305">
        <ele>623</ele>
        <time>2010-05-09T07:23:11Z</time>
      </trkpt>
      <trkpt lat="45.23645" lon="5.72306">
        <ele>624</ele>
        <time>2010-05-09T07:23:12Z</time>
      </trkpt>
      <trkpt lat="45.23642" lon="5.72308">
        <ele>625</ele>
        <time>2010-05-09T07:23:13Z</time>
      </trkpt>
      <trkpt lat="45.23639" lon="5.72309">
        <ele>626</ele>
        <time>2010-05-09T07:23:14Z</time>
      </trkpt>
      <trkpt lat="45.23636" lon="5.7231">
        <ele>627</ele>
        <time>2010-05-09T07:23:15Z</time>
      </trkpt>
      <trkpt lat="45.23634" lon="5.7231">
        <ele>628</ele>
        <time>2010-05-09T07:23:16Z</time>
      </trkpt>
      <trkpt lat="45.23632" lon="5.72311">
        <ele>629</ele>
        <time>2010-05-09T07:23:17Z</time>
      </trkpt>
      <trkpt lat="45.23629" lon="5.72312">
        <ele>630</ele>
        <time>2010-05-09T07:23:18Z</time>
      </trkpt>
      <trkpt lat="45.23626" lon="5.72313">
        <ele>630</ele>
        <time>2010-05-09T07:23:19Z</time>
      </trkpt>
      <trkpt lat="45.23624" lon="5.72314">
        <ele>630</ele>
        <time>2010-05-09T07:23:20Z</time>
      </trkpt>
      <trkpt lat="45.23621" lon="5.72314">
        <ele>630</ele>
        <time>2010-05-09T07:23:21Z</time>
      </trkpt>
      <trkpt lat="45.23618" lon="5.72315">
        <ele>630</ele>
        <time>2010-05-09T07:23:22Z</time>
      </trkpt>
      <trkpt lat="45.23616" lon="5.72315">
        <ele>630</ele>
        <time>2010-05-09T07:23:23Z</time>
      </trkpt>
      <trkpt lat="45.23614" lon="5.72316">
        <ele>630</ele>
        <time>2010-05-09T07:23:24Z</time>
      </trkpt>
      <trkpt lat="45.23611" lon="5.72317">
        <ele>630</ele>
        <time>2010-05-09T07:23:25Z</time>
      </trkpt>
      <trkpt lat="45.23609" lon="5.72318">
        <ele>630</ele>
        <time>2010-05-09T07:23:26Z</time>
      </trkpt>
      <trkpt lat="45.23607" lon="5.72319">
        <ele>630</ele>
        <time>2010-05-09T07:23:27Z</time>
      </trkpt>
      <trkpt lat="45.23604" lon="5.7232">
        <ele>630</ele>
        <time>2010-05-09T07:23:28Z</time>
      </trkpt>
      <trkpt lat="45.23602" lon="5.72322">
        <ele>630</ele>
        <time>2010-05-09T07:23:29Z</time>
      </trkpt>
      <trkpt lat="45.23599" lon="5.72324">
        <ele>630</ele>
        <time>2010-05-09T07:23:30Z</time>
      </trkpt>
      <trkpt lat="45.23596" lon="5.72325">
        <ele>630</ele>
        <time>2010-05-09T07:23:31Z</time>
      </trkpt>
      <trkpt lat="45.23594" lon="5.72326">
        <ele>630</ele>
        <time>2010-05-09T07:23:32Z</time>
      </trkpt>
      <trkpt lat="45.23592" lon="5.72327">
        <ele>630</ele>
        <time>2010-05-09T07:23:33Z</time>
      </trkpt>
      <trkpt lat="45.23589" lon="5.72329">
        <ele>630</ele>
        <time>2010-05-09T07:23:34Z</time>
      </trkpt>
      <trkpt lat="45.23587" lon="5.7233">
        <ele>630</ele>
        <time>2010-05-09T07:23:35Z</time>
      </trkpt>
      <trkpt lat="45.23585" lon="5.72331">
        <ele>630</ele>
        <time>2010-05-09T07:23:36Z</time>
      </trkpt>
      <trkpt lat="45.23583" lon="5.72333">
        <ele>630</ele>
        <time>2010-05-09T07:23:37Z</time>
      </trkpt>
      <trkpt lat="45.23581" lon="5.72334">
        <ele>630</ele>
        <time>2010-05-09T07:23:38Z</time>
      </trkpt>
      <trkpt lat="45.23578" lon="5.72336">
        <ele>630</ele>
        <time>2010-05-09T07:23:39Z</time>
      </trkpt>
      <trkpt lat="45.23576" lon="5.72338">
        <ele>630</ele>
        <time>2010-05-09T07:23:40Z</time>
      </trkpt>
      <trkpt lat="45.23573" lon="5.7234">
        <ele>630</ele>
        <time>2010-05-09T07:23:41Z</time>
      </trkpt>
      <trkpt lat="45.2357" lon="5.72342">
        <ele>630</ele>
        <time>2010-05-09T07:23:42Z</time>
      </trkpt>
      <trkpt lat="45.23567" lon="5.72344">
        <ele>630</ele>
        <time>2010-05-09T07:23:43Z</time>
      </trkpt>
      <trkpt lat="45.23565" lon="5.72346">
        <ele>630</ele>
        <time>2010-05-09T07:23:44Z</time>
      </trkpt>
      <trkpt lat="45.23563" lon="5.72348">
        <ele>630</ele>
        <time>2010-05-09T07:23:45Z</time>
      </trkpt>
      <trkpt lat="45.2356" lon="5.7235">
        <ele>630</ele>
        <time>2010-05-09T07:23:46Z</time>
      </trkpt>
      <trkpt lat="45.23557" lon="5.72352">
        <ele>630</ele>
        <time>2010-05-09T07:23:47Z</time>
      </trkpt>
      <trkpt lat="45.23555" lon="5.72352">
        <ele>630</ele>
        <time>2010-05-09T07:23:48Z</time>
      </trkpt>
      <trkpt lat="45.23552" lon="5.72353">
        <ele>630</ele>
        <time>2010-05-09T07:23:49Z</time>
      </trkpt>
      <trkpt lat="45.2355" lon="5.72354">
        <ele>630</ele>
        <time>2010-05-09T07:23:50Z</time>
      </trkpt>
      <trkpt lat="45.23547" lon="5.72356">
        <ele>630</ele>
        <time>2010-05-09T07:23:51Z</time>
      </trkpt>
      <trkpt lat="45.23544" lon="5.72357">
        <ele>630</ele>
        <time>2010-05-09T07:23:52Z</time>
      </trkpt>
      <trkpt lat="45.23542" lon="5.72358">
        <ele>630</ele>
        <time>2010-05-09T07:23:53Z</time>
      </trkpt>
      <trkpt lat="45.23539" lon="5.72358">
        <ele>630</ele>
        <time>2010-05-09T07:23:54Z</time>
      </trkpt>
      <trkpt lat="45.23536" lon="5.72358">
        <ele>630</ele>
        <time>2010-05-09T07:23:55Z</time>
      </trkpt>
      <trkpt lat="45.23534" lon="5.72359">
        <ele>630</ele>
        <time>2010-05-09T07:23:56Z</time>
      </trkpt>
      <trkpt lat="45.23531" lon="5.72359">
        <ele>630</ele>
        <time>2010-05-09T07:23:57Z</time>
      </trkpt>
      <trkpt lat="45.23528" lon="5.72359">
        <ele>630</ele>
        <time>2010-05-09T07:23:58Z</time>
      </trkpt>
      <trkpt lat="45.23525" lon="5.7236">
        <ele>630</ele>
        <time>2010-05-09T07:23:59Z</time>
      </trkpt>
      <trkpt lat="45.23523" lon="5.72361">
        <ele>630</ele>
        <time>2010-05-09T07:24:00Z</time>
      </trkpt>
      <trkpt lat="45.2352" lon="5.72362">
        <ele>630</ele>
        <time>2010-05-09T07:24:01Z</time>
      </trkpt>
      <trkpt lat="45.23517" lon="5.72363">
        <ele>630</ele>
        <time>2010-05-09T07:24:02Z</time>
      </trkpt>
      <trkpt lat="45.23515" lon="5.72364">
        <ele>630</ele>
        <time>2010-05-09T07:24:03Z</time>
      </trkpt>
      <trkpt lat="45.23512" lon="5.72365">
        <ele>630</ele>
        <time>2010-05-09T07:24:04Z</time>
      </trkpt>
      <trkpt lat="45.23509" lon="5.72368">
        <ele>630</ele>
        <time>2010-05-09T07:24:05Z</time>
      </trkpt>
      <trkpt lat="45.23506" lon="5.72369">
        <ele>630</ele>
        <time>2010-05-09T07:24:06Z</time>
      </trkpt>
      <trkpt lat="45.23503" lon="5.72373">
        <ele>630</ele>
        <time>2010-05-09T07:24:07Z</time>
      </trkpt>
      <trkpt lat="45.235" lon="5.72375">
        <ele>630</ele>
        <time>2010-05-09T07:24:08Z</time>
      </trkpt>
      <trkpt lat="45.23496" lon="5.72379">
        <ele>630</ele>
        <time>2010-05-09T07:24:09Z</time>
      </trkpt>
      <trkpt lat="45.23493" lon="5.72381">
        <ele>630</ele>
        <time>2010-05-09T07:24:10Z</time>
      </trkpt>
      <trkpt lat="45.2349" lon="5.72384">
        <ele>630</ele>
        <time>2010-05-09T07:24:11Z</time>
      </trkpt>
      <trkpt lat="45.23487" lon="5.72387">
        <ele>630</ele>
        <time>2010-05-09T07:24:12Z</time>
      </trkpt>
      <trkpt lat="45.23483" lon="5.7239">
        <ele>630</ele>
        <time>2010-05-09T07:24:13Z</time>
      </trkpt>
      <trkpt lat="45.23481" lon="5.72392">
        <ele>630</ele>
        <time>2010-05-09T07:24:14Z</time>
      </trkpt>
      <trkpt lat="45.23478" lon="5.72393">
        <ele>630</ele>
        <time>2010-05-09T07:24:15Z</time>
      </trkpt>
      <trkpt lat="45.23476" lon="5.72395">
        <ele>630</ele>
        <time>2010-05-09T07:24:16Z</time>
      </trkpt>
      <trkpt lat="45.23473" lon="5.72396">
        <ele>630</ele>
        <time>2010-05-09T07:24:17Z</time>
      </trkpt>
      <trkpt lat="45.23469" lon="5.72399">
        <ele>630</ele>
        <time>2010-05-09T07:24:18Z</time>
      </trkpt>
      <trkpt lat="45.23466" lon="5.72402">
        <ele>630</ele>
        <time>2010-05-09T07:24:19Z</time>
      </trkpt>
      <trkpt lat="45.23463" lon="5.72404">
        <ele>630</ele>
        <time>2010-05-09T07:24:20Z</time>
      </trkpt>
      <trkpt lat="45.23461" lon="5.72406">
        <ele>630</ele>
        <time>2010-05-09T07:24:21Z</time>
      </trkpt>
      <trkpt lat="45.23458" lon="5.7241">
        <ele>630</ele>
        <time>2010-05-09T07:24:22Z</time>
      </trkpt>
      <trkpt lat="45.23455" lon="5.72413">
        <ele>629</ele>
        <time>2010-05-09T07:24:23Z</time>
      </trkpt>
      <trkpt lat="45.23452" lon="5.72415">
        <ele>629</ele>
        <time>2010-05-09T07:24:24Z</time>
      </trkpt>
      <trkpt lat="45.23449" lon="5.72417">
        <ele>628</ele>
        <time>2010-05-09T07:24:25Z</time>
      </trkpt>
      <trkpt lat="45.23446" lon="5.72421">
        <ele>627</ele>
        <time>2010-05-09T07:24:26Z</time>
      </trkpt>
      <trkpt lat="45.23443" lon="5.72424">
        <ele>627</ele>
        <time>2010-05-09T07:24:27Z</time>
      </trkpt>
      <trkpt lat="45.2344" lon="5.72427">
        <ele>626</ele>
        <time>2010-05-09T07:24:28Z</time>
      </trkpt>
      <trkpt lat="45.23438" lon="5.72431">
        <ele>626</ele>
        <time>2010-05-09T07:24:29Z</time>
      </trkpt>
      <trkpt lat="45.23435" lon="5.72436">
        <ele>625</ele>
        <time>2010-05-09T07:24:30Z</time>
      </trkpt>
      <trkpt lat="45.23434" lon="5.7244">
        <ele>624</ele>
        <time>2010-05-09T07:24:31Z</time>
      </trkpt>
      <trkpt lat="45.23431" lon="5.72443">
        <ele>624</ele>
        <time>2010-05-09T07:24:32Z</time>
      </trkpt>
      <trkpt lat="45.23429" lon="5.72447">
        <ele>623</ele>
        <time>2010-05-09T07:24:33Z</time>
      </trkpt>
      <trkpt lat="45.23428" lon="5.72451">
        <ele>622</ele>
        <time>2010-05-09T07:24:34Z</time>
      </trkpt>
      <trkpt lat="45.23426" lon="5.72455">
        <ele>622</ele>
        <time>2010-05-09T07:24:35Z</time>
      </trkpt>
      <trkpt lat="45.23424" lon="5.72459">
        <ele>621</ele>
        <time>2010-05-09T07:24:36Z</time>
      </trkpt>
      <trkpt lat="45.23423" lon="5.72463">
        <ele>620</ele>
        <time>2010-05-09T07:24:37Z</time>
      </trkpt>
      <trkpt lat="45.23423" lon="5.72467">
        <ele>620</ele>
        <time>2010-05-09T07:24:38Z</time>
      </trkpt>
      <trkpt lat="45.23423" lon="5.72472">
        <ele>619</ele>
        <time>2010-05-09T07:24:39Z</time>
      </trkpt>
      <trkpt lat="45.23423" lon="5.72476">
        <ele>619</ele>
        <time>2010-05-09T07:24:40Z</time>
      </trkpt>
      <trkpt lat="45.23423" lon="5.72479">
        <ele>618</ele>
        <time>2010-05-09T07:24:41Z</time>
      </trkpt>
      <trkpt lat="45.23423" lon="5.72482">
        <ele>618</ele>
        <time>2010-05-09T07:24:42Z</time>
      </trkpt>
      <trkpt lat="45.23423" lon="5.72486">
        <ele>618</ele>
        <time>2010-05-09T07:24:43Z</time>
      </trkpt>
      <trkpt lat="45.23422" lon="5.72491">
        <ele>618</ele>
        <time>2010-05-09T07:24:44Z</time>
      </trkpt>
      <trkpt lat="45.23422" lon="5.72496">
        <ele>618</ele>
        <time>2010-05-09T07:24:45Z</time>
      </trkpt>
      <trkpt lat="45.23422" lon="5.725">
        <ele>618</ele>
        <time>2010-05-09T07:24:46Z</time>
      </trkpt>
      <trkpt lat="45.23421" lon="5.72504">
        <ele>618</ele>
        <time>2010-05-09T07:24:47Z</time>
      </trkpt>
      <trkpt lat="45.23421" lon="5.72508">
        <ele>618</ele>
        <time>2010-05-09T07:24:48Z</time>
      </trkpt>
      <trkpt lat="45.2342" lon="5.72513">
        <ele>618</ele>
        <time>2010-05-09T07:24:49Z</time>
      </trkpt>
      <trkpt lat="45.23421" lon="5.72516">
        <ele>618</ele>
        <time>2010-05-09T07:24:50Z</time>
      </trkpt>
      <trkpt lat="45.23421" lon="5.7252">
        <ele>618</ele>
        <time>2010-05-09T07:24:51Z</time>
      </trkpt>
      <trkpt lat="45.23421" lon="5.72524">
        <ele>618</ele>
        <time>2010-05-09T07:24:52Z</time>
      </trkpt>
      <trkpt lat="45.2342" lon="5.72528">
        <ele>619</ele>
        <time>2010-05-09T07:24:53Z</time>
      </trkpt>
      <trkpt lat="45.2342" lon="5.72533">
        <ele>620</ele>
        <time>2010-05-09T07:24:54Z</time>
      </trkpt>
      <trkpt lat="45.2342" lon="5.72538">
        <ele>620</ele>
        <time>2010-05-09T07:24:55Z</time>
      </trkpt>
      <trkpt lat="45.2342" lon="5.72544">
        <ele>621</ele>
        <time>2010-05-09T07:24:56Z</time>
      </trkpt>
      <trkpt lat="45.2342" lon="5.72549">
        <ele>622</ele>
        <time>2010-05-09T07:24:57Z</time>
      </trkpt>
      <trkpt lat="45.2342" lon="5.72553">
        <ele>622</ele>
        <time>2010-05-09T07:24:58Z</time>
      </trkpt>
      <trkpt lat="45.2342" lon="5.72558">
        <ele>622</ele>
        <time>2010-05-09T07:24:59Z</time>
      </trkpt>
      <trkpt lat="45.2342" lon="5.72563">
        <ele>623</ele>
        <time>2010-05-09T07:25:00Z</time>
      </trkpt>
      <trkpt lat="45.23421" lon="5.72567">
        <ele>624</ele>
        <time>2010-05-09T07:25:01Z</time>
      </trkpt>
      <trkpt lat="45.23422" lon="5.72571">
        <ele>624</ele>
        <time>2010-05-09T07:25:02Z</time>
      </trkpt>
      <trkpt lat="45.23422" lon="5.72575">
        <ele>624</ele>
        <time>2010-05-09T07:25:03Z</time>
      </trkpt>
      <trkpt lat="45.23423" lon="5.72578">
        <ele>625</ele>
        <time>2010-05-09T07:25:04Z</time>
      </trkpt>
      <trkpt lat="45.23423" lon="5.72581">
        <ele>625</ele>
        <time>2010-05-09T07:25:05Z</time>
      </trkpt>
      <trkpt lat="45.23423" lon="5.72582">
        <ele>625</ele>
        <time>2010-05-09T07:25:06Z</time>
      </trkpt>
      <trkpt lat="45.23423" lon="5.72584">
        <ele>625</ele>
        <time>2010-05-09T07:25:07Z</time>
      </trkpt>
      <trkpt lat="45.23423" lon="5.72586">
        <ele>625</ele>
        <time>2010-05-09T07:25:08Z</time>
      </trkpt>
      <trkpt lat="45.23423" lon="5.72589">
        <ele>625</ele>
        <time>2010-05-09T07:25:09Z</time>
      </trkpt>
      <trkpt lat="45.23423" lon="5.72592">
        <ele>625</ele>
        <time>2010-05-09T07:25:10Z</time>
      </trkpt>
      <trkpt lat="45.23423" lon="5.72595">
        <ele>626</ele>
        <time>2010-05-09T07:25:11Z</time>
      </trkpt>
      <trkpt lat="45.23424" lon="5.72599">
        <ele>626</ele>
        <time>2010-05-09T07:25:12Z</time>
      </trkpt>
      <trkpt lat="45.23425" lon="5.72603">
        <ele>626</ele>
        <time>2010-05-09T07:25:13Z</time>
      </trkpt>
      <trkpt lat="45.23426" lon="5.72606">
        <ele>627</ele>
        <time>2010-05-09T07:25:14Z</time>
      </trkpt>
      <trkpt lat="45.23426" lon="5.7261">
        <ele>627</ele>
        <time>2010-05-09T07:25:15Z</time>
      </trkpt>
      <trkpt lat="45.23427" lon="5.72613">
        <ele>627</ele>
        <time>2010-05-09T07:25:16Z</time>
      </trkpt>
      <trkpt lat="45.23427" lon="5.72617">
        <ele>628</ele>
        <time>2010-05-09T07:25:17Z</time>
      </trkpt>
      <trkpt lat="45.23426" lon="5.72622">
        <ele>628</ele>
        <time>2010-05-09T07:25:18Z</time>
      </trkpt>
      <trkpt lat="45.23426" lon="5.72626">
        <ele>628</ele>
        <time>2010-05-09T07:25:19Z</time>
      </trkpt>
      <trkpt lat="45.23426" lon="5.7263">
        <ele>628</ele>
        <time>2010-05-09T07:25:20Z</time>
      </trkpt>
      <trkpt lat="45.23426" lon="5.72634">
        <ele>628</ele>
        <time>2010-05-09T07:25:21Z</time>
      </trkpt>
      <trkpt lat="45.23426" lon="5.72638">
        <ele>628</ele>
        <time>2010-05-09T07:25:22Z</time>
      </trkpt>
      <trkpt lat="45.23426" lon="5.72642">
        <ele>628</ele>
        <time>2010-05-09T07:25:23Z</time>
      </trkpt>
      <trkpt lat="45.23426" lon="5.72645">
        <ele>628</ele>
        <time>2010-05-09T07:25:24Z</time>
      </trkpt>
      <trkpt lat="45.23426" lon="5.72649">
        <ele>628</ele>
        <time>2010-05-09T07:25:25Z</time>
      </trkpt>
      <trkpt lat="45.23426" lon="5.72652">
        <ele>628</ele>
        <time>2010-05-09T07:25:26Z</time>
      </trkpt>
      <trkpt lat="45.23425" lon="5.72656">
        <ele>628</ele>
        <time>2010-05-09T07:25:27Z</time>
      </trkpt>
      <trkpt lat="45.23425" lon="5.72659">
        <ele>628</ele>
        <time>2010-05-09T07:25:28Z</time>
      </trkpt>
      <trkpt lat="45.23424" lon="5.72663">
        <ele>628</ele>
        <time>2010-05-09T07:25:29Z</time>
      </trkpt>
      <trkpt lat="45.23423" lon="5.72666">
        <ele>628</ele>
        <time>2010-05-09T07:25:30Z</time>
      </trkpt>
      <trkpt lat="45.23421" lon="5.72669">
        <ele>628</ele>
        <time>2010-05-09T07:25:31Z</time>
      </trkpt>
      <trkpt lat="45.2342" lon="5.72672">
        <ele>628</ele>
        <time>2010-05-09T07:25:32Z</time>
      </trkpt>
      <trkpt lat="45.23418" lon="5.72675">
        <ele>628</ele>
        <time>2010-05-09T07:25:33Z</time>
      </trkpt>
      <trkpt lat="45.23417" lon="5.72678">
        <ele>628</ele>
        <time>2010-05-09T07:25:34Z</time>
      </trkpt>
      <trkpt lat="45.23416" lon="5.72681">
        <ele>628</ele>
        <time>2010-05-09T07:25:35Z</time>
      </trkpt>
      <trkpt lat="45.23415" lon="5.72685">
        <ele>628</ele>
        <time>2010-05-09T07:25:36Z</time>
      </trkpt>
      <trkpt lat="45.23414" lon="5.72688">
        <ele>628</ele>
        <time>2010-05-09T07:25:37Z</time>
      </trkpt>
      <trkpt lat="45.23413" lon="5.72692">
        <ele>628</ele>
        <time>2010-05-09T07:25:38Z</time>
      </trkpt>
      <trkpt lat="45.23411" lon="5.72695">
        <ele>628</ele>
        <time>2010-05-09T07:25:39Z</time>
      </trkpt>
      <trkpt lat="45.23409" lon="5.72699">
        <ele>628</ele>
        <time>2010-05-09T07:25:40Z</time>
      </trkpt>
      <trkpt lat="45.23408" lon="5.72703">
        <ele>628</ele>
        <time>2010-05-09T07:25:41Z</time>
      </trkpt>
      <trkpt lat="45.23406" lon="5.72705">
        <ele>628</ele>
        <time>2010-05-09T07:25:42Z</time>
      </trkpt>
      <trkpt lat="45.23405" lon="5.72709">
        <ele>628</ele>
        <time>2010-05-09T07:25:43Z</time>
      </trkpt>
      <trkpt lat="45.23403" lon="5.72712">
        <ele>628</ele>
        <time>2010-05-09T07:25:44Z</time>
      </trkpt>
      <trkpt lat="45.23402" lon="5.72715">
        <ele>628</ele>
        <time>2010-05-09T07:25:45Z</time>
      </trkpt>
      <trkpt lat="45.23401" lon="5.72718">
        <ele>628</ele>
        <time>2010-05-09T07:25:46Z</time>
      </trkpt>
      <trkpt lat="45.23399" lon="5.72722">
        <ele>629</ele>
        <time>2010-05-09T07:25:47Z</time>
      </trkpt>
      <trkpt lat="45.23398" lon="5.72726">
        <ele>629</ele>
        <time>2010-05-09T07:25:48Z</time>
      </trkpt>
      <trkpt lat="45.23397" lon="5.7273">
        <ele>629</ele>
        <time>2010-05-09T07:25:49Z</time>
      </trkpt>
      <trkpt lat="45.23396" lon="5.72733">
        <ele>630</ele>
        <time>2010-05-09T07:25:50Z</time>
      </trkpt>
      <trkpt lat="45.23394" lon="5.72736">
        <ele>630</ele>
        <time>2010-05-09T07:25:51Z</time>
      </trkpt>
      <trkpt lat="45.23393" lon="5.72739">
        <ele>631</ele>
        <time>2010-05-09T07:25:52Z</time>
      </trkpt>
      <trkpt lat="45.23391" lon="5.72741">
        <ele>631</ele>
        <time>2010-05-09T07:25:53Z</time>
      </trkpt>
      <trkpt lat="45.2339" lon="5.72744">
        <ele>631</ele>
        <time>2010-05-09T07:25:54Z</time>
      </trkpt>
      <trkpt lat="45.23389" lon="5.72747">
        <ele>632</ele>
        <time>2010-05-09T07:25:55Z</time>
      </trkpt>
      <trkpt lat="45.23387" lon="5.7275">
        <ele>632</ele>
        <time>2010-05-09T07:25:56Z</time>
      </trkpt>
      <trkpt lat="45.23386" lon="5.72754">
        <ele>632</ele>
        <time>2010-05-09T07:25:57Z</time>
      </trkpt>
      <trkpt lat="45.23384" lon="5.72757">
        <ele>632</ele>
        <time>2010-05-09T07:25:58Z</time>
      </trkpt>
      <trkpt lat="45.23383" lon="5.72761">
        <ele>633</ele>
        <time>2010-05-09T07:25:59Z</time>
      </trkpt>
      <trkpt lat="45.23381" lon="5.72765">
        <ele>634</ele>
        <time>2010-05-09T07:26:00Z</time>
      </trkpt>
      <trkpt lat="45.2338" lon="5.72767">
        <ele>635</ele>
        <time>2010-05-09T07:26:01Z</time>
      </trkpt>
      <trkpt lat="45.2338" lon="5.7277">
        <ele>635</ele>
        <time>2010-05-09T07:26:02Z</time>
      </trkpt>
      <trkpt lat="45.23378" lon="5.72774">
        <ele>636</ele>
        <time>2010-05-09T07:26:03Z</time>
      </trkpt>
      <trkpt lat="45.23377" lon="5.72777">
        <ele>636</ele>
        <time>2010-05-09T07:26:04Z</time>
      </trkpt>
      <trkpt lat="45.23375" lon="5.7278">
        <ele>636</ele>
        <time>2010-05-09T07:26:05Z</time>
      </trkpt>
      <trkpt lat="45.23374" lon="5.72784">
        <ele>636</ele>
        <time>2010-05-09T07:26:06Z</time>
      </trkpt>
      <trkpt lat="45.23373" lon="5.72786">
        <ele>636</ele>
        <time>2010-05-09T07:26:07Z</time>
      </trkpt>
      <trkpt lat="45.23371" lon="5.72789">
        <ele>636</ele>
        <time>2010-05-09T07:26:08Z</time>
      </trkpt>
      <trkpt lat="45.2337" lon="5.72791">
        <ele>636</ele>
        <time>2010-05-09T07:26:09Z</time>
      </trkpt>
      <trkpt lat="45.23369" lon="5.72793">
        <ele>636</ele>
        <time>2010-05-09T07:26:10Z</time>
      </trkpt>
      <trkpt lat="45.23367" lon="5.72795">
        <ele>636</ele>
        <time>2010-05-09T07:26:11Z</time>
      </trkpt>
      <trkpt lat="45.23366" lon="5.72797">
        <ele>636</ele>
        <time>2010-05-09T07:26:12Z</time>
      </trkpt>
      <trkpt lat="45.23365" lon="5.728">
        <ele>636</ele>
        <time>2010-05-09T07:26:13Z</time>
      </trkpt>
      <trkpt lat="45.23364" lon="5.72803">
        <ele>636</ele>
        <time>2010-05-09T07:26:14Z</time>
      </trkpt>
      <trkpt lat="45.23362" lon="5.72806">
        <ele>637</ele>
        <time>2010-05-09T07:26:15Z</time>
      </trkpt>
      <trkpt lat="45.23361" lon="5.72809">
        <ele>637</ele>
        <time>2010-05-09T07:26:16Z</time>
      </trkpt>
      <trkpt lat="45.2336" lon="5.72813">
        <ele>638</ele>
        <time>2010-05-09T07:26:17Z</time>
      </trkpt>
      <trkpt lat="45.23359" lon="5.72816">
        <ele>638</ele>
        <time>2010-05-09T07:26:18Z</time>
      </trkpt>
      <trkpt lat="45.23358" lon="5.72819">
        <ele>639</ele>
        <time>2010-05-09T07:26:19Z</time>
      </trkpt>
      <trkpt lat="45.23356" lon="5.72823">
        <ele>639</ele>
        <time>2010-05-09T07:26:20Z</time>
      </trkpt>
      <trkpt lat="45.23354" lon="5.72827">
        <ele>640</ele>
        <time>2010-05-09T07:26:21Z</time>
      </trkpt>
      <trkpt lat="45.23353" lon="5.72831">
        <ele>640</ele>
        <time>2010-05-09T07:26:22Z</time>
      </trkpt>
      <trkpt lat="45.23351" lon="5.72836">
        <ele>640</ele>
        <time>2010-05-09T07:26:23Z</time>
      </trkpt>
      <trkpt lat="45.2335" lon="5.72839">
        <ele>641</ele>
        <time>2010-05-09T07:26:24Z</time>
      </trkpt>
      <trkpt lat="45.23349" lon="5.72842">
        <ele>641</ele>
        <time>2010-05-09T07:26:25Z</time>
      </trkpt>
      <trkpt lat="45.23347" lon="5.72845">
        <ele>642</ele>
        <time>2010-05-09T07:26:26Z</time>
      </trkpt>
      <trkpt lat="45.23346" lon="5.72849">
        <ele>642</ele>
        <time>2010-05-09T07:26:27Z</time>
      </trkpt>
      <trkpt lat="45.23344" lon="5.72852">
        <ele>643</ele>
        <time>2010-05-09T07:26:28Z</time>
      </trkpt>
      <trkpt lat="45.23343" lon="5.72855">
        <ele>643</ele>
        <time>2010-05-09T07:26:29Z</time>
      </trkpt>
      <trkpt lat="45.23341" lon="5.72858">
        <ele>644</ele>
        <time>2010-05-09T07:26:30Z</time>
      </trkpt>
      <trkpt lat="45.23339" lon="5.72862">
        <ele>645</ele>
        <time>2010-05-09T07:26:31Z</time>
      </trkpt>
      <trkpt lat="45.23338" lon="5.72865">
        <ele>646</ele>
        <time>2010-05-09T07:26:32Z</time>
      </trkpt>
      <trkpt lat="45.23336" lon="5.72868">
        <ele>646</ele>
        <time>2010-05-09T07:26:33Z</time>
      </trkpt>
      <trkpt lat="45.23334" lon="5.72871">
        <ele>647</ele>
        <time>2010-05-09T07:26:34Z</time>
      </trkpt>
      <trkpt lat="45.23332" lon="5.72873">
        <ele>648</ele>
        <time>2010-05-09T07:26:35Z</time>
      </trkpt>
      <trkpt lat="45.2333" lon="5.72874">
        <ele>648</ele>
        <time>2010-05-09T07:26:36Z</time>
      </trkpt>
      <trkpt lat="45.23327" lon="5.72876">
        <ele>648</ele>
        <time>2010-05-09T07:26:37Z</time>
      </trkpt>
      <trkpt lat="45.23325" lon="5.72878">
        <ele>648</ele>
        <time>2010-05-09T07:26:38Z</time>
      </trkpt>
      <trkpt lat="45.23323" lon="5.72879">
        <ele>648</ele>
        <time>2010-05-09T07:26:39Z</time>
      </trkpt>
      <trkpt lat="45.2332" lon="5.72881">
        <ele>648</ele>
        <time>2010-05-09T07:26:40Z</time>
      </trkpt>
      <trkpt lat="45.23318" lon="5.72883">
        <ele>648</ele>
        <time>2010-05-09T07:26:41Z</time>
      </trkpt>
      <trkpt lat="45.23315" lon="5.72884">
        <ele>648</ele>
        <time>2010-05-09T07:26:42Z</time>
      </trkpt>
      <trkpt lat="45.23312" lon="5.72885">
        <ele>648</ele>
        <time>2010-05-09T07:26:43Z</time>
      </trkpt>
      <trkpt lat="45.2331" lon="5.72886">
        <ele>648</ele>
        <time>2010-05-09T07:26:44Z</time>
      </trkpt>
      <trkpt lat="45.23308" lon="5.72888">
        <ele>648</ele>
        <time>2010-05-09T07:26:45Z</time>
      </trkpt>
      <trkpt lat="45.23305" lon="5.7289">
        <ele>649</ele>
        <time>2010-05-09T07:26:46Z</time>
      </trkpt>
      <trkpt lat="45.23303" lon="5.72893">
        <ele>649</ele>
        <time>2010-05-09T07:26:47Z</time>
      </trkpt>
      <trkpt lat="45.23301" lon="5.72894">
        <ele>650</ele>
        <time>2010-05-09T07:26:48Z</time>
      </trkpt>
      <trkpt lat="45.23299" lon="5.72894">
        <ele>650</ele>
        <time>2010-05-09T07:26:49Z</time>
      </trkpt>
      <trkpt lat="45.23297" lon="5.72894">
        <ele>650</ele>
        <time>2010-05-09T07:26:50Z</time>
      </trkpt>
      <trkpt lat="45.23296" lon="5.72894">
        <ele>650</ele>
        <time>2010-05-09T07:26:51Z</time>
      </trkpt>
      <trkpt lat="45.23294" lon="5.72895">
        <ele>650</ele>
        <time>2010-05-09T07:26:52Z</time>
      </trkpt>
      <trkpt lat="45.23291" lon="5.72896">
        <ele>650</ele>
        <time>2010-05-09T07:26:53Z</time>
      </trkpt>
      <trkpt lat="45.23289" lon="5.72897">
        <ele>650</ele>
        <time>2010-05-09T07:26:54Z</time>
      </trkpt>
      <trkpt lat="45.23286" lon="5.72897">
        <ele>650</ele>
        <time>2010-05-09T07:26:55Z</time>
      </trkpt>
      <trkpt lat="45.23284" lon="5.72897">
        <ele>650</ele>
        <time>2010-05-09T07:26:56Z</time>
      </trkpt>
      <trkpt lat="45.2328" lon="5.72901">
        <ele>650</ele>
        <time>2010-05-09T07:26:57Z</time>
      </trkpt>
      <trkpt lat="45.23276" lon="5.72902">
        <ele>650</ele>
        <time>2010-05-09T07:26:58Z</time>
      </trkpt>
      <trkpt lat="45.23273" lon="5.72904">
        <ele>650</ele>
        <time>2010-05-09T07:26:59Z</time>
      </trkpt>
      <trkpt lat="45.2327" lon="5.72905">
        <ele>650</ele>
        <time>2010-05-09T07:27:00Z</time>
      </trkpt>
      <trkpt lat="45.23268" lon="5.72906">
        <ele>651</ele>
        <time>2010-05-09T07:27:01Z</time>
      </trkpt>
      <trkpt lat="45.23265" lon="5.72907">
        <ele>652</ele>
        <time>2010-05-09T07:27:02Z</time>
      </trkpt>
      <trkpt lat="45.23262" lon="5.72908">
        <ele>652</ele>
        <time>2010-05-09T07:27:03Z</time>
      </trkpt>
      <trkpt lat="45.23258" lon="5.72911">
        <ele>653</ele>
        <time>2010-05-09T07:27:04Z</time>
      </trkpt>
      <trkpt lat="45.23255" lon="5.72913">
        <ele>653</ele>
        <time>2010-05-09T07:27:05Z</time>
      </trkpt>
      <trkpt lat="45.23252" lon="5.72916">
        <ele>654</ele>
        <time>2010-05-09T07:27:06Z</time>
      </trkpt>
      <trkpt lat="45.23249" lon="5.72917">
        <ele>654</ele>
        <time>2010-05-09T07:27:07Z</time>
      </trkpt>
      <trkpt lat="45.23246" lon="5.72919">
        <ele>654</ele>
        <time>2010-05-09T07:27:08Z</time>
      </trkpt>
      <trkpt lat="45.23244" lon="5.72921">
        <ele>654</ele>
        <time>2010-05-09T07:27:09Z</time>
      </trkpt>
      <trkpt lat="45.23241" lon="5.72923">
        <ele>655</ele>
        <time>2010-05-09T07:27:10Z</time>
      </trkpt>
      <trkpt lat="45.23239" lon="5.72926">
        <ele>655</ele>
        <time>2010-05-09T07:27:11Z</time>
      </trkpt>
      <trkpt lat="45.23238" lon="5.72928">
        <ele>655</ele>
        <time>2010-05-09T07:27:12Z</time>
      </trkpt>
      <trkpt lat="45.23238" lon="5.7293">
        <ele>655</ele>
        <time>2010-05-09T07:27:13Z</time>
      </trkpt>
      <trkpt lat="45.23237" lon="5.72932">
        <ele>655</ele>
        <time>2010-05-09T07:27:14Z</time>
      </trkpt>
      <trkpt lat="45.23238" lon="5.72934">
        <ele>655</ele>
        <time>2010-05-09T07:27:15Z</time>
      </trkpt>
      <trkpt lat="45.23238" lon="5.72936">
        <ele>655</ele>
        <time>2010-05-09T07:27:16Z</time>
      </trkpt>
      <trkpt lat="45.23239" lon="5.72939">
        <ele>655</ele>
        <time>2010-05-09T07:27:17Z</time>
      </trkpt>
      <trkpt lat="45.2324" lon="5.72942">
        <ele>655</ele>
        <time>2010-05-09T07:27:18Z</time>
      </trkpt>
      <trkpt lat="45.23241" lon="5.72944">
        <ele>655</ele>
        <time>2010-05-09T07:27:19Z</time>
      </trkpt>
      <trkpt lat="45.23243" lon="5.72945">
        <ele>655</ele>
        <time>2010-05-09T07:27:20Z</time>
      </trkpt>
      <trkpt lat="45.23244" lon="5.72947">
        <ele>655</ele>
        <time>2010-05-09T07:27:21Z</time>
      </trkpt>
      <trkpt lat="45.23247" lon="5.72947">
        <ele>655</ele>
        <time>2010-05-09T07:27:22Z</time>
      </trkpt>
      <trkpt lat="45.23249" lon="5.72946">
        <ele>655</ele>
        <time>2010-05-09T07:27:23Z</time>
      </trkpt>
      <trkpt lat="45.23252" lon="5.72946">
        <ele>656</ele>
        <time>2010-05-09T07:27:24Z</time>
      </trkpt>
      <trkpt lat="45.23254" lon="5.72945">
        <ele>656</ele>
        <time>2010-05-09T07:27:25Z</time>
      </trkpt>
      <trkpt lat="45.23256" lon="5.72944">
        <ele>657</ele>
        <time>2010-05-09T07:27:26Z</time>
      </trkpt>
      <trkpt lat="45.23259" lon="5.72943">
        <ele>658</ele>
        <time>2010-05-09T07:27:27Z</time>
      </trkpt>
      <trkpt lat="45.23261" lon="5.72942">
        <ele>659</ele>
        <time>2010-05-09T07:27:28Z</time>
      </trkpt>
      <trkpt lat="45.23264" lon="5.72941">
        <ele>659</ele>
        <time>2010-05-09T07:27:29Z</time>
      </trkpt>
      <trkpt lat="45.23267" lon="5.7294">
        <ele>660</ele>
        <time>2010-05-09T07:27:30Z</time>
      </trkpt>
      <trkpt lat="45.23269" lon="5.72939">
        <ele>660</ele>
        <time>2010-05-09T07:27:31Z</time>
      </trkpt>
      <trkpt lat="45.23272" lon="5.72938">
        <ele>660</ele>
        <time>2010-05-09T07:27:32Z</time>
      </trkpt>
      <trkpt lat="45.23275" lon="5.72937">
        <ele>661</ele>
        <time>2010-05-09T07:27:33Z</time>
      </trkpt>
      <trkpt lat="45.23277" lon="5.72937">
        <ele>661</ele>
        <time>2010-05-09T07:27:34Z</time>
      </trkpt>
      <trkpt lat="45.2328" lon="5.72937">
        <ele>661</ele>
        <time>2010-05-09T07:27:35Z</time>
      </trkpt>
      <trkpt lat="45.23282" lon="5.72936">
        <ele>661</ele>
        <time>2010-05-09T07:27:36Z</time>
      </trkpt>
      <trkpt lat="45.23283" lon="5.72936">
        <ele>662</ele>
        <time>2010-05-09T07:27:37Z</time>
      </trkpt>
      <trkpt lat="45.23286" lon="5.72936">
        <ele>662</ele>
        <time>2010-05-09T07:27:38Z</time>
      </trkpt>
      <trkpt lat="45.23288" lon="5.72936">
        <ele>662</ele>
        <time>2010-05-09T07:27:39Z</time>
      </trkpt>
      <trkpt lat="45.23291" lon="5.72938">
        <ele>662</ele>
        <time>2010-05-09T07:27:40Z</time>
      </trkpt>
      <trkpt lat="45.23294" lon="5.72939">
        <ele>662</ele>
        <time>2010-05-09T07:27:41Z</time>
      </trkpt>
      <trkpt lat="45.23296" lon="5.7294">
        <ele>662</ele>
        <time>2010-05-09T07:27:42Z</time>
      </trkpt>
      <trkpt lat="45.23298" lon="5.72941">
        <ele>663</ele>
        <time>2010-05-09T07:27:43Z</time>
      </trkpt>
      <trkpt lat="45.233" lon="5.72943">
        <ele>663</ele>
        <time>2010-05-09T07:27:44Z</time>
      </trkpt>
      <trkpt lat="45.23302" lon="5.72945">
        <ele>663</ele>
        <time>2010-05-09T07:27:45Z</time>
      </trkpt>
      <trkpt lat="45.23305" lon="5.72947">
        <ele>663</ele>
        <time>2010-05-09T07:27:46Z</time>
      </trkpt>
      <trkpt lat="45.23307" lon="5.72948">
        <ele>663</ele>
        <time>2010-05-09T07:27:47Z</time>
      </trkpt>
      <trkpt lat="45.23309" lon="5.7295">
        <ele>663</ele>
        <time>2010-05-09T07:27:48Z</time>
      </trkpt>
      <trkpt lat="45.23311" lon="5.72952">
        <ele>663</ele>
        <time>2010-05-09T07:27:49Z</time>
      </trkpt>
      <trkpt lat="45.23313" lon="5.72954">
        <ele>663</ele>
        <time>2010-05-09T07:27:50Z</time>
      </trkpt>
      <trkpt lat="45.23315" lon="5.72955">
        <ele>663</ele>
        <time>2010-05-09T07:27:51Z</time>
      </trkpt>
      <trkpt lat="45.23316" lon="5.72957">
        <ele>663</ele>
        <time>2010-05-09T07:27:52Z</time>
      </trkpt>
      <trkpt lat="45.23318" lon="5.72959">
        <ele>663</ele>
        <time>2010-05-09T07:27:53Z</time>
      </trkpt>
      <trkpt lat="45.2332" lon="5.7296">
        <ele>663</ele>
        <time>2010-05-09T07:27:54Z</time>
      </trkpt>
      <trkpt lat="45.23322" lon="5.72962">
        <ele>663</ele>
        <time>2010-05-09T07:27:55Z</time>
      </trkpt>
      <trkpt lat="45.23324" lon="5.72963">
        <ele>663</ele>
        <time>2010-05-09T07:27:56Z</time>
      </trkpt>
      <trkpt lat="45.23326" lon="5.72964">
        <ele>663</ele>
        <time>2010-05-09T07:27:57Z</time>
      </trkpt>
      <trkpt lat="45.23329" lon="5.72965">
        <ele>663</ele>
        <time>2010-05-09T07:27:58Z</time>
      </trkpt>
      <trkpt lat="45.23332" lon="5.72966">
        <ele>663</ele>
        <time>2010-05-09T07:27:59Z</time>
      </trkpt>
      <trkpt lat="45.23334" lon="5.72966">
        <ele>663</ele>
        <time>2010-05-09T07:28:00Z</time>
      </trkpt>
      <trkpt lat="45.23337" lon="5.72967">
        <ele>664</ele>
        <time>2010-05-09T07:28:01Z</time>
      </trkpt>
      <trkpt lat="45.2334" lon="5.72967">
        <ele>664</ele>
        <time>2010-05-09T07:28:02Z</time>
      </trkpt>
      <trkpt lat="45.23343" lon="5.72967">
        <ele>664</ele>
        <time>2010-05-09T07:28:03Z</time>
      </trkpt>
      <trkpt lat="45.23345" lon="5.72967">
        <ele>665</ele>
        <time>2010-05-09T07:28:04Z</time>
      </trkpt>
      <trkpt lat="45.23348" lon="5.72967">
        <ele>665</ele>
        <time>2010-05-09T07:28:05Z</time>
      </trkpt>
      <trkpt lat="45.23351" lon="5.72967">
        <ele>665</ele>
        <time>2010-05-09T07:28:06Z</time>
      </trkpt>
      <trkpt lat="45.23353" lon="5.72967">
        <ele>665</ele>
        <time>2010-05-09T07:28:07Z</time>
      </trkpt>
      <trkpt lat="45.23356" lon="5.72968">
        <ele>666</ele>
        <time>2010-05-09T07:28:08Z</time>
      </trkpt>
      <trkpt lat="45.23358" lon="5.72968">
        <ele>666</ele>
        <time>2010-05-09T07:28:09Z</time>
      </trkpt>
      <trkpt lat="45.23361" lon="5.72968">
        <ele>666</ele>
        <time>2010-05-09T07:28:10Z</time>
      </trkpt>
      <trkpt lat="45.23363" lon="5.72968">
        <ele>666</ele>
        <time>2010-05-09T07:28:11Z</time>
      </trkpt>
      <trkpt lat="45.23366" lon="5.72968">
        <ele>666</ele>
        <time>2010-05-09T07:28:12Z</time>
      </trkpt>
      <trkpt lat="45.23368" lon="5.72968">
        <ele>666</ele>
        <time>2010-05-09T07:28:13Z</time>
      </trkpt>
      <trkpt lat="45.23371" lon="5.72968">
        <ele>667</ele>
        <time>2010-05-09T07:28:14Z</time>
      </trkpt>
      <trkpt lat="45.23373" lon="5.72968">
        <ele>667</ele>
        <time>2010-05-09T07:28:15Z</time>
      </trkpt>
      <trkpt lat="45.23376" lon="5.72968">
        <ele>668</ele>
        <time>2010-05-09T07:28:16Z</time>
      </trkpt>
      <trkpt lat="45.23379" lon="5.72969">
        <ele>669</ele>
        <time>2010-05-09T07:28:17Z</time>
      </trkpt>
      <trkpt lat="45.23381" lon="5.72969">
        <ele>669</ele>
        <time>2010-05-09T07:28:18Z</time>
      </trkpt>
      <trkpt lat="45.23384" lon="5.72969">
        <ele>670</ele>
        <time>2010-05-09T07:28:19Z</time>
      </trkpt>
      <trkpt lat="45.23387" lon="5.72969">
        <ele>670</ele>
        <time>2010-05-09T07:28:20Z</time>
      </trkpt>
      <trkpt lat="45.23389" lon="5.72969">
        <ele>671</ele>
        <time>2010-05-09T07:28:21Z</time>
      </trkpt>
      <trkpt lat="45.23391" lon="5.72968">
        <ele>672</ele>
        <time>2010-05-09T07:28:22Z</time>
      </trkpt>
      <trkpt lat="45.23394" lon="5.72969">
        <ele>673</ele>
        <time>2010-05-09T07:28:23Z</time>
      </trkpt>
      <trkpt lat="45.23397" lon="5.72969">
        <ele>674</ele>
        <time>2010-05-09T07:28:24Z</time>
      </trkpt>
      <trkpt lat="45.23399" lon="5.72969">
        <ele>674</ele>
        <time>2010-05-09T07:28:25Z</time>
      </trkpt>
      <trkpt lat="45.23402" lon="5.72969">
        <ele>675</ele>
        <time>2010-05-09T07:28:26Z</time>
      </trkpt>
      <trkpt lat="45.23405" lon="5.72969">
        <ele>676</ele>
        <time>2010-05-09T07:28:27Z</time>
      </trkpt>
      <trkpt lat="45.23407" lon="5.72969">
        <ele>677</ele>
        <time>2010-05-09T07:28:28Z</time>
      </trkpt>
      <trkpt lat="45.23409" lon="5.72969">
        <ele>678</ele>
        <time>2010-05-09T07:28:29Z</time>
      </trkpt>
      <trkpt lat="45.23412" lon="5.72969">
        <ele>679</ele>
        <time>2010-05-09T07:28:30Z</time>
      </trkpt>
      <trkpt lat="45.23415" lon="5.72969">
        <ele>680</ele>
        <time>2010-05-09T07:28:31Z</time>
      </trkpt>
      <trkpt lat="45.23418" lon="5.72969">
        <ele>680</ele>
        <time>2010-05-09T07:28:32Z</time>
      </trkpt>
      <trkpt lat="45.2342" lon="5.72969">
        <ele>680</ele>
        <time>2010-05-09T07:28:33Z</time>
      </trkpt>
      <trkpt lat="45.23423" lon="5.72969">
        <ele>680</ele>
        <time>2010-05-09T07:28:34Z</time>
      </trkpt>
      <trkpt lat="45.23425" lon="5.7297">
        <ele>680</ele>
        <time>2010-05-09T07:28:35Z</time>
      </trkpt>
      <trkpt lat="45.23427" lon="5.7297">
        <ele>680</ele>
        <time>2010-05-09T07:28:36Z</time>
      </trkpt>
      <trkpt lat="45.2343" lon="5.7297">
        <ele>680</ele>
        <time>2010-05-09T07:28:37Z</time>
      </trkpt>
      <trkpt lat="45.23433" lon="5.7297">
        <ele>680</ele>
        <time>2010-05-09T07:28:38Z</time>
      </trkpt>
      <trkpt lat="45.23435" lon="5.7297">
        <ele>680</ele>
        <time>2010-05-09T07:28:39Z</time>
      </trkpt>
      <trkpt lat="45.23437" lon="5.72971">
        <ele>680</ele>
        <time>2010-05-09T07:28:40Z</time>
      </trkpt>
      <trkpt lat="45.2344" lon="5.72971">
        <ele>680</ele>
        <time>2010-05-09T07:28:41Z</time>
      </trkpt>
      <trkpt lat="45.23442" lon="5.72971">
        <ele>680</ele>
        <time>2010-05-09T07:28:42Z</time>
      </trkpt>
      <trkpt lat="45.23444" lon="5.72971">
        <ele>680</ele>
        <time>2010-05-09T07:28:43Z</time>
      </trkpt>
      <trkpt lat="45.23447" lon="5.72971">
        <ele>680</ele>
        <time>2010-05-09T07:28:44Z</time>
      </trkpt>
      <trkpt lat="45.2345" lon="5.72972">
        <ele>680</ele>
        <time>2010-05-09T07:28:45Z</time>
      </trkpt>
      <trkpt lat="45.23452" lon="5.72973">
        <ele>680</ele>
        <time>2010-05-09T07:28:46Z</time>
      </trkpt>
      <trkpt lat="45.23455" lon="5.72974">
        <ele>680</ele>
        <time>2010-05-09T07:28:47Z</time>
      </trkpt>
      <trkpt lat="45.23457" lon="5.72975">
        <ele>681</ele>
        <time>2010-05-09T07:28:48Z</time>
      </trkpt>
      <trkpt lat="45.2346" lon="5.72975">
        <ele>681</ele>
        <time>2010-05-09T07:28:49Z</time>
      </trkpt>
      <trkpt lat="45.23463" lon="5.72976">
        <ele>681</ele>
        <time>2010-05-09T07:28:50Z</time>
      </trkpt>
      <trkpt lat="45.23465" lon="5.72977">
        <ele>681</ele>
        <time>2010-05-09T07:28:51Z</time>
      </trkpt>
      <trkpt lat="45.23468" lon="5.72978">
        <ele>681</ele>
        <time>2010-05-09T07:28:52Z</time>
      </trkpt>
      <trkpt lat="45.23471" lon="5.72979">
        <ele>681</ele>
        <time>2010-05-09T07:28:53Z</time>
      </trkpt>
      <trkpt lat="45.23473" lon="5.7298">
        <ele>681</ele>
        <time>2010-05-09T07:28:54Z</time>
      </trkpt>
      <trkpt lat="45.23476" lon="5.7298">
        <ele>681</ele>
        <time>2010-05-09T07:28:55Z</time>
      </trkpt>
      <trkpt lat="45.23478" lon="5.72981">
        <ele>682</ele>
        <time>2010-05-09T07:28:56Z</time>
      </trkpt>
      <trkpt lat="45.2348" lon="5.72982">
        <ele>682</ele>
        <time>2010-05-09T07:28:57Z</time>
      </trkpt>
      <trkpt lat="45.23482" lon="5.72983">
        <ele>682</ele>
        <time>2010-05-09T07:28:58Z</time>
      </trkpt>
      <trkpt lat="45.23484" lon="5.72985">
        <ele>682</ele>
        <time>2010-05-09T07:28:59Z</time>
      </trkpt>
      <trkpt lat="45.23486" lon="5.72987">
        <ele>682</ele>
        <time>2010-05-09T07:29:00Z</time>
      </trkpt>
      <trkpt lat="45.23489" lon="5.72989">
        <ele>682</ele>
        <time>2010-05-09T07:29:01Z</time>
      </trkpt>
      <trkpt lat="45.23491" lon="5.72991">
        <ele>682</ele>
        <time>2010-05-09T07:29:02Z</time>
      </trkpt>
      <trkpt lat="45.23493" lon="5.72993">
        <ele>682</ele>
        <time>2010-05-09T07:29:03Z</time>
      </trkpt>
      <trkpt lat="45.23495" lon="5.72994">
        <ele>682</ele>
        <time>2010-05-09T07:29:04Z</time>
      </trkpt>
      <trkpt lat="45.23497" lon="5.72996">
        <ele>682</ele>
        <time>2010-05-09T07:29:05Z</time>
      </trkpt>
      <trkpt lat="45.23499" lon="5.72999">
        <ele>682</ele>
        <time>2010-05-09T07:29:06Z</time>
      </trkpt>
      <trkpt lat="45.235" lon="5.73001">
        <ele>682</ele>
        <time>2010-05-09T07:29:07Z</time>
      </trkpt>
      <trkpt lat="45.23502" lon="5.73003">
        <ele>682</ele>
        <time>2010-05-09T07:29:08Z</time>
      </trkpt>
      <trkpt lat="45.23504" lon="5.73006">
        <ele>682</ele>
        <time>2010-05-09T07:29:09Z</time>
      </trkpt>
      <trkpt lat="45.23505" lon="5.73008">
        <ele>682</ele>
        <time>2010-05-09T07:29:10Z</time>
      </trkpt>
      <trkpt lat="45.23506" lon="5.73011">
        <ele>682</ele>
        <time>2010-05-09T07:29:11Z</time>
      </trkpt>
      <trkpt lat="45.23507" lon="5.73013">
        <ele>682</ele>
        <time>2010-05-09T07:29:12Z</time>
      </trkpt>
      <trkpt lat="45.23508" lon="5.73016">
        <ele>682</ele>
        <time>2010-05-09T07:29:13Z</time>
      </trkpt>
      <trkpt lat="45.2351" lon="5.73018">
        <ele>682</ele>
        <time>2010-05-09T07:29:14Z</time>
      </trkpt>
      <trkpt lat="45.23512" lon="5.73021">
        <ele>682</ele>
        <time>2010-05-09T07:29:15Z</time>
      </trkpt>
      <trkpt lat="45.23513" lon="5.73023">
        <ele>682</ele>
        <time>2010-05-09T07:29:16Z</time>
      </trkpt>
      <trkpt lat="45.23515" lon="5.73024">
        <ele>682</ele>
        <time>2010-05-09T07:29:17Z</time>
      </trkpt>
      <trkpt lat="45.23516" lon="5.73026">
        <ele>682</ele>
        <time>2010-05-09T07:29:18Z</time>
      </trkpt>
      <trkpt lat="45.23518" lon="5.73027">
        <ele>682</ele>
        <time>2010-05-09T07:29:19Z</time>
      </trkpt>
      <trkpt lat="45.2352" lon="5.73028">
        <ele>682</ele>
        <time>2010-05-09T07:29:20Z</time>
      </trkpt>
      <trkpt lat="45.23522" lon="5.73029">
        <ele>682</ele>
        <time>2010-05-09T07:29:21Z</time>
      </trkpt>
      <trkpt lat="45.23524" lon="5.7303">
        <ele>682</ele>
        <time>2010-05-09T07:29:22Z</time>
      </trkpt>
      <trkpt lat="45.23527" lon="5.73031">
        <ele>682</ele>
        <time>2010-05-09T07:29:23Z</time>
      </trkpt>
      <trkpt lat="45.2353" lon="5.73032">
        <ele>683</ele>
        <time>2010-05-09T07:29:24Z</time>
      </trkpt>
      <trkpt lat="45.23532" lon="5.73033">
        <ele>684</ele>
        <time>2010-05-09T07:29:25Z</time>
      </trkpt>
      <trkpt lat="45.23534" lon="5.73033">
        <ele>685</ele>
        <time>2010-05-09T07:29:26Z</time>
      </trkpt>
      <trkpt lat="45.23537" lon="5.73034">
        <ele>686</ele>
        <time>2010-05-09T07:29:27Z</time>
      </trkpt>
      <trkpt lat="45.23539" lon="5.73035">
        <ele>686</ele>
        <time>2010-05-09T07:29:28Z</time>
      </trkpt>
      <trkpt lat="45.23542" lon="5.73036">
        <ele>686</ele>
        <time>2010-05-09T07:29:29Z</time>
      </trkpt>
      <trkpt lat="45.23545" lon="5.73036">
        <ele>687</ele>
        <time>2010-05-09T07:29:30Z</time>
      </trkpt>
      <trkpt lat="45.23547" lon="5.73037">
        <ele>687</ele>
        <time>2010-05-09T07:29:31Z</time>
      </trkpt>
      <trkpt lat="45.2355" lon="5.73038">
        <ele>687</ele>
        <time>2010-05-09T07:29:32Z</time>
      </trkpt>
      <trkpt lat="45.23552" lon="5.73039">
        <ele>687</ele>
        <time>2010-05-09T07:29:33Z</time>
      </trkpt>
      <trkpt lat="45.23555" lon="5.73041">
        <ele>688</ele>
        <time>2010-05-09T07:29:34Z</time>
      </trkpt>
      <trkpt lat="45.23557" lon="5.73042">
        <ele>688</ele>
        <time>2010-05-09T07:29:35Z</time>
      </trkpt>
      <trkpt lat="45.2356" lon="5.73043">
        <ele>688</ele>
        <time>2010-05-09T07:29:36Z</time>
      </trkpt>
      <trkpt lat="45.23562" lon="5.73045">
        <ele>689</ele>
        <time>2010-05-09T07:29:37Z</time>
      </trkpt>
      <trkpt lat="45.23565" lon="5.73047">
        <ele>689</ele>
        <time>2010-05-09T07:29:38Z</time>
      </trkpt>
      <trkpt lat="45.23567" lon="5.7305">
        <ele>689</ele>
        <time>2010-05-09T07:29:39Z</time>
      </trkpt>
      <trkpt lat="45.2357" lon="5.73053">
        <ele>689</ele>
        <time>2010-05-09T07:29:40Z</time>
      </trkpt>
      <trkpt lat="45.23572" lon="5.73056">
        <ele>689</ele>
        <time>2010-05-09T07:29:41Z</time>
      </trkpt>
      <trkpt lat="45.23575" lon="5.73058">
        <ele>689</ele>
        <time>2010-05-09T07:29:42Z</time>
      </trkpt>
      <trkpt lat="45.23577" lon="5.7306">
        <ele>689</ele>
        <time>2010-05-09T07:29:43Z</time>
      </trkpt>
      <trkpt lat="45.2358" lon="5.73062">
        <ele>689</ele>
        <time>2010-05-09T07:29:44Z</time>
      </trkpt>
      <trkpt lat="45.23581" lon="5.73065">
        <ele>689</ele>
        <time>2010-05-09T07:29:45Z</time>
      </trkpt>
      <trkpt lat="45.23583" lon="5.73068">
        <ele>689</ele>
        <time>2010-05-09T07:29:46Z</time>
      </trkpt>
      <trkpt lat="45.23584" lon="5.7307">
        <ele>689</ele>
        <time>2010-05-09T07:29:47Z</time>
      </trkpt>
      <trkpt lat="45.23585" lon="5.73073">
        <ele>689</ele>
        <time>2010-05-09T07:29:48Z</time>
      </trkpt>
      <trkpt lat="45.23586" lon="5.73075">
        <ele>689</ele>
        <time>2010-05-09T07:29:49Z</time>
      </trkpt>
      <trkpt lat="45.23587" lon="5.73077">
        <ele>689</ele>
        <time>2010-05-09T07:29:50Z</time>
      </trkpt>
      <trkpt lat="45.23588" lon="5.7308">
        <ele>689</ele>
        <time>2010-05-09T07:29:51Z</time>
      </trkpt>
      <trkpt lat="45.2359" lon="5.73083">
        <ele>689</ele>
        <time>2010-05-09T07:29:52Z</time>
      </trkpt>
      <trkpt lat="45.23591" lon="5.73086">
        <ele>689</ele>
        <time>2010-05-09T07:29:53Z</time>
      </trkpt>
      <trkpt lat="45.23592" lon="5.73089">
        <ele>689</ele>
        <time>2010-05-09T07:29:54Z</time>
      </trkpt>
      <trkpt lat="45.23593" lon="5.73092">
        <ele>689</ele>
        <time>2010-05-09T07:29:55Z</time>
      </trkpt>
      <trkpt lat="45.23595" lon="5.73094">
        <ele>689</ele>
        <time>2010-05-09T07:29:56Z</time>
      </trkpt>
      <trkpt lat="45.23596" lon="5.73097">
        <ele>689</ele>
        <time>2010-05-09T07:29:57Z</time>
      </trkpt>
      <trkpt lat="45.23597" lon="5.731">
        <ele>689</ele>
        <time>2010-05-09T07:29:58Z</time>
      </trkpt>
      <trkpt lat="45.23599" lon="5.73103">
        <ele>689</ele>
        <time>2010-05-09T07:29:59Z</time>
      </trkpt>
      <trkpt lat="45.236" lon="5.73105">
        <ele>689</ele>
        <time>2010-05-09T07:30:00Z</time>
      </trkpt>
      <trkpt lat="45.23602" lon="5.73107">
        <ele>689</ele>
        <time>2010-05-09T07:30:01Z</time>
      </trkpt>
      <trkpt lat="45.23603" lon="5.73109">
        <ele>689</ele>
        <time>2010-05-09T07:30:02Z</time>
      </trkpt>
      <trkpt lat="45.23605" lon="5.73111">
        <ele>689</ele>
        <time>2010-05-09T07:30:03Z</time>
      </trkpt>
      <trkpt lat="45.23606" lon="5.73112">
        <ele>689</ele>
        <time>2010-05-09T07:30:04Z</time>
      </trkpt>
      <trkpt lat="45.23608" lon="5.73114">
        <ele>689</ele>
        <time>2010-05-09T07:30:05Z</time>
      </trkpt>
      <trkpt lat="45.23609" lon="5.73115">
        <ele>689</ele>
        <time>2010-05-09T07:30:06Z</time>
      </trkpt>
      <trkpt lat="45.2361" lon="5.73118">
        <ele>689</ele>
        <time>2010-05-09T07:30:07Z</time>
      </trkpt>
      <trkpt lat="45.23612" lon="5.73121">
        <ele>689</ele>
        <time>2010-05-09T07:30:08Z</time>
      </trkpt>
      <trkpt lat="45.23613" lon="5.73124">
        <ele>689</ele>
        <time>2010-05-09T07:30:09Z</time>
      </trkpt>
      <trkpt lat="45.23615" lon="5.73127">
        <ele>689</ele>
        <time>2010-05-09T07:30:10Z</time>
      </trkpt>
      <trkpt lat="45.23616" lon="5.7313">
        <ele>689</ele>
        <time>2010-05-09T07:30:11Z</time>
      </trkpt>
      <trkpt lat="45.23616" lon="5.73134">
        <ele>689</ele>
        <time>2010-05-09T07:30:12Z</time>
      </trkpt>
      <trkpt lat="45.23617" lon="5.73137">
        <ele>689</ele>
        <time>2010-05-09T07:30:13Z</time>
      </trkpt>
      <trkpt lat="45.23618" lon="5.7314">
        <ele>689</ele>
        <time>2010-05-09T07:30:14Z</time>
      </trkpt>
      <trkpt lat="45.23618" lon="5.73143">
        <ele>689</ele>
        <time>2010-05-09T07:30:15Z</time>
      </trkpt>
      <trkpt lat="45.2362" lon="5.73146">
        <ele>689</ele>
        <time>2010-05-09T07:30:16Z</time>
      </trkpt>
      <trkpt lat="45.23622" lon="5.73149">
        <ele>689</ele>
        <time>2010-05-09T07:30:17Z</time>
      </trkpt>
      <trkpt lat="45.23624" lon="5.73151">
        <ele>689</ele>
        <time>2010-05-09T07:30:18Z</time>
      </trkpt>
      <trkpt lat="45.23625" lon="5.73153">
        <ele>689</ele>
        <time>2010-05-09T07:30:19Z</time>
      </trkpt>
      <trkpt lat="45.23626" lon="5.73156">
        <ele>689</ele>
        <time>2010-05-09T07:30:20Z</time>
      </trkpt>
      <trkpt lat="45.23628" lon="5.73159">
        <ele>689</ele>
        <time>2010-05-09T07:30:21Z</time>
      </trkpt>
      <trkpt lat="45.23629" lon="5.73162">
        <ele>689</ele>
        <time>2010-05-09T07:30:22Z</time>
      </trkpt>
      <trkpt lat="45.2363" lon="5.73165">
        <ele>689</ele>
        <time>2010-05-09T07:30:23Z</time>
      </trkpt>
      <trkpt lat="45.23631" lon="5.73167">
        <ele>689</ele>
        <time>2010-05-09T07:30:24Z</time>
      </trkpt>
      <trkpt lat="45.23632" lon="5.73169">
        <ele>689</ele>
        <time>2010-05-09T07:30:25Z</time>
      </trkpt>
      <trkpt lat="45.23634" lon="5.7317">
        <ele>689</ele>
        <time>2010-05-09T07:30:26Z</time>
      </trkpt>
      <trkpt lat="45.23635" lon="5.73173">
        <ele>689</ele>
        <time>2010-05-09T07:30:27Z</time>
      </trkpt>
      <trkpt lat="45.23636" lon="5.73175">
        <ele>689</ele>
        <time>2010-05-09T07:30:28Z</time>
      </trkpt>
      <trkpt lat="45.23638" lon="5.73176">
        <ele>689</ele>
        <time>2010-05-09T07:30:29Z</time>
      </trkpt>
      <trkpt lat="45.2364" lon="5.73178">
        <ele>689</ele>
        <time>2010-05-09T07:30:30Z</time>
      </trkpt>
      <trkpt lat="45.23642" lon="5.7318">
        <ele>690</ele>
        <time>2010-05-09T07:30:31Z</time>
      </trkpt>
      <trkpt lat="45.23645" lon="5.73181">
        <ele>691</ele>
        <time>2010-05-09T07:30:32Z</time>
      </trkpt>
      <trkpt lat="45.23647" lon="5.73183">
        <ele>692</ele>
        <time>2010-05-09T07:30:33Z</time>
      </trkpt>
      <trkpt lat="45.2365" lon="5.73183">
        <ele>693</ele>
        <time>2010-05-09T07:30:34Z</time>
      </trkpt>
      <trkpt lat="45.23653" lon="5.73183">
        <ele>694</ele>
        <time>2010-05-09T07:30:35Z</time>
      </trkpt>
      <trkpt lat="45.23655" lon="5.73184">
        <ele>695</ele>
        <time>2010-05-09T07:30:36Z</time>
      </trkpt>
      <trkpt lat="45.23658" lon="5.73184">
        <ele>696</ele>
        <time>2010-05-09T07:30:37Z</time>
      </trkpt>
      <trkpt lat="45.23661" lon="5.73184">
        <ele>697</ele>
        <time>2010-05-09T07:30:38Z</time>
      </trkpt>
      <trkpt lat="45.23664" lon="5.73184">
        <ele>698</ele>
        <time>2010-05-09T07:30:39Z</time>
      </trkpt>
      <trkpt lat="45.23667" lon="5.73184">
        <ele>699</ele>
        <time>2010-05-09T07:30:40Z</time>
      </trkpt>
      <trkpt lat="45.23669" lon="5.73184">
        <ele>700</ele>
        <time>2010-05-09T07:30:41Z</time>
      </trkpt>
      <trkpt lat="45.23672" lon="5.73185">
        <ele>701</ele>
        <time>2010-05-09T07:30:42Z</time>
      </trkpt>
      <trkpt lat="45.23675" lon="5.73185">
        <ele>702</ele>
        <time>2010-05-09T07:30:43Z</time>
      </trkpt>
      <trkpt lat="45.23678" lon="5.73186">
        <ele>703</ele>
        <time>2010-05-09T07:30:44Z</time>
      </trkpt>
      <trkpt lat="45.2368" lon="5.73186">
        <ele>704</ele>
        <time>2010-05-09T07:30:45Z</time>
      </trkpt>
      <trkpt lat="45.23683" lon="5.73186">
        <ele>704</ele>
        <time>2010-05-09T07:30:46Z</time>
      </trkpt>
      <trkpt lat="45.23685" lon="5.73186">
        <ele>705</ele>
        <time>2010-05-09T07:30:47Z</time>
      </trkpt>
      <trkpt lat="45.23688" lon="5.73186">
        <ele>705</ele>
        <time>2010-05-09T07:30:48Z</time>
      </trkpt>
      <trkpt lat="45.23691" lon="5.73186">
        <ele>706</ele>
        <time>2010-05-09T07:30:49Z</time>
      </trkpt>
      <trkpt lat="45.23693" lon="5.73186">
        <ele>707</ele>
        <time>2010-05-09T07:30:50Z</time>
      </trkpt>
      <trkpt lat="45.23696" lon="5.73186">
        <ele>707</ele>
        <time>2010-05-09T07:30:51Z</time>
      </trkpt>
      <trkpt lat="45.23699" lon="5.73185">
        <ele>708</ele>
        <time>2010-05-09T07:30:52Z</time>
      </trkpt>
      <trkpt lat="45.23702" lon="5.73185">
        <ele>709</ele>
        <time>2010-05-09T07:30:53Z</time>
      </trkpt>
      <trkpt lat="45.23705" lon="5.73186">
        <ele>709</ele>
        <time>2010-05-09T07:30:54Z</time>
      </trkpt>
      <trkpt lat="45.23708" lon="5.73186">
        <ele>710</ele>
        <time>2010-05-09T07:30:55Z</time>
      </trkpt>
      <trkpt lat="45.2371" lon="5.73187">
        <ele>711</ele>
        <time>2010-05-09T07:30:56Z</time>
      </trkpt>
      <trkpt lat="45.23713" lon="5.73188">
        <ele>711</ele>
        <time>2010-05-09T07:30:57Z</time>
      </trkpt>
      <trkpt lat="45.23715" lon="5.73188">
        <ele>712</ele>
        <time>2010-05-09T07:30:58Z</time>
      </trkpt>
      <trkpt lat="45.23718" lon="5.73187">
        <ele>712</ele>
        <time>2010-05-09T07:30:59Z</time>
      </trkpt>
      <trkpt lat="45.2372" lon="5.73187">
        <ele>713</ele>
        <time>2010-05-09T07:31:00Z</time>
      </trkpt>
      <trkpt lat="45.23722" lon="5.73187">
        <ele>713</ele>
        <time>2010-05-09T07:31:01Z</time>
      </trkpt>
      <trkpt lat="45.23725" lon="5.73187">
        <ele>714</ele>
        <time>2010-05-09T07:31:02Z</time>
      </trkpt>
      <trkpt lat="45.23727" lon="5.73187">
        <ele>714</ele>
        <time>2010-05-09T07:31:03Z</time>
      </trkpt>
      <trkpt lat="45.2373" lon="5.73187">
        <ele>715</ele>
        <time>2010-05-09T07:31:04Z</time>
      </trkpt>
      <trkpt lat="45.23733" lon="5.73187">
        <ele>715</ele>
        <time>2010-05-09T07:31:05Z</time>
      </trkpt>
      <trkpt lat="45.23735" lon="5.73186">
        <ele>716</ele>
        <time>2010-05-09T07:31:06Z</time>
      </trkpt>
      <trkpt lat="45.23738" lon="5.73186">
        <ele>716</ele>
        <time>2010-05-09T07:31:07Z</time>
      </trkpt>
      <trkpt lat="45.2374" lon="5.73185">
        <ele>717</ele>
        <time>2010-05-09T07:31:08Z</time>
      </trkpt>
      <trkpt lat="45.23743" lon="5.73184">
        <ele>717</ele>
        <time>2010-05-09T07:31:09Z</time>
      </trkpt>
      <trkpt lat="45.23745" lon="5.73183">
        <ele>717</ele>
        <time>2010-05-09T07:31:10Z</time>
      </trkpt>
      <trkpt lat="45.23748" lon="5.73182">
        <ele>717</ele>
        <time>2010-05-09T07:31:11Z</time>
      </trkpt>
      <trkpt lat="45.23751" lon="5.73181">
        <ele>717</ele>
        <time>2010-05-09T07:31:12Z</time>
      </trkpt>
      <trkpt lat="45.23753" lon="5.73179">
        <ele>717</ele>
        <time>2010-05-09T07:31:13Z</time>
      </trkpt>
      <trkpt lat="45.23755" lon="5.73177">
        <ele>717</ele>
        <time>2010-05-09T07:31:14Z</time>
      </trkpt>
      <trkpt lat="45.23757" lon="5.73175">
        <ele>717</ele>
        <time>2010-05-09T07:31:15Z</time>
      </trkpt>
      <trkpt lat="45.23759" lon="5.73172">
        <ele>717</ele>
        <time>2010-05-09T07:31:16Z</time>
      </trkpt>
      <trkpt lat="45.23762" lon="5.73169">
        <ele>717</ele>
        <time>2010-05-09T07:31:17Z</time>
      </trkpt>
      <trkpt lat="45.23764" lon="5.73167">
        <ele>717</ele>
        <time>2010-05-09T07:31:18Z</time>
      </trkpt>
      <trkpt lat="45.23766" lon="5.73164">
        <ele>717</ele>
        <time>2010-05-09T07:31:19Z</time>
      </trkpt>
      <trkpt lat="45.23769" lon="5.73162">
        <ele>717</ele>
        <time>2010-05-09T07:31:20Z</time>
      </trkpt>
      <trkpt lat="45.23771" lon="5.7316">
        <ele>717</ele>
        <time>2010-05-09T07:31:21Z</time>
      </trkpt>
      <trkpt lat="45.23773" lon="5.73158">
        <ele>717</ele>
        <time>2010-05-09T07:31:22Z</time>
      </trkpt>
      <trkpt lat="45.23776" lon="5.73156">
        <ele>717</ele>
        <time>2010-05-09T07:31:23Z</time>
      </trkpt>
      <trkpt lat="45.23778" lon="5.73154">
        <ele>717</ele>
        <time>2010-05-09T07:31:24Z</time>
      </trkpt>
      <trkpt lat="45.23781" lon="5.73152">
        <ele>717</ele>
        <time>2010-05-09T07:31:25Z</time>
      </trkpt>
      <trkpt lat="45.23783" lon="5.7315">
        <ele>717</ele>
        <time>2010-05-09T07:31:26Z</time>
      </trkpt>
      <trkpt lat="45.23786" lon="5.73148">
        <ele>717</ele>
        <time>2010-05-09T07:31:27Z</time>
      </trkpt>
      <trkpt lat="45.23788" lon="5.73146">
        <ele>718</ele>
        <time>2010-05-09T07:31:28Z</time>
      </trkpt>
      <trkpt lat="45.2379" lon="5.73144">
        <ele>718</ele>
        <time>2010-05-09T07:31:29Z</time>
      </trkpt>
      <trkpt lat="45.23793" lon="5.73142">
        <ele>718</ele>
        <time>2010-05-09T07:31:30Z</time>
      </trkpt>
      <trkpt lat="45.23795" lon="5.7314">
        <ele>718</ele>
        <time>2010-05-09T07:31:31Z</time>
      </trkpt>
      <trkpt lat="45.23797" lon="5.73137">
        <ele>718</ele>
        <time>2010-05-09T07:31:32Z</time>
      </trkpt>
      <trkpt lat="45.23799" lon="5.73135">
        <ele>718</ele>
        <time>2010-05-09T07:31:33Z</time>
      </trkpt>
      <trkpt lat="45.23801" lon="5.73133">
        <ele>718</ele>
        <time>2010-05-09T07:31:34Z</time>
      </trkpt>
      <trkpt lat="45.23803" lon="5.7313">
        <ele>718</ele>
        <time>2010-05-09T07:31:35Z</time>
      </trkpt>
      <trkpt lat="45.23805" lon="5.73128">
        <ele>718</ele>
        <time>2010-05-09T07:31:36Z</time>
      </trkpt>
      <trkpt lat="45.23808" lon="5.73126">
        <ele>718</ele>
        <time>2010-05-09T07:31:37Z</time>
      </trkpt>
      <trkpt lat="45.2381" lon="5.73123">
        <ele>718</ele>
        <time>2010-05-09T07:31:38Z</time>
      </trkpt>
      <trkpt lat="45.23812" lon="5.73121">
        <ele>718</ele>
        <time>2010-05-09T07:31:39Z</time>
      </trkpt>
      <trkpt lat="45.23814" lon="5.73119">
        <ele>718</ele>
        <time>2010-05-09T07:31:40Z</time>
      </trkpt>
      <trkpt lat="45.23817" lon="5.73116">
        <ele>718</ele>
        <time>2010-05-09T07:31:41Z</time>
      </trkpt>
      <trkpt lat="45.2382" lon="5.73114">
        <ele>718</ele>
        <time>2010-05-09T07:31:42Z</time>
      </trkpt>
      <trkpt lat="45.23822" lon="5.73113">
        <ele>718</ele>
        <time>2010-05-09T07:31:43Z</time>
      </trkpt>
      <trkpt lat="45.23825" lon="5.73111">
        <ele>718</ele>
        <time>2010-05-09T07:31:44Z</time>
      </trkpt>
      <trkpt lat="45.23827" lon="5.7311">
        <ele>718</ele>
        <time>2010-05-09T07:31:45Z</time>
      </trkpt>
      <trkpt lat="45.2383" lon="5.73109">
        <ele>718</ele>
        <time>2010-05-09T07:31:46Z</time>
      </trkpt>
      <trkpt lat="45.23833" lon="5.73107">
        <ele>718</ele>
        <time>2010-05-09T07:31:47Z</time>
      </trkpt>
      <trkpt lat="45.23836" lon="5.73107">
        <ele>718</ele>
        <time>2010-05-09T07:31:48Z</time>
      </trkpt>
      <trkpt lat="45.23839" lon="5.73107">
        <ele>718</ele>
        <time>2010-05-09T07:31:49Z</time>
      </trkpt>
      <trkpt lat="45.23841" lon="5.73106">
        <ele>718</ele>
        <time>2010-05-09T07:31:50Z</time>
      </trkpt>
      <trkpt lat="45.23844" lon="5.73106">
        <ele>718</ele>
        <time>2010-05-09T07:31:51Z</time>
      </trkpt>
      <trkpt lat="45.23847" lon="5.73105">
        <ele>718</ele>
        <time>2010-05-09T07:31:52Z</time>
      </trkpt>
      <trkpt lat="45.23849" lon="5.73105">
        <ele>718</ele>
        <time>2010-05-09T07:31:53Z</time>
      </trkpt>
      <trkpt lat="45.23852" lon="5.73105">
        <ele>718</ele>
        <time>2010-05-09T07:31:54Z</time>
      </trkpt>
      <trkpt lat="45.23855" lon="5.73105">
        <ele>718</ele>
        <time>2010-05-09T07:31:55Z</time>
      </trkpt>
      <trkpt lat="45.23858" lon="5.73106">
        <ele>718</ele>
        <time>2010-05-09T07:31:56Z</time>
      </trkpt>
      <trkpt lat="45.23861" lon="5.73106">
        <ele>718</ele>
        <time>2010-05-09T07:31:57Z</time>
      </trkpt>
      <trkpt lat="45.23864" lon="5.73108">
        <ele>718</ele>
        <time>2010-05-09T07:31:58Z</time>
      </trkpt>
      <trkpt lat="45.23866" lon="5.7311">
        <ele>718</ele>
        <time>2010-05-09T07:31:59Z</time>
      </trkpt>
      <trkpt lat="45.23868" lon="5.73113">
        <ele>718</ele>
        <time>2010-05-09T07:32:00Z</time>
      </trkpt>
      <trkpt lat="45.2387" lon="5.73116">
        <ele>718</ele>
        <time>2010-05-09T07:32:01Z</time>
      </trkpt>
      <trkpt lat="45.23872" lon="5.7312">
        <ele>718</ele>
        <time>2010-05-09T07:32:02Z</time>
      </trkpt>
      <trkpt lat="45.23873" lon="5.73124">
        <ele>718</ele>
        <time>2010-05-09T07:32:03Z</time>
      </trkpt>
      <trkpt lat="45.23873" lon="5.73128">
        <ele>717</ele>
        <time>2010-05-09T07:32:04Z</time>
      </trkpt>
      <trkpt lat="45.23873" lon="5.73132">
        <ele>717</ele>
        <time>2010-05-09T07:32:05Z</time>
      </trkpt>
      <trkpt lat="45.23873" lon="5.73137">
        <ele>716</ele>
        <time>2010-05-09T07:32:06Z</time>
      </trkpt>
      <trkpt lat="45.23872" lon="5.73141">
        <ele>716</ele>
        <time>2010-05-09T07:32:07Z</time>
      </trkpt>
      <trkpt lat="45.23872" lon="5.73145">
        <ele>716</ele>
        <time>2010-05-09T07:32:08Z</time>
      </trkpt>
      <trkpt lat="45.2387" lon="5.73149">
        <ele>716</ele>
        <time>2010-05-09T07:32:09Z</time>
      </trkpt>
      <trkpt lat="45.23869" lon="5.73153">
        <ele>716</ele>
        <time>2010-05-09T07:32:10Z</time>
      </trkpt>
      <trkpt lat="45.23868" lon="5.73158">
        <ele>716</ele>
        <time>2010-05-09T07:32:11Z</time>
      </trkpt>
      <trkpt lat="45.23866" lon="5.73162">
        <ele>715</ele>
        <time>2010-05-09T07:32:12Z</time>
      </trkpt>
      <trkpt lat="45.23865" lon="5.73166">
        <ele>715</ele>
        <time>2010-05-09T07:32:13Z</time>
      </trkpt>
      <trkpt lat="45.23865" lon="5.7317">
        <ele>715</ele>
        <time>2010-05-09T07:32:14Z</time>
      </trkpt>
      <trkpt lat="45.23865" lon="5.73174">
        <ele>715</ele>
        <time>2010-05-09T07:32:15Z</time>
      </trkpt>
      <trkpt lat="45.23864" lon="5.73178">
        <ele>715</ele>
        <time>2010-05-09T07:32:16Z</time>
      </trkpt>
      <trkpt lat="45.23864" lon="5.73182">
        <ele>715</ele>
        <time>2010-05-09T07:32:17Z</time>
      </trkpt>
      <trkpt lat="45.23863" lon="5.73187">
        <ele>715</ele>
        <time>2010-05-09T07:32:18Z</time>
      </trkpt>
      <trkpt lat="45.23863" lon="5.73191">
        <ele>715</ele>
        <time>2010-05-09T07:32:19Z</time>
      </trkpt>
      <trkpt lat="45.23862" lon="5.73195">
        <ele>715</ele>
        <time>2010-05-09T07:32:20Z</time>
      </trkpt>
      <trkpt lat="45.23862" lon="5.73199">
        <ele>715</ele>
        <time>2010-05-09T07:32:21Z</time>
      </trkpt>
      <trkpt lat="45.23863" lon="5.73203">
        <ele>715</ele>
        <time>2010-05-09T07:32:22Z</time>
      </trkpt>
      <trkpt lat="45.23863" lon="5.73207">
        <ele>715</ele>
        <time>2010-05-09T07:32:23Z</time>
      </trkpt>
      <trkpt lat="45.23864" lon="5.7321">
        <ele>715</ele>
        <time>2010-05-09T07:32:24Z</time>
      </trkpt>
      <trkpt lat="45.23865" lon="5.73214">
        <ele>715</ele>
        <time>2010-05-09T07:32:25Z</time>
      </trkpt>
      <trkpt lat="45.23865" lon="5.73218">
        <ele>715</ele>
        <time>2010-05-09T07:32:26Z</time>
      </trkpt>
      <trkpt lat="45.23866" lon="5.73221">
        <ele>715</ele>
        <time>2010-05-09T07:32:27Z</time>
      </trkpt>
      <trkpt lat="45.23867" lon="5.73225">
        <ele>715</ele>
        <time>2010-05-09T07:32:28Z</time>
      </trkpt>
      <trkpt lat="45.23868" lon="5.73229">
        <ele>715</ele>
        <time>2010-05-09T07:32:29Z</time>
      </trkpt>
      <trkpt lat="45.23868" lon="5.73233">
        <ele>715</ele>
        <time>2010-05-09T07:32:30Z</time>
      </trkpt>
      <trkpt lat="45.23869" lon="5.73236">
        <ele>715</ele>
        <time>2010-05-09T07:32:31Z</time>
      </trkpt>
      <trkpt lat="45.23869" lon="5.7324">
        <ele>715</ele>
        <time>2010-05-09T07:32:32Z</time>
      </trkpt>
      <trkpt lat="45.23871" lon="5.73243">
        <ele>715</ele>
        <time>2010-05-09T07:32:33Z</time>
      </trkpt>
      <trkpt lat="45.23872" lon="5.73247">
        <ele>715</ele>
        <time>2010-05-09T07:32:34Z</time>
      </trkpt>
      <trkpt lat="45.23872" lon="5.73251">
        <ele>715</ele>
        <time>2010-05-09T07:32:35Z</time>
      </trkpt>
      <trkpt lat="45.23873" lon="5.73255">
        <ele>715</ele>
        <time>2010-05-09T07:32:36Z</time>
      </trkpt>
      <trkpt lat="45.23874" lon="5.73259">
        <ele>715</ele>
        <time>2010-05-09T07:32:37Z</time>
      </trkpt>
      <trkpt lat="45.23875" lon="5.73262">
        <ele>715</ele>
        <time>2010-05-09T07:32:38Z</time>
      </trkpt>
      <trkpt lat="45.23876" lon="5.73266">
        <ele>715</ele>
        <time>2010-05-09T07:32:39Z</time>
      </trkpt>
      <trkpt lat="45.23876" lon="5.7327">
        <ele>715</ele>
        <time>2010-05-09T07:32:40Z</time>
      </trkpt>
      <trkpt lat="45.23877" lon="5.73273">
        <ele>715</ele>
        <time>2010-05-09T07:32:41Z</time>
      </trkpt>
      <trkpt lat="45.23878" lon="5.73277">
        <ele>715</ele>
        <time>2010-05-09T07:32:42Z</time>
      </trkpt>
      <trkpt lat="45.2388" lon="5.73281">
        <ele>715</ele>
        <time>2010-05-09T07:32:43Z</time>
      </trkpt>
      <trkpt lat="45.23882" lon="5.73284">
        <ele>715</ele>
        <time>2010-05-09T07:32:44Z</time>
      </trkpt>
      <trkpt lat="45.23883" lon="5.73288">
        <ele>715</ele>
        <time>2010-05-09T07:32:45Z</time>
      </trkpt>
      <trkpt lat="45.23885" lon="5.73291">
        <ele>715</ele>
        <time>2010-05-09T07:32:46Z</time>
      </trkpt>
      <trkpt lat="45.23886" lon="5.73294">
        <ele>715</ele>
        <time>2010-05-09T07:32:47Z</time>
      </trkpt>
      <trkpt lat="45.23887" lon="5.73298">
        <ele>715</ele>
        <time>2010-05-09T07:32:48Z</time>
      </trkpt>
      <trkpt lat="45.23888" lon="5.73302">
        <ele>715</ele>
        <time>2010-05-09T07:32:49Z</time>
      </trkpt>
      <trkpt lat="45.23889" lon="5.73305">
        <ele>715</ele>
        <time>2010-05-09T07:32:50Z</time>
      </trkpt>
      <trkpt lat="45.23891" lon="5.73309">
        <ele>715</ele>
        <time>2010-05-09T07:32:51Z</time>
      </trkpt>
      <trkpt lat="45.23892" lon="5.73313">
        <ele>715</ele>
        <time>2010-05-09T07:32:52Z</time>
      </trkpt>
      <trkpt lat="45.23893" lon="5.73317">
        <ele>715</ele>
        <time>2010-05-09T07:32:53Z</time>
      </trkpt>
      <trkpt lat="45.23895" lon="5.7332">
        <ele>715</ele>
        <time>2010-05-09T07:32:54Z</time>
      </trkpt>
      <trkpt lat="45.23896" lon="5.73323">
        <ele>715</ele>
        <time>2010-05-09T07:32:55Z</time>
      </trkpt>
      <trkpt lat="45.23897" lon="5.73326">
        <ele>715</ele>
        <time>2010-05-09T07:32:56Z</time>
      </trkpt>
      <trkpt lat="45.23898" lon="5.73328">
        <ele>715</ele>
        <time>2010-05-09T07:32:57Z</time>
      </trkpt>
      <trkpt lat="45.239" lon="5.73331">
        <ele>715</ele>
        <time>2010-05-09T07:32:58Z</time>
      </trkpt>
      <trkpt lat="45.23902" lon="5.73334">
        <ele>715</ele>
        <time>2010-05-09T07:32:59Z</time>
      </trkpt>
      <trkpt lat="45.23904" lon="5.73336">
        <ele>715</ele>
        <time>2010-05-09T07:33:00Z</time>
      </trkpt>
      <trkpt lat="45.23907" lon="5.73339">
        <ele>715</ele>
        <time>2010-05-09T07:33:01Z</time>
      </trkpt>
      <trkpt lat="45.23909" lon="5.73342">
        <ele>715</ele>
        <time>2010-05-09T07:33:02Z</time>
      </trkpt>
      <trkpt lat="45.23911" lon="5.73344">
        <ele>715</ele>
        <time>2010-05-09T07:33:03Z</time>
      </trkpt>
      <trkpt lat="45.23913" lon="5.73347">
        <ele>715</ele>
        <time>2010-05-09T07:33:04Z</time>
      </trkpt>
      <trkpt lat="45.23915" lon="5.7335">
        <ele>715</ele>
        <time>2010-05-09T07:33:05Z</time>
      </trkpt>
      <trkpt lat="45.23917" lon="5.73353">
        <ele>715</ele>
        <time>2010-05-09T07:33:06Z</time>
      </trkpt>
      <trkpt lat="45.2392" lon="5.73355">
        <ele>715</ele>
        <time>2010-05-09T07:33:07Z</time>
      </trkpt>
      <trkpt lat="45.23922" lon="5.73359">
        <ele>715</ele>
        <time>2010-05-09T07:33:08Z</time>
      </trkpt>
      <trkpt lat="45.23924" lon="5.73362">
        <ele>715</ele>
        <time>2010-05-09T07:33:09Z</time>
      </trkpt>
      <trkpt lat="45.23925" lon="5.73366">
        <ele>715</ele>
        <time>2010-05-09T07:33:10Z</time>
      </trkpt>
      <trkpt lat="45.23927" lon="5.7337">
        <ele>715</ele>
        <time>2010-05-09T07:33:11Z</time>
      </trkpt>
      <trkpt lat="45.23928" lon="5.73374">
        <ele>715</ele>
        <time>2010-05-09T07:33:12Z</time>
      </trkpt>
      <trkpt lat="45.23929" lon="5.73378">
        <ele>715</ele>
        <time>2010-05-09T07:33:13Z</time>
      </trkpt>
      <trkpt lat="45.2393" lon="5.73382">
        <ele>715</ele>
        <time>2010-05-09T07:33:14Z</time>
      </trkpt>
      <trkpt lat="45.2393" lon="5.73386">
        <ele>715</ele>
        <time>2010-05-09T07:33:15Z</time>
      </trkpt>
      <trkpt lat="45.23931" lon="5.73391">
        <ele>715</ele>
        <time>2010-05-09T07:33:16Z</time>
      </trkpt>
      <trkpt lat="45.23931" lon="5.73395">
        <ele>715</ele>
        <time>2010-05-09T07:33:17Z</time>
      </trkpt>
      <trkpt lat="45.23931" lon="5.734">
        <ele>715</ele>
        <time>2010-05-09T07:33:18Z</time>
      </trkpt>
      <trkpt lat="45.23932" lon="5.73405">
        <ele>715</ele>
        <time>2010-05-09T07:33:19Z</time>
      </trkpt>
      <trkpt lat="45.23932" lon="5.73409">
        <ele>715</ele>
        <time>2010-05-09T07:33:20Z</time>
      </trkpt>
      <trkpt lat="45.23932" lon="5.73414">
        <ele>714</ele>
        <time>2010-05-09T07:33:21Z</time>
      </trkpt>
      <trkpt lat="45.23932" lon="5.73418">
        <ele>714</ele>
        <time>2010-05-09T07:33:22Z</time>
      </trkpt>
      <trkpt lat="45.23932" lon="5.73423">
        <ele>713</ele>
        <time>2010-05-09T07:33:23Z</time>
      </trkpt>
      <trkpt lat="45.23932" lon="5.73427">
        <ele>713</ele>
        <time>2010-05-09T07:33:24Z</time>
      </trkpt>
      <trkpt lat="45.23931" lon="5.73432">
        <ele>713</ele>
        <time>2010-05-09T07:33:25Z</time>
      </trkpt>
      <trkpt lat="45.23931" lon="5.73436">
        <ele>713</ele>
        <time>2010-05-09T07:33:26Z</time>
      </trkpt>
      <trkpt lat="45.23931" lon="5.73441">
        <ele>713</ele>
        <time>2010-05-09T07:33:27Z</time>
      </trkpt>
      <trkpt lat="45.2393" lon="5.73446">
        <ele>713</ele>
        <time>2010-05-09T07:33:28Z</time>
      </trkpt>
      <trkpt lat="45.23931" lon="5.7345">
        <ele>713</ele>
        <time>2010-05-09T07:33:29Z</time>
      </trkpt>
      <trkpt lat="45.23932" lon="5.73455">
        <ele>713</ele>
        <time>2010-05-09T07:33:30Z</time>
      </trkpt>
      <trkpt lat="45.23933" lon="5.73459">
        <ele>713</ele>
        <time>2010-05-09T07:33:31Z</time>
      </trkpt>
      <trkpt lat="45.23934" lon="5.73463">
        <ele>713</ele>
        <time>2010-05-09T07:33:32Z</time>
      </trkpt>
      <trkpt lat="45.23936" lon="5.73467">
        <ele>713</ele>
        <time>2010-05-09T07:33:33Z</time>
      </trkpt>
      <trkpt lat="45.23938" lon="5.7347">
        <ele>713</ele>
        <time>2010-05-09T07:33:34Z</time>
      </trkpt>
      <trkpt lat="45.2394" lon="5.73474">
        <ele>713</ele>
        <time>2010-05-09T07:33:35Z</time>
      </trkpt>
      <trkpt lat="45.23941" lon="5.73477">
        <ele>713</ele>
        <time>2010-05-09T07:33:36Z</time>
      </trkpt>
      <trkpt lat="45.23942" lon="5.73481">
        <ele>713</ele>
        <time>2010-05-09T07:33:37Z</time>
      </trkpt>
      <trkpt lat="45.23944" lon="5.73484">
        <ele>713</ele>
        <time>2010-05-09T07:33:38Z</time>
      </trkpt>
      <trkpt lat="45.23946" lon="5.73487">
        <ele>713</ele>
        <time>2010-05-09T07:33:39Z</time>
      </trkpt>
      <trkpt lat="45.23948" lon="5.73491">
        <ele>713</ele>
        <time>2010-05-09T07:33:40Z</time>
      </trkpt>
      <trkpt lat="45.23949" lon="5.73494">
        <ele>713</ele>
        <time>2010-05-09T07:33:41Z</time>
      </trkpt>
      <trkpt lat="45.23951" lon="5.73497">
        <ele>713</ele>
        <time>2010-05-09T07:33:42Z</time>
      </trkpt>
      <trkpt lat="45.23953" lon="5.73501">
        <ele>713</ele>
        <time>2010-05-09T07:33:43Z</time>
      </trkpt>
      <trkpt lat="45.23956" lon="5.73504">
        <ele>713</ele>
        <time>2010-05-09T07:33:44Z</time>
      </trkpt>
      <trkpt lat="45.23958" lon="5.73507">
        <ele>713</ele>
        <time>2010-05-09T07:33:45Z</time>
      </trkpt>
      <trkpt lat="45.23961" lon="5.7351">
        <ele>713</ele>
        <time>2010-05-09T07:33:46Z</time>
      </trkpt>
      <trkpt lat="45.23964" lon="5.73512">
        <ele>713</ele>
        <time>2010-05-09T07:33:47Z</time>
      </trkpt>
      <trkpt lat="45.23967" lon="5.73513">
        <ele>713</ele>
        <time>2010-05-09T07:33:48Z</time>
      </trkpt>
      <trkpt lat="45.23969" lon="5.73514">
        <ele>713</ele>
        <time>2010-05-09T07:33:49Z</time>
      </trkpt>
      <trkpt lat="45.23972" lon="5.73515">
        <ele>713</ele>
        <time>2010-05-09T07:33:50Z</time>
      </trkpt>
      <trkpt lat="45.23975" lon="5.73517">
        <ele>714</ele>
        <time>2010-05-09T07:33:51Z</time>
      </trkpt>
      <trkpt lat="45.23978" lon="5.73517">
        <ele>715</ele>
        <time>2010-05-09T07:33:52Z</time>
      </trkpt>
      <trkpt lat="45.23981" lon="5.73517">
        <ele>716</ele>
        <time>2010-05-09T07:33:53Z</time>
      </trkpt>
      <trkpt lat="45.23984" lon="5.73518">
        <ele>717</ele>
        <time>2010-05-09T07:33:54Z</time>
      </trkpt>
      <trkpt lat="45.23986" lon="5.73518">
        <ele>718</ele>
        <time>2010-05-09T07:33:55Z</time>
      </trkpt>
      <trkpt lat="45.23989" lon="5.73518">
        <ele>719</ele>
        <time>2010-05-09T07:33:56Z</time>
      </trkpt>
      <trkpt lat="45.23992" lon="5.73518">
        <ele>720</ele>
        <time>2010-05-09T07:33:57Z</time>
      </trkpt>
      <trkpt lat="45.23995" lon="5.73517">
        <ele>721</ele>
        <time>2010-05-09T07:33:58Z</time>
      </trkpt>
      <trkpt lat="45.23998" lon="5.73517">
        <ele>722</ele>
        <time>2010-05-09T07:33:59Z</time>
      </trkpt>
      <trkpt lat="45.24001" lon="5.73515">
        <ele>723</ele>
        <time>2010-05-09T07:34:00Z</time>
      </trkpt>
      <trkpt lat="45.24004" lon="5.73514">
        <ele>724</ele>
        <time>2010-05-09T07:34:01Z</time>
      </trkpt>
      <trkpt lat="45.24006" lon="5.73513">
        <ele>725</ele>
        <time>2010-05-09T07:34:02Z</time>
      </trkpt>
      <trkpt lat="45.24009" lon="5.73512">
        <ele>726</ele>
        <time>2010-05-09T07:34:03Z</time>
      </trkpt>
      <trkpt lat="45.24012" lon="5.73511">
        <ele>726</ele>
        <time>2010-05-09T07:34:04Z</time>
      </trkpt>
      <trkpt lat="45.24014" lon="5.7351">
        <ele>727</ele>
        <time>2010-05-09T07:34:05Z</time>
      </trkpt>
      <trkpt lat="45.24017" lon="5.73509">
        <ele>728</ele>
        <time>2010-05-09T07:34:06Z</time>
      </trkpt>
      <trkpt lat="45.24019" lon="5.73508">
        <ele>728</ele>
        <time>2010-05-09T07:34:07Z</time>
      </trkpt>
      <trkpt lat="45.24022" lon="5.73506">
        <ele>729</ele>
        <time>2010-05-09T07:34:08Z</time>
      </trkpt>
      <trkpt lat="45.24024" lon="5.73506">
        <ele>730</ele>
        <time>2010-05-09T07:34:09Z</time>
      </trkpt>
      <trkpt lat="45.24027" lon="5.73505">
        <ele>730</ele>
        <time>2010-05-09T07:34:10Z</time>
      </trkpt>
      <trkpt lat="45.2403" lon="5.73505">
        <ele>731</ele>
        <time>2010-05-09T07:34:11Z</time>
      </trkpt>
      <trkpt lat="45.24033" lon="5.73504">
        <ele>731</ele>
        <time>2010-05-09T07:34:12Z</time>
      </trkpt>
      <trkpt lat="45.24036" lon="5.73504">
        <ele>732</ele>
        <time>2010-05-09T07:34:13Z</time>
      </trkpt>
      <trkpt lat="45.24038" lon="5.73504">
        <ele>732</ele>
        <time>2010-05-09T07:34:14Z</time>
      </trkpt>
      <trkpt lat="45.24041" lon="5.73503">
        <ele>733</ele>
        <time>2010-05-09T07:34:15Z</time>
      </trkpt>
      <trkpt lat="45.24044" lon="5.73503">
        <ele>734</ele>
        <time>2010-05-09T07:34:16Z</time>
      </trkpt>
      <trkpt lat="45.24047" lon="5.73503">
        <ele>734</ele>
        <time>2010-05-09T07:34:17Z</time>
      </trkpt>
      <trkpt lat="45.2405" lon="5.73504">
        <ele>735</ele>
        <time>2010-05-09T07:34:18Z</time>
      </trkpt>
      <trkpt lat="45.24052" lon="5.73505">
        <ele>735</ele>
        <time>2010-05-09T07:34:19Z</time>
      </trkpt>
      <trkpt lat="45.24055" lon="5.73505">
        <ele>735</ele>
        <time>2010-05-09T07:34:20Z</time>
      </trkpt>
      <trkpt lat="45.24058" lon="5.73505">
        <ele>735</ele>
        <time>2010-05-09T07:34:21Z</time>
      </trkpt>
      <trkpt lat="45.24061" lon="5.73504">
        <ele>735</ele>
        <time>2010-05-09T07:34:22Z</time>
      </trkpt>
      <trkpt lat="45.24064" lon="5.73504">
        <ele>735</ele>
        <time>2010-05-09T07:34:23Z</time>
      </trkpt>
      <trkpt lat="45.24067" lon="5.73504">
        <ele>736</ele>
        <time>2010-05-09T07:34:24Z</time>
      </trkpt>
      <trkpt lat="45.2407" lon="5.73505">
        <ele>736</ele>
        <time>2010-05-09T07:34:25Z</time>
      </trkpt>
      <trkpt lat="45.24073" lon="5.73504">
        <ele>736</ele>
        <time>2010-05-09T07:34:26Z</time>
      </trkpt>
      <trkpt lat="45.24076" lon="5.73504">
        <ele>737</ele>
        <time>2010-05-09T07:34:27Z</time>
      </trkpt>
      <trkpt lat="45.24078" lon="5.73504">
        <ele>737</ele>
        <time>2010-05-09T07:34:28Z</time>
      </trkpt>
      <trkpt lat="45.24081" lon="5.73504">
        <ele>737</ele>
        <time>2010-05-09T07:34:29Z</time>
      </trkpt>
      <trkpt lat="45.24083" lon="5.73505">
        <ele>737</ele>
        <time>2010-05-09T07:34:30Z</time>
      </trkpt>
      <trkpt lat="45.24085" lon="5.73505">
        <ele>737</ele>
        <time>2010-05-09T07:34:31Z</time>
      </trkpt>
      <trkpt lat="45.24087" lon="5.73505">
        <ele>737</ele>
        <time>2010-05-09T07:34:32Z</time>
      </trkpt>
      <trkpt lat="45.2409" lon="5.73507">
        <ele>737</ele>
        <time>2010-05-09T07:34:33Z</time>
      </trkpt>
      <trkpt lat="45.24092" lon="5.73509">
        <ele>737</ele>
        <time>2010-05-09T07:34:34Z</time>
      </trkpt>
      <trkpt lat="45.24094" lon="5.7351">
        <ele>737</ele>
        <time>2010-05-09T07:34:35Z</time>
      </trkpt>
      <trkpt lat="45.24097" lon="5.73511">
        <ele>737</ele>
        <time>2010-05-09T07:34:36Z</time>
      </trkpt>
      <trkpt lat="45.24099" lon="5.73513">
        <ele>737</ele>
        <time>2010-05-09T07:34:37Z</time>
      </trkpt>
      <trkpt lat="45.24101" lon="5.73516">
        <ele>737</ele>
        <time>2010-05-09T07:34:38Z</time>
      </trkpt>
      <trkpt lat="45.24103" lon="5.73519">
        <ele>737</ele>
        <time>2010-05-09T07:34:39Z</time>
      </trkpt>
      <trkpt lat="45.24104" lon="5.73524">
        <ele>737</ele>
        <time>2010-05-09T07:34:40Z</time>
      </trkpt>
      <trkpt lat="45.24105" lon="5.73527">
        <ele>737</ele>
        <time>2010-05-09T07:34:41Z</time>
      </trkpt>
      <trkpt lat="45.24106" lon="5.73531">
        <ele>737</ele>
        <time>2010-05-09T07:34:42Z</time>
      </trkpt>
      <trkpt lat="45.24107" lon="5.73535">
        <ele>737</ele>
        <time>2010-05-09T07:34:43Z</time>
      </trkpt>
      <trkpt lat="45.24108" lon="5.73539">
        <ele>737</ele>
        <time>2010-05-09T07:34:44Z</time>
      </trkpt>
      <trkpt lat="45.24109" lon="5.73544">
        <ele>737</ele>
        <time>2010-05-09T07:34:45Z</time>
      </trkpt>
      <trkpt lat="45.24109" lon="5.73548">
        <ele>737</ele>
        <time>2010-05-09T07:34:46Z</time>
      </trkpt>
      <trkpt lat="45.2411" lon="5.73551">
        <ele>736</ele>
        <time>2010-05-09T07:34:47Z</time>
      </trkpt>
      <trkpt lat="45.24112" lon="5.73554">
        <ele>736</ele>
        <time>2010-05-09T07:34:48Z</time>
      </trkpt>
      <trkpt lat="45.24114" lon="5.73557">
        <ele>736</ele>
        <time>2010-05-09T07:34:49Z</time>
      </trkpt>
      <trkpt lat="45.24115" lon="5.7356">
        <ele>736</ele>
        <time>2010-05-09T07:34:50Z</time>
      </trkpt>
      <trkpt lat="45.24117" lon="5.73563">
        <ele>736</ele>
        <time>2010-05-09T07:34:51Z</time>
      </trkpt>
      <trkpt lat="45.24118" lon="5.73566">
        <ele>736</ele>
        <time>2010-05-09T07:34:52Z</time>
      </trkpt>
      <trkpt lat="45.2412" lon="5.73569">
        <ele>736</ele>
        <time>2010-05-09T07:34:53Z</time>
      </trkpt>
      <trkpt lat="45.24123" lon="5.73572">
        <ele>736</ele>
        <time>2010-05-09T07:34:54Z</time>
      </trkpt>
      <trkpt lat="45.24125" lon="5.73575">
        <ele>736</ele>
        <time>2010-05-09T07:34:55Z</time>
      </trkpt>
      <trkpt lat="45.24126" lon="5.7358">
        <ele>736</ele>
        <time>2010-05-09T07:34:56Z</time>
      </trkpt>
      <trkpt lat="45.24128" lon="5.73584">
        <ele>736</ele>
        <time>2010-05-09T07:34:57Z</time>
      </trkpt>
      <trkpt lat="45.24128" lon="5.73589">
        <ele>736</ele>
        <time>2010-05-09T07:34:58Z</time>
      </trkpt>
      <trkpt lat="45.24127" lon="5.73593">
        <ele>736</ele>
        <time>2010-05-09T07:34:59Z</time>
      </trkpt>
      <trkpt lat="45.24126" lon="5.73597">
        <ele>735</ele>
        <time>2010-05-09T07:35:00Z</time>
      </trkpt>
      <trkpt lat="45.24125" lon="5.736">
        <ele>735</ele>
        <time>2010-05-09T07:35:01Z</time>
      </trkpt>
      <trkpt lat="45.24123" lon="5.73604">
        <ele>735</ele>
        <time>2010-05-09T07:35:02Z</time>
      </trkpt>
      <trkpt lat="45.24122" lon="5.73607">
        <ele>735</ele>
        <time>2010-05-09T07:35:03Z</time>
      </trkpt>
      <trkpt lat="45.24121" lon="5.7361">
        <ele>735</ele>
        <time>2010-05-09T07:35:04Z</time>
      </trkpt>
      <trkpt lat="45.2412" lon="5.73613">
        <ele>735</ele>
        <time>2010-05-09T07:35:05Z</time>
      </trkpt>
      <trkpt lat="45.24118" lon="5.73617">
        <ele>735</ele>
        <time>2010-05-09T07:35:06Z</time>
      </trkpt>
      <trkpt lat="45.24117" lon="5.7362">
        <ele>735</ele>
        <time>2010-05-09T07:35:07Z</time>
      </trkpt>
      <trkpt lat="45.24116" lon="5.73624">
        <ele>735</ele>
        <time>2010-05-09T07:35:08Z</time>
      </trkpt>
      <trkpt lat="45.24114" lon="5.73628">
        <ele>735</ele>
        <time>2010-05-09T07:35:09Z</time>
      </trkpt>
      <trkpt lat="45.24113" lon="5.73632">
        <ele>735</ele>
        <time>2010-05-09T07:35:10Z</time>
      </trkpt>
      <trkpt lat="45.24113" lon="5.73637">
        <ele>735</ele>
        <time>2010-05-09T07:35:11Z</time>
      </trkpt>
      <trkpt lat="45.24114" lon="5.73641">
        <ele>735</ele>
        <time>2010-05-09T07:35:12Z</time>
      </trkpt>
      <trkpt lat="45.24114" lon="5.73646">
        <ele>735</ele>
        <time>2010-05-09T07:35:13Z</time>
      </trkpt>
      <trkpt lat="45.24115" lon="5.7365">
        <ele>735</ele>
        <time>2010-05-09T07:35:14Z</time>
      </trkpt>
      <trkpt lat="45.24116" lon="5.73654">
        <ele>735</ele>
        <time>2010-05-09T07:35:15Z</time>
      </trkpt>
      <trkpt lat="45.24117" lon="5.73658">
        <ele>735</ele>
        <time>2010-05-09T07:35:16Z</time>
      </trkpt>
      <trkpt lat="45.24118" lon="5.73663">
        <ele>735</ele>
        <time>2010-05-09T07:35:17Z</time>
      </trkpt>
      <trkpt lat="45.24119" lon="5.73666">
        <ele>735</ele>
        <time>2010-05-09T07:35:18Z</time>
      </trkpt>
      <trkpt lat="45.2412" lon="5.73669">
        <ele>735</ele>
        <time>2010-05-09T07:35:19Z</time>
      </trkpt>
      <trkpt lat="45.24122" lon="5.73671">
        <ele>736</ele>
        <time>2010-05-09T07:35:20Z</time>
      </trkpt>
      <trkpt lat="45.24124" lon="5.73674">
        <ele>736</ele>
        <time>2010-05-09T07:35:21Z</time>
      </trkpt>
      <trkpt lat="45.24126" lon="5.73675">
        <ele>736</ele>
        <time>2010-05-09T07:35:22Z</time>
      </trkpt>
      <trkpt lat="45.24128" lon="5.73676">
        <ele>737</ele>
        <time>2010-05-09T07:35:23Z</time>
      </trkpt>
      <trkpt lat="45.24131" lon="5.73677">
        <ele>737</ele>
        <time>2010-05-09T07:35:24Z</time>
      </trkpt>
      <trkpt lat="45.24133" lon="5.73678">
        <ele>738</ele>
        <time>2010-05-09T07:35:25Z</time>
      </trkpt>
      <trkpt lat="45.24136" lon="5.73679">
        <ele>738</ele>
        <time>2010-05-09T07:35:26Z</time>
      </trkpt>
      <trkpt lat="45.24138" lon="5.7368">
        <ele>739</ele>
        <time>2010-05-09T07:35:27Z</time>
      </trkpt>
      <trkpt lat="45.2414" lon="5.73682">
        <ele>739</ele>
        <time>2010-05-09T07:35:28Z</time>
      </trkpt>
      <trkpt lat="45.24143" lon="5.73684">
        <ele>740</ele>
        <time>2010-05-09T07:35:29Z</time>
      </trkpt>
      <trkpt lat="45.24146" lon="5.73687">
        <ele>740</ele>
        <time>2010-05-09T07:35:30Z</time>
      </trkpt>
      <trkpt lat="45.24149" lon="5.73689">
        <ele>741</ele>
        <time>2010-05-09T07:35:31Z</time>
      </trkpt>
      <trkpt lat="45.24151" lon="5.73691">
        <ele>741</ele>
        <time>2010-05-09T07:35:32Z</time>
      </trkpt>
      <trkpt lat="45.24154" lon="5.73694">
        <ele>741</ele>
        <time>2010-05-09T07:35:33Z</time>
      </trkpt>
      <trkpt lat="45.24156" lon="5.73697">
        <ele>741</ele>
        <time>2010-05-09T07:35:34Z</time>
      </trkpt>
      <trkpt lat="45.24158" lon="5.73699">
        <ele>742</ele>
        <time>2010-05-09T07:35:35Z</time>
      </trkpt>
      <trkpt lat="45.24161" lon="5.73702">
        <ele>742</ele>
        <time>2010-05-09T07:35:36Z</time>
      </trkpt>
      <trkpt lat="45.24163" lon="5.73705">
        <ele>742</ele>
        <time>2010-05-09T07:35:37Z</time>
      </trkpt>
      <trkpt lat="45.24165" lon="5.73707">
        <ele>742</ele>
        <time>2010-05-09T07:35:38Z</time>
      </trkpt>
      <trkpt lat="45.24167" lon="5.73709">
        <ele>742</ele>
        <time>2010-05-09T07:35:39Z</time>
      </trkpt>
      <trkpt lat="45.2417" lon="5.73711">
        <ele>742</ele>
        <time>2010-05-09T07:35:40Z</time>
      </trkpt>
      <trkpt lat="45.24172" lon="5.73713">
        <ele>742</ele>
        <time>2010-05-09T07:35:41Z</time>
      </trkpt>
      <trkpt lat="45.24175" lon="5.73714">
        <ele>742</ele>
        <time>2010-05-09T07:35:42Z</time>
      </trkpt>
      <trkpt lat="45.24178" lon="5.73716">
        <ele>742</ele>
        <time>2010-05-09T07:35:43Z</time>
      </trkpt>
      <trkpt lat="45.24181" lon="5.73718">
        <ele>742</ele>
        <time>2010-05-09T07:35:44Z</time>
      </trkpt>
      <trkpt lat="45.24183" lon="5.7372">
        <ele>742</ele>
        <time>2010-05-09T07:35:45Z</time>
      </trkpt>
      <trkpt lat="45.24186" lon="5.73722">
        <ele>742</ele>
        <time>2010-05-09T07:35:46Z</time>
      </trkpt>
      <trkpt lat="45.24189" lon="5.73724">
        <ele>742</ele>
        <time>2010-05-09T07:35:47Z</time>
      </trkpt>
      <trkpt lat="45.24191" lon="5.73726">
        <ele>742</ele>
        <time>2010-05-09T07:35:48Z</time>
      </trkpt>
      <trkpt lat="45.24193" lon="5.73729">
        <ele>743</ele>
        <time>2010-05-09T07:35:49Z</time>
      </trkpt>
      <trkpt lat="45.24195" lon="5.73732">
        <ele>743</ele>
        <time>2010-05-09T07:35:50Z</time>
      </trkpt>
      <trkpt lat="45.24196" lon="5.73736">
        <ele>744</ele>
        <time>2010-05-09T07:35:51Z</time>
      </trkpt>
      <trkpt lat="45.24197" lon="5.73739">
        <ele>744</ele>
        <time>2010-05-09T07:35:52Z</time>
      </trkpt>
      <trkpt lat="45.24199" lon="5.73742">
        <ele>744</ele>
        <time>2010-05-09T07:35:53Z</time>
      </trkpt>
      <trkpt lat="45.242" lon="5.73744">
        <ele>745</ele>
        <time>2010-05-09T07:35:54Z</time>
      </trkpt>
      <trkpt lat="45.24202" lon="5.73746">
        <ele>745</ele>
        <time>2010-05-09T07:35:55Z</time>
      </trkpt>
      <trkpt lat="45.24204" lon="5.73747">
        <ele>745</ele>
        <time>2010-05-09T07:35:56Z</time>
      </trkpt>
      <trkpt lat="45.24207" lon="5.73747">
        <ele>745</ele>
        <time>2010-05-09T07:35:57Z</time>
      </trkpt>
      <trkpt lat="45.2421" lon="5.73747">
        <ele>746</ele>
        <time>2010-05-09T07:35:58Z</time>
      </trkpt>
      <trkpt lat="45.24213" lon="5.73746">
        <ele>747</ele>
        <time>2010-05-09T07:35:59Z</time>
      </trkpt>
      <trkpt lat="45.24216" lon="5.73745">
        <ele>747</ele>
        <time>2010-05-09T07:36:00Z</time>
      </trkpt>
      <trkpt lat="45.2422" lon="5.73745">
        <ele>748</ele>
        <time>2010-05-09T07:36:01Z</time>
      </trkpt>
      <trkpt lat="45.24222" lon="5.73744">
        <ele>749</ele>
        <time>2010-05-09T07:36:02Z</time>
      </trkpt>
      <trkpt lat="45.24225" lon="5.73743">
        <ele>749</ele>
        <time>2010-05-09T07:36:03Z</time>
      </trkpt>
      <trkpt lat="45.24228" lon="5.73742">
        <ele>749</ele>
        <time>2010-05-09T07:36:04Z</time>
      </trkpt>
      <trkpt lat="45.24231" lon="5.73742">
        <ele>749</ele>
        <time>2010-05-09T07:36:05Z</time>
      </trkpt>
      <trkpt lat="45.24234" lon="5.73742">
        <ele>749</ele>
        <time>2010-05-09T07:36:06Z</time>
      </trkpt>
      <trkpt lat="45.24236" lon="5.73742">
        <ele>749</ele>
        <time>2010-05-09T07:36:07Z</time>
      </trkpt>
      <trkpt lat="45.24239" lon="5.73741">
        <ele>750</ele>
        <time>2010-05-09T07:36:08Z</time>
      </trkpt>
      <trkpt lat="45.24242" lon="5.73741">
        <ele>750</ele>
        <time>2010-05-09T07:36:09Z</time>
      </trkpt>
      <trkpt lat="45.24244" lon="5.73739">
        <ele>750</ele>
        <time>2010-05-09T07:36:10Z</time>
      </trkpt>
      <trkpt lat="45.24247" lon="5.73738">
        <ele>751</ele>
        <time>2010-05-09T07:36:11Z</time>
      </trkpt>
      <trkpt lat="45.2425" lon="5.73737">
        <ele>752</ele>
        <time>2010-05-09T07:36:12Z</time>
      </trkpt>
      <trkpt lat="45.24252" lon="5.73736">
        <ele>752</ele>
        <time>2010-05-09T07:36:13Z</time>
      </trkpt>
      <trkpt lat="45.24255" lon="5.73736">
        <ele>753</ele>
        <time>2010-05-09T07:36:14Z</time>
      </trkpt>
      <trkpt lat="45.24257" lon="5.73735">
        <ele>754</ele>
        <time>2010-05-09T07:36:15Z</time>
      </trkpt>
      <trkpt lat="45.2426" lon="5.73735">
        <ele>754</ele>
        <time>2010-05-09T07:36:16Z</time>
      </trkpt>
      <trkpt lat="45.24262" lon="5.73735">
        <ele>754</ele>
        <time>2010-05-09T07:36:17Z</time>
      </trkpt>
      <trkpt lat="45.24265" lon="5.73735">
        <ele>755</ele>
        <time>2010-05-09T07:36:18Z</time>
      </trkpt>
      <trkpt lat="45.24268" lon="5.73735">
        <ele>755</ele>
        <time>2010-05-09T07:36:19Z</time>
      </trkpt>
      <trkpt lat="45.2427" lon="5.73735">
        <ele>755</ele>
        <time>2010-05-09T07:36:20Z</time>
      </trkpt>
      <trkpt lat="45.24272" lon="5.73736">
        <ele>756</ele>
        <time>2010-05-09T07:36:21Z</time>
      </trkpt>
      <trkpt lat="45.24274" lon="5.73736">
        <ele>756</ele>
        <time>2010-05-09T07:36:22Z</time>
      </trkpt>
      <trkpt lat="45.24277" lon="5.73736">
        <ele>756</ele>
        <time>2010-05-09T07:36:23Z</time>
      </trkpt>
      <trkpt lat="45.24279" lon="5.73737">
        <ele>757</ele>
        <time>2010-05-09T07:36:24Z</time>
      </trkpt>
      <trkpt lat="45.24282" lon="5.73738">
        <ele>757</ele>
        <time>2010-05-09T07:36:25Z</time>
      </trkpt>
      <trkpt lat="45.24285" lon="5.73739">
        <ele>758</ele>
        <time>2010-05-09T07:36:26Z</time>
      </trkpt>
      <trkpt lat="45.24287" lon="5.7374">
        <ele>758</ele>
        <time>2010-05-09T07:36:27Z</time>
      </trkpt>
      <trkpt lat="45.24289" lon="5.73741">
        <ele>759</ele>
        <time>2010-05-09T07:36:28Z</time>
      </trkpt>
      <trkpt lat="45.24292" lon="5.73742">
        <ele>759</ele>
        <time>2010-05-09T07:36:29Z</time>
      </trkpt>
      <trkpt lat="45.24294" lon="5.73744">
        <ele>759</ele>
        <time>2010-05-09T07:36:30Z</time>
      </trkpt>
      <trkpt lat="45.24297" lon="5.73745">
        <ele>759</ele>
        <time>2010-05-09T07:36:31Z</time>
      </trkpt>
      <trkpt lat="45.24299" lon="5.73747">
        <ele>759</ele>
        <time>2010-05-09T07:36:32Z</time>
      </trkpt>
      <trkpt lat="45.24302" lon="5.73749">
        <ele>759</ele>
        <time>2010-05-09T07:36:33Z</time>
      </trkpt>
      <trkpt lat="45.24304" lon="5.7375">
        <ele>759</ele>
        <time>2010-05-09T07:36:34Z</time>
      </trkpt>
      <trkpt lat="45.24305" lon="5.73751">
        <ele>759</ele>
        <time>2010-05-09T07:36:35Z</time>
      </trkpt>
      <trkpt lat="45.24307" lon="5.73752">
        <ele>759</ele>
        <time>2010-05-09T07:36:36Z</time>
      </trkpt>
      <trkpt lat="45.2431" lon="5.73753">
        <ele>759</ele>
        <time>2010-05-09T07:36:37Z</time>
      </trkpt>
      <trkpt lat="45.24312" lon="5.73754">
        <ele>759</ele>
        <time>2010-05-09T07:36:38Z</time>
      </trkpt>
      <trkpt lat="45.24315" lon="5.73755">
        <ele>759</ele>
        <time>2010-05-09T07:36:39Z</time>
      </trkpt>
      <trkpt lat="45.24317" lon="5.73755">
        <ele>760</ele>
        <time>2010-05-09T07:36:40Z</time>
      </trkpt>
      <trkpt lat="45.2432" lon="5.73756">
        <ele>760</ele>
        <time>2010-05-09T07:36:41Z</time>
      </trkpt>
      <trkpt lat="45.24323" lon="5.73757">
        <ele>760</ele>
        <time>2010-05-09T07:36:42Z</time>
      </trkpt>
      <trkpt lat="45.24326" lon="5.73758">
        <ele>760</ele>
        <time>2010-05-09T07:36:43Z</time>
      </trkpt>
      <trkpt lat="45.24329" lon="5.7376">
        <ele>760</ele>
        <time>2010-05-09T07:36:44Z</time>
      </trkpt>
      <trkpt lat="45.24331" lon="5.73761">
        <ele>760</ele>
        <time>2010-05-09T07:36:45Z</time>
      </trkpt>
      <trkpt lat="45.24334" lon="5.73762">
        <ele>760</ele>
        <time>2010-05-09T07:36:46Z</time>
      </trkpt>
      <trkpt lat="45.24337" lon="5.73764">
        <ele>760</ele>
        <time>2010-05-09T07:36:47Z</time>
      </trkpt>
      <trkpt lat="45.24339" lon="5.73766">
        <ele>760</ele>
        <time>2010-05-09T07:36:48Z</time>
      </trkpt>
      <trkpt lat="45.24341" lon="5.73768">
        <ele>760</ele>
        <time>2010-05-09T07:36:49Z</time>
      </trkpt>
      <trkpt lat="45.24343" lon="5.7377">
        <ele>760</ele>
        <time>2010-05-09T07:36:50Z</time>
      </trkpt>
      <trkpt lat="45.24345" lon="5.73772">
        <ele>760</ele>
        <time>2010-05-09T07:36:51Z</time>
      </trkpt>
      <trkpt lat="45.24347" lon="5.73775">
        <ele>760</ele>
        <time>2010-05-09T07:36:52Z</time>
      </trkpt>
      <trkpt lat="45.24348" lon="5.73777">
        <ele>760</ele>
        <time>2010-05-09T07:36:53Z</time>
      </trkpt>
      <trkpt lat="45.2435" lon="5.7378">
        <ele>760</ele>
        <time>2010-05-09T07:36:54Z</time>
      </trkpt>
      <trkpt lat="45.24353" lon="5.73783">
        <ele>760</ele>
        <time>2010-05-09T07:36:55Z</time>
      </trkpt>
      <trkpt lat="45.24355" lon="5.73786">
        <ele>760</ele>
        <time>2010-05-09T07:36:56Z</time>
      </trkpt>
      <trkpt lat="45.24356" lon="5.73789">
        <ele>760</ele>
        <time>2010-05-09T07:36:57Z</time>
      </trkpt>
      <trkpt lat="45.24358" lon="5.73793">
        <ele>760</ele>
        <time>2010-05-09T07:36:58Z</time>
      </trkpt>
      <trkpt lat="45.2436" lon="5.73796">
        <ele>760</ele>
        <time>2010-05-09T07:36:59Z</time>
      </trkpt>
      <trkpt lat="45.24362" lon="5.73799">
        <ele>760</ele>
        <time>2010-05-09T07:37:00Z</time>
      </trkpt>
      <trkpt lat="45.24363" lon="5.73803">
        <ele>760</ele>
        <time>2010-05-09T07:37:01Z</time>
      </trkpt>
      <trkpt lat="45.24365" lon="5.73806">
        <ele>760</ele>
        <time>2010-05-09T07:37:02Z</time>
      </trkpt>
      <trkpt lat="45.24367" lon="5.73808">
        <ele>760</ele>
        <time>2010-05-09T07:37:03Z</time>
      </trkpt>
      <trkpt lat="45.24369" lon="5.73811">
        <ele>760</ele>
        <time>2010-05-09T07:37:04Z</time>
      </trkpt>
      <trkpt lat="45.2437" lon="5.73814">
        <ele>760</ele>
        <time>2010-05-09T07:37:05Z</time>
      </trkpt>
      <trkpt lat="45.24371" lon="5.73816">
        <ele>760</ele>
        <time>2010-05-09T07:37:06Z</time>
      </trkpt>
      <trkpt lat="45.24373" lon="5.73819">
        <ele>760</ele>
        <time>2010-05-09T07:37:07Z</time>
      </trkpt>
      <trkpt lat="45.24375" lon="5.73822">
        <ele>760</ele>
        <time>2010-05-09T07:37:08Z</time>
      </trkpt>
      <trkpt lat="45.24376" lon="5.73825">
        <ele>760</ele>
        <time>2010-05-09T07:37:09Z</time>
      </trkpt>
      <trkpt lat="45.24377" lon="5.73828">
        <ele>760</ele>
        <time>2010-05-09T07:37:10Z</time>
      </trkpt>
      <trkpt lat="45.24379" lon="5.73831">
        <ele>760</ele>
        <time>2010-05-09T07:37:11Z</time>
      </trkpt>
      <trkpt lat="45.2438" lon="5.73834">
        <ele>760</ele>
        <time>2010-05-09T07:37:12Z</time>
      </trkpt>
      <trkpt lat="45.24381" lon="5.73837">
        <ele>760</ele>
        <time>2010-05-09T07:37:13Z</time>
      </trkpt>
      <trkpt lat="45.24382" lon="5.7384">
        <ele>760</ele>
        <time>2010-05-09T07:37:14Z</time>
      </trkpt>
      <trkpt lat="45.24383" lon="5.73844">
        <ele>760</ele>
        <time>2010-05-09T07:37:15Z</time>
      </trkpt>
      <trkpt lat="45.24385" lon="5.73846">
        <ele>760</ele>
        <time>2010-05-09T07:37:16Z</time>
      </trkpt>
      <trkpt lat="45.24386" lon="5.73849">
        <ele>760</ele>
        <time>2010-05-09T07:37:17Z</time>
      </trkpt>
      <trkpt lat="45.24387" lon="5.73853">
        <ele>760</ele>
        <time>2010-05-09T07:37:18Z</time>
      </trkpt>
      <trkpt lat="45.24389" lon="5.73856">
        <ele>760</ele>
        <time>2010-05-09T07:37:19Z</time>
      </trkpt>
      <trkpt lat="45.2439" lon="5.7386">
        <ele>760</ele>
        <time>2010-05-09T07:37:20Z</time>
      </trkpt>
      <trkpt lat="45.24391" lon="5.73863">
        <ele>760</ele>
        <time>2010-05-09T07:37:21Z</time>
      </trkpt>
      <trkpt lat="45.24392" lon="5.73867">
        <ele>760</ele>
        <time>2010-05-09T07:37:22Z</time>
      </trkpt>
      <trkpt lat="45.24394" lon="5.73871">
        <ele>760</ele>
        <time>2010-05-09T07:37:23Z</time>
      </trkpt>
      <trkpt lat="45.24395" lon="5.73874">
        <ele>760</ele>
        <time>2010-05-09T07:37:24Z</time>
      </trkpt>
      <trkpt lat="45.24396" lon="5.73877">
        <ele>759</ele>
        <time>2010-05-09T07:37:25Z</time>
      </trkpt>
      <trkpt lat="45.24398" lon="5.73881">
        <ele>759</ele>
        <time>2010-05-09T07:37:26Z</time>
      </trkpt>
      <trkpt lat="45.24399" lon="5.73884">
        <ele>759</ele>
        <time>2010-05-09T07:37:27Z</time>
      </trkpt>
      <trkpt lat="45.24401" lon="5.73887">
        <ele>758</ele>
        <time>2010-05-09T07:37:28Z</time>
      </trkpt>
      <trkpt lat="45.24402" lon="5.7389">
        <ele>758</ele>
        <time>2010-05-09T07:37:29Z</time>
      </trkpt>
      <trkpt lat="45.24404" lon="5.73894">
        <ele>757</ele>
        <time>2010-05-09T07:37:30Z</time>
      </trkpt>
      <trkpt lat="45.24405" lon="5.73897">
        <ele>757</ele>
        <time>2010-05-09T07:37:31Z</time>
      </trkpt>
      <trkpt lat="45.24406" lon="5.73901">
        <ele>756</ele>
        <time>2010-05-09T07:37:32Z</time>
      </trkpt>
      <trkpt lat="45.24408" lon="5.73904">
        <ele>756</ele>
        <time>2010-05-09T07:37:33Z</time>
      </trkpt>
      <trkpt lat="45.24409" lon="5.73908">
        <ele>756</ele>
        <time>2010-05-09T07:37:34Z</time>
      </trkpt>
      <trkpt lat="45.2441" lon="5.73911">
        <ele>756</ele>
        <time>2010-05-09T07:37:35Z</time>
      </trkpt>
      <trkpt lat="45.24411" lon="5.73914">
        <ele>756</ele>
        <time>2010-05-09T07:37:36Z</time>
      </trkpt>
      <trkpt lat="45.24411" lon="5.73918">
        <ele>756</ele>
        <time>2010-05-09T07:37:37Z</time>
      </trkpt>
      <trkpt lat="45.24412" lon="5.73922">
        <ele>756</ele>
        <time>2010-05-09T07:37:38Z</time>
      </trkpt>
      <trkpt lat="45.24412" lon="5.73926">
        <ele>756</ele>
        <time>2010-05-09T07:37:39Z</time>
      </trkpt>
      <trkpt lat="45.24413" lon="5.7393">
        <ele>756</ele>
        <time>2010-05-09T07:37:40Z</time>
      </trkpt>
      <trkpt lat="45.24414" lon="5.73934">
        <ele>756</ele>
        <time>2010-05-09T07:37:41Z</time>
      </trkpt>
      <trkpt lat="45.24415" lon="5.73938">
        <ele>756</ele>
        <time>2010-05-09T07:37:42Z</time>
      </trkpt>
      <trkpt lat="45.24416" lon="5.73943">
        <ele>756</ele>
        <time>2010-05-09T07:37:43Z</time>
      </trkpt>
      <trkpt lat="45.24417" lon="5.73947">
        <ele>755</ele>
        <time>2010-05-09T07:37:44Z</time>
      </trkpt>
      <trkpt lat="45.24418" lon="5.7395">
        <ele>755</ele>
        <time>2010-05-09T07:37:45Z</time>
      </trkpt>
      <trkpt lat="45.24419" lon="5.73955">
        <ele>755</ele>
        <time>2010-05-09T07:37:46Z</time>
      </trkpt>
      <trkpt lat="45.24421" lon="5.73959">
        <ele>755</ele>
        <time>2010-05-09T07:37:47Z</time>
      </trkpt>
      <trkpt lat="45.24422" lon="5.73964">
        <ele>755</ele>
        <time>2010-05-09T07:37:48Z</time>
      </trkpt>
      <trkpt lat="45.24423" lon="5.73969">
        <ele>755</ele>
        <time>2010-05-09T07:37:49Z</time>
      </trkpt>
      <trkpt lat="45.24425" lon="5.73973">
        <ele>755</ele>
        <time>2010-05-09T07:37:50Z</time>
      </trkpt>
      <trkpt lat="45.24426" lon="5.73977">
        <ele>755</ele>
        <time>2010-05-09T07:37:51Z</time>
      </trkpt>
      <trkpt lat="45.24427" lon="5.73982">
        <ele>755</ele>
        <time>2010-05-09T07:37:52Z</time>
      </trkpt>
      <trkpt lat="45.24429" lon="5.73986">
        <ele>755</ele>
        <time>2010-05-09T07:37:53Z</time>
      </trkpt>
      <trkpt lat="45.2443" lon="5.7399">
        <ele>755</ele>
        <time>2010-05-09T07:37:54Z</time>
      </trkpt>
      <trkpt lat="45.24431" lon="5.73995">
        <ele>755</ele>
        <time>2010-05-09T07:37:55Z</time>
      </trkpt>
      <trkpt lat="45.24432" lon="5.73999">
        <ele>755</ele>
        <time>2010-05-09T07:37:56Z</time>
      </trkpt>
      <trkpt lat="45.24433" lon="5.74003">
        <ele>755</ele>
        <time>2010-05-09T07:37:57Z</time>
      </trkpt>
      <trkpt lat="45.24435" lon="5.74007">
        <ele>755</ele>
        <time>2010-05-09T07:37:58Z</time>
      </trkpt>
      <trkpt lat="45.24436" lon="5.74011">
        <ele>755</ele>
        <time>2010-05-09T07:37:59Z</time>
      </trkpt>
      <trkpt lat="45.24437" lon="5.74015">
        <ele>755</ele>
        <time>2010-05-09T07:38:00Z</time>
      </trkpt>
      <trkpt lat="45.24438" lon="5.74018">
        <ele>755</ele>
        <time>2010-05-09T07:38:01Z</time>
      </trkpt>
      <trkpt lat="45.2444" lon="5.74022">
        <ele>755</ele>
        <time>2010-05-09T07:38:02Z</time>
      </trkpt>
      <trkpt lat="45.24442" lon="5.74026">
        <ele>755</ele>
        <time>2010-05-09T07:38:03Z</time>
      </trkpt>
      <trkpt lat="45.24443" lon="5.74029">
        <ele>755</ele>
        <time>2010-05-09T07:38:04Z</time>
      </trkpt>
      <trkpt lat="45.24445" lon="5.74032">
        <ele>755</ele>
        <time>2010-05-09T07:38:05Z</time>
      </trkpt>
      <trkpt lat="45.24447" lon="5.74036">
        <ele>755</ele>
        <time>2010-05-09T07:38:06Z</time>
      </trkpt>
      <trkpt lat="45.24448" lon="5.7404">
        <ele>755</ele>
        <time>2010-05-09T07:38:07Z</time>
      </trkpt>
      <trkpt lat="45.2445" lon="5.74044">
        <ele>755</ele>
        <time>2010-05-09T07:38:08Z</time>
      </trkpt>
      <trkpt lat="45.24451" lon="5.74048">
        <ele>755</ele>
        <time>2010-05-09T07:38:09Z</time>
      </trkpt>
      <trkpt lat="45.24452" lon="5.74052">
        <ele>755</ele>
        <time>2010-05-09T07:38:10Z</time>
      </trkpt>
      <trkpt lat="45.24453" lon="5.74056">
        <ele>755</ele>
        <time>2010-05-09T07:38:11Z</time>
      </trkpt>
      <trkpt lat="45.24455" lon="5.74061">
        <ele>755</ele>
        <time>2010-05-09T07:38:12Z</time>
      </trkpt>
      <trkpt lat="45.24456" lon="5.74065">
        <ele>755</ele>
        <time>2010-05-09T07:38:13Z</time>
      </trkpt>
      <trkpt lat="45.24457" lon="5.74069">
        <ele>755</ele>
        <time>2010-05-09T07:38:14Z</time>
      </trkpt>
      <trkpt lat="45.24458" lon="5.74074">
        <ele>755</ele>
        <time>2010-05-09T07:38:15Z</time>
      </trkpt>
      <trkpt lat="45.2446" lon="5.74078">
        <ele>755</ele>
        <time>2010-05-09T07:38:16Z</time>
      </trkpt>
      <trkpt lat="45.24462" lon="5.74081">
        <ele>755</ele>
        <time>2010-05-09T07:38:17Z</time>
      </trkpt>
      <trkpt lat="45.24464" lon="5.74084">
        <ele>755</ele>
        <time>2010-05-09T07:38:18Z</time>
      </trkpt>
      <trkpt lat="45.24467" lon="5.74087">
        <ele>755</ele>
        <time>2010-05-09T07:38:19Z</time>
      </trkpt>
      <trkpt lat="45.24471" lon="5.74089">
        <ele>755</ele>
        <time>2010-05-09T07:38:20Z</time>
      </trkpt>
      <trkpt lat="45.24474" lon="5.74091">
        <ele>755</ele>
        <time>2010-05-09T07:38:21Z</time>
      </trkpt>
      <trkpt lat="45.24477" lon="5.74093">
        <ele>755</ele>
        <time>2010-05-09T07:38:22Z</time>
      </trkpt>
      <trkpt lat="45.2448" lon="5.74096">
        <ele>755</ele>
        <time>2010-05-09T07:38:23Z</time>
      </trkpt>
      <trkpt lat="45.24483" lon="5.74098">
        <ele>755</ele>
        <time>2010-05-09T07:38:24Z</time>
      </trkpt>
      <trkpt lat="45.24487" lon="5.74101">
        <ele>756</ele>
        <time>2010-05-09T07:38:25Z</time>
      </trkpt>
      <trkpt lat="45.2449" lon="5.74104">
        <ele>756</ele>
        <time>2010-05-09T07:38:26Z</time>
      </trkpt>
      <trkpt lat="45.24492" lon="5.74107">
        <ele>756</ele>
        <time>2010-05-09T07:38:27Z</time>
      </trkpt>
      <trkpt lat="45.24495" lon="5.7411">
        <ele>756</ele>
        <time>2010-05-09T07:38:28Z</time>
      </trkpt>
      <trkpt lat="45.24497" lon="5.74113">
        <ele>756</ele>
        <time>2010-05-09T07:38:29Z</time>
      </trkpt>
      <trkpt lat="45.245" lon="5.74117">
        <ele>756</ele>
        <time>2010-05-09T07:38:30Z</time>
      </trkpt>
      <trkpt lat="45.24501" lon="5.74122">
        <ele>756</ele>
        <time>2010-05-09T07:38:31Z</time>
      </trkpt>
      <trkpt lat="45.24503" lon="5.74126">
        <ele>756</ele>
        <time>2010-05-09T07:38:32Z</time>
      </trkpt>
      <trkpt lat="45.24504" lon="5.74131">
        <ele>756</ele>
        <time>2010-05-09T07:38:33Z</time>
      </trkpt>
      <trkpt lat="45.24505" lon="5.74135">
        <ele>756</ele>
        <time>2010-05-09T07:38:34Z</time>
      </trkpt>
      <trkpt lat="45.24507" lon="5.7414">
        <ele>756</ele>
        <time>2010-05-09T07:38:35Z</time>
      </trkpt>
      <trkpt lat="45.24509" lon="5.74144">
        <ele>756</ele>
        <time>2010-05-09T07:38:36Z</time>
      </trkpt>
      <trkpt lat="45.2451" lon="5.74149">
        <ele>756</ele>
        <time>2010-05-09T07:38:37Z</time>
      </trkpt>
      <trkpt lat="45.2451" lon="5.74154">
        <ele>756</ele>
        <time>2010-05-09T07:38:38Z</time>
      </trkpt>
      <trkpt lat="45.24511" lon="5.74159">
        <ele>756</ele>
        <time>2010-05-09T07:38:39Z</time>
      </trkpt>
      <trkpt lat="45.24512" lon="5.74163">
        <ele>756</ele>
        <time>2010-05-09T07:38:40Z</time>
      </trkpt>
      <trkpt lat="45.24513" lon="5.74168">
        <ele>756</ele>
        <time>2010-05-09T07:38:41Z</time>
      </trkpt>
      <trkpt lat="45.24515" lon="5.74173">
        <ele>756</ele>
        <time>2010-05-09T07:38:42Z</time>
      </trkpt>
      <trkpt lat="45.24517" lon="5.74177">
        <ele>756</ele>
        <time>2010-05-09T07:38:43Z</time>
      </trkpt>
      <trkpt lat="45.24519" lon="5.74182">
        <ele>756</ele>
        <time>2010-05-09T07:38:44Z</time>
      </trkpt>
      <trkpt lat="45.24521" lon="5.74186">
        <ele>756</ele>
        <time>2010-05-09T07:38:45Z</time>
      </trkpt>
      <trkpt lat="45.24524" lon="5.7419">
        <ele>756</ele>
        <time>2010-05-09T07:38:46Z</time>
      </trkpt>
      <trkpt lat="45.24525" lon="5.74195">
        <ele>756</ele>
        <time>2010-05-09T07:38:47Z</time>
      </trkpt>
      <trkpt lat="45.24526" lon="5.742">
        <ele>756</ele>
        <time>2010-05-09T07:38:48Z</time>
      </trkpt>
      <trkpt lat="45.24527" lon="5.74205">
        <ele>756</ele>
        <time>2010-05-09T07:38:49Z</time>
      </trkpt>
      <trkpt lat="45.24527" lon="5.7421">
        <ele>756</ele>
        <time>2010-05-09T07:38:50Z</time>
      </trkpt>
      <trkpt lat="45.24528" lon="5.74215">
        <ele>756</ele>
        <time>2010-05-09T07:38:51Z</time>
      </trkpt>
      <trkpt lat="45.24529" lon="5.7422">
        <ele>756</ele>
        <time>2010-05-09T07:38:52Z</time>
      </trkpt>
      <trkpt lat="45.2453" lon="5.74225">
        <ele>756</ele>
        <time>2010-05-09T07:38:53Z</time>
      </trkpt>
      <trkpt lat="45.24531" lon="5.74229">
        <ele>756</ele>
        <time>2010-05-09T07:38:54Z</time>
      </trkpt>
      <trkpt lat="45.24532" lon="5.74234">
        <ele>756</ele>
        <time>2010-05-09T07:38:55Z</time>
      </trkpt>
      <trkpt lat="45.24532" lon="5.74239">
        <ele>756</ele>
        <time>2010-05-09T07:38:56Z</time>
      </trkpt>
      <trkpt lat="45.24533" lon="5.74245">
        <ele>756</ele>
        <time>2010-05-09T07:38:57Z</time>
      </trkpt>
      <trkpt lat="45.24533" lon="5.7425">
        <ele>756</ele>
        <time>2010-05-09T07:38:58Z</time>
      </trkpt>
      <trkpt lat="45.24535" lon="5.74255">
        <ele>756</ele>
        <time>2010-05-09T07:38:59Z</time>
      </trkpt>
      <trkpt lat="45.24537" lon="5.7426">
        <ele>756</ele>
        <time>2010-05-09T07:39:00Z</time>
      </trkpt>
      <trkpt lat="45.24539" lon="5.74264">
        <ele>756</ele>
        <time>2010-05-09T07:39:01Z</time>
      </trkpt>
      <trkpt lat="45.24541" lon="5.74268">
        <ele>756</ele>
        <time>2010-05-09T07:39:02Z</time>
      </trkpt>
      <trkpt lat="45.24543" lon="5.74272">
        <ele>756</ele>
        <time>2010-05-09T07:39:03Z</time>
      </trkpt>
      <trkpt lat="45.24546" lon="5.74275">
        <ele>756</ele>
        <time>2010-05-09T07:39:04Z</time>
      </trkpt>
      <trkpt lat="45.24548" lon="5.74279">
        <ele>756</ele>
        <time>2010-05-09T07:39:05Z</time>
      </trkpt>
      <trkpt lat="45.24551" lon="5.74282">
        <ele>756</ele>
        <time>2010-05-09T07:39:06Z</time>
      </trkpt>
      <trkpt lat="45.24555" lon="5.74285">
        <ele>756</ele>
        <time>2010-05-09T07:39:07Z</time>
      </trkpt>
      <trkpt lat="45.24558" lon="5.74287">
        <ele>756</ele>
        <time>2010-05-09T07:39:08Z</time>
      </trkpt>
      <trkpt lat="45.24561" lon="5.7429">
        <ele>756</ele>
        <time>2010-05-09T07:39:09Z</time>
      </trkpt>
      <trkpt lat="45.24563" lon="5.74293">
        <ele>756</ele>
        <time>2010-05-09T07:39:10Z</time>
      </trkpt>
      <trkpt lat="45.24566" lon="5.74297">
        <ele>756</ele>
        <time>2010-05-09T07:39:11Z</time>
      </trkpt>
      <trkpt lat="45.24567" lon="5.74301">
        <ele>756</ele>
        <time>2010-05-09T07:39:12Z</time>
      </trkpt>
      <trkpt lat="45.24569" lon="5.74306">
        <ele>756</ele>
        <time>2010-05-09T07:39:13Z</time>
      </trkpt>
      <trkpt lat="45.24569" lon="5.74311">
        <ele>756</ele>
        <time>2010-05-09T07:39:14Z</time>
      </trkpt>
      <trkpt lat="45.2457" lon="5.74317">
        <ele>756</ele>
        <time>2010-05-09T07:39:15Z</time>
      </trkpt>
      <trkpt lat="45.2457" lon="5.74321">
        <ele>756</ele>
        <time>2010-05-09T07:39:16Z</time>
      </trkpt>
      <trkpt lat="45.2457" lon="5.74327">
        <ele>755</ele>
        <time>2010-05-09T07:39:17Z</time>
      </trkpt>
      <trkpt lat="45.2457" lon="5.74333">
        <ele>755</ele>
        <time>2010-05-09T07:39:18Z</time>
      </trkpt>
      <trkpt lat="45.24571" lon="5.74338">
        <ele>755</ele>
        <time>2010-05-09T07:39:19Z</time>
      </trkpt>
      <trkpt lat="45.24571" lon="5.74342">
        <ele>755</ele>
        <time>2010-05-09T07:39:20Z</time>
      </trkpt>
      <trkpt lat="45.24572" lon="5.74347">
        <ele>755</ele>
        <time>2010-05-09T07:39:21Z</time>
      </trkpt>
      <trkpt lat="45.24573" lon="5.74351">
        <ele>755</ele>
        <time>2010-05-09T07:39:22Z</time>
      </trkpt>
      <trkpt lat="45.24573" lon="5.74355">
        <ele>755</ele>
        <time>2010-05-09T07:39:23Z</time>
      </trkpt>
      <trkpt lat="45.24573" lon="5.74359">
        <ele>755</ele>
        <time>2010-05-09T07:39:24Z</time>
      </trkpt>
      <trkpt lat="45.24573" lon="5.74363">
        <ele>755</ele>
        <time>2010-05-09T07:39:25Z</time>
      </trkpt>
      <trkpt lat="45.24573" lon="5.74368">
        <ele>755</ele>
        <time>2010-05-09T07:39:26Z</time>
      </trkpt>
      <trkpt lat="45.24573" lon="5.7437">
        <ele>755</ele>
        <time>2010-05-09T07:39:27Z</time>
      </trkpt>
      <trkpt lat="45.24572" lon="5.74372">
        <ele>755</ele>
        <time>2010-05-09T07:39:28Z</time>
      </trkpt>
      <trkpt lat="45.24573" lon="5.74375">
        <ele>755</ele>
        <time>2010-05-09T07:39:31Z</time>
      </trkpt>
      <trkpt lat="45.24572" lon="5.74379">
        <ele>755</ele>
        <time>2010-05-09T07:39:32Z</time>
      </trkpt>
      <trkpt lat="45.24571" lon="5.74382">
        <ele>755</ele>
        <time>2010-05-09T07:39:33Z</time>
      </trkpt>
      <trkpt lat="45.2457" lon="5.74387">
        <ele>755</ele>
        <time>2010-05-09T07:39:34Z</time>
      </trkpt>
      <trkpt lat="45.24569" lon="5.7439">
        <ele>754</ele>
        <time>2010-05-09T07:39:35Z</time>
      </trkpt>
      <trkpt lat="45.24567" lon="5.74394">
        <ele>753</ele>
        <time>2010-05-09T07:39:36Z</time>
      </trkpt>
      <trkpt lat="45.24565" lon="5.74398">
        <ele>753</ele>
        <time>2010-05-09T07:39:37Z</time>
      </trkpt>
      <trkpt lat="45.24564" lon="5.74402">
        <ele>753</ele>
        <time>2010-05-09T07:39:38Z</time>
      </trkpt>
      <trkpt lat="45.24563" lon="5.74407">
        <ele>752</ele>
        <time>2010-05-09T07:39:39Z</time>
      </trkpt>
      <trkpt lat="45.24562" lon="5.74412">
        <ele>752</ele>
        <time>2010-05-09T07:39:40Z</time>
      </trkpt>
      <trkpt lat="45.24561" lon="5.74416">
        <ele>751</ele>
        <time>2010-05-09T07:39:41Z</time>
      </trkpt>
      <trkpt lat="45.2456" lon="5.74421">
        <ele>751</ele>
        <time>2010-05-09T07:39:42Z</time>
      </trkpt>
      <trkpt lat="45.24558" lon="5.74427">
        <ele>751</ele>
        <time>2010-05-09T07:39:43Z</time>
      </trkpt>
      <trkpt lat="45.24556" lon="5.74433">
        <ele>750</ele>
        <time>2010-05-09T07:39:44Z</time>
      </trkpt>
      <trkpt lat="45.24554" lon="5.74438">
        <ele>750</ele>
        <time>2010-05-09T07:39:45Z</time>
      </trkpt>
      <trkpt lat="45.24552" lon="5.74442">
        <ele>749</ele>
        <time>2010-05-09T07:39:46Z</time>
      </trkpt>
      <trkpt lat="45.2455" lon="5.74447">
        <ele>749</ele>
        <time>2010-05-09T07:39:47Z</time>
      </trkpt>
      <trkpt lat="45.2455" lon="5.74452">
        <ele>748</ele>
        <time>2010-05-09T07:39:48Z</time>
      </trkpt>
      <trkpt lat="45.24549" lon="5.74458">
        <ele>748</ele>
        <time>2010-05-09T07:39:49Z</time>
      </trkpt>
      <trkpt lat="45.24548" lon="5.74463">
        <ele>748</ele>
        <time>2010-05-09T07:39:50Z</time>
      </trkpt>
      <trkpt lat="45.24546" lon="5.74469">
        <ele>748</ele>
        <time>2010-05-09T07:39:51Z</time>
      </trkpt>
      <trkpt lat="45.24544" lon="5.74473">
        <ele>748</ele>
        <time>2010-05-09T07:39:52Z</time>
      </trkpt>
      <trkpt lat="45.24542" lon="5.74478">
        <ele>748</ele>
        <time>2010-05-09T07:39:53Z</time>
      </trkpt>
      <trkpt lat="45.2454" lon="5.74482">
        <ele>748</ele>
        <time>2010-05-09T07:39:54Z</time>
      </trkpt>
      <trkpt lat="45.2454" lon="5.74487">
        <ele>748</ele>
        <time>2010-05-09T07:39:55Z</time>
      </trkpt>
      <trkpt lat="45.24538" lon="5.74492">
        <ele>748</ele>
        <time>2010-05-09T07:39:56Z</time>
      </trkpt>
      <trkpt lat="45.24538" lon="5.74494">
        <ele>748</ele>
        <time>2010-05-09T07:39:57Z</time>
      </trkpt>
      <trkpt lat="45.2454" lon="5.74492">
        <ele>748</ele>
        <time>2010-05-09T07:39:59Z</time>
      </trkpt>
      <trkpt lat="45.24541" lon="5.7449">
        <ele>748</ele>
        <time>2010-05-09T07:40:00Z</time>
      </trkpt>
      <trkpt lat="45.24543" lon="5.74486">
        <ele>748</ele>
        <time>2010-05-09T07:40:01Z</time>
      </trkpt>
      <trkpt lat="45.24545" lon="5.74482">
        <ele>747</ele>
        <time>2010-05-09T07:40:02Z</time>
      </trkpt>
      <trkpt lat="45.24548" lon="5.74479">
        <ele>746</ele>
        <time>2010-05-09T07:40:03Z</time>
      </trkpt>
      <trkpt lat="45.24551" lon="5.74477">
        <ele>745</ele>
        <time>2010-05-09T07:40:04Z</time>
      </trkpt>
      <trkpt lat="45.24554" lon="5.74475">
        <ele>744</ele>
        <time>2010-05-09T07:40:05Z</time>
      </trkpt>
      <trkpt lat="45.24558" lon="5.74473">
        <ele>743</ele>
        <time>2010-05-09T07:40:06Z</time>
      </trkpt>
      <trkpt lat="45.24561" lon="5.7447">
        <ele>742</ele>
        <time>2010-05-09T07:40:07Z</time>
      </trkpt>
      <trkpt lat="45.24565" lon="5.74467">
        <ele>741</ele>
        <time>2010-05-09T07:40:08Z</time>
      </trkpt>
      <trkpt lat="45.24568" lon="5.74464">
        <ele>740</ele>
        <time>2010-05-09T07:40:09Z</time>
      </trkpt>
      <trkpt lat="45.24572" lon="5.74462">
        <ele>739</ele>
        <time>2010-05-09T07:40:10Z</time>
      </trkpt>
      <trkpt lat="45.24577" lon="5.7446">
        <ele>738</ele>
        <time>2010-05-09T07:40:11Z</time>
      </trkpt>
      <trkpt lat="45.24581" lon="5.74458">
        <ele>737</ele>
        <time>2010-05-09T07:40:12Z</time>
      </trkpt>
      <trkpt lat="45.24583" lon="5.74455">
        <ele>736</ele>
        <time>2010-05-09T07:40:13Z</time>
      </trkpt>
      <trkpt lat="45.24586" lon="5.74452">
        <ele>735</ele>
        <time>2010-05-09T07:40:14Z</time>
      </trkpt>
      <trkpt lat="45.24589" lon="5.7445">
        <ele>734</ele>
        <time>2010-05-09T07:40:15Z</time>
      </trkpt>
      <trkpt lat="45.24592" lon="5.74447">
        <ele>733</ele>
        <time>2010-05-09T07:40:16Z</time>
      </trkpt>
      <trkpt lat="45.24596" lon="5.74444">
        <ele>732</ele>
        <time>2010-05-09T07:40:17Z</time>
      </trkpt>
      <trkpt lat="45.24599" lon="5.74442">
        <ele>731</ele>
        <time>2010-05-09T07:40:18Z</time>
      </trkpt>
      <trkpt lat="45.24603" lon="5.7444">
        <ele>730</ele>
        <time>2010-05-09T07:40:19Z</time>
      </trkpt>
      <trkpt lat="45.24606" lon="5.74437">
        <ele>729</ele>
        <time>2010-05-09T07:40:20Z</time>
      </trkpt>
      <trkpt lat="45.2461" lon="5.74435">
        <ele>728</ele>
        <time>2010-05-09T07:40:21Z</time>
      </trkpt>
      <trkpt lat="45.24613" lon="5.74432">
        <ele>727</ele>
        <time>2010-05-09T07:40:22Z</time>
      </trkpt>
      <trkpt lat="45.24615" lon="5.74429">
        <ele>726</ele>
        <time>2010-05-09T07:40:23Z</time>
      </trkpt>
      <trkpt lat="45.24618" lon="5.74426">
        <ele>725</ele>
        <time>2010-05-09T07:40:24Z</time>
      </trkpt>
      <trkpt lat="45.24621" lon="5.74423">
        <ele>724</ele>
        <time>2010-05-09T07:40:25Z</time>
      </trkpt>
      <trkpt lat="45.24624" lon="5.74419">
        <ele>723</ele>
        <time>2010-05-09T07:40:26Z</time>
      </trkpt>
      <trkpt lat="45.24627" lon="5.74415">
        <ele>722</ele>
        <time>2010-05-09T07:40:27Z</time>
      </trkpt>
      <trkpt lat="45.2463" lon="5.74411">
        <ele>722</ele>
        <time>2010-05-09T07:40:28Z</time>
      </trkpt>
      <trkpt lat="45.24633" lon="5.74406">
        <ele>721</ele>
        <time>2010-05-09T07:40:29Z</time>
      </trkpt>
      <trkpt lat="45.24635" lon="5.74403">
        <ele>721</ele>
        <time>2010-05-09T07:40:30Z</time>
      </trkpt>
      <trkpt lat="45.24635" lon="5.744">
        <ele>721</ele>
        <time>2010-05-09T07:40:31Z</time>
      </trkpt>
      <trkpt lat="45.24635" lon="5.74397">
        <ele>720</ele>
        <time>2010-05-09T07:40:32Z</time>
      </trkpt>
      <trkpt lat="45.24634" lon="5.74394">
        <ele>720</ele>
        <time>2010-05-09T07:40:33Z</time>
      </trkpt>
      <trkpt lat="45.24633" lon="5.74391">
        <ele>719</ele>
        <time>2010-05-09T07:40:34Z</time>
      </trkpt>
      <trkpt lat="45.24632" lon="5.74388">
        <ele>718</ele>
        <time>2010-05-09T07:40:35Z</time>
      </trkpt>
      <trkpt lat="45.24632" lon="5.74384">
        <ele>717</ele>
        <time>2010-05-09T07:40:36Z</time>
      </trkpt>
      <trkpt lat="45.24633" lon="5.7438">
        <ele>716</ele>
        <time>2010-05-09T07:40:37Z</time>
      </trkpt>
      <trkpt lat="45.24633" lon="5.74376">
        <ele>715</ele>
        <time>2010-05-09T07:40:38Z</time>
      </trkpt>
      <trkpt lat="45.24634" lon="5.74371">
        <ele>714</ele>
        <time>2010-05-09T07:40:39Z</time>
      </trkpt>
      <trkpt lat="45.24634" lon="5.74367">
        <ele>713</ele>
        <time>2010-05-09T07:40:40Z</time>
      </trkpt>
      <trkpt lat="45.24634" lon="5.74364">
        <ele>712</ele>
        <time>2010-05-09T07:40:41Z</time>
      </trkpt>
      <trkpt lat="45.24635" lon="5.74361">
        <ele>711</ele>
        <time>2010-05-09T07:40:42Z</time>
      </trkpt>
      <trkpt lat="45.24636" lon="5.74359">
        <ele>710</ele>
        <time>2010-05-09T07:40:43Z</time>
      </trkpt>
      <trkpt lat="45.24637" lon="5.74356">
        <ele>709</ele>
        <time>2010-05-09T07:40:44Z</time>
      </trkpt>
      <trkpt lat="45.24638" lon="5.74353">
        <ele>708</ele>
        <time>2010-05-09T07:40:45Z</time>
      </trkpt>
      <trkpt lat="45.24638" lon="5.7435">
        <ele>707</ele>
        <time>2010-05-09T07:40:46Z</time>
      </trkpt>
      <trkpt lat="45.24639" lon="5.74348">
        <ele>706</ele>
        <time>2010-05-09T07:40:47Z</time>
      </trkpt>
      <trkpt lat="45.2464" lon="5.74346">
        <ele>705</ele>
        <time>2010-05-09T07:40:48Z</time>
      </trkpt>
      <trkpt lat="45.24641" lon="5.74344">
        <ele>704</ele>
        <time>2010-05-09T07:40:49Z</time>
      </trkpt>
      <trkpt lat="45.24642" lon="5.7434">
        <ele>703</ele>
        <time>2010-05-09T07:40:50Z</time>
      </trkpt>
      <trkpt lat="45.24643" lon="5.74337">
        <ele>702</ele>
        <time>2010-05-09T07:40:51Z</time>
      </trkpt>
      <trkpt lat="45.24643" lon="5.74334">
        <ele>701</ele>
        <time>2010-05-09T07:40:52Z</time>
      </trkpt>
      <trkpt lat="45.24644" lon="5.7433">
        <ele>700</ele>
        <time>2010-05-09T07:40:53Z</time>
      </trkpt>
      <trkpt lat="45.24645" lon="5.74326">
        <ele>699</ele>
        <time>2010-05-09T07:40:54Z</time>
      </trkpt>
      <trkpt lat="45.24647" lon="5.74324">
        <ele>698</ele>
        <time>2010-05-09T07:40:55Z</time>
      </trkpt>
      <trkpt lat="45.24648" lon="5.74321">
        <ele>697</ele>
        <time>2010-05-09T07:40:56Z</time>
      </trkpt>
      <trkpt lat="45.2465" lon="5.74318">
        <ele>697</ele>
        <time>2010-05-09T07:40:57Z</time>
      </trkpt>
      <trkpt lat="45.24651" lon="5.74315">
        <ele>696</ele>
        <time>2010-05-09T07:40:58Z</time>
      </trkpt>
      <trkpt lat="45.24651" lon="5.74312">
        <ele>695</ele>
        <time>2010-05-09T07:40:59Z</time>
      </trkpt>
      <trkpt lat="45.24652" lon="5.74309">
        <ele>694</ele>
        <time>2010-05-09T07:41:00Z</time>
      </trkpt>
      <trkpt lat="45.24652" lon="5.74305">
        <ele>694</ele>
        <time>2010-05-09T07:41:01Z</time>
      </trkpt>
      <trkpt lat="45.24653" lon="5.74301">
        <ele>693</ele>
        <time>2010-05-09T07:41:02Z</time>
      </trkpt>
      <trkpt lat="45.24653" lon="5.74298">
        <ele>693</ele>
        <time>2010-05-09T07:41:03Z</time>
      </trkpt>
      <trkpt lat="45.24653" lon="5.74295">
        <ele>692</ele>
        <time>2010-05-09T07:41:04Z</time>
      </trkpt>
      <trkpt lat="45.24653" lon="5.74292">
        <ele>692</ele>
        <time>2010-05-09T07:41:05Z</time>
      </trkpt>
      <trkpt lat="45.24652" lon="5.74288">
        <ele>691</ele>
        <time>2010-05-09T07:41:06Z</time>
      </trkpt>
      <trkpt lat="45.24652" lon="5.74285">
        <ele>690</ele>
        <time>2010-05-09T07:41:07Z</time>
      </trkpt>
      <trkpt lat="45.24654" lon="5.74279">
        <ele>689</ele>
        <time>2010-05-09T07:41:08Z</time>
      </trkpt>
      <trkpt lat="45.24654" lon="5.74275">
        <ele>689</ele>
        <time>2010-05-09T07:41:09Z</time>
      </trkpt>
      <trkpt lat="45.24654" lon="5.74272">
        <ele>689</ele>
        <time>2010-05-09T07:41:10Z</time>
      </trkpt>
      <trkpt lat="45.24653" lon="5.74269">
        <ele>689</ele>
        <time>2010-05-09T07:41:11Z</time>
      </trkpt>
      <trkpt lat="45.24652" lon="5.74265">
        <ele>688</ele>
        <time>2010-05-09T07:41:12Z</time>
      </trkpt>
      <trkpt lat="45.24651" lon="5.74262">
        <ele>687</ele>
        <time>2010-05-09T07:41:13Z</time>
      </trkpt>
      <trkpt lat="45.24651" lon="5.74259">
        <ele>686</ele>
        <time>2010-05-09T07:41:14Z</time>
      </trkpt>
      <trkpt lat="45.2465" lon="5.74256">
        <ele>685</ele>
        <time>2010-05-09T07:41:15Z</time>
      </trkpt>
      <trkpt lat="45.2465" lon="5.74252">
        <ele>684</ele>
        <time>2010-05-09T07:41:16Z</time>
      </trkpt>
      <trkpt lat="45.2465" lon="5.74248">
        <ele>683</ele>
        <time>2010-05-09T07:41:17Z</time>
      </trkpt>
      <trkpt lat="45.2465" lon="5.74244">
        <ele>682</ele>
        <time>2010-05-09T07:41:18Z</time>
      </trkpt>
      <trkpt lat="45.2465" lon="5.74241">
        <ele>681</ele>
        <time>2010-05-09T07:41:19Z</time>
      </trkpt>
      <trkpt lat="45.24651" lon="5.74238">
        <ele>680</ele>
        <time>2010-05-09T07:41:20Z</time>
      </trkpt>
      <trkpt lat="45.24652" lon="5.74233">
        <ele>679</ele>
        <time>2010-05-09T07:41:21Z</time>
      </trkpt>
      <trkpt lat="45.24653" lon="5.74229">
        <ele>678</ele>
        <time>2010-05-09T07:41:22Z</time>
      </trkpt>
      <trkpt lat="45.24655" lon="5.74226">
        <ele>677</ele>
        <time>2010-05-09T07:41:23Z</time>
      </trkpt>
      <trkpt lat="45.24657" lon="5.74222">
        <ele>676</ele>
        <time>2010-05-09T07:41:24Z</time>
      </trkpt>
      <trkpt lat="45.24658" lon="5.74217">
        <ele>675</ele>
        <time>2010-05-09T07:41:25Z</time>
      </trkpt>
      <trkpt lat="45.24659" lon="5.74214">
        <ele>674</ele>
        <time>2010-05-09T07:41:26Z</time>
      </trkpt>
      <trkpt lat="45.24659" lon="5.74211">
        <ele>673</ele>
        <time>2010-05-09T07:41:27Z</time>
      </trkpt>
      <trkpt lat="45.24659" lon="5.74207">
        <ele>672</ele>
        <time>2010-05-09T07:41:28Z</time>
      </trkpt>
      <trkpt lat="45.24659" lon="5.74204">
        <ele>671</ele>
        <time>2010-05-09T07:41:29Z</time>
      </trkpt>
      <trkpt lat="45.2466" lon="5.742">
        <ele>670</ele>
        <time>2010-05-09T07:41:30Z</time>
      </trkpt>
      <trkpt lat="45.2466" lon="5.74196">
        <ele>669</ele>
        <time>2010-05-09T07:41:31Z</time>
      </trkpt>
      <trkpt lat="45.2466" lon="5.74192">
        <ele>667</ele>
        <time>2010-05-09T07:41:32Z</time>
      </trkpt>
      <trkpt lat="45.2466" lon="5.74189">
        <ele>666</ele>
        <time>2010-05-09T07:41:33Z</time>
      </trkpt>
      <trkpt lat="45.2466" lon="5.74184">
        <ele>665</ele>
        <time>2010-05-09T07:41:34Z</time>
      </trkpt>
      <trkpt lat="45.24662" lon="5.7418">
        <ele>663</ele>
        <time>2010-05-09T07:41:35Z</time>
      </trkpt>
      <trkpt lat="45.24662" lon="5.74177">
        <ele>662</ele>
        <time>2010-05-09T07:41:36Z</time>
      </trkpt>
      <trkpt lat="45.24663" lon="5.74173">
        <ele>660</ele>
        <time>2010-05-09T07:41:37Z</time>
      </trkpt>
      <trkpt lat="45.24665" lon="5.74168">
        <ele>659</ele>
        <time>2010-05-09T07:41:38Z</time>
      </trkpt>
      <trkpt lat="45.24666" lon="5.74165">
        <ele>658</ele>
        <time>2010-05-09T07:41:39Z</time>
      </trkpt>
      <trkpt lat="45.24667" lon="5.74163">
        <ele>657</ele>
        <time>2010-05-09T07:41:40Z</time>
      </trkpt>
      <trkpt lat="45.2467" lon="5.74161">
        <ele>656</ele>
        <time>2010-05-09T07:41:41Z</time>
      </trkpt>
      <trkpt lat="45.24673" lon="5.74159">
        <ele>655</ele>
        <time>2010-05-09T07:41:42Z</time>
      </trkpt>
      <trkpt lat="45.24676" lon="5.74157">
        <ele>654</ele>
        <time>2010-05-09T07:41:43Z</time>
      </trkpt>
      <trkpt lat="45.24678" lon="5.74155">
        <ele>653</ele>
        <time>2010-05-09T07:41:44Z</time>
      </trkpt>
      <trkpt lat="45.2468" lon="5.74153">
        <ele>652</ele>
        <time>2010-05-09T07:41:45Z</time>
      </trkpt>
      <trkpt lat="45.24681" lon="5.7415">
        <ele>651</ele>
        <time>2010-05-09T07:41:46Z</time>
      </trkpt>
      <trkpt lat="45.24684" lon="5.74147">
        <ele>650</ele>
        <time>2010-05-09T07:41:47Z</time>
      </trkpt>
      <trkpt lat="45.24686" lon="5.74144">
        <ele>650</ele>
        <time>2010-05-09T07:41:48Z</time>
      </trkpt>
      <trkpt lat="45.24687" lon="5.7414">
        <ele>650</ele>
        <time>2010-05-09T07:41:49Z</time>
      </trkpt>
      <trkpt lat="45.24689" lon="5.74138">
        <ele>650</ele>
        <time>2010-05-09T07:41:50Z</time>
      </trkpt>
      <trkpt lat="45.24693" lon="5.74135">
        <ele>650</ele>
        <time>2010-05-09T07:41:51Z</time>
      </trkpt>
      <trkpt lat="45.24696" lon="5.74134">
        <ele>650</ele>
        <time>2010-05-09T07:41:52Z</time>
      </trkpt>
      <trkpt lat="45.24699" lon="5.74133">
        <ele>651</ele>
        <time>2010-05-09T07:41:53Z</time>
      </trkpt>
      <trkpt lat="45.24703" lon="5.74132">
        <ele>652</ele>
        <time>2010-05-09T07:41:54Z</time>
      </trkpt>
      <trkpt lat="45.24707" lon="5.74131">
        <ele>653</ele>
        <time>2010-05-09T07:41:55Z</time>
      </trkpt>
      <trkpt lat="45.24712" lon="5.74128">
        <ele>654</ele>
        <time>2010-05-09T07:41:56Z</time>
      </trkpt>
      <trkpt lat="45.24715" lon="5.74126">
        <ele>655</ele>
        <time>2010-05-09T07:41:57Z</time>
      </trkpt>
      <trkpt lat="45.2472" lon="5.74124">
        <ele>656</ele>
        <time>2010-05-09T07:41:58Z</time>
      </trkpt>
      <trkpt lat="45.24725" lon="5.74124">
        <ele>657</ele>
        <time>2010-05-09T07:41:59Z</time>
      </trkpt>
      <trkpt lat="45.24729" lon="5.74123">
        <ele>657</ele>
        <time>2010-05-09T07:42:00Z</time>
      </trkpt>
      <trkpt lat="45.24733" lon="5.74123">
        <ele>657</ele>
        <time>2010-05-09T07:42:01Z</time>
      </trkpt>
      <trkpt lat="45.24738" lon="5.74123">
        <ele>657</ele>
        <time>2010-05-09T07:42:02Z</time>
      </trkpt>
      <trkpt lat="45.24742" lon="5.74123">
        <ele>657</ele>
        <time>2010-05-09T07:42:03Z</time>
      </trkpt>
      <trkpt lat="45.24746" lon="5.74122">
        <ele>657</ele>
        <time>2010-05-09T07:42:04Z</time>
      </trkpt>
      <trkpt lat="45.24749" lon="5.7412">
        <ele>657</ele>
        <time>2010-05-09T07:42:05Z</time>
      </trkpt>
      <trkpt lat="45.24753" lon="5.7412">
        <ele>657</ele>
        <time>2010-05-09T07:42:06Z</time>
      </trkpt>
      <trkpt lat="45.24758" lon="5.7412">
        <ele>657</ele>
        <time>2010-05-09T07:42:07Z</time>
      </trkpt>
      <trkpt lat="45.24762" lon="5.74118">
        <ele>656</ele>
        <time>2010-05-09T07:42:08Z</time>
      </trkpt>
      <trkpt lat="45.24765" lon="5.74118">
        <ele>655</ele>
        <time>2010-05-09T07:42:09Z</time>
      </trkpt>
      <trkpt lat="45.24768" lon="5.74117">
        <ele>654</ele>
        <time>2010-05-09T07:42:10Z</time>
      </trkpt>
      <trkpt lat="45.24772" lon="5.74116">
        <ele>653</ele>
        <time>2010-05-09T07:42:11Z</time>
      </trkpt>
      <trkpt lat="45.24775" lon="5.74116">
        <ele>652</ele>
        <time>2010-05-09T07:42:12Z</time>
      </trkpt>
      <trkpt lat="45.24778" lon="5.74116">
        <ele>651</ele>
        <time>2010-05-09T07:42:13Z</time>
      </trkpt>
      <trkpt lat="45.24781" lon="5.74116">
        <ele>650</ele>
        <time>2010-05-09T07:42:14Z</time>
      </trkpt>
      <trkpt lat="45.24784" lon="5.74115">
        <ele>649</ele>
        <time>2010-05-09T07:42:15Z</time>
      </trkpt>
      <trkpt lat="45.24788" lon="5.74114">
        <ele>648</ele>
        <time>2010-05-09T07:42:16Z</time>
      </trkpt>
      <trkpt lat="45.24792" lon="5.74113">
        <ele>647</ele>
        <time>2010-05-09T07:42:17Z</time>
      </trkpt>
      <trkpt lat="45.24796" lon="5.74111">
        <ele>646</ele>
        <time>2010-05-09T07:42:18Z</time>
      </trkpt>
      <trkpt lat="45.248" lon="5.74111">
        <ele>645</ele>
        <time>2010-05-09T07:42:19Z</time>
      </trkpt>
      <trkpt lat="45.24804" lon="5.7411">
        <ele>644</ele>
        <time>2010-05-09T07:42:20Z</time>
      </trkpt>
      <trkpt lat="45.24807" lon="5.7411">
        <ele>643</ele>
        <time>2010-05-09T07:42:21Z</time>
      </trkpt>
      <trkpt lat="45.24811" lon="5.7411">
        <ele>642</ele>
        <time>2010-05-09T07:42:22Z</time>
      </trkpt>
      <trkpt lat="45.24815" lon="5.74108">
        <ele>641</ele>
        <time>2010-05-09T07:42:23Z</time>
      </trkpt>
      <trkpt lat="45.24819" lon="5.74107">
        <ele>640</ele>
        <time>2010-05-09T07:42:24Z</time>
      </trkpt>
      <trkpt lat="45.24823" lon="5.74107">
        <ele>639</ele>
        <time>2010-05-09T07:42:25Z</time>
      </trkpt>
      <trkpt lat="45.24826" lon="5.74106">
        <ele>638</ele>
        <time>2010-05-09T07:42:26Z</time>
      </trkpt>
      <trkpt lat="45.24829" lon="5.74103">
        <ele>637</ele>
        <time>2010-05-09T07:42:27Z</time>
      </trkpt>
      <trkpt lat="45.24833" lon="5.74101">
        <ele>636</ele>
        <time>2010-05-09T07:42:28Z</time>
      </trkpt>
      <trkpt lat="45.24837" lon="5.74097">
        <ele>635</ele>
        <time>2010-05-09T07:42:29Z</time>
      </trkpt>
      <trkpt lat="45.24841" lon="5.74093">
        <ele>634</ele>
        <time>2010-05-09T07:42:30Z</time>
      </trkpt>
      <trkpt lat="45.24843" lon="5.74088">
        <ele>633</ele>
        <time>2010-05-09T07:42:31Z</time>
      </trkpt>
      <trkpt lat="45.24846" lon="5.74086">
        <ele>632</ele>
        <time>2010-05-09T07:42:32Z</time>
      </trkpt>
      <trkpt lat="45.24848" lon="5.74082">
        <ele>631</ele>
        <time>2010-05-09T07:42:33Z</time>
      </trkpt>
      <trkpt lat="45.2485" lon="5.74079">
        <ele>629</ele>
        <time>2010-05-09T07:42:34Z</time>
      </trkpt>
      <trkpt lat="45.24853" lon="5.74075">
        <ele>628</ele>
        <time>2010-05-09T07:42:35Z</time>
      </trkpt>
      <trkpt lat="45.24857" lon="5.74072">
        <ele>627</ele>
        <time>2010-05-09T07:42:36Z</time>
      </trkpt>
      <trkpt lat="45.24859" lon="5.74069">
        <ele>626</ele>
        <time>2010-05-09T07:42:37Z</time>
      </trkpt>
      <trkpt lat="45.24862" lon="5.74067">
        <ele>625</ele>
        <time>2010-05-09T07:42:38Z</time>
      </trkpt>
      <trkpt lat="45.24864" lon="5.74063">
        <ele>624</ele>
        <time>2010-05-09T07:42:39Z</time>
      </trkpt>
      <trkpt lat="45.24867" lon="5.74059">
        <ele>623</ele>
        <time>2010-05-09T07:42:40Z</time>
      </trkpt>
      <trkpt lat="45.2487" lon="5.74057">
        <ele>623</ele>
        <time>2010-05-09T07:42:41Z</time>
      </trkpt>
      <trkpt lat="45.24874" lon="5.74056">
        <ele>623</ele>
        <time>2010-05-09T07:42:42Z</time>
      </trkpt>
      <trkpt lat="45.24878" lon="5.74056">
        <ele>623</ele>
        <time>2010-05-09T07:42:43Z</time>
      </trkpt>
      <trkpt lat="45.24879" lon="5.74057">
        <ele>623</ele>
        <time>2010-05-09T07:42:44Z</time>
      </trkpt>
      <trkpt lat="45.24877" lon="5.74061">
        <ele>623</ele>
        <time>2010-05-09T07:42:45Z</time>
      </trkpt>
      <trkpt lat="45.24874" lon="5.74065">
        <ele>622</ele>
        <time>2010-05-09T07:42:46Z</time>
      </trkpt>
      <trkpt lat="45.24873" lon="5.74067">
        <ele>622</ele>
        <time>2010-05-09T07:42:47Z</time>
      </trkpt>
      <trkpt lat="45.2487" lon="5.74072">
        <ele>621</ele>
        <time>2010-05-09T07:42:48Z</time>
      </trkpt>
      <trkpt lat="45.24869" lon="5.74076">
        <ele>620</ele>
        <time>2010-05-09T07:42:49Z</time>
      </trkpt>
      <trkpt lat="45.24867" lon="5.7408">
        <ele>619</ele>
        <time>2010-05-09T07:42:50Z</time>
      </trkpt>
      <trkpt lat="45.24864" lon="5.74085">
        <ele>619</ele>
        <time>2010-05-09T07:42:51Z</time>
      </trkpt>
      <trkpt lat="45.24862" lon="5.7409">
        <ele>619</ele>
        <time>2010-05-09T07:42:52Z</time>
      </trkpt>
      <trkpt lat="45.2486" lon="5.74096">
        <ele>618</ele>
        <time>2010-05-09T07:42:53Z</time>
      </trkpt>
      <trkpt lat="45.24857" lon="5.74102">
        <ele>618</ele>
        <time>2010-05-09T07:42:54Z</time>
      </trkpt>
      <trkpt lat="45.24855" lon="5.74107">
        <ele>617</ele>
        <time>2010-05-09T07:42:55Z</time>
      </trkpt>
      <trkpt lat="45.24852" lon="5.74111">
        <ele>617</ele>
        <time>2010-05-09T07:42:56Z</time>
      </trkpt>
      <trkpt lat="45.2485" lon="5.74117">
        <ele>616</ele>
        <time>2010-05-09T07:42:57Z</time>
      </trkpt>
      <trkpt lat="45.24847" lon="5.74122">
        <ele>615</ele>
        <time>2010-05-09T07:42:58Z</time>
      </trkpt>
      <trkpt lat="45.24845" lon="5.74126">
        <ele>615</ele>
        <time>2010-05-09T07:42:59Z</time>
      </trkpt>
      <trkpt lat="45.24843" lon="5.74131">
        <ele>615</ele>
        <time>2010-05-09T07:43:00Z</time>
      </trkpt>
      <trkpt lat="45.24841" lon="5.74134">
        <ele>614</ele>
        <time>2010-05-09T07:43:01Z</time>
      </trkpt>
      <trkpt lat="45.24839" lon="5.74139">
        <ele>614</ele>
        <time>2010-05-09T07:43:02Z</time>
      </trkpt>
      <trkpt lat="45.24837" lon="5.74144">
        <ele>614</ele>
        <time>2010-05-09T07:43:03Z</time>
      </trkpt>
      <trkpt lat="45.24835" lon="5.74149">
        <ele>614</ele>
        <time>2010-05-09T07:43:04Z</time>
      </trkpt>
      <trkpt lat="45.24832" lon="5.74153">
        <ele>614</ele>
        <time>2010-05-09T07:43:05Z</time>
      </trkpt>
      <trkpt lat="45.24831" lon="5.74157">
        <ele>614</ele>
        <time>2010-05-09T07:43:06Z</time>
      </trkpt>
      <trkpt lat="45.2483" lon="5.74162">
        <ele>613</ele>
        <time>2010-05-09T07:43:07Z</time>
      </trkpt>
      <trkpt lat="45.2483" lon="5.74167">
        <ele>613</ele>
        <time>2010-05-09T07:43:08Z</time>
      </trkpt>
      <trkpt lat="45.24829" lon="5.74171">
        <ele>613</ele>
        <time>2010-05-09T07:43:09Z</time>
      </trkpt>
      <trkpt lat="45.24828" lon="5.74177">
        <ele>613</ele>
        <time>2010-05-09T07:43:10Z</time>
      </trkpt>
      <trkpt lat="45.24827" lon="5.74182">
        <ele>613</ele>
        <time>2010-05-09T07:43:11Z</time>
      </trkpt>
      <trkpt lat="45.24826" lon="5.74188">
        <ele>613</ele>
        <time>2010-05-09T07:43:12Z</time>
      </trkpt>
      <trkpt lat="45.24825" lon="5.74192">
        <ele>613</ele>
        <time>2010-05-09T07:43:13Z</time>
      </trkpt>
      <trkpt lat="45.24825" lon="5.74197">
        <ele>613</ele>
        <time>2010-05-09T07:43:14Z</time>
      </trkpt>
      <trkpt lat="45.24823" lon="5.74202">
        <ele>613</ele>
        <time>2010-05-09T07:43:15Z</time>
      </trkpt>
      <trkpt lat="45.24823" lon="5.74207">
        <ele>613</ele>
        <time>2010-05-09T07:43:16Z</time>
      </trkpt>
      <trkpt lat="45.24823" lon="5.74212">
        <ele>613</ele>
        <time>2010-05-09T07:43:17Z</time>
      </trkpt>
      <trkpt lat="45.24824" lon="5.74215">
        <ele>613</ele>
        <time>2010-05-09T07:43:18Z</time>
      </trkpt>
      <trkpt lat="45.24825" lon="5.74219">
        <ele>613</ele>
        <time>2010-05-09T07:43:19Z</time>
      </trkpt>
      <trkpt lat="45.24826" lon="5.74222">
        <ele>613</ele>
        <time>2010-05-09T07:43:20Z</time>
      </trkpt>
      <trkpt lat="45.24826" lon="5.74226">
        <ele>613</ele>
        <time>2010-05-09T07:43:21Z</time>
      </trkpt>
      <trkpt lat="45.24828" lon="5.74228">
        <ele>613</ele>
        <time>2010-05-09T07:43:22Z</time>
      </trkpt>
      <trkpt lat="45.24829" lon="5.74231">
        <ele>613</ele>
        <time>2010-05-09T07:43:23Z</time>
      </trkpt>
      <trkpt lat="45.24831" lon="5.74233">
        <ele>613</ele>
        <time>2010-05-09T07:43:24Z</time>
      </trkpt>
      <trkpt lat="45.24832" lon="5.74235">
        <ele>613</ele>
        <time>2010-05-09T07:43:25Z</time>
      </trkpt>
      <trkpt lat="45.24833" lon="5.74238">
        <ele>613</ele>
        <time>2010-05-09T07:43:26Z</time>
      </trkpt>
      <trkpt lat="45.24835" lon="5.7424">
        <ele>614</ele>
        <time>2010-05-09T07:43:27Z</time>
      </trkpt>
      <trkpt lat="45.24836" lon="5.74242">
        <ele>615</ele>
        <time>2010-05-09T07:43:28Z</time>
      </trkpt>
      <trkpt lat="45.24837" lon="5.74243">
        <ele>616</ele>
        <time>2010-05-09T07:43:29Z</time>
      </trkpt>
      <trkpt lat="45.24839" lon="5.74246">
        <ele>617</ele>
        <time>2010-05-09T07:43:30Z</time>
      </trkpt>
      <trkpt lat="45.24842" lon="5.74248">
        <ele>618</ele>
        <time>2010-05-09T07:43:31Z</time>
      </trkpt>
      <trkpt lat="45.24844" lon="5.7425">
        <ele>619</ele>
        <time>2010-05-09T07:43:32Z</time>
      </trkpt>
      <trkpt lat="45.24845" lon="5.74252">
        <ele>621</ele>
        <time>2010-05-09T07:43:34Z</time>
      </trkpt>
      <trkpt lat="45.24847" lon="5.74253">
        <ele>624</ele>
        <time>2010-05-09T07:43:36Z</time>
      </trkpt>
      <trkpt lat="45.24848" lon="5.74253">
        <ele>626</ele>
        <time>2010-05-09T07:43:37Z</time>
      </trkpt>
      <trkpt lat="45.2485" lon="5.74252">
        <ele>627</ele>
        <time>2010-05-09T07:43:38Z</time>
      </trkpt>
      <trkpt lat="45.24852" lon="5.74254">
        <ele>628</ele>
        <time>2010-05-09T07:43:39Z</time>
      </trkpt>
      <trkpt lat="45.24853" lon="5.74256">
        <ele>629</ele>
        <time>2010-05-09T07:43:40Z</time>
      </trkpt>
      <trkpt lat="45.24854" lon="5.74258">
        <ele>630</ele>
        <time>2010-05-09T07:43:41Z</time>
      </trkpt>
      <trkpt lat="45.24855" lon="5.7426">
        <ele>631</ele>
        <time>2010-05-09T07:43:42Z</time>
      </trkpt>
      <trkpt lat="45.24856" lon="5.74263">
        <ele>632</ele>
        <time>2010-05-09T07:43:43Z</time>
      </trkpt>
      <trkpt lat="45.24858" lon="5.74266">
        <ele>633</ele>
        <time>2010-05-09T07:43:44Z</time>
      </trkpt>
      <trkpt lat="45.2486" lon="5.74267">
        <ele>634</ele>
        <time>2010-05-09T07:43:45Z</time>
      </trkpt>
      <trkpt lat="45.24862" lon="5.74268">
        <ele>635</ele>
        <time>2010-05-09T07:43:46Z</time>
      </trkpt>
      <trkpt lat="45.24864" lon="5.74268">
        <ele>636</ele>
        <time>2010-05-09T07:43:47Z</time>
      </trkpt>
      <trkpt lat="45.24865" lon="5.74266">
        <ele>637</ele>
        <time>2010-05-09T07:43:48Z</time>
      </trkpt>
      <trkpt lat="45.24867" lon="5.74267">
        <ele>639</ele>
        <time>2010-05-09T07:43:50Z</time>
      </trkpt>
      <trkpt lat="45.24869" lon="5.74268">
        <ele>640</ele>
        <time>2010-05-09T07:43:51Z</time>
      </trkpt>
      <trkpt lat="45.2487" lon="5.74268">
        <ele>641</ele>
        <time>2010-05-09T07:43:52Z</time>
      </trkpt>
      <trkpt lat="45.24871" lon="5.74267">
        <ele>642</ele>
        <time>2010-05-09T07:43:53Z</time>
      </trkpt>
      <trkpt lat="45.24873" lon="5.74266">
        <ele>643</ele>
        <time>2010-05-09T07:43:54Z</time>
      </trkpt>
      <trkpt lat="45.24874" lon="5.74264">
        <ele>644</ele>
        <time>2010-05-09T07:43:55Z</time>
      </trkpt>
      <trkpt lat="45.24875" lon="5.74263">
        <ele>645</ele>
        <time>2010-05-09T07:43:56Z</time>
      </trkpt>
      <trkpt lat="45.24877" lon="5.74263">
        <ele>647</ele>
        <time>2010-05-09T07:43:58Z</time>
      </trkpt>
      <trkpt lat="45.24878" lon="5.74264">
        <ele>648</ele>
        <time>2010-05-09T07:43:59Z</time>
      </trkpt>
      <trkpt lat="45.2488" lon="5.74265">
        <ele>650</ele>
        <time>2010-05-09T07:44:01Z</time>
      </trkpt>
      <trkpt lat="45.2488" lon="5.74267">
        <ele>650</ele>
        <time>2010-05-09T07:44:02Z</time>
      </trkpt>
      <trkpt lat="45.24882" lon="5.74267">
        <ele>650</ele>
        <time>2010-05-09T07:44:04Z</time>
      </trkpt>
      <trkpt lat="45.24884" lon="5.74267">
        <ele>650</ele>
        <time>2010-05-09T07:44:05Z</time>
      </trkpt>
      <trkpt lat="45.24885" lon="5.74267">
        <ele>650</ele>
        <time>2010-05-09T07:44:06Z</time>
      </trkpt>
      <trkpt lat="45.24886" lon="5.74267">
        <ele>650</ele>
        <time>2010-05-09T07:44:07Z</time>
      </trkpt>
      <trkpt lat="45.24888" lon="5.74268">
        <ele>650</ele>
        <time>2010-05-09T07:44:09Z</time>
      </trkpt>
      <trkpt lat="45.2489" lon="5.74269">
        <ele>650</ele>
        <time>2010-05-09T07:44:11Z</time>
      </trkpt>
      <trkpt lat="45.24892" lon="5.74271">
        <ele>648</ele>
        <time>2010-05-09T07:44:13Z</time>
      </trkpt>
      <trkpt lat="45.24893" lon="5.74272">
        <ele>647</ele>
        <time>2010-05-09T07:44:14Z</time>
      </trkpt>
      <trkpt lat="45.24895" lon="5.74272">
        <ele>645</ele>
        <time>2010-05-09T07:44:16Z</time>
      </trkpt>
      <trkpt lat="45.24897" lon="5.74272">
        <ele>643</ele>
        <time>2010-05-09T07:44:18Z</time>
      </trkpt>
      <trkpt lat="45.24899" lon="5.74272">
        <ele>642</ele>
        <time>2010-05-09T07:44:19Z</time>
      </trkpt>
      <trkpt lat="45.249" lon="5.74271">
        <ele>642</ele>
        <time>2010-05-09T07:44:20Z</time>
      </trkpt>
      <trkpt lat="45.24902" lon="5.74271">
        <ele>641</ele>
        <time>2010-05-09T07:44:22Z</time>
      </trkpt>
      <trkpt lat="45.24904" lon="5.74271">
        <ele>641</ele>
        <time>2010-05-09T07:44:24Z</time>
      </trkpt>
      <trkpt lat="45.24905" lon="5.7427">
        <ele>641</ele>
        <time>2010-05-09T07:44:25Z</time>
      </trkpt>
      <trkpt lat="45.24907" lon="5.74271">
        <ele>640</ele>
        <time>2010-05-09T07:44:26Z</time>
      </trkpt>
      <trkpt lat="45.24909" lon="5.7427">
        <ele>640</ele>
        <time>2010-05-09T07:44:28Z</time>
      </trkpt>
      <trkpt lat="45.2491" lon="5.7427">
        <ele>640</ele>
        <time>2010-05-09T07:44:29Z</time>
      </trkpt>
      <trkpt lat="45.24913" lon="5.74269">
        <ele>640</ele>
        <time>2010-05-09T07:44:31Z</time>
      </trkpt>
      <trkpt lat="45.24914" lon="5.74268">
        <ele>640</ele>
        <time>2010-05-09T07:44:32Z</time>
      </trkpt>
      <trkpt lat="45.24915" lon="5.74268">
        <ele>640</ele>
        <time>2010-05-09T07:44:33Z</time>
      </trkpt>
      <trkpt lat="45.24916" lon="5.74268">
        <ele>640</ele>
        <time>2010-05-09T07:44:34Z</time>
      </trkpt>
      <trkpt lat="45.24918" lon="5.74267">
        <ele>640</ele>
        <time>2010-05-09T07:44:36Z</time>
      </trkpt>
      <trkpt lat="45.2492" lon="5.74266">
        <ele>640</ele>
        <time>2010-05-09T07:44:37Z</time>
      </trkpt>
      <trkpt lat="45.24921" lon="5.74265">
        <ele>640</ele>
        <time>2010-05-09T07:44:38Z</time>
      </trkpt>
      <trkpt lat="45.24923" lon="5.74266">
        <ele>640</ele>
        <time>2010-05-09T07:44:39Z</time>
      </trkpt>
      <trkpt lat="45.24924" lon="5.74266">
        <ele>640</ele>
        <time>2010-05-09T07:44:40Z</time>
      </trkpt>
      <trkpt lat="45.24926" lon="5.74267">
        <ele>640</ele>
        <time>2010-05-09T07:44:41Z</time>
      </trkpt>
      <trkpt lat="45.24927" lon="5.74267">
        <ele>640</ele>
        <time>2010-05-09T07:44:42Z</time>
      </trkpt>
      <trkpt lat="45.24928" lon="5.74268">
        <ele>640</ele>
        <time>2010-05-09T07:44:43Z</time>
      </trkpt>
      <trkpt lat="45.2493" lon="5.74268">
        <ele>640</ele>
        <time>2010-05-09T07:44:45Z</time>
      </trkpt>
      <trkpt lat="45.24931" lon="5.74269">
        <ele>640</ele>
        <time>2010-05-09T07:44:46Z</time>
      </trkpt>
      <trkpt lat="45.24932" lon="5.74269">
        <ele>640</ele>
        <time>2010-05-09T07:44:47Z</time>
      </trkpt>
      <trkpt lat="45.24934" lon="5.7427">
        <ele>640</ele>
        <time>2010-05-09T07:44:49Z</time>
      </trkpt>
      <trkpt lat="45.24937" lon="5.74269">
        <ele>640</ele>
        <time>2010-05-09T07:44:51Z</time>
      </trkpt>
      <trkpt lat="45.24938" lon="5.74269">
        <ele>640</ele>
        <time>2010-05-09T07:44:52Z</time>
      </trkpt>
      <trkpt lat="45.24939" lon="5.74269">
        <ele>640</ele>
        <time>2010-05-09T07:44:53Z</time>
      </trkpt>
      <trkpt lat="45.2494" lon="5.74268">
        <ele>640</ele>
        <time>2010-05-09T07:44:54Z</time>
      </trkpt>
      <trkpt lat="45.24942" lon="5.74268">
        <ele>640</ele>
        <time>2010-05-09T07:44:55Z</time>
      </trkpt>
      <trkpt lat="45.24943" lon="5.74268">
        <ele>640</ele>
        <time>2010-05-09T07:44:56Z</time>
      </trkpt>
      <trkpt lat="45.24944" lon="5.74267">
        <ele>640</ele>
        <time>2010-05-09T07:44:57Z</time>
      </trkpt>
      <trkpt lat="45.24946" lon="5.74266">
        <ele>640</ele>
        <time>2010-05-09T07:44:59Z</time>
      </trkpt>
      <trkpt lat="45.24949" lon="5.74263">
        <ele>640</ele>
        <time>2010-05-09T07:45:01Z</time>
      </trkpt>
      <trkpt lat="45.24951" lon="5.74263">
        <ele>641</ele>
        <time>2010-05-09T07:45:03Z</time>
      </trkpt>
      <trkpt lat="45.24952" lon="5.74262">
        <ele>641</ele>
        <time>2010-05-09T07:45:04Z</time>
      </trkpt>
      <trkpt lat="45.24953" lon="5.74262">
        <ele>642</ele>
        <time>2010-05-09T07:45:05Z</time>
      </trkpt>
      <trkpt lat="45.24955" lon="5.74261">
        <ele>642</ele>
        <time>2010-05-09T07:45:07Z</time>
      </trkpt>
      <trkpt lat="45.24956" lon="5.74261">
        <ele>642</ele>
        <time>2010-05-09T07:45:08Z</time>
      </trkpt>
      <trkpt lat="45.24957" lon="5.7426">
        <ele>642</ele>
        <time>2010-05-09T07:45:10Z</time>
      </trkpt>
      <trkpt lat="45.24958" lon="5.74259">
        <ele>642</ele>
        <time>2010-05-09T07:45:11Z</time>
      </trkpt>
      <trkpt lat="45.2496" lon="5.74258">
        <ele>643</ele>
        <time>2010-05-09T07:45:12Z</time>
      </trkpt>
      <trkpt lat="45.24961" lon="5.74258">
        <ele>643</ele>
        <time>2010-05-09T07:45:13Z</time>
      </trkpt>
      <trkpt lat="45.24963" lon="5.74255">
        <ele>644</ele>
        <time>2010-05-09T07:45:15Z</time>
      </trkpt>
      <trkpt lat="45.24965" lon="5.74255">
        <ele>645</ele>
        <time>2010-05-09T07:45:16Z</time>
      </trkpt>
      <trkpt lat="45.24967" lon="5.74254">
        <ele>646</ele>
        <time>2010-05-09T07:45:18Z</time>
      </trkpt>
      <trkpt lat="45.24968" lon="5.74253">
        <ele>647</ele>
        <time>2010-05-09T07:45:19Z</time>
      </trkpt>
      <trkpt lat="45.24969" lon="5.74252">
        <ele>647</ele>
        <time>2010-05-09T07:45:20Z</time>
      </trkpt>
      <trkpt lat="45.24971" lon="5.7425">
        <ele>647</ele>
        <time>2010-05-09T07:45:22Z</time>
      </trkpt>
      <trkpt lat="45.24973" lon="5.74249">
        <ele>648</ele>
        <time>2010-05-09T07:45:23Z</time>
      </trkpt>
      <trkpt lat="45.24975" lon="5.74247">
        <ele>648</ele>
        <time>2010-05-09T07:45:25Z</time>
      </trkpt>
      <trkpt lat="45.24977" lon="5.74245">
        <ele>648</ele>
        <time>2010-05-09T07:45:27Z</time>
      </trkpt>
      <trkpt lat="45.24978" lon="5.74244">
        <ele>648</ele>
        <time>2010-05-09T07:45:28Z</time>
      </trkpt>
      <trkpt lat="45.24979" lon="5.74243">
        <ele>648</ele>
        <time>2010-05-09T07:45:29Z</time>
      </trkpt>
      <trkpt lat="45.24982" lon="5.7424">
        <ele>648</ele>
        <time>2010-05-09T07:45:31Z</time>
      </trkpt>
      <trkpt lat="45.24984" lon="5.74238">
        <ele>648</ele>
        <time>2010-05-09T07:45:33Z</time>
      </trkpt>
      <trkpt lat="45.24985" lon="5.74237">
        <ele>648</ele>
        <time>2010-05-09T07:45:34Z</time>
      </trkpt>
      <trkpt lat="45.24986" lon="5.74236">
        <ele>648</ele>
        <time>2010-05-09T07:45:35Z</time>
      </trkpt>
      <trkpt lat="45.24987" lon="5.74235">
        <ele>648</ele>
        <time>2010-05-09T07:45:36Z</time>
      </trkpt>
      <trkpt lat="45.24989" lon="5.74233">
        <ele>648</ele>
        <time>2010-05-09T07:45:38Z</time>
      </trkpt>
      <trkpt lat="45.24991" lon="5.74231">
        <ele>648</ele>
        <time>2010-05-09T07:45:40Z</time>
      </trkpt>
      <trkpt lat="45.24993" lon="5.74231">
        <ele>648</ele>
        <time>2010-05-09T07:45:41Z</time>
      </trkpt>
      <trkpt lat="45.24994" lon="5.7423">
        <ele>649</ele>
        <time>2010-05-09T07:45:42Z</time>
      </trkpt>
      <trkpt lat="45.24996" lon="5.74228">
        <ele>649</ele>
        <time>2010-05-09T07:45:43Z</time>
      </trkpt>
      <trkpt lat="45.24997" lon="5.74227">
        <ele>650</ele>
        <time>2010-05-09T07:45:44Z</time>
      </trkpt>
      <trkpt lat="45.24999" lon="5.74226">
        <ele>650</ele>
        <time>2010-05-09T07:45:45Z</time>
      </trkpt>
      <trkpt lat="45.25001" lon="5.74224">
        <ele>651</ele>
        <time>2010-05-09T07:45:46Z</time>
      </trkpt>
      <trkpt lat="45.25003" lon="5.74224">
        <ele>651</ele>
        <time>2010-05-09T07:45:47Z</time>
      </trkpt>
      <trkpt lat="45.25005" lon="5.74224">
        <ele>652</ele>
        <time>2010-05-09T07:45:48Z</time>
      </trkpt>
      <trkpt lat="45.25007" lon="5.74224">
        <ele>652</ele>
        <time>2010-05-09T07:45:49Z</time>
      </trkpt>
      <trkpt lat="45.25009" lon="5.74224">
        <ele>653</ele>
        <time>2010-05-09T07:45:50Z</time>
      </trkpt>
      <trkpt lat="45.25011" lon="5.74224">
        <ele>653</ele>
        <time>2010-05-09T07:45:51Z</time>
      </trkpt>
      <trkpt lat="45.25013" lon="5.74224">
        <ele>653</ele>
        <time>2010-05-09T07:45:52Z</time>
      </trkpt>
      <trkpt lat="45.25015" lon="5.74224">
        <ele>654</ele>
        <time>2010-05-09T07:45:53Z</time>
      </trkpt>
      <trkpt lat="45.25018" lon="5.74224">
        <ele>654</ele>
        <time>2010-05-09T07:45:54Z</time>
      </trkpt>
      <trkpt lat="45.25019" lon="5.74224">
        <ele>655</ele>
        <time>2010-05-09T07:45:55Z</time>
      </trkpt>
      <trkpt lat="45.25021" lon="5.74224">
        <ele>656</ele>
        <time>2010-05-09T07:45:56Z</time>
      </trkpt>
      <trkpt lat="45.25023" lon="5.74226">
        <ele>657</ele>
        <time>2010-05-09T07:45:57Z</time>
      </trkpt>
      <trkpt lat="45.25024" lon="5.74226">
        <ele>657</ele>
        <time>2010-05-09T07:45:58Z</time>
      </trkpt>
      <trkpt lat="45.25026" lon="5.74227">
        <ele>658</ele>
        <time>2010-05-09T07:45:59Z</time>
      </trkpt>
      <trkpt lat="45.25027" lon="5.74228">
        <ele>658</ele>
        <time>2010-05-09T07:46:00Z</time>
      </trkpt>
      <trkpt lat="45.25029" lon="5.74229">
        <ele>658</ele>
        <time>2010-05-09T07:46:01Z</time>
      </trkpt>
      <trkpt lat="45.2503" lon="5.74231">
        <ele>658</ele>
        <time>2010-05-09T07:46:02Z</time>
      </trkpt>
      <trkpt lat="45.25032" lon="5.74233">
        <ele>658</ele>
        <time>2010-05-09T07:46:03Z</time>
      </trkpt>
      <trkpt lat="45.25033" lon="5.74234">
        <ele>658</ele>
        <time>2010-05-09T07:46:04Z</time>
      </trkpt>
      <trkpt lat="45.25035" lon="5.74236">
        <ele>659</ele>
        <time>2010-05-09T07:46:06Z</time>
      </trkpt>
      <trkpt lat="45.25037" lon="5.74237">
        <ele>659</ele>
        <time>2010-05-09T07:46:07Z</time>
      </trkpt>
      <trkpt lat="45.25038" lon="5.74238">
        <ele>660</ele>
        <time>2010-05-09T07:46:08Z</time>
      </trkpt>
      <trkpt lat="45.2504" lon="5.7424">
        <ele>660</ele>
        <time>2010-05-09T07:46:10Z</time>
      </trkpt>
      <trkpt lat="45.25042" lon="5.74242">
        <ele>661</ele>
        <time>2010-05-09T07:46:11Z</time>
      </trkpt>
      <trkpt lat="45.25044" lon="5.74242">
        <ele>661</ele>
        <time>2010-05-09T07:46:12Z</time>
      </trkpt>
      <trkpt lat="45.25046" lon="5.74244">
        <ele>661</ele>
        <time>2010-05-09T07:46:13Z</time>
      </trkpt>
      <trkpt lat="45.25048" lon="5.74245">
        <ele>661</ele>
        <time>2010-05-09T07:46:14Z</time>
      </trkpt>
      <trkpt lat="45.2505" lon="5.74245">
        <ele>661</ele>
        <time>2010-05-09T07:46:15Z</time>
      </trkpt>
      <trkpt lat="45.25051" lon="5.74245">
        <ele>661</ele>
        <time>2010-05-09T07:46:16Z</time>
      </trkpt>
      <trkpt lat="45.25053" lon="5.74244">
        <ele>661</ele>
        <time>2010-05-09T07:46:17Z</time>
      </trkpt>
      <trkpt lat="45.25055" lon="5.74244">
        <ele>662</ele>
        <time>2010-05-09T07:46:18Z</time>
      </trkpt>
      <trkpt lat="45.25057" lon="5.74244">
        <ele>663</ele>
        <time>2010-05-09T07:46:19Z</time>
      </trkpt>
      <trkpt lat="45.25059" lon="5.74244">
        <ele>664</ele>
        <time>2010-05-09T07:46:20Z</time>
      </trkpt>
      <trkpt lat="45.25062" lon="5.74245">
        <ele>665</ele>
        <time>2010-05-09T07:46:21Z</time>
      </trkpt>
      <trkpt lat="45.25064" lon="5.74246">
        <ele>666</ele>
        <time>2010-05-09T07:46:22Z</time>
      </trkpt>
      <trkpt lat="45.25066" lon="5.74247">
        <ele>667</ele>
        <time>2010-05-09T07:46:23Z</time>
      </trkpt>
      <trkpt lat="45.25068" lon="5.74248">
        <ele>668</ele>
        <time>2010-05-09T07:46:24Z</time>
      </trkpt>
      <trkpt lat="45.2507" lon="5.74248">
        <ele>669</ele>
        <time>2010-05-09T07:46:25Z</time>
      </trkpt>
      <trkpt lat="45.25072" lon="5.74248">
        <ele>670</ele>
        <time>2010-05-09T07:46:26Z</time>
      </trkpt>
      <trkpt lat="45.25074" lon="5.74248">
        <ele>671</ele>
        <time>2010-05-09T07:46:27Z</time>
      </trkpt>
      <trkpt lat="45.25076" lon="5.74247">
        <ele>672</ele>
        <time>2010-05-09T07:46:28Z</time>
      </trkpt>
      <trkpt lat="45.25078" lon="5.74246">
        <ele>673</ele>
        <time>2010-05-09T07:46:29Z</time>
      </trkpt>
      <trkpt lat="45.2508" lon="5.74247">
        <ele>674</ele>
        <time>2010-05-09T07:46:30Z</time>
      </trkpt>
      <trkpt lat="45.25083" lon="5.74246">
        <ele>675</ele>
        <time>2010-05-09T07:46:31Z</time>
      </trkpt>
      <trkpt lat="45.25084" lon="5.74247">
        <ele>677</ele>
        <time>2010-05-09T07:46:32Z</time>
      </trkpt>
      <trkpt lat="45.25086" lon="5.74247">
        <ele>679</ele>
        <time>2010-05-09T07:46:33Z</time>
      </trkpt>
      <trkpt lat="45.25087" lon="5.74247">
        <ele>681</ele>
        <time>2010-05-09T07:46:34Z</time>
      </trkpt>
      <trkpt lat="45.25089" lon="5.74249">
        <ele>683</ele>
        <time>2010-05-09T07:46:36Z</time>
      </trkpt>
      <trkpt lat="45.2509" lon="5.74251">
        <ele>685</ele>
        <time>2010-05-09T07:46:38Z</time>
      </trkpt>
      <trkpt lat="45.25092" lon="5.74252">
        <ele>687</ele>
        <time>2010-05-09T07:46:40Z</time>
      </trkpt>
      <trkpt lat="45.25094" lon="5.74254">
        <ele>688</ele>
        <time>2010-05-09T07:46:42Z</time>
      </trkpt>
      <trkpt lat="45.25095" lon="5.74254">
        <ele>688</ele>
        <time>2010-05-09T07:46:43Z</time>
      </trkpt>
      <trkpt lat="45.25097" lon="5.74253">
        <ele>688</ele>
        <time>2010-05-09T07:46:44Z</time>
      </trkpt>
      <trkpt lat="45.25098" lon="5.74253">
        <ele>688</ele>
        <time>2010-05-09T07:46:45Z</time>
      </trkpt>
      <trkpt lat="45.25099" lon="5.74254">
        <ele>688</ele>
        <time>2010-05-09T07:46:47Z</time>
      </trkpt>
      <trkpt lat="45.25101" lon="5.74256">
        <ele>688</ele>
        <time>2010-05-09T07:46:50Z</time>
      </trkpt>
      <trkpt lat="45.25102" lon="5.74256">
        <ele>688</ele>
        <time>2010-05-09T07:46:51Z</time>
      </trkpt>
      <trkpt lat="45.25103" lon="5.74256">
        <ele>688</ele>
        <time>2010-05-09T07:46:52Z</time>
      </trkpt>
      <trkpt lat="45.25105" lon="5.74256">
        <ele>687</ele>
        <time>2010-05-09T07:46:54Z</time>
      </trkpt>
      <trkpt lat="45.25107" lon="5.74256">
        <ele>685</ele>
        <time>2010-05-09T07:46:56Z</time>
      </trkpt>
      <trkpt lat="45.25109" lon="5.74255">
        <ele>684</ele>
        <time>2010-05-09T07:46:57Z</time>
      </trkpt>
      <trkpt lat="45.25111" lon="5.74255">
        <ele>683</ele>
        <time>2010-05-09T07:46:59Z</time>
      </trkpt>
      <trkpt lat="45.25112" lon="5.74255">
        <ele>682</ele>
        <time>2010-05-09T07:47:01Z</time>
      </trkpt>
      <trkpt lat="45.25114" lon="5.74254">
        <ele>682</ele>
        <time>2010-05-09T07:47:03Z</time>
      </trkpt>
      <trkpt lat="45.25115" lon="5.74254">
        <ele>682</ele>
        <time>2010-05-09T07:47:04Z</time>
      </trkpt>
      <trkpt lat="45.25117" lon="5.74253">
        <ele>681</ele>
        <time>2010-05-09T07:47:06Z</time>
      </trkpt>
      <trkpt lat="45.25119" lon="5.74251">
        <ele>681</ele>
        <time>2010-05-09T07:47:08Z</time>
      </trkpt>
      <trkpt lat="45.2512" lon="5.7425">
        <ele>681</ele>
        <time>2010-05-09T07:47:09Z</time>
      </trkpt>
      <trkpt lat="45.25121" lon="5.74249">
        <ele>681</ele>
        <time>2010-05-09T07:47:10Z</time>
      </trkpt>
      <trkpt lat="45.25123" lon="5.74247">
        <ele>681</ele>
        <time>2010-05-09T07:47:12Z</time>
      </trkpt>
      <trkpt lat="45.25125" lon="5.74246">
        <ele>681</ele>
        <time>2010-05-09T07:47:13Z</time>
      </trkpt>
      <trkpt lat="45.25127" lon="5.74245">
        <ele>681</ele>
        <time>2010-05-09T07:47:15Z</time>
      </trkpt>
      <trkpt lat="45.25128" lon="5.74244">
        <ele>681</ele>
        <time>2010-05-09T07:47:17Z</time>
      </trkpt>
      <trkpt lat="45.2513" lon="5.74242">
        <ele>681</ele>
        <time>2010-05-09T07:47:19Z</time>
      </trkpt>
      <trkpt lat="45.25132" lon="5.74241">
        <ele>681</ele>
        <time>2010-05-09T07:47:21Z</time>
      </trkpt>
      <trkpt lat="45.25133" lon="5.74239">
        <ele>681</ele>
        <time>2010-05-09T07:47:23Z</time>
      </trkpt>
      <trkpt lat="45.25135" lon="5.74237">
        <ele>681</ele>
        <time>2010-05-09T07:47:24Z</time>
      </trkpt>
      <trkpt lat="45.25137" lon="5.74236">
        <ele>681</ele>
        <time>2010-05-09T07:47:25Z</time>
      </trkpt>
      <trkpt lat="45.25139" lon="5.74236">
        <ele>681</ele>
        <time>2010-05-09T07:47:26Z</time>
      </trkpt>
      <trkpt lat="45.2514" lon="5.74235">
        <ele>681</ele>
        <time>2010-05-09T07:47:27Z</time>
      </trkpt>
      <trkpt lat="45.25142" lon="5.74234">
        <ele>681</ele>
        <time>2010-05-09T07:47:28Z</time>
      </trkpt>
      <trkpt lat="45.25144" lon="5.74233">
        <ele>681</ele>
        <time>2010-05-09T07:47:29Z</time>
      </trkpt>
      <trkpt lat="45.25146" lon="5.74233">
        <ele>681</ele>
        <time>2010-05-09T07:47:30Z</time>
      </trkpt>
      <trkpt lat="45.25148" lon="5.74232">
        <ele>681</ele>
        <time>2010-05-09T07:47:31Z</time>
      </trkpt>
      <trkpt lat="45.2515" lon="5.74231">
        <ele>681</ele>
        <time>2010-05-09T07:47:32Z</time>
      </trkpt>
      <trkpt lat="45.25151" lon="5.74231">
        <ele>681</ele>
        <time>2010-05-09T07:47:33Z</time>
      </trkpt>
      <trkpt lat="45.25153" lon="5.7423">
        <ele>681</ele>
        <time>2010-05-09T07:47:34Z</time>
      </trkpt>
      <trkpt lat="45.25156" lon="5.74229">
        <ele>681</ele>
        <time>2010-05-09T07:47:35Z</time>
      </trkpt>
      <trkpt lat="45.25158" lon="5.74229">
        <ele>681</ele>
        <time>2010-05-09T07:47:36Z</time>
      </trkpt>
      <trkpt lat="45.25161" lon="5.74227">
        <ele>681</ele>
        <time>2010-05-09T07:47:37Z</time>
      </trkpt>
      <trkpt lat="45.25163" lon="5.74226">
        <ele>681</ele>
        <time>2010-05-09T07:47:38Z</time>
      </trkpt>
      <trkpt lat="45.25165" lon="5.74226">
        <ele>682</ele>
        <time>2010-05-09T07:47:39Z</time>
      </trkpt>
      <trkpt lat="45.25167" lon="5.74225">
        <ele>682</ele>
        <time>2010-05-09T07:47:40Z</time>
      </trkpt>
      <trkpt lat="45.25169" lon="5.74223">
        <ele>683</ele>
        <time>2010-05-09T07:47:41Z</time>
      </trkpt>
      <trkpt lat="45.25171" lon="5.74222">
        <ele>683</ele>
        <time>2010-05-09T07:47:42Z</time>
      </trkpt>
      <trkpt lat="45.25173" lon="5.74221">
        <ele>684</ele>
        <time>2010-05-09T07:47:43Z</time>
      </trkpt>
      <trkpt lat="45.25176" lon="5.74221">
        <ele>684</ele>
        <time>2010-05-09T07:47:44Z</time>
      </trkpt>
      <trkpt lat="45.25178" lon="5.7422">
        <ele>685</ele>
        <time>2010-05-09T07:47:45Z</time>
      </trkpt>
      <trkpt lat="45.25181" lon="5.7422">
        <ele>685</ele>
        <time>2010-05-09T07:47:46Z</time>
      </trkpt>
      <trkpt lat="45.25183" lon="5.74219">
        <ele>686</ele>
        <time>2010-05-09T07:47:47Z</time>
      </trkpt>
      <trkpt lat="45.25186" lon="5.74218">
        <ele>687</ele>
        <time>2010-05-09T07:47:48Z</time>
      </trkpt>
      <trkpt lat="45.25189" lon="5.74217">
        <ele>688</ele>
        <time>2010-05-09T07:47:49Z</time>
      </trkpt>
      <trkpt lat="45.25192" lon="5.74217">
        <ele>689</ele>
        <time>2010-05-09T07:47:50Z</time>
      </trkpt>
      <trkpt lat="45.25194" lon="5.74217">
        <ele>689</ele>
        <time>2010-05-09T07:47:51Z</time>
      </trkpt>
      <trkpt lat="45.25197" lon="5.74216">
        <ele>690</ele>
        <time>2010-05-09T07:47:52Z</time>
      </trkpt>
      <trkpt lat="45.252" lon="5.74216">
        <ele>691</ele>
        <time>2010-05-09T07:47:53Z</time>
      </trkpt>
      <trkpt lat="45.25203" lon="5.74216">
        <ele>691</ele>
        <time>2010-05-09T07:47:54Z</time>
      </trkpt>
      <trkpt lat="45.25206" lon="5.74216">
        <ele>691</ele>
        <time>2010-05-09T07:47:55Z</time>
      </trkpt>
      <trkpt lat="45.25209" lon="5.74216">
        <ele>691</ele>
        <time>2010-05-09T07:47:56Z</time>
      </trkpt>
      <trkpt lat="45.25212" lon="5.74215">
        <ele>691</ele>
        <time>2010-05-09T07:47:57Z</time>
      </trkpt>
      <trkpt lat="45.25215" lon="5.74215">
        <ele>691</ele>
        <time>2010-05-09T07:47:58Z</time>
      </trkpt>
      <trkpt lat="45.25217" lon="5.74214">
        <ele>692</ele>
        <time>2010-05-09T07:47:59Z</time>
      </trkpt>
      <trkpt lat="45.25219" lon="5.74213">
        <ele>692</ele>
        <time>2010-05-09T07:48:00Z</time>
      </trkpt>
      <trkpt lat="45.25223" lon="5.74213">
        <ele>693</ele>
        <time>2010-05-09T07:48:01Z</time>
      </trkpt>
      <trkpt lat="45.25225" lon="5.74213">
        <ele>693</ele>
        <time>2010-05-09T07:48:02Z</time>
      </trkpt>
      <trkpt lat="45.25228" lon="5.74212">
        <ele>693</ele>
        <time>2010-05-09T07:48:03Z</time>
      </trkpt>
      <trkpt lat="45.2523" lon="5.74211">
        <ele>693</ele>
        <time>2010-05-09T07:48:04Z</time>
      </trkpt>
      <trkpt lat="45.25233" lon="5.7421">
        <ele>693</ele>
        <time>2010-05-09T07:48:05Z</time>
      </trkpt>
      <trkpt lat="45.25235" lon="5.74208">
        <ele>693</ele>
        <time>2010-05-09T07:48:06Z</time>
      </trkpt>
      <trkpt lat="45.25238" lon="5.74207">
        <ele>693</ele>
        <time>2010-05-09T07:48:07Z</time>
      </trkpt>
      <trkpt lat="45.25241" lon="5.74207">
        <ele>693</ele>
        <time>2010-05-09T07:48:08Z</time>
      </trkpt>
      <trkpt lat="45.25245" lon="5.74206">
        <ele>693</ele>
        <time>2010-05-09T07:48:09Z</time>
      </trkpt>
      <trkpt lat="45.25248" lon="5.74205">
        <ele>693</ele>
        <time>2010-05-09T07:48:10Z</time>
      </trkpt>
      <trkpt lat="45.25251" lon="5.74205">
        <ele>693</ele>
        <time>2010-05-09T07:48:11Z</time>
      </trkpt>
      <trkpt lat="45.25254" lon="5.74205">
        <ele>693</ele>
        <time>2010-05-09T07:48:12Z</time>
      </trkpt>
      <trkpt lat="45.25258" lon="5.74204">
        <ele>693</ele>
        <time>2010-05-09T07:48:13Z</time>
      </trkpt>
      <trkpt lat="45.25261" lon="5.74203">
        <ele>693</ele>
        <time>2010-05-09T07:48:14Z</time>
      </trkpt>
      <trkpt lat="45.25264" lon="5.74202">
        <ele>693</ele>
        <time>2010-05-09T07:48:15Z</time>
      </trkpt>
      <trkpt lat="45.25267" lon="5.74202">
        <ele>693</ele>
        <time>2010-05-09T07:48:16Z</time>
      </trkpt>
      <trkpt lat="45.2527" lon="5.74202">
        <ele>693</ele>
        <time>2010-05-09T07:48:17Z</time>
      </trkpt>
      <trkpt lat="45.25273" lon="5.74203">
        <ele>693</ele>
        <time>2010-05-09T07:48:18Z</time>
      </trkpt>
      <trkpt lat="45.25276" lon="5.74202">
        <ele>693</ele>
        <time>2010-05-09T07:48:19Z</time>
      </trkpt>
      <trkpt lat="45.25278" lon="5.74203">
        <ele>693</ele>
        <time>2010-05-09T07:48:20Z</time>
      </trkpt>
      <trkpt lat="45.25281" lon="5.74202">
        <ele>692</ele>
        <time>2010-05-09T07:48:21Z</time>
      </trkpt>
      <trkpt lat="45.25283" lon="5.74201">
        <ele>691</ele>
        <time>2010-05-09T07:48:22Z</time>
      </trkpt>
      <trkpt lat="45.25286" lon="5.74201">
        <ele>690</ele>
        <time>2010-05-09T07:48:23Z</time>
      </trkpt>
      <trkpt lat="45.25289" lon="5.742">
        <ele>689</ele>
        <time>2010-05-09T07:48:24Z</time>
      </trkpt>
      <trkpt lat="45.25292" lon="5.74198">
        <ele>688</ele>
        <time>2010-05-09T07:48:25Z</time>
      </trkpt>
      <trkpt lat="45.25295" lon="5.74196">
        <ele>687</ele>
        <time>2010-05-09T07:48:26Z</time>
      </trkpt>
      <trkpt lat="45.25298" lon="5.74194">
        <ele>686</ele>
        <time>2010-05-09T07:48:27Z</time>
      </trkpt>
      <trkpt lat="45.25301" lon="5.74193">
        <ele>685</ele>
        <time>2010-05-09T07:48:28Z</time>
      </trkpt>
      <trkpt lat="45.25304" lon="5.74191">
        <ele>684</ele>
        <time>2010-05-09T07:48:29Z</time>
      </trkpt>
      <trkpt lat="45.25307" lon="5.7419">
        <ele>683</ele>
        <time>2010-05-09T07:48:30Z</time>
      </trkpt>
      <trkpt lat="45.2531" lon="5.74188">
        <ele>682</ele>
        <time>2010-05-09T07:48:31Z</time>
      </trkpt>
      <trkpt lat="45.25311" lon="5.74186">
        <ele>681</ele>
        <time>2010-05-09T07:48:32Z</time>
      </trkpt>
      <trkpt lat="45.2531" lon="5.74184">
        <ele>680</ele>
        <time>2010-05-09T07:48:33Z</time>
      </trkpt>
      <trkpt lat="45.25308" lon="5.74182">
        <ele>679</ele>
        <time>2010-05-09T07:48:34Z</time>
      </trkpt>
      <trkpt lat="45.25306" lon="5.74181">
        <ele>678</ele>
        <time>2010-05-09T07:48:35Z</time>
      </trkpt>
      <trkpt lat="45.25304" lon="5.74179">
        <ele>677</ele>
        <time>2010-05-09T07:48:36Z</time>
      </trkpt>
      <trkpt lat="45.25301" lon="5.74178">
        <ele>676</ele>
        <time>2010-05-09T07:48:37Z</time>
      </trkpt>
      <trkpt lat="45.25298" lon="5.74177">
        <ele>675</ele>
        <time>2010-05-09T07:48:38Z</time>
      </trkpt>
      <trkpt lat="45.25294" lon="5.74177">
        <ele>674</ele>
        <time>2010-05-09T07:48:39Z</time>
      </trkpt>
      <trkpt lat="45.25291" lon="5.74178">
        <ele>673</ele>
        <time>2010-05-09T07:48:40Z</time>
      </trkpt>
      <trkpt lat="45.25288" lon="5.74177">
        <ele>672</ele>
        <time>2010-05-09T07:48:41Z</time>
      </trkpt>
      <trkpt lat="45.25286" lon="5.74175">
        <ele>671</ele>
        <time>2010-05-09T07:48:42Z</time>
      </trkpt>
      <trkpt lat="45.25285" lon="5.74171">
        <ele>670</ele>
        <time>2010-05-09T07:48:43Z</time>
      </trkpt>
      <trkpt lat="45.25285" lon="5.74167">
        <ele>669</ele>
        <time>2010-05-09T07:48:44Z</time>
      </trkpt>
      <trkpt lat="45.25287" lon="5.74166">
        <ele>668</ele>
        <time>2010-05-09T07:48:45Z</time>
      </trkpt>
      <trkpt lat="45.2529" lon="5.74165">
        <ele>667</ele>
        <time>2010-05-09T07:48:46Z</time>
      </trkpt>
      <trkpt lat="45.25294" lon="5.74164">
        <ele>666</ele>
        <time>2010-05-09T07:48:47Z</time>
      </trkpt>
      <trkpt lat="45.25297" lon="5.74164">
        <ele>665</ele>
        <time>2010-05-09T07:48:48Z</time>
      </trkpt>
      <trkpt lat="45.25301" lon="5.74164">
        <ele>664</ele>
        <time>2010-05-09T07:48:49Z</time>
      </trkpt>
      <trkpt lat="45.25306" lon="5.74163">
        <ele>663</ele>
        <time>2010-05-09T07:48:50Z</time>
      </trkpt>
      <trkpt lat="45.2531" lon="5.74163">
        <ele>662</ele>
        <time>2010-05-09T07:48:51Z</time>
      </trkpt>
      <trkpt lat="45.25314" lon="5.74163">
        <ele>661</ele>
        <time>2010-05-09T07:48:52Z</time>
      </trkpt>
      <trkpt lat="45.25318" lon="5.74162">
        <ele>661</ele>
        <time>2010-05-09T07:48:53Z</time>
      </trkpt>
      <trkpt lat="45.25322" lon="5.74162">
        <ele>661</ele>
        <time>2010-05-09T07:48:54Z</time>
      </trkpt>
      <trkpt lat="45.25325" lon="5.74162">
        <ele>661</ele>
        <time>2010-05-09T07:48:55Z</time>
      </trkpt>
      <trkpt lat="45.25329" lon="5.74162">
        <ele>661</ele>
        <time>2010-05-09T07:48:56Z</time>
      </trkpt>
      <trkpt lat="45.25332" lon="5.74162">
        <ele>661</ele>
        <time>2010-05-09T07:48:57Z</time>
      </trkpt>
      <trkpt lat="45.25335" lon="5.74162">
        <ele>661</ele>
        <time>2010-05-09T07:48:58Z</time>
      </trkpt>
      <trkpt lat="45.25339" lon="5.74163">
        <ele>661</ele>
        <time>2010-05-09T07:48:59Z</time>
      </trkpt>
      <trkpt lat="45.25343" lon="5.74164">
        <ele>661</ele>
        <time>2010-05-09T07:49:00Z</time>
      </trkpt>
      <trkpt lat="45.25346" lon="5.74164">
        <ele>661</ele>
        <time>2010-05-09T07:49:01Z</time>
      </trkpt>
      <trkpt lat="45.2535" lon="5.74163">
        <ele>661</ele>
        <time>2010-05-09T07:49:02Z</time>
      </trkpt>
      <trkpt lat="45.25353" lon="5.74161">
        <ele>661</ele>
        <time>2010-05-09T07:49:03Z</time>
      </trkpt>
      <trkpt lat="45.25357" lon="5.74159">
        <ele>661</ele>
        <time>2010-05-09T07:49:04Z</time>
      </trkpt>
      <trkpt lat="45.2536" lon="5.74157">
        <ele>661</ele>
        <time>2010-05-09T07:49:05Z</time>
      </trkpt>
      <trkpt lat="45.25363" lon="5.74154">
        <ele>661</ele>
        <time>2010-05-09T07:49:06Z</time>
      </trkpt>
      <trkpt lat="45.25366" lon="5.7415">
        <ele>661</ele>
        <time>2010-05-09T07:49:07Z</time>
      </trkpt>
      <trkpt lat="45.25369" lon="5.74147">
        <ele>661</ele>
        <time>2010-05-09T07:49:08Z</time>
      </trkpt>
      <trkpt lat="45.25372" lon="5.74142">
        <ele>661</ele>
        <time>2010-05-09T07:49:09Z</time>
      </trkpt>
      <trkpt lat="45.25375" lon="5.74137">
        <ele>661</ele>
        <time>2010-05-09T07:49:10Z</time>
      </trkpt>
      <trkpt lat="45.25378" lon="5.74134">
        <ele>661</ele>
        <time>2010-05-09T07:49:11Z</time>
      </trkpt>
      <trkpt lat="45.25382" lon="5.7413">
        <ele>661</ele>
        <time>2010-05-09T07:49:12Z</time>
      </trkpt>
      <trkpt lat="45.25385" lon="5.74126">
        <ele>661</ele>
        <time>2010-05-09T07:49:13Z</time>
      </trkpt>
      <trkpt lat="45.25388" lon="5.74123">
        <ele>661</ele>
        <time>2010-05-09T07:49:14Z</time>
      </trkpt>
      <trkpt lat="45.25391" lon="5.7412">
        <ele>660</ele>
        <time>2010-05-09T07:49:15Z</time>
      </trkpt>
      <trkpt lat="45.25394" lon="5.74116">
        <ele>660</ele>
        <time>2010-05-09T07:49:16Z</time>
      </trkpt>
      <trkpt lat="45.25397" lon="5.74112">
        <ele>659</ele>
        <time>2010-05-09T07:49:17Z</time>
      </trkpt>
      <trkpt lat="45.25399" lon="5.74108">
        <ele>659</ele>
        <time>2010-05-09T07:49:18Z</time>
      </trkpt>
      <trkpt lat="45.25402" lon="5.74104">
        <ele>658</ele>
        <time>2010-05-09T07:49:19Z</time>
      </trkpt>
      <trkpt lat="45.25405" lon="5.741">
        <ele>658</ele>
        <time>2010-05-09T07:49:20Z</time>
      </trkpt>
      <trkpt lat="45.25408" lon="5.74097">
        <ele>657</ele>
        <time>2010-05-09T07:49:21Z</time>
      </trkpt>
      <trkpt lat="45.2541" lon="5.74093">
        <ele>656</ele>
        <time>2010-05-09T07:49:22Z</time>
      </trkpt>
      <trkpt lat="45.25412" lon="5.7409">
        <ele>656</ele>
        <time>2010-05-09T07:49:23Z</time>
      </trkpt>
      <trkpt lat="45.25415" lon="5.74086">
        <ele>655</ele>
        <time>2010-05-09T07:49:24Z</time>
      </trkpt>
      <trkpt lat="45.25418" lon="5.74082">
        <ele>655</ele>
        <time>2010-05-09T07:49:25Z</time>
      </trkpt>
      <trkpt lat="45.25421" lon="5.74078">
        <ele>654</ele>
        <time>2010-05-09T07:49:26Z</time>
      </trkpt>
      <trkpt lat="45.25424" lon="5.74074">
        <ele>654</ele>
        <time>2010-05-09T07:49:27Z</time>
      </trkpt>
      <trkpt lat="45.25427" lon="5.7407">
        <ele>653</ele>
        <time>2010-05-09T07:49:28Z</time>
      </trkpt>
      <trkpt lat="45.2543" lon="5.74066">
        <ele>653</ele>
        <time>2010-05-09T07:49:29Z</time>
      </trkpt>
      <trkpt lat="45.25433" lon="5.74062">
        <ele>652</ele>
        <time>2010-05-09T07:49:30Z</time>
      </trkpt>
      <trkpt lat="45.25436" lon="5.74058">
        <ele>652</ele>
        <time>2010-05-09T07:49:31Z</time>
      </trkpt>
      <trkpt lat="45.2544" lon="5.74055">
        <ele>651</ele>
        <time>2010-05-09T07:49:32Z</time>
      </trkpt>
      <trkpt lat="45.25444" lon="5.74051">
        <ele>651</ele>
        <time>2010-05-09T07:49:33Z</time>
      </trkpt>
      <trkpt lat="45.25446" lon="5.74047">
        <ele>650</ele>
        <time>2010-05-09T07:49:34Z</time>
      </trkpt>
      <trkpt lat="45.25449" lon="5.74043">
        <ele>649</ele>
        <time>2010-05-09T07:49:35Z</time>
      </trkpt>
      <trkpt lat="45.25452" lon="5.7404">
        <ele>649</ele>
        <time>2010-05-09T07:49:36Z</time>
      </trkpt>
      <trkpt lat="45.25456" lon="5.74039">
        <ele>649</ele>
        <time>2010-05-09T07:49:37Z</time>
      </trkpt>
      <trkpt lat="45.2546" lon="5.74038">
        <ele>648</ele>
        <time>2010-05-09T07:49:38Z</time>
      </trkpt>
      <trkpt lat="45.25463" lon="5.74039">
        <ele>648</ele>
        <time>2010-05-09T07:49:39Z</time>
      </trkpt>
      <trkpt lat="45.25467" lon="5.7404">
        <ele>648</ele>
        <time>2010-05-09T07:49:40Z</time>
      </trkpt>
      <trkpt lat="45.2547" lon="5.74042">
        <ele>647</ele>
        <time>2010-05-09T07:49:41Z</time>
      </trkpt>
      <trkpt lat="45.25474" lon="5.74042">
        <ele>647</ele>
        <time>2010-05-09T07:49:42Z</time>
      </trkpt>
      <trkpt lat="45.25478" lon="5.74044">
        <ele>647</ele>
        <time>2010-05-09T07:49:43Z</time>
      </trkpt>
      <trkpt lat="45.25481" lon="5.74046">
        <ele>646</ele>
        <time>2010-05-09T07:49:44Z</time>
      </trkpt>
      <trkpt lat="45.25485" lon="5.74046">
        <ele>645</ele>
        <time>2010-05-09T07:49:45Z</time>
      </trkpt>
      <trkpt lat="45.25489" lon="5.74045">
        <ele>644</ele>
        <time>2010-05-09T07:49:46Z</time>
      </trkpt>
      <trkpt lat="45.25492" lon="5.74043">
        <ele>643</ele>
        <time>2010-05-09T07:49:47Z</time>
      </trkpt>
      <trkpt lat="45.25495" lon="5.7404">
        <ele>643</ele>
        <time>2010-05-09T07:49:48Z</time>
      </trkpt>
      <trkpt lat="45.25498" lon="5.74036">
        <ele>642</ele>
        <time>2010-05-09T07:49:49Z</time>
      </trkpt>
      <trkpt lat="45.25502" lon="5.74032">
        <ele>642</ele>
        <time>2010-05-09T07:49:50Z</time>
      </trkpt>
      <trkpt lat="45.25505" lon="5.74028">
        <ele>642</ele>
        <time>2010-05-09T07:49:51Z</time>
      </trkpt>
      <trkpt lat="45.25507" lon="5.74024">
        <ele>641</ele>
        <time>2010-05-09T07:49:52Z</time>
      </trkpt>
      <trkpt lat="45.2551" lon="5.7402">
        <ele>641</ele>
        <time>2010-05-09T07:49:53Z</time>
      </trkpt>
      <trkpt lat="45.25512" lon="5.74016">
        <ele>641</ele>
        <time>2010-05-09T07:49:54Z</time>
      </trkpt>
      <trkpt lat="45.25514" lon="5.74012">
        <ele>641</ele>
        <time>2010-05-09T07:49:55Z</time>
      </trkpt>
      <trkpt lat="45.25517" lon="5.74008">
        <ele>641</ele>
        <time>2010-05-09T07:49:56Z</time>
      </trkpt>
      <trkpt lat="45.25519" lon="5.74005">
        <ele>640</ele>
        <time>2010-05-09T07:49:57Z</time>
      </trkpt>
      <trkpt lat="45.25521" lon="5.74001">
        <ele>640</ele>
        <time>2010-05-09T07:49:58Z</time>
      </trkpt>
      <trkpt lat="45.25524" lon="5.73997">
        <ele>639</ele>
        <time>2010-05-09T07:49:59Z</time>
      </trkpt>
      <trkpt lat="45.25526" lon="5.73994">
        <ele>639</ele>
        <time>2010-05-09T07:50:00Z</time>
      </trkpt>
      <trkpt lat="45.25528" lon="5.7399">
        <ele>638</ele>
        <time>2010-05-09T07:50:01Z</time>
      </trkpt>
      <trkpt lat="45.25531" lon="5.73986">
        <ele>638</ele>
        <time>2010-05-09T07:50:02Z</time>
      </trkpt>
      <trkpt lat="45.25533" lon="5.73982">
        <ele>637</ele>
        <time>2010-05-09T07:50:03Z</time>
      </trkpt>
      <trkpt lat="45.25535" lon="5.73978">
        <ele>637</ele>
        <time>2010-05-09T07:50:04Z</time>
      </trkpt>
      <trkpt lat="45.25538" lon="5.73975">
        <ele>637</ele>
        <time>2010-05-09T07:50:05Z</time>
      </trkpt>
      <trkpt lat="45.2554" lon="5.73972">
        <ele>637</ele>
        <time>2010-05-09T07:50:06Z</time>
      </trkpt>
      <trkpt lat="45.25543" lon="5.73968">
        <ele>637</ele>
        <time>2010-05-09T07:50:07Z</time>
      </trkpt>
      <trkpt lat="45.25546" lon="5.73965">
        <ele>637</ele>
        <time>2010-05-09T07:50:08Z</time>
      </trkpt>
      <trkpt lat="45.25548" lon="5.73961">
        <ele>637</ele>
        <time>2010-05-09T07:50:09Z</time>
      </trkpt>
      <trkpt lat="45.2555" lon="5.73957">
        <ele>637</ele>
        <time>2010-05-09T07:50:10Z</time>
      </trkpt>
      <trkpt lat="45.25552" lon="5.73954">
        <ele>637</ele>
        <time>2010-05-09T07:50:11Z</time>
      </trkpt>
      <trkpt lat="45.25554" lon="5.73951">
        <ele>637</ele>
        <time>2010-05-09T07:50:12Z</time>
      </trkpt>
      <trkpt lat="45.25556" lon="5.73948">
        <ele>636</ele>
        <time>2010-05-09T07:50:13Z</time>
      </trkpt>
      <trkpt lat="45.25557" lon="5.73944">
        <ele>636</ele>
        <time>2010-05-09T07:50:14Z</time>
      </trkpt>
      <trkpt lat="45.25557" lon="5.73939">
        <ele>636</ele>
        <time>2010-05-09T07:50:15Z</time>
      </trkpt>
      <trkpt lat="45.25558" lon="5.73935">
        <ele>636</ele>
        <time>2010-05-09T07:50:16Z</time>
      </trkpt>
      <trkpt lat="45.2556" lon="5.7393">
        <ele>636</ele>
        <time>2010-05-09T07:50:17Z</time>
      </trkpt>
      <trkpt lat="45.25561" lon="5.73926">
        <ele>636</ele>
        <time>2010-05-09T07:50:18Z</time>
      </trkpt>
      <trkpt lat="45.25564" lon="5.73924">
        <ele>636</ele>
        <time>2010-05-09T07:50:19Z</time>
      </trkpt>
      <trkpt lat="45.25566" lon="5.73924">
        <ele>636</ele>
        <time>2010-05-09T07:50:20Z</time>
      </trkpt>
      <trkpt lat="45.25569" lon="5.73923">
        <ele>636</ele>
        <time>2010-05-09T07:50:21Z</time>
      </trkpt>
      <trkpt lat="45.25571" lon="5.73923">
        <ele>636</ele>
        <time>2010-05-09T07:50:22Z</time>
      </trkpt>
      <trkpt lat="45.25572" lon="5.73923">
        <ele>636</ele>
        <time>2010-05-09T07:50:24Z</time>
      </trkpt>
      <trkpt lat="45.25573" lon="5.73924">
        <ele>636</ele>
        <time>2010-05-09T07:50:27Z</time>
      </trkpt>
      <trkpt lat="45.25575" lon="5.73924">
        <ele>636</ele>
        <time>2010-05-09T07:50:28Z</time>
      </trkpt>
      <trkpt lat="45.25577" lon="5.73923">
        <ele>636</ele>
        <time>2010-05-09T07:50:29Z</time>
      </trkpt>
      <trkpt lat="45.2558" lon="5.73922">
        <ele>636</ele>
        <time>2010-05-09T07:50:30Z</time>
      </trkpt>
      <trkpt lat="45.25584" lon="5.73922">
        <ele>636</ele>
        <time>2010-05-09T07:50:31Z</time>
      </trkpt>
      <trkpt lat="45.25587" lon="5.73922">
        <ele>636</ele>
        <time>2010-05-09T07:50:32Z</time>
      </trkpt>
      <trkpt lat="45.2559" lon="5.73924">
        <ele>636</ele>
        <time>2010-05-09T07:50:33Z</time>
      </trkpt>
      <trkpt lat="45.25592" lon="5.73926">
        <ele>635</ele>
        <time>2010-05-09T07:50:34Z</time>
      </trkpt>
      <trkpt lat="45.25594" lon="5.73928">
        <ele>635</ele>
        <time>2010-05-09T07:50:35Z</time>
      </trkpt>
      <trkpt lat="45.25597" lon="5.7393">
        <ele>634</ele>
        <time>2010-05-09T07:50:36Z</time>
      </trkpt>
      <trkpt lat="45.25598" lon="5.73932">
        <ele>634</ele>
        <time>2010-05-09T07:50:37Z</time>
      </trkpt>
      <trkpt lat="45.256" lon="5.73935">
        <ele>633</ele>
        <time>2010-05-09T07:50:38Z</time>
      </trkpt>
      <trkpt lat="45.25603" lon="5.73937">
        <ele>633</ele>
        <time>2010-05-09T07:50:39Z</time>
      </trkpt>
      <trkpt lat="45.25605" lon="5.73939">
        <ele>633</ele>
        <time>2010-05-09T07:50:40Z</time>
      </trkpt>
      <trkpt lat="45.25607" lon="5.73941">
        <ele>633</ele>
        <time>2010-05-09T07:50:41Z</time>
      </trkpt>
      <trkpt lat="45.2561" lon="5.73943">
        <ele>633</ele>
        <time>2010-05-09T07:50:42Z</time>
      </trkpt>
      <trkpt lat="45.25613" lon="5.73946">
        <ele>633</ele>
        <time>2010-05-09T07:50:43Z</time>
      </trkpt>
      <trkpt lat="45.25615" lon="5.73948">
        <ele>633</ele>
        <time>2010-05-09T07:50:44Z</time>
      </trkpt>
      <trkpt lat="45.25618" lon="5.7395">
        <ele>633</ele>
        <time>2010-05-09T07:50:45Z</time>
      </trkpt>
      <trkpt lat="45.2562" lon="5.73953">
        <ele>633</ele>
        <time>2010-05-09T07:50:46Z</time>
      </trkpt>
      <trkpt lat="45.25623" lon="5.73956">
        <ele>633</ele>
        <time>2010-05-09T07:50:47Z</time>
      </trkpt>
      <trkpt lat="45.25626" lon="5.73959">
        <ele>633</ele>
        <time>2010-05-09T07:50:48Z</time>
      </trkpt>
      <trkpt lat="45.25629" lon="5.73962">
        <ele>633</ele>
        <time>2010-05-09T07:50:49Z</time>
      </trkpt>
      <trkpt lat="45.25631" lon="5.73966">
        <ele>633</ele>
        <time>2010-05-09T07:50:50Z</time>
      </trkpt>
      <trkpt lat="45.25633" lon="5.73969">
        <ele>633</ele>
        <time>2010-05-09T07:50:51Z</time>
      </trkpt>
      <trkpt lat="45.25636" lon="5.73972">
        <ele>633</ele>
        <time>2010-05-09T07:50:52Z</time>
      </trkpt>
      <trkpt lat="45.25638" lon="5.73975">
        <ele>633</ele>
        <time>2010-05-09T07:50:53Z</time>
      </trkpt>
      <trkpt lat="45.2564" lon="5.73977">
        <ele>633</ele>
        <time>2010-05-09T07:50:54Z</time>
      </trkpt>
      <trkpt lat="45.25643" lon="5.73979">
        <ele>633</ele>
        <time>2010-05-09T07:50:55Z</time>
      </trkpt>
      <trkpt lat="45.25646" lon="5.73981">
        <ele>633</ele>
        <time>2010-05-09T07:50:56Z</time>
      </trkpt>
      <trkpt lat="45.25649" lon="5.73983">
        <ele>633</ele>
        <time>2010-05-09T07:50:57Z</time>
      </trkpt>
      <trkpt lat="45.25652" lon="5.73983">
        <ele>633</ele>
        <time>2010-05-09T07:50:58Z</time>
      </trkpt>
      <trkpt lat="45.25655" lon="5.73984">
        <ele>633</ele>
        <time>2010-05-09T07:50:59Z</time>
      </trkpt>
      <trkpt lat="45.25659" lon="5.73984">
        <ele>633</ele>
        <time>2010-05-09T07:51:00Z</time>
      </trkpt>
      <trkpt lat="45.25663" lon="5.73982">
        <ele>633</ele>
        <time>2010-05-09T07:51:01Z</time>
      </trkpt>
      <trkpt lat="45.25667" lon="5.73981">
        <ele>633</ele>
        <time>2010-05-09T07:51:02Z</time>
      </trkpt>
      <trkpt lat="45.25671" lon="5.73979">
        <ele>633</ele>
        <time>2010-05-09T07:51:03Z</time>
      </trkpt>
      <trkpt lat="45.25675" lon="5.73977">
        <ele>633</ele>
        <time>2010-05-09T07:51:04Z</time>
      </trkpt>
      <trkpt lat="45.25679" lon="5.73976">
        <ele>633</ele>
        <time>2010-05-09T07:51:05Z</time>
      </trkpt>
      <trkpt lat="45.25682" lon="5.73975">
        <ele>633</ele>
        <time>2010-05-09T07:51:06Z</time>
      </trkpt>
      <trkpt lat="45.25686" lon="5.73975">
        <ele>633</ele>
        <time>2010-05-09T07:51:07Z</time>
      </trkpt>
      <trkpt lat="45.25689" lon="5.73975">
        <ele>633</ele>
        <time>2010-05-09T07:51:08Z</time>
      </trkpt>
      <trkpt lat="45.25692" lon="5.73976">
        <ele>633</ele>
        <time>2010-05-09T07:51:09Z</time>
      </trkpt>
      <trkpt lat="45.25696" lon="5.73976">
        <ele>633</ele>
        <time>2010-05-09T07:51:10Z</time>
      </trkpt>
      <trkpt lat="45.25699" lon="5.73978">
        <ele>633</ele>
        <time>2010-05-09T07:51:11Z</time>
      </trkpt>
      <trkpt lat="45.25702" lon="5.7398">
        <ele>633</ele>
        <time>2010-05-09T07:51:12Z</time>
      </trkpt>
      <trkpt lat="45.25707" lon="5.73982">
        <ele>633</ele>
        <time>2010-05-09T07:51:13Z</time>
      </trkpt>
      <trkpt lat="45.25711" lon="5.73985">
        <ele>633</ele>
        <time>2010-05-09T07:51:14Z</time>
      </trkpt>
      <trkpt lat="45.25715" lon="5.73986">
        <ele>633</ele>
        <time>2010-05-09T07:51:15Z</time>
      </trkpt>
      <trkpt lat="45.25718" lon="5.73988">
        <ele>633</ele>
        <time>2010-05-09T07:51:16Z</time>
      </trkpt>
      <trkpt lat="45.25721" lon="5.7399">
        <ele>633</ele>
        <time>2010-05-09T07:51:17Z</time>
      </trkpt>
      <trkpt lat="45.25724" lon="5.73991">
        <ele>633</ele>
        <time>2010-05-09T07:51:18Z</time>
      </trkpt>
      <trkpt lat="45.25727" lon="5.73992">
        <ele>633</ele>
        <time>2010-05-09T07:51:19Z</time>
      </trkpt>
      <trkpt lat="45.2573" lon="5.73993">
        <ele>633</ele>
        <time>2010-05-09T07:51:20Z</time>
      </trkpt>
      <trkpt lat="45.25733" lon="5.73994">
        <ele>633</ele>
        <time>2010-05-09T07:51:21Z</time>
      </trkpt>
      <trkpt lat="45.25736" lon="5.73994">
        <ele>633</ele>
        <time>2010-05-09T07:51:22Z</time>
      </trkpt>
      <trkpt lat="45.25739" lon="5.73995">
        <ele>633</ele>
        <time>2010-05-09T07:51:23Z</time>
      </trkpt>
      <trkpt lat="45.25741" lon="5.73995">
        <ele>633</ele>
        <time>2010-05-09T07:51:24Z</time>
      </trkpt>
      <trkpt lat="45.25744" lon="5.73996">
        <ele>633</ele>
        <time>2010-05-09T07:51:25Z</time>
      </trkpt>
      <trkpt lat="45.25746" lon="5.73996">
        <ele>633</ele>
        <time>2010-05-09T07:51:26Z</time>
      </trkpt>
      <trkpt lat="45.25749" lon="5.73996">
        <ele>633</ele>
        <time>2010-05-09T07:51:27Z</time>
      </trkpt>
      <trkpt lat="45.25751" lon="5.73996">
        <ele>633</ele>
        <time>2010-05-09T07:51:28Z</time>
      </trkpt>
      <trkpt lat="45.25753" lon="5.73996">
        <ele>633</ele>
        <time>2010-05-09T07:51:29Z</time>
      </trkpt>
      <trkpt lat="45.25755" lon="5.73996">
        <ele>633</ele>
        <time>2010-05-09T07:51:30Z</time>
      </trkpt>
      <trkpt lat="45.25758" lon="5.73996">
        <ele>633</ele>
        <time>2010-05-09T07:51:31Z</time>
      </trkpt>
      <trkpt lat="45.2576" lon="5.73996">
        <ele>633</ele>
        <time>2010-05-09T07:51:32Z</time>
      </trkpt>
      <trkpt lat="45.25763" lon="5.73995">
        <ele>633</ele>
        <time>2010-05-09T07:51:33Z</time>
      </trkpt>
      <trkpt lat="45.25764" lon="5.73995">
        <ele>633</ele>
        <time>2010-05-09T07:51:34Z</time>
      </trkpt>
      <trkpt lat="45.25766" lon="5.73995">
        <ele>633</ele>
        <time>2010-05-09T07:51:35Z</time>
      </trkpt>
      <trkpt lat="45.25769" lon="5.73995">
        <ele>633</ele>
        <time>2010-05-09T07:51:36Z</time>
      </trkpt>
      <trkpt lat="45.2577" lon="5.73995">
        <ele>633</ele>
        <time>2010-05-09T07:51:37Z</time>
      </trkpt>
      <trkpt lat="45.25772" lon="5.73996">
        <ele>633</ele>
        <time>2010-05-09T07:51:38Z</time>
      </trkpt>
      <trkpt lat="45.25774" lon="5.73995">
        <ele>633</ele>
        <time>2010-05-09T07:51:39Z</time>
      </trkpt>
      <trkpt lat="45.25775" lon="5.73995">
        <ele>633</ele>
        <time>2010-05-09T07:51:40Z</time>
      </trkpt>
      <trkpt lat="45.25777" lon="5.73994">
        <ele>633</ele>
        <time>2010-05-09T07:51:41Z</time>
      </trkpt>
      <trkpt lat="45.25778" lon="5.73993">
        <ele>633</ele>
        <time>2010-05-09T07:51:42Z</time>
      </trkpt>
      <trkpt lat="45.2578" lon="5.73993">
        <ele>633</ele>
        <time>2010-05-09T07:51:43Z</time>
      </trkpt>
      <trkpt lat="45.25781" lon="5.73993">
        <ele>633</ele>
        <time>2010-05-09T07:51:44Z</time>
      </trkpt>
      <trkpt lat="45.25783" lon="5.73993">
        <ele>633</ele>
        <time>2010-05-09T07:51:45Z</time>
      </trkpt>
      <trkpt lat="45.25785" lon="5.73995">
        <ele>633</ele>
        <time>2010-05-09T07:51:47Z</time>
      </trkpt>
      <trkpt lat="45.25787" lon="5.73996">
        <ele>633</ele>
        <time>2010-05-09T07:51:48Z</time>
      </trkpt>
      <trkpt lat="45.25789" lon="5.73998">
        <ele>634</ele>
        <time>2010-05-09T07:51:49Z</time>
      </trkpt>
      <trkpt lat="45.25792" lon="5.74">
        <ele>634</ele>
        <time>2010-05-09T07:51:50Z</time>
      </trkpt>
      <trkpt lat="45.25794" lon="5.74003">
        <ele>634</ele>
        <time>2010-05-09T07:51:51Z</time>
      </trkpt>
      <trkpt lat="45.25796" lon="5.74006">
        <ele>634</ele>
        <time>2010-05-09T07:51:52Z</time>
      </trkpt>
      <trkpt lat="45.25798" lon="5.7401">
        <ele>634</ele>
        <time>2010-05-09T07:51:53Z</time>
      </trkpt>
      <trkpt lat="45.258" lon="5.74014">
        <ele>634</ele>
        <time>2010-05-09T07:51:54Z</time>
      </trkpt>
      <trkpt lat="45.25802" lon="5.74018">
        <ele>634</ele>
        <time>2010-05-09T07:51:55Z</time>
      </trkpt>
      <trkpt lat="45.25804" lon="5.74021">
        <ele>634</ele>
        <time>2010-05-09T07:51:56Z</time>
      </trkpt>
      <trkpt lat="45.25806" lon="5.74025">
        <ele>634</ele>
        <time>2010-05-09T07:51:57Z</time>
      </trkpt>
      <trkpt lat="45.25808" lon="5.74028">
        <ele>634</ele>
        <time>2010-05-09T07:51:58Z</time>
      </trkpt>
      <trkpt lat="45.25809" lon="5.74032">
        <ele>634</ele>
        <time>2010-05-09T07:51:59Z</time>
      </trkpt>
      <trkpt lat="45.25811" lon="5.74036">
        <ele>634</ele>
        <time>2010-05-09T07:52:00Z</time>
      </trkpt>
      <trkpt lat="45.25813" lon="5.74039">
        <ele>634</ele>
        <time>2010-05-09T07:52:01Z</time>
      </trkpt>
      <trkpt lat="45.25814" lon="5.74043">
        <ele>634</ele>
        <time>2010-05-09T07:52:02Z</time>
      </trkpt>
      <trkpt lat="45.25815" lon="5.74046">
        <ele>634</ele>
        <time>2010-05-09T07:52:03Z</time>
      </trkpt>
      <trkpt lat="45.25816" lon="5.7405">
        <ele>634</ele>
        <time>2010-05-09T07:52:04Z</time>
      </trkpt>
      <trkpt lat="45.25817" lon="5.74053">
        <ele>634</ele>
        <time>2010-05-09T07:52:05Z</time>
      </trkpt>
      <trkpt lat="45.25818" lon="5.74055">
        <ele>634</ele>
        <time>2010-05-09T07:52:06Z</time>
      </trkpt>
      <trkpt lat="45.25819" lon="5.74058">
        <ele>634</ele>
        <time>2010-05-09T07:52:07Z</time>
      </trkpt>
      <trkpt lat="45.25821" lon="5.7406">
        <ele>634</ele>
        <time>2010-05-09T07:52:08Z</time>
      </trkpt>
      <trkpt lat="45.25822" lon="5.74062">
        <ele>634</ele>
        <time>2010-05-09T07:52:09Z</time>
      </trkpt>
      <trkpt lat="45.25823" lon="5.74065">
        <ele>634</ele>
        <time>2010-05-09T07:52:10Z</time>
      </trkpt>
      <trkpt lat="45.25824" lon="5.74068">
        <ele>635</ele>
        <time>2010-05-09T07:52:11Z</time>
      </trkpt>
      <trkpt lat="45.25826" lon="5.74071">
        <ele>635</ele>
        <time>2010-05-09T07:52:12Z</time>
      </trkpt>
      <trkpt lat="45.25828" lon="5.74074">
        <ele>636</ele>
        <time>2010-05-09T07:52:13Z</time>
      </trkpt>
      <trkpt lat="45.25829" lon="5.74077">
        <ele>637</ele>
        <time>2010-05-09T07:52:14Z</time>
      </trkpt>
      <trkpt lat="45.2583" lon="5.7408">
        <ele>637</ele>
        <time>2010-05-09T07:52:15Z</time>
      </trkpt>
      <trkpt lat="45.25833" lon="5.74083">
        <ele>637</ele>
        <time>2010-05-09T07:52:16Z</time>
      </trkpt>
      <trkpt lat="45.25835" lon="5.74086">
        <ele>638</ele>
        <time>2010-05-09T07:52:17Z</time>
      </trkpt>
      <trkpt lat="45.25835" lon="5.74088">
        <ele>639</ele>
        <time>2010-05-09T07:52:18Z</time>
      </trkpt>
      <trkpt lat="45.25836" lon="5.74091">
        <ele>639</ele>
        <time>2010-05-09T07:52:19Z</time>
      </trkpt>
      <trkpt lat="45.25837" lon="5.74093">
        <ele>640</ele>
        <time>2010-05-09T07:52:20Z</time>
      </trkpt>
      <trkpt lat="45.25838" lon="5.74096">
        <ele>640</ele>
        <time>2010-05-09T07:52:21Z</time>
      </trkpt>
      <trkpt lat="45.2584" lon="5.74098">
        <ele>640</ele>
        <time>2010-05-09T07:52:22Z</time>
      </trkpt>
      <trkpt lat="45.25843" lon="5.741">
        <ele>640</ele>
        <time>2010-05-09T07:52:23Z</time>
      </trkpt>
      <trkpt lat="45.25846" lon="5.741">
        <ele>640</ele>
        <time>2010-05-09T07:52:24Z</time>
      </trkpt>
      <trkpt lat="45.25849" lon="5.741">
        <ele>640</ele>
        <time>2010-05-09T07:52:25Z</time>
      </trkpt>
      <trkpt lat="45.25852" lon="5.74099">
        <ele>640</ele>
        <time>2010-05-09T07:52:26Z</time>
      </trkpt>
      <trkpt lat="45.25855" lon="5.74099">
        <ele>641</ele>
        <time>2010-05-09T07:52:27Z</time>
      </trkpt>
      <trkpt lat="45.25859" lon="5.74097">
        <ele>641</ele>
        <time>2010-05-09T07:52:28Z</time>
      </trkpt>
      <trkpt lat="45.25862" lon="5.74095">
        <ele>642</ele>
        <time>2010-05-09T07:52:29Z</time>
      </trkpt>
      <trkpt lat="45.25866" lon="5.74093">
        <ele>643</ele>
        <time>2010-05-09T07:52:30Z</time>
      </trkpt>
      <trkpt lat="45.25868" lon="5.74092">
        <ele>643</ele>
        <time>2010-05-09T07:52:31Z</time>
      </trkpt>
      <trkpt lat="45.25871" lon="5.74092">
        <ele>643</ele>
        <time>2010-05-09T07:52:32Z</time>
      </trkpt>
      <trkpt lat="45.25874" lon="5.74092">
        <ele>644</ele>
        <time>2010-05-09T07:52:33Z</time>
      </trkpt>
      <trkpt lat="45.25876" lon="5.74092">
        <ele>644</ele>
        <time>2010-05-09T07:52:34Z</time>
      </trkpt>
      <trkpt lat="45.2588" lon="5.74093">
        <ele>644</ele>
        <time>2010-05-09T07:52:35Z</time>
      </trkpt>
      <trkpt lat="45.25884" lon="5.74094">
        <ele>644</ele>
        <time>2010-05-09T07:52:36Z</time>
      </trkpt>
      <trkpt lat="45.25888" lon="5.74096">
        <ele>644</ele>
        <time>2010-05-09T07:52:37Z</time>
      </trkpt>
      <trkpt lat="45.25891" lon="5.74097">
        <ele>644</ele>
        <time>2010-05-09T07:52:38Z</time>
      </trkpt>
      <trkpt lat="45.25894" lon="5.74099">
        <ele>644</ele>
        <time>2010-05-09T07:52:39Z</time>
      </trkpt>
      <trkpt lat="45.25897" lon="5.74102">
        <ele>644</ele>
        <time>2010-05-09T07:52:40Z</time>
      </trkpt>
      <trkpt lat="45.25899" lon="5.74105">
        <ele>644</ele>
        <time>2010-05-09T07:52:41Z</time>
      </trkpt>
      <trkpt lat="45.25901" lon="5.74107">
        <ele>644</ele>
        <time>2010-05-09T07:52:42Z</time>
      </trkpt>
      <trkpt lat="45.25903" lon="5.7411">
        <ele>644</ele>
        <time>2010-05-09T07:52:43Z</time>
      </trkpt>
      <trkpt lat="45.25906" lon="5.74111">
        <ele>644</ele>
        <time>2010-05-09T07:52:44Z</time>
      </trkpt>
      <trkpt lat="45.25909" lon="5.74111">
        <ele>644</ele>
        <time>2010-05-09T07:52:45Z</time>
      </trkpt>
      <trkpt lat="45.25912" lon="5.74111">
        <ele>644</ele>
        <time>2010-05-09T07:52:46Z</time>
      </trkpt>
      <trkpt lat="45.25915" lon="5.74109">
        <ele>644</ele>
        <time>2010-05-09T07:52:47Z</time>
      </trkpt>
      <trkpt lat="45.25917" lon="5.74107">
        <ele>645</ele>
        <time>2010-05-09T07:52:48Z</time>
      </trkpt>
      <trkpt lat="45.25918" lon="5.74103">
        <ele>646</ele>
        <time>2010-05-09T07:52:49Z</time>
      </trkpt>
      <trkpt lat="45.25919" lon="5.741">
        <ele>646</ele>
        <time>2010-05-09T07:52:50Z</time>
      </trkpt>
      <trkpt lat="45.25919" lon="5.74096">
        <ele>646</ele>
        <time>2010-05-09T07:52:51Z</time>
      </trkpt>
      <trkpt lat="45.2592" lon="5.74093">
        <ele>646</ele>
        <time>2010-05-09T07:52:52Z</time>
      </trkpt>
      <trkpt lat="45.2592" lon="5.74089">
        <ele>646</ele>
        <time>2010-05-09T07:52:53Z</time>
      </trkpt>
      <trkpt lat="45.25921" lon="5.74085">
        <ele>646</ele>
        <time>2010-05-09T07:52:54Z</time>
      </trkpt>
      <trkpt lat="45.25921" lon="5.74081">
        <ele>646</ele>
        <time>2010-05-09T07:52:55Z</time>
      </trkpt>
      <trkpt lat="45.25922" lon="5.74077">
        <ele>646</ele>
        <time>2010-05-09T07:52:56Z</time>
      </trkpt>
      <trkpt lat="45.25922" lon="5.74074">
        <ele>646</ele>
        <time>2010-05-09T07:52:57Z</time>
      </trkpt>
      <trkpt lat="45.25923" lon="5.74072">
        <ele>646</ele>
        <time>2010-05-09T07:52:58Z</time>
      </trkpt>
      <trkpt lat="45.25925" lon="5.74071">
        <ele>646</ele>
        <time>2010-05-09T07:52:59Z</time>
      </trkpt>
      <trkpt lat="45.25926" lon="5.7407">
        <ele>646</ele>
        <time>2010-05-09T07:53:00Z</time>
      </trkpt>
      <trkpt lat="45.25927" lon="5.74069">
        <ele>645</ele>
        <time>2010-05-09T07:53:02Z</time>
      </trkpt>
      <trkpt lat="45.25928" lon="5.74069">
        <ele>645</ele>
        <time>2010-05-09T07:53:03Z</time>
      </trkpt>
      <trkpt lat="45.25931" lon="5.74068">
        <ele>644</ele>
        <time>2010-05-09T07:53:05Z</time>
      </trkpt>
      <trkpt lat="45.25932" lon="5.74067">
        <ele>644</ele>
        <time>2010-05-09T07:53:06Z</time>
      </trkpt>
      <trkpt lat="45.25933" lon="5.74066">
        <ele>644</ele>
        <time>2010-05-09T07:53:07Z</time>
      </trkpt>
      <trkpt lat="45.25935" lon="5.74064">
        <ele>644</ele>
        <time>2010-05-09T07:53:09Z</time>
      </trkpt>
      <trkpt lat="45.25936" lon="5.74062">
        <ele>644</ele>
        <time>2010-05-09T07:53:11Z</time>
      </trkpt>
      <trkpt lat="45.25938" lon="5.74061">
        <ele>644</ele>
        <time>2010-05-09T07:53:13Z</time>
      </trkpt>
      <trkpt lat="45.25938" lon="5.74059">
        <ele>644</ele>
        <time>2010-05-09T07:53:14Z</time>
      </trkpt>
      <trkpt lat="45.25938" lon="5.74057">
        <ele>644</ele>
        <time>2010-05-09T07:53:16Z</time>
      </trkpt>
      <trkpt lat="45.25939" lon="5.74054">
        <ele>644</ele>
        <time>2010-05-09T07:53:18Z</time>
      </trkpt>
      <trkpt lat="45.25939" lon="5.74053">
        <ele>644</ele>
        <time>2010-05-09T07:53:19Z</time>
      </trkpt>
      <trkpt lat="45.25938" lon="5.74051">
        <ele>644</ele>
        <time>2010-05-09T07:53:21Z</time>
      </trkpt>
      <trkpt lat="45.25938" lon="5.74049">
        <ele>644</ele>
        <time>2010-05-09T07:53:23Z</time>
      </trkpt>
      <trkpt lat="45.25938" lon="5.74047">
        <ele>644</ele>
        <time>2010-05-09T07:53:25Z</time>
      </trkpt>
      <trkpt lat="45.25938" lon="5.74046">
        <ele>644</ele>
        <time>2010-05-09T07:53:26Z</time>
      </trkpt>
      <trkpt lat="45.25938" lon="5.74044">
        <ele>644</ele>
        <time>2010-05-09T07:53:27Z</time>
      </trkpt>
      <trkpt lat="45.25938" lon="5.74042">
        <ele>644</ele>
        <time>2010-05-09T07:53:28Z</time>
      </trkpt>
      <trkpt lat="45.25938" lon="5.74041">
        <ele>644</ele>
        <time>2010-05-09T07:53:29Z</time>
      </trkpt>
      <trkpt lat="45.25938" lon="5.74038">
        <ele>645</ele>
        <time>2010-05-09T07:53:31Z</time>
      </trkpt>
      <trkpt lat="45.25937" lon="5.74037">
        <ele>645</ele>
        <time>2010-05-09T07:53:32Z</time>
      </trkpt>
      <trkpt lat="45.25937" lon="5.74034">
        <ele>645</ele>
        <time>2010-05-09T07:53:33Z</time>
      </trkpt>
      <trkpt lat="45.25938" lon="5.74032">
        <ele>646</ele>
        <time>2010-05-09T07:53:34Z</time>
      </trkpt>
      <trkpt lat="45.25938" lon="5.74031">
        <ele>646</ele>
        <time>2010-05-09T07:53:36Z</time>
      </trkpt>
      <trkpt lat="45.2594" lon="5.74032">
        <ele>646</ele>
        <time>2010-05-09T07:53:38Z</time>
      </trkpt>
      <trkpt lat="45.25941" lon="5.74033">
        <ele>647</ele>
        <time>2010-05-09T07:53:39Z</time>
      </trkpt>
      <trkpt lat="45.25942" lon="5.74036">
        <ele>647</ele>
        <time>2010-05-09T07:53:41Z</time>
      </trkpt>
      <trkpt lat="45.25942" lon="5.74038">
        <ele>647</ele>
        <time>2010-05-09T07:53:42Z</time>
      </trkpt>
      <trkpt lat="45.25943" lon="5.7404">
        <ele>648</ele>
        <time>2010-05-09T07:53:44Z</time>
      </trkpt>
      <trkpt lat="45.25945" lon="5.74042">
        <ele>648</ele>
        <time>2010-05-09T07:53:46Z</time>
      </trkpt>
      <trkpt lat="45.25946" lon="5.74045">
        <ele>649</ele>
        <time>2010-05-09T07:53:48Z</time>
      </trkpt>
      <trkpt lat="45.25946" lon="5.74047">
        <ele>650</ele>
        <time>2010-05-09T07:53:49Z</time>
      </trkpt>
      <trkpt lat="45.25947" lon="5.74049">
        <ele>651</ele>
        <time>2010-05-09T07:53:50Z</time>
      </trkpt>
      <trkpt lat="45.25949" lon="5.74051">
        <ele>652</ele>
        <time>2010-05-09T07:53:52Z</time>
      </trkpt>
      <trkpt lat="45.25951" lon="5.74053">
        <ele>653</ele>
        <time>2010-05-09T07:53:54Z</time>
      </trkpt>
      <trkpt lat="45.25952" lon="5.74055">
        <ele>654</ele>
        <time>2010-05-09T07:53:56Z</time>
      </trkpt>
      <trkpt lat="45.25953" lon="5.74058">
        <ele>655</ele>
        <time>2010-05-09T07:53:58Z</time>
      </trkpt>
      <trkpt lat="45.25954" lon="5.7406">
        <ele>655</ele>
        <time>2010-05-09T07:54:00Z</time>
      </trkpt>
      <trkpt lat="45.25956" lon="5.74062">
        <ele>656</ele>
        <time>2010-05-09T07:54:02Z</time>
      </trkpt>
      <trkpt lat="45.25956" lon="5.74063">
        <ele>656</ele>
        <time>2010-05-09T07:54:03Z</time>
      </trkpt>
      <trkpt lat="45.25957" lon="5.74065">
        <ele>656</ele>
        <time>2010-05-09T07:54:04Z</time>
      </trkpt>
      <trkpt lat="45.25957" lon="5.74066">
        <ele>657</ele>
        <time>2010-05-09T07:54:05Z</time>
      </trkpt>
      <trkpt lat="45.25958" lon="5.74068">
        <ele>657</ele>
        <time>2010-05-09T07:54:07Z</time>
      </trkpt>
      <trkpt lat="45.25959" lon="5.7407">
        <ele>658</ele>
        <time>2010-05-09T07:54:09Z</time>
      </trkpt>
      <trkpt lat="45.25961" lon="5.74073">
        <ele>659</ele>
        <time>2010-05-09T07:54:11Z</time>
      </trkpt>
      <trkpt lat="45.25962" lon="5.74076">
        <ele>660</ele>
        <time>2010-05-09T07:54:13Z</time>
      </trkpt>
      <trkpt lat="45.25964" lon="5.74077">
        <ele>660</ele>
        <time>2010-05-09T07:54:15Z</time>
      </trkpt>
      <trkpt lat="45.25966" lon="5.74079">
        <ele>661</ele>
        <time>2010-05-09T07:54:17Z</time>
      </trkpt>
      <trkpt lat="45.25968" lon="5.74079">
        <ele>662</ele>
        <time>2010-05-09T07:54:19Z</time>
      </trkpt>
      <trkpt lat="45.2597" lon="5.74082">
        <ele>663</ele>
        <time>2010-05-09T07:54:21Z</time>
      </trkpt>
      <trkpt lat="45.25972" lon="5.74085">
        <ele>664</ele>
        <time>2010-05-09T07:54:23Z</time>
      </trkpt>
      <trkpt lat="45.25972" lon="5.74088">
        <ele>664</ele>
        <time>2010-05-09T07:54:25Z</time>
      </trkpt>
      <trkpt lat="45.25973" lon="5.74089">
        <ele>664</ele>
        <time>2010-05-09T07:54:26Z</time>
      </trkpt>
      <trkpt lat="45.25973" lon="5.74091">
        <ele>664</ele>
        <time>2010-05-09T07:54:27Z</time>
      </trkpt>
      <trkpt lat="45.25973" lon="5.74093">
        <ele>664</ele>
        <time>2010-05-09T07:54:28Z</time>
      </trkpt>
      <trkpt lat="45.25974" lon="5.74096">
        <ele>665</ele>
        <time>2010-05-09T07:54:30Z</time>
      </trkpt>
      <trkpt lat="45.25975" lon="5.74097">
        <ele>665</ele>
        <time>2010-05-09T07:54:31Z</time>
      </trkpt>
      <trkpt lat="45.25976" lon="5.741">
        <ele>666</ele>
        <time>2010-05-09T07:54:33Z</time>
      </trkpt>
      <trkpt lat="45.25978" lon="5.74102">
        <ele>666</ele>
        <time>2010-05-09T07:54:35Z</time>
      </trkpt>
      <trkpt lat="45.25979" lon="5.74103">
        <ele>666</ele>
        <time>2010-05-09T07:54:36Z</time>
      </trkpt>
      <trkpt lat="45.25981" lon="5.74104">
        <ele>667</ele>
        <time>2010-05-09T07:54:38Z</time>
      </trkpt>
      <trkpt lat="45.25983" lon="5.74106">
        <ele>667</ele>
        <time>2010-05-09T07:54:40Z</time>
      </trkpt>
      <trkpt lat="45.25984" lon="5.74107">
        <ele>667</ele>
        <time>2010-05-09T07:54:42Z</time>
      </trkpt>
      <trkpt lat="45.25986" lon="5.74109">
        <ele>667</ele>
        <time>2010-05-09T07:54:45Z</time>
      </trkpt>
      <trkpt lat="45.25988" lon="5.7411">
        <ele>667</ele>
        <time>2010-05-09T07:54:47Z</time>
      </trkpt>
      <trkpt lat="45.2599" lon="5.7411">
        <ele>667</ele>
        <time>2010-05-09T07:54:48Z</time>
      </trkpt>
      <trkpt lat="45.25992" lon="5.7411">
        <ele>667</ele>
        <time>2010-05-09T07:54:49Z</time>
      </trkpt>
      <trkpt lat="45.25993" lon="5.7411">
        <ele>668</ele>
        <time>2010-05-09T07:54:50Z</time>
      </trkpt>
      <trkpt lat="45.25995" lon="5.74112">
        <ele>670</ele>
        <time>2010-05-09T07:54:52Z</time>
      </trkpt>
      <trkpt lat="45.25997" lon="5.74113">
        <ele>672</ele>
        <time>2010-05-09T07:54:54Z</time>
      </trkpt>
      <trkpt lat="45.25998" lon="5.74115">
        <ele>673</ele>
        <time>2010-05-09T07:54:56Z</time>
      </trkpt>
      <trkpt lat="45.25999" lon="5.74115">
        <ele>674</ele>
        <time>2010-05-09T07:54:58Z</time>
      </trkpt>
      <trkpt lat="45.26001" lon="5.74114">
        <ele>674</ele>
        <time>2010-05-09T07:54:59Z</time>
      </trkpt>
      <trkpt lat="45.26004" lon="5.74113">
        <ele>674</ele>
        <time>2010-05-09T07:55:00Z</time>
      </trkpt>
      <trkpt lat="45.26006" lon="5.7411">
        <ele>674</ele>
        <time>2010-05-09T07:55:01Z</time>
      </trkpt>
      <trkpt lat="45.26008" lon="5.74107">
        <ele>674</ele>
        <time>2010-05-09T07:55:02Z</time>
      </trkpt>
      <trkpt lat="45.26011" lon="5.74105">
        <ele>675</ele>
        <time>2010-05-09T07:55:03Z</time>
      </trkpt>
      <trkpt lat="45.26013" lon="5.74103">
        <ele>675</ele>
        <time>2010-05-09T07:55:04Z</time>
      </trkpt>
      <trkpt lat="45.26016" lon="5.74101">
        <ele>675</ele>
        <time>2010-05-09T07:55:05Z</time>
      </trkpt>
      <trkpt lat="45.26019" lon="5.74099">
        <ele>675</ele>
        <time>2010-05-09T07:55:06Z</time>
      </trkpt>
      <trkpt lat="45.26022" lon="5.74097">
        <ele>675</ele>
        <time>2010-05-09T07:55:07Z</time>
      </trkpt>
      <trkpt lat="45.26025" lon="5.74095">
        <ele>675</ele>
        <time>2010-05-09T07:55:08Z</time>
      </trkpt>
      <trkpt lat="45.26028" lon="5.74094">
        <ele>675</ele>
        <time>2010-05-09T07:55:09Z</time>
      </trkpt>
      <trkpt lat="45.2603" lon="5.74092">
        <ele>675</ele>
        <time>2010-05-09T07:55:10Z</time>
      </trkpt>
      <trkpt lat="45.26033" lon="5.74092">
        <ele>675</ele>
        <time>2010-05-09T07:55:11Z</time>
      </trkpt>
      <trkpt lat="45.26036" lon="5.74091">
        <ele>675</ele>
        <time>2010-05-09T07:55:12Z</time>
      </trkpt>
      <trkpt lat="45.26038" lon="5.7409">
        <ele>675</ele>
        <time>2010-05-09T07:55:13Z</time>
      </trkpt>
      <trkpt lat="45.26041" lon="5.74089">
        <ele>676</ele>
        <time>2010-05-09T07:55:14Z</time>
      </trkpt>
      <trkpt lat="45.26044" lon="5.74088">
        <ele>676</ele>
        <time>2010-05-09T07:55:15Z</time>
      </trkpt>
      <trkpt lat="45.26047" lon="5.74088">
        <ele>676</ele>
        <time>2010-05-09T07:55:16Z</time>
      </trkpt>
      <trkpt lat="45.2605" lon="5.74088">
        <ele>676</ele>
        <time>2010-05-09T07:55:17Z</time>
      </trkpt>
      <trkpt lat="45.26053" lon="5.74088">
        <ele>676</ele>
        <time>2010-05-09T07:55:18Z</time>
      </trkpt>
      <trkpt lat="45.26056" lon="5.74088">
        <ele>676</ele>
        <time>2010-05-09T07:55:19Z</time>
      </trkpt>
      <trkpt lat="45.26059" lon="5.74089">
        <ele>676</ele>
        <time>2010-05-09T07:55:20Z</time>
      </trkpt>
      <trkpt lat="45.26062" lon="5.74089">
        <ele>676</ele>
        <time>2010-05-09T07:55:21Z</time>
      </trkpt>
      <trkpt lat="45.26065" lon="5.7409">
        <ele>676</ele>
        <time>2010-05-09T07:55:22Z</time>
      </trkpt>
      <trkpt lat="45.26067" lon="5.7409">
        <ele>676</ele>
        <time>2010-05-09T07:55:23Z</time>
      </trkpt>
      <trkpt lat="45.26069" lon="5.74093">
        <ele>676</ele>
        <time>2010-05-09T07:55:24Z</time>
      </trkpt>
      <trkpt lat="45.2607" lon="5.74096">
        <ele>676</ele>
        <time>2010-05-09T07:55:25Z</time>
      </trkpt>
      <trkpt lat="45.26071" lon="5.74099">
        <ele>676</ele>
        <time>2010-05-09T07:55:26Z</time>
      </trkpt>
      <trkpt lat="45.26072" lon="5.74103">
        <ele>676</ele>
        <time>2010-05-09T07:55:27Z</time>
      </trkpt>
      <trkpt lat="45.26072" lon="5.74108">
        <ele>676</ele>
        <time>2010-05-09T07:55:28Z</time>
      </trkpt>
      <trkpt lat="45.26073" lon="5.74112">
        <ele>676</ele>
        <time>2010-05-09T07:55:29Z</time>
      </trkpt>
      <trkpt lat="45.26074" lon="5.74116">
        <ele>676</ele>
        <time>2010-05-09T07:55:30Z</time>
      </trkpt>
      <trkpt lat="45.26074" lon="5.74121">
        <ele>676</ele>
        <time>2010-05-09T07:55:31Z</time>
      </trkpt>
      <trkpt lat="45.26075" lon="5.74126">
        <ele>676</ele>
        <time>2010-05-09T07:55:32Z</time>
      </trkpt>
      <trkpt lat="45.26075" lon="5.7413">
        <ele>676</ele>
        <time>2010-05-09T07:55:33Z</time>
      </trkpt>
      <trkpt lat="45.26077" lon="5.74134">
        <ele>676</ele>
        <time>2010-05-09T07:55:34Z</time>
      </trkpt>
      <trkpt lat="45.26077" lon="5.74138">
        <ele>676</ele>
        <time>2010-05-09T07:55:35Z</time>
      </trkpt>
      <trkpt lat="45.26077" lon="5.74143">
        <ele>675</ele>
        <time>2010-05-09T07:55:36Z</time>
      </trkpt>
      <trkpt lat="45.26077" lon="5.74148">
        <ele>674</ele>
        <time>2010-05-09T07:55:37Z</time>
      </trkpt>
      <trkpt lat="45.26077" lon="5.74153">
        <ele>673</ele>
        <time>2010-05-09T07:55:38Z</time>
      </trkpt>
      <trkpt lat="45.26077" lon="5.74158">
        <ele>672</ele>
        <time>2010-05-09T07:55:39Z</time>
      </trkpt>
      <trkpt lat="45.26078" lon="5.74162">
        <ele>671</ele>
        <time>2010-05-09T07:55:40Z</time>
      </trkpt>
      <trkpt lat="45.26078" lon="5.74166">
        <ele>670</ele>
        <time>2010-05-09T07:55:41Z</time>
      </trkpt>
      <trkpt lat="45.26079" lon="5.7417">
        <ele>670</ele>
        <time>2010-05-09T07:55:42Z</time>
      </trkpt>
      <trkpt lat="45.2608" lon="5.74174">
        <ele>670</ele>
        <time>2010-05-09T07:55:43Z</time>
      </trkpt>
      <trkpt lat="45.26081" lon="5.74178">
        <ele>670</ele>
        <time>2010-05-09T07:55:44Z</time>
      </trkpt>
      <trkpt lat="45.26083" lon="5.7418">
        <ele>670</ele>
        <time>2010-05-09T07:55:45Z</time>
      </trkpt>
      <trkpt lat="45.26086" lon="5.74183">
        <ele>670</ele>
        <time>2010-05-09T07:55:46Z</time>
      </trkpt>
      <trkpt lat="45.26088" lon="5.74187">
        <ele>670</ele>
        <time>2010-05-09T07:55:47Z</time>
      </trkpt>
      <trkpt lat="45.26089" lon="5.7419">
        <ele>670</ele>
        <time>2010-05-09T07:55:48Z</time>
      </trkpt>
      <trkpt lat="45.26091" lon="5.74194">
        <ele>670</ele>
        <time>2010-05-09T07:55:49Z</time>
      </trkpt>
      <trkpt lat="45.26094" lon="5.74197">
        <ele>670</ele>
        <time>2010-05-09T07:55:50Z</time>
      </trkpt>
      <trkpt lat="45.26096" lon="5.74201">
        <ele>670</ele>
        <time>2010-05-09T07:55:51Z</time>
      </trkpt>
      <trkpt lat="45.26098" lon="5.74205">
        <ele>670</ele>
        <time>2010-05-09T07:55:52Z</time>
      </trkpt>
      <trkpt lat="45.26101" lon="5.74207">
        <ele>670</ele>
        <time>2010-05-09T07:55:53Z</time>
      </trkpt>
      <trkpt lat="45.26103" lon="5.74211">
        <ele>670</ele>
        <time>2010-05-09T07:55:54Z</time>
      </trkpt>
      <trkpt lat="45.26106" lon="5.74215">
        <ele>670</ele>
        <time>2010-05-09T07:55:55Z</time>
      </trkpt>
      <trkpt lat="45.26108" lon="5.74218">
        <ele>670</ele>
        <time>2010-05-09T07:55:56Z</time>
      </trkpt>
      <trkpt lat="45.26111" lon="5.74221">
        <ele>670</ele>
        <time>2010-05-09T07:55:57Z</time>
      </trkpt>
      <trkpt lat="45.26114" lon="5.74223">
        <ele>670</ele>
        <time>2010-05-09T07:55:58Z</time>
      </trkpt>
      <trkpt lat="45.26116" lon="5.74223">
        <ele>671</ele>
        <time>2010-05-09T07:55:59Z</time>
      </trkpt>
      <trkpt lat="45.26117" lon="5.74224">
        <ele>671</ele>
        <time>2010-05-09T07:56:00Z</time>
      </trkpt>
      <trkpt lat="45.2612" lon="5.74225">
        <ele>672</ele>
        <time>2010-05-09T07:56:01Z</time>
      </trkpt>
      <trkpt lat="45.26122" lon="5.74227">
        <ele>673</ele>
        <time>2010-05-09T07:56:02Z</time>
      </trkpt>
      <trkpt lat="45.26124" lon="5.74229">
        <ele>673</ele>
        <time>2010-05-09T07:56:03Z</time>
      </trkpt>
      <trkpt lat="45.26126" lon="5.74232">
        <ele>673</ele>
        <time>2010-05-09T07:56:04Z</time>
      </trkpt>
      <trkpt lat="45.26128" lon="5.74234">
        <ele>673</ele>
        <time>2010-05-09T07:56:05Z</time>
      </trkpt>
      <trkpt lat="45.2613" lon="5.74237">
        <ele>673</ele>
        <time>2010-05-09T07:56:06Z</time>
      </trkpt>
      <trkpt lat="45.26132" lon="5.74239">
        <ele>673</ele>
        <time>2010-05-09T07:56:07Z</time>
      </trkpt>
      <trkpt lat="45.26133" lon="5.74241">
        <ele>673</ele>
        <time>2010-05-09T07:56:08Z</time>
      </trkpt>
      <trkpt lat="45.26134" lon="5.74243">
        <ele>673</ele>
        <time>2010-05-09T07:56:09Z</time>
      </trkpt>
      <trkpt lat="45.26134" lon="5.74245">
        <ele>673</ele>
        <time>2010-05-09T07:56:10Z</time>
      </trkpt>
      <trkpt lat="45.26136" lon="5.74246">
        <ele>673</ele>
        <time>2010-05-09T07:56:11Z</time>
      </trkpt>
      <trkpt lat="45.26138" lon="5.74248">
        <ele>674</ele>
        <time>2010-05-09T07:56:13Z</time>
      </trkpt>
      <trkpt lat="45.26139" lon="5.7425">
        <ele>674</ele>
        <time>2010-05-09T07:56:14Z</time>
      </trkpt>
      <trkpt lat="45.2614" lon="5.74251">
        <ele>675</ele>
        <time>2010-05-09T07:56:15Z</time>
      </trkpt>
      <trkpt lat="45.2614" lon="5.74253">
        <ele>676</ele>
        <time>2010-05-09T07:56:16Z</time>
      </trkpt>
      <trkpt lat="45.2614" lon="5.74255">
        <ele>676</ele>
        <time>2010-05-09T07:56:17Z</time>
      </trkpt>
      <trkpt lat="45.2614" lon="5.74258">
        <ele>676</ele>
        <time>2010-05-09T07:56:19Z</time>
      </trkpt>
      <trkpt lat="45.2614" lon="5.7426">
        <ele>676</ele>
        <time>2010-05-09T07:56:20Z</time>
      </trkpt>
      <trkpt lat="45.26142" lon="5.74263">
        <ele>676</ele>
        <time>2010-05-09T07:56:22Z</time>
      </trkpt>
      <trkpt lat="45.26143" lon="5.74264">
        <ele>676</ele>
        <time>2010-05-09T07:56:24Z</time>
      </trkpt>
      <trkpt lat="45.26144" lon="5.74266">
        <ele>676</ele>
        <time>2010-05-09T07:56:26Z</time>
      </trkpt>
      <trkpt lat="45.26144" lon="5.74268">
        <ele>676</ele>
        <time>2010-05-09T07:56:27Z</time>
      </trkpt>
      <trkpt lat="45.26145" lon="5.74271">
        <ele>676</ele>
        <time>2010-05-09T07:56:29Z</time>
      </trkpt>
      <trkpt lat="45.26147" lon="5.74272">
        <ele>676</ele>
        <time>2010-05-09T07:56:31Z</time>
      </trkpt>
      <trkpt lat="45.26148" lon="5.74275">
        <ele>676</ele>
        <time>2010-05-09T07:56:33Z</time>
      </trkpt>
      <trkpt lat="45.2615" lon="5.74276">
        <ele>676</ele>
        <time>2010-05-09T07:56:35Z</time>
      </trkpt>
      <trkpt lat="45.26152" lon="5.74276">
        <ele>676</ele>
        <time>2010-05-09T07:56:36Z</time>
      </trkpt>
      <trkpt lat="45.26153" lon="5.74277">
        <ele>677</ele>
        <time>2010-05-09T07:56:37Z</time>
      </trkpt>
      <trkpt lat="45.26155" lon="5.74278">
        <ele>677</ele>
        <time>2010-05-09T07:56:38Z</time>
      </trkpt>
      <trkpt lat="45.26156" lon="5.74281">
        <ele>678</ele>
        <time>2010-05-09T07:56:40Z</time>
      </trkpt>
      <trkpt lat="45.26156" lon="5.74283">
        <ele>679</ele>
        <time>2010-05-09T07:56:41Z</time>
      </trkpt>
      <trkpt lat="45.26157" lon="5.74286">
        <ele>679</ele>
        <time>2010-05-09T07:56:43Z</time>
      </trkpt>
      <trkpt lat="45.26158" lon="5.74287">
        <ele>679</ele>
        <time>2010-05-09T07:56:44Z</time>
      </trkpt>
      <trkpt lat="45.26158" lon="5.74289">
        <ele>679</ele>
        <time>2010-05-09T07:56:45Z</time>
      </trkpt>
      <trkpt lat="45.26159" lon="5.74291">
        <ele>679</ele>
        <time>2010-05-09T07:56:47Z</time>
      </trkpt>
      <trkpt lat="45.2616" lon="5.74294">
        <ele>679</ele>
        <time>2010-05-09T07:56:49Z</time>
      </trkpt>
      <trkpt lat="45.2616" lon="5.74295">
        <ele>679</ele>
        <time>2010-05-09T07:56:51Z</time>
      </trkpt>
      <trkpt lat="45.26161" lon="5.74298">
        <ele>679</ele>
        <time>2010-05-09T07:56:53Z</time>
      </trkpt>
      <trkpt lat="45.26162" lon="5.743">
        <ele>680</ele>
        <time>2010-05-09T07:56:55Z</time>
      </trkpt>
      <trkpt lat="45.26163" lon="5.74301">
        <ele>680</ele>
        <time>2010-05-09T07:56:55Z</time>
      </trkpt>
      <trkpt lat="45.26164" lon="5.74302">
        <ele>681</ele>
        <time>2010-05-09T07:56:58Z</time>
      </trkpt>
      <trkpt lat="45.26166" lon="5.743">
        <ele>681</ele>
        <time>2010-05-09T07:57:00Z</time>
      </trkpt>
      <trkpt lat="45.26168" lon="5.74299">
        <ele>681</ele>
        <time>2010-05-09T07:57:01Z</time>
      </trkpt>
      <trkpt lat="45.26169" lon="5.74297">
        <ele>681</ele>
        <time>2010-05-09T07:57:03Z</time>
      </trkpt>
      <trkpt lat="45.2617" lon="5.74295">
        <ele>681</ele>
        <time>2010-05-09T07:57:04Z</time>
      </trkpt>
      <trkpt lat="45.2617" lon="5.74293">
        <ele>681</ele>
        <time>2010-05-09T07:57:06Z</time>
      </trkpt>
      <trkpt lat="45.26171" lon="5.74291">
        <ele>681</ele>
        <time>2010-05-09T07:57:08Z</time>
      </trkpt>
      <trkpt lat="45.26172" lon="5.74289">
        <ele>681</ele>
        <time>2010-05-09T07:57:10Z</time>
      </trkpt>
      <trkpt lat="45.26173" lon="5.74286">
        <ele>681</ele>
        <time>2010-05-09T07:57:12Z</time>
      </trkpt>
      <trkpt lat="45.26175" lon="5.74284">
        <ele>681</ele>
        <time>2010-05-09T07:57:14Z</time>
      </trkpt>
      <trkpt lat="45.26175" lon="5.74282">
        <ele>681</ele>
        <time>2010-05-09T07:57:15Z</time>
      </trkpt>
      <trkpt lat="45.26176" lon="5.74279">
        <ele>681</ele>
        <time>2010-05-09T07:57:16Z</time>
      </trkpt>
      <trkpt lat="45.26178" lon="5.74277">
        <ele>681</ele>
        <time>2010-05-09T07:57:17Z</time>
      </trkpt>
      <trkpt lat="45.26179" lon="5.74275">
        <ele>681</ele>
        <time>2010-05-09T07:57:18Z</time>
      </trkpt>
      <trkpt lat="45.2618" lon="5.74273">
        <ele>681</ele>
        <time>2010-05-09T07:57:19Z</time>
      </trkpt>
      <trkpt lat="45.26181" lon="5.74271">
        <ele>681</ele>
        <time>2010-05-09T07:57:20Z</time>
      </trkpt>
      <trkpt lat="45.26182" lon="5.74268">
        <ele>681</ele>
        <time>2010-05-09T07:57:21Z</time>
      </trkpt>
      <trkpt lat="45.26183" lon="5.74265">
        <ele>681</ele>
        <time>2010-05-09T07:57:22Z</time>
      </trkpt>
      <trkpt lat="45.26184" lon="5.74263">
        <ele>682</ele>
        <time>2010-05-09T07:57:23Z</time>
      </trkpt>
      <trkpt lat="45.26184" lon="5.7426">
        <ele>682</ele>
        <time>2010-05-09T07:57:24Z</time>
      </trkpt>
      <trkpt lat="45.26184" lon="5.74257">
        <ele>682</ele>
        <time>2010-05-09T07:57:25Z</time>
      </trkpt>
      <trkpt lat="45.26185" lon="5.74254">
        <ele>682</ele>
        <time>2010-05-09T07:57:26Z</time>
      </trkpt>
      <trkpt lat="45.26186" lon="5.74251">
        <ele>683</ele>
        <time>2010-05-09T07:57:27Z</time>
      </trkpt>
      <trkpt lat="45.26186" lon="5.74248">
        <ele>683</ele>
        <time>2010-05-09T07:57:28Z</time>
      </trkpt>
      <trkpt lat="45.26186" lon="5.74245">
        <ele>683</ele>
        <time>2010-05-09T07:57:29Z</time>
      </trkpt>
      <trkpt lat="45.26187" lon="5.74242">
        <ele>684</ele>
        <time>2010-05-09T07:57:30Z</time>
      </trkpt>
      <trkpt lat="45.26188" lon="5.74239">
        <ele>684</ele>
        <time>2010-05-09T07:57:31Z</time>
      </trkpt>
      <trkpt lat="45.26189" lon="5.74238">
        <ele>685</ele>
        <time>2010-05-09T07:57:32Z</time>
      </trkpt>
      <trkpt lat="45.26191" lon="5.74238">
        <ele>685</ele>
        <time>2010-05-09T07:57:33Z</time>
      </trkpt>
      <trkpt lat="45.26193" lon="5.74237">
        <ele>685</ele>
        <time>2010-05-09T07:57:34Z</time>
      </trkpt>
      <trkpt lat="45.26196" lon="5.74236">
        <ele>686</ele>
        <time>2010-05-09T07:57:35Z</time>
      </trkpt>
      <trkpt lat="45.26199" lon="5.74235">
        <ele>686</ele>
        <time>2010-05-09T07:57:36Z</time>
      </trkpt>
      <trkpt lat="45.26202" lon="5.74235">
        <ele>686</ele>
        <time>2010-05-09T07:57:37Z</time>
      </trkpt>
      <trkpt lat="45.26206" lon="5.74236">
        <ele>686</ele>
        <time>2010-05-09T07:57:37Z</time>
      </trkpt>
      <trkpt lat="45.26208" lon="5.74237">
        <ele>686</ele>
        <time>2010-05-09T07:57:39Z</time>
      </trkpt>
      <trkpt lat="45.2621" lon="5.74237">
        <ele>686</ele>
        <time>2010-05-09T07:57:40Z</time>
      </trkpt>
      <trkpt lat="45.26213" lon="5.74237">
        <ele>686</ele>
        <time>2010-05-09T07:57:41Z</time>
      </trkpt>
      <trkpt lat="45.26215" lon="5.74239">
        <ele>686</ele>
        <time>2010-05-09T07:57:41Z</time>
      </trkpt>
      <trkpt lat="45.26217" lon="5.7424">
        <ele>686</ele>
        <time>2010-05-09T07:57:43Z</time>
      </trkpt>
      <trkpt lat="45.26217" lon="5.74244">
        <ele>686</ele>
        <time>2010-05-09T07:57:45Z</time>
      </trkpt>
      <trkpt lat="45.26217" lon="5.74246">
        <ele>686</ele>
        <time>2010-05-09T07:57:46Z</time>
      </trkpt>
      <trkpt lat="45.26218" lon="5.74248">
        <ele>686</ele>
        <time>2010-05-09T07:57:47Z</time>
      </trkpt>
      <trkpt lat="45.26218" lon="5.7425">
        <ele>686</ele>
        <time>2010-05-09T07:57:48Z</time>
      </trkpt>
      <trkpt lat="45.2622" lon="5.74251">
        <ele>686</ele>
        <time>2010-05-09T07:57:48Z</time>
      </trkpt>
      <trkpt lat="45.26222" lon="5.74253">
        <ele>686</ele>
        <time>2010-05-09T07:57:50Z</time>
      </trkpt>
      <trkpt lat="45.26224" lon="5.74256">
        <ele>686</ele>
        <time>2010-05-09T07:57:51Z</time>
      </trkpt>
      <trkpt lat="45.26226" lon="5.74258">
        <ele>686</ele>
        <time>2010-05-09T07:57:52Z</time>
      </trkpt>
      <trkpt lat="45.26228" lon="5.7426">
        <ele>686</ele>
        <time>2010-05-09T07:57:52Z</time>
      </trkpt>
      <trkpt lat="45.2623" lon="5.74261">
        <ele>686</ele>
        <time>2010-05-09T07:57:54Z</time>
      </trkpt>
      <trkpt lat="45.26232" lon="5.74263">
        <ele>686</ele>
        <time>2010-05-09T07:57:55Z</time>
      </trkpt>
      <trkpt lat="45.26234" lon="5.74264">
        <ele>686</ele>
        <time>2010-05-09T07:57:55Z</time>
      </trkpt>
      <trkpt lat="45.26237" lon="5.74267">
        <ele>685</ele>
        <time>2010-05-09T07:57:57Z</time>
      </trkpt>
      <trkpt lat="45.26241" lon="5.74269">
        <ele>684</ele>
        <time>2010-05-09T07:57:58Z</time>
      </trkpt>
      <trkpt lat="45.26243" lon="5.74271">
        <ele>683</ele>
        <time>2010-05-09T07:57:59Z</time>
      </trkpt>
      <trkpt lat="45.26245" lon="5.74273">
        <ele>683</ele>
        <time>2010-05-09T07:57:59Z</time>
      </trkpt>
      <trkpt lat="45.26247" lon="5.74275">
        <ele>683</ele>
        <time>2010-05-09T07:58:01Z</time>
      </trkpt>
      <trkpt lat="45.26249" lon="5.74277">
        <ele>683</ele>
        <time>2010-05-09T07:58:02Z</time>
      </trkpt>
      <trkpt lat="45.26252" lon="5.74279">
        <ele>683</ele>
        <time>2010-05-09T07:58:03Z</time>
      </trkpt>
      <trkpt lat="45.26254" lon="5.74281">
        <ele>683</ele>
        <time>2010-05-09T07:58:04Z</time>
      </trkpt>
      <trkpt lat="45.26255" lon="5.74283">
        <ele>683</ele>
        <time>2010-05-09T07:58:05Z</time>
      </trkpt>
      <trkpt lat="45.26257" lon="5.74285">
        <ele>682</ele>
        <time>2010-05-09T07:58:06Z</time>
      </trkpt>
      <trkpt lat="45.26259" lon="5.74286">
        <ele>682</ele>
        <time>2010-05-09T07:58:06Z</time>
      </trkpt>
      <trkpt lat="45.26261" lon="5.74288">
        <ele>682</ele>
        <time>2010-05-09T07:58:08Z</time>
      </trkpt>
      <trkpt lat="45.26263" lon="5.74289">
        <ele>682</ele>
        <time>2010-05-09T07:58:09Z</time>
      </trkpt>
      <trkpt lat="45.26265" lon="5.7429">
        <ele>682</ele>
        <time>2010-05-09T07:58:09Z</time>
      </trkpt>
      <trkpt lat="45.26266" lon="5.74291">
        <ele>682</ele>
        <time>2010-05-09T07:58:10Z</time>
      </trkpt>
      <trkpt lat="45.26268" lon="5.74291">
        <ele>682</ele>
        <time>2010-05-09T07:58:12Z</time>
      </trkpt>
      <trkpt lat="45.26271" lon="5.74291">
        <ele>682</ele>
        <time>2010-05-09T07:58:13Z</time>
      </trkpt>
      <trkpt lat="45.26273" lon="5.74291">
        <ele>682</ele>
        <time>2010-05-09T07:58:14Z</time>
      </trkpt>
      <trkpt lat="45.26277" lon="5.7429">
        <ele>682</ele>
        <time>2010-05-09T07:58:14Z</time>
      </trkpt>
      <trkpt lat="45.2628" lon="5.7429">
        <ele>682</ele>
        <time>2010-05-09T07:58:16Z</time>
      </trkpt>
      <trkpt lat="45.26283" lon="5.74289">
        <ele>682</ele>
        <time>2010-05-09T07:58:17Z</time>
      </trkpt>
      <trkpt lat="45.26286" lon="5.74287">
        <ele>682</ele>
        <time>2010-05-09T07:58:18Z</time>
      </trkpt>
      <trkpt lat="45.26289" lon="5.74285">
        <ele>682</ele>
        <time>2010-05-09T07:58:19Z</time>
      </trkpt>
      <trkpt lat="45.26292" lon="5.74283">
        <ele>682</ele>
        <time>2010-05-09T07:58:20Z</time>
      </trkpt>
      <trkpt lat="45.26295" lon="5.7428">
        <ele>683</ele>
        <time>2010-05-09T07:58:21Z</time>
      </trkpt>
      <trkpt lat="45.26297" lon="5.74278">
        <ele>683</ele>
        <time>2010-05-09T07:58:22Z</time>
      </trkpt>
      <trkpt lat="45.26299" lon="5.74276">
        <ele>684</ele>
        <time>2010-05-09T07:58:23Z</time>
      </trkpt>
      <trkpt lat="45.26301" lon="5.74273">
        <ele>684</ele>
        <time>2010-05-09T07:58:24Z</time>
      </trkpt>
      <trkpt lat="45.26303" lon="5.74271">
        <ele>684</ele>
        <time>2010-05-09T07:58:24Z</time>
      </trkpt>
      <trkpt lat="45.26306" lon="5.74271">
        <ele>684</ele>
        <time>2010-05-09T07:58:26Z</time>
      </trkpt>
      <trkpt lat="45.26309" lon="5.74272">
        <ele>684</ele>
        <time>2010-05-09T07:58:26Z</time>
      </trkpt>
      <trkpt lat="45.26311" lon="5.74274">
        <ele>684</ele>
        <time>2010-05-09T07:58:28Z</time>
      </trkpt>
      <trkpt lat="45.26313" lon="5.74276">
        <ele>684</ele>
        <time>2010-05-09T07:58:29Z</time>
      </trkpt>
      <trkpt lat="45.26316" lon="5.74278">
        <ele>684</ele>
        <time>2010-05-09T07:58:29Z</time>
      </trkpt>
      <trkpt lat="45.26318" lon="5.74279">
        <ele>684</ele>
        <time>2010-05-09T07:58:31Z</time>
      </trkpt>
      <trkpt lat="45.26318" lon="5.74282">
        <ele>684</ele>
        <time>2010-05-09T07:58:32Z</time>
      </trkpt>
      <trkpt lat="45.26318" lon="5.74285">
        <ele>684</ele>
        <time>2010-05-09T07:58:33Z</time>
      </trkpt>
      <trkpt lat="45.26319" lon="5.74287">
        <ele>684</ele>
        <time>2010-05-09T07:58:34Z</time>
      </trkpt>
      <trkpt lat="45.26322" lon="5.74289">
        <ele>684</ele>
        <time>2010-05-09T07:58:36Z</time>
      </trkpt>
      <trkpt lat="45.26323" lon="5.7429">
        <ele>684</ele>
        <time>2010-05-09T07:58:37Z</time>
      </trkpt>
      <trkpt lat="45.26325" lon="5.7429">
        <ele>684</ele>
        <time>2010-05-09T07:58:37Z</time>
      </trkpt>
      <trkpt lat="45.26327" lon="5.74291">
        <ele>684</ele>
        <time>2010-05-09T07:58:39Z</time>
      </trkpt>
      <trkpt lat="45.26329" lon="5.74293">
        <ele>684</ele>
        <time>2010-05-09T07:58:40Z</time>
      </trkpt>
      <trkpt lat="45.26331" lon="5.74295">
        <ele>684</ele>
        <time>2010-05-09T07:58:41Z</time>
      </trkpt>
      <trkpt lat="45.26333" lon="5.74297">
        <ele>684</ele>
        <time>2010-05-09T07:58:42Z</time>
      </trkpt>
      <trkpt lat="45.26335" lon="5.74298">
        <ele>684</ele>
        <time>2010-05-09T07:58:42Z</time>
      </trkpt>
      <trkpt lat="45.26336" lon="5.74301">
        <ele>684</ele>
        <time>2010-05-09T07:58:44Z</time>
      </trkpt>
      <trkpt lat="45.26338" lon="5.74303">
        <ele>684</ele>
        <time>2010-05-09T07:58:44Z</time>
      </trkpt>
      <trkpt lat="45.26339" lon="5.74304">
        <ele>684</ele>
        <time>2010-05-09T07:58:45Z</time>
      </trkpt>
      <trkpt lat="45.26342" lon="5.74306">
        <ele>684</ele>
        <time>2010-05-09T07:58:46Z</time>
      </trkpt>
      <trkpt lat="45.26344" lon="5.74307">
        <ele>684</ele>
        <time>2010-05-09T07:58:47Z</time>
      </trkpt>
      <trkpt lat="45.26346" lon="5.74307">
        <ele>685</ele>
        <time>2010-05-09T07:58:49Z</time>
      </trkpt>
      <trkpt lat="45.26349" lon="5.74307">
        <ele>685</ele>
        <time>2010-05-09T07:58:50Z</time>
      </trkpt>
      <trkpt lat="45.26352" lon="5.74307">
        <ele>685</ele>
        <time>2010-05-09T07:58:51Z</time>
      </trkpt>
      <trkpt lat="45.26354" lon="5.74307">
        <ele>686</ele>
        <time>2010-05-09T07:58:51Z</time>
      </trkpt>
      <trkpt lat="45.26357" lon="5.74306">
        <ele>686</ele>
        <time>2010-05-09T07:58:52Z</time>
      </trkpt>
      <trkpt lat="45.26359" lon="5.74304">
        <ele>686</ele>
        <time>2010-05-09T07:58:53Z</time>
      </trkpt>
      <trkpt lat="45.26361" lon="5.74304">
        <ele>686</ele>
        <time>2010-05-09T07:58:55Z</time>
      </trkpt>
      <trkpt lat="45.26364" lon="5.74303">
        <ele>687</ele>
        <time>2010-05-09T07:58:55Z</time>
      </trkpt>
      <trkpt lat="45.26366" lon="5.74303">
        <ele>687</ele>
        <time>2010-05-09T07:58:56Z</time>
      </trkpt>
      <trkpt lat="45.26368" lon="5.74302">
        <ele>687</ele>
        <time>2010-05-09T07:58:57Z</time>
      </trkpt>
      <trkpt lat="45.26371" lon="5.74301">
        <ele>687</ele>
        <time>2010-05-09T07:58:58Z</time>
      </trkpt>
      <trkpt lat="45.26373" lon="5.74298">
        <ele>687</ele>
        <time>2010-05-09T07:59:00Z</time>
      </trkpt>
      <trkpt lat="45.26376" lon="5.74295">
        <ele>687</ele>
        <time>2010-05-09T07:59:01Z</time>
      </trkpt>
      <trkpt lat="45.26378" lon="5.74293">
        <ele>687</ele>
        <time>2010-05-09T07:59:02Z</time>
      </trkpt>
      <trkpt lat="45.2638" lon="5.74291">
        <ele>687</ele>
        <time>2010-05-09T07:59:03Z</time>
      </trkpt>
      <trkpt lat="45.26382" lon="5.74289">
        <ele>687</ele>
        <time>2010-05-09T07:59:04Z</time>
      </trkpt>
      <trkpt lat="45.26384" lon="5.74287">
        <ele>687</ele>
        <time>2010-05-09T07:59:04Z</time>
      </trkpt>
      <trkpt lat="45.26386" lon="5.74286">
        <ele>687</ele>
        <time>2010-05-09T07:59:06Z</time>
      </trkpt>
      <trkpt lat="45.26389" lon="5.74286">
        <ele>687</ele>
        <time>2010-05-09T07:59:06Z</time>
      </trkpt>
      <trkpt lat="45.26391" lon="5.74287">
        <ele>687</ele>
        <time>2010-05-09T07:59:07Z</time>
      </trkpt>
      <trkpt lat="45.26394" lon="5.74287">
        <ele>687</ele>
        <time>2010-05-09T07:59:08Z</time>
      </trkpt>
      <trkpt lat="45.26397" lon="5.74288">
        <ele>687</ele>
        <time>2010-05-09T07:59:10Z</time>
      </trkpt>
      <trkpt lat="45.264" lon="5.74288">
        <ele>687</ele>
        <time>2010-05-09T07:59:11Z</time>
      </trkpt>
      <trkpt lat="45.26403" lon="5.74287">
        <ele>687</ele>
        <time>2010-05-09T07:59:12Z</time>
      </trkpt>
      <trkpt lat="45.26406" lon="5.74287">
        <ele>687</ele>
        <time>2010-05-09T07:59:13Z</time>
      </trkpt>
      <trkpt lat="45.26409" lon="5.74288">
        <ele>687</ele>
        <time>2010-05-09T07:59:13Z</time>
      </trkpt>
      <trkpt lat="45.26411" lon="5.74289">
        <ele>687</ele>
        <time>2010-05-09T07:59:14Z</time>
      </trkpt>
      <trkpt lat="45.26414" lon="5.7429">
        <ele>687</ele>
        <time>2010-05-09T07:59:16Z</time>
      </trkpt>
      <trkpt lat="45.26416" lon="5.74292">
        <ele>687</ele>
        <time>2010-05-09T07:59:17Z</time>
      </trkpt>
      <trkpt lat="45.26418" lon="5.74294">
        <ele>687</ele>
        <time>2010-05-09T07:59:17Z</time>
      </trkpt>
      <trkpt lat="45.26421" lon="5.74294">
        <ele>686</ele>
        <time>2010-05-09T07:59:18Z</time>
      </trkpt>
      <trkpt lat="45.26424" lon="5.74295">
        <ele>686</ele>
        <time>2010-05-09T07:59:19Z</time>
      </trkpt>
      <trkpt lat="45.26428" lon="5.74296">
        <ele>686</ele>
        <time>2010-05-09T07:59:21Z</time>
      </trkpt>
      <trkpt lat="45.26431" lon="5.74296">
        <ele>686</ele>
        <time>2010-05-09T07:59:21Z</time>
      </trkpt>
      <trkpt lat="45.26433" lon="5.74298">
        <ele>686</ele>
        <time>2010-05-09T07:59:22Z</time>
      </trkpt>
      <trkpt lat="45.26434" lon="5.74299">
        <ele>686</ele>
        <time>2010-05-09T07:59:23Z</time>
      </trkpt>
      <trkpt lat="45.26437" lon="5.743">
        <ele>686</ele>
        <time>2010-05-09T07:59:24Z</time>
      </trkpt>
      <trkpt lat="45.26439" lon="5.74302">
        <ele>686</ele>
        <time>2010-05-09T07:59:26Z</time>
      </trkpt>
      <trkpt lat="45.26442" lon="5.74303">
        <ele>686</ele>
        <time>2010-05-09T07:59:26Z</time>
      </trkpt>
      <trkpt lat="45.26444" lon="5.74304">
        <ele>686</ele>
        <time>2010-05-09T07:59:27Z</time>
      </trkpt>
      <trkpt lat="45.26447" lon="5.74303">
        <ele>686</ele>
        <time>2010-05-09T07:59:29Z</time>
      </trkpt>
      <trkpt lat="45.2645" lon="5.74303">
        <ele>686</ele>
        <time>2010-05-09T07:59:29Z</time>
      </trkpt>
      <trkpt lat="45.26453" lon="5.74304">
        <ele>686</ele>
        <time>2010-05-09T07:59:31Z</time>
      </trkpt>
      <trkpt lat="45.26455" lon="5.74307">
        <ele>686</ele>
        <time>2010-05-09T07:59:31Z</time>
      </trkpt>
      <trkpt lat="45.26458" lon="5.74308">
        <ele>686</ele>
        <time>2010-05-09T07:59:32Z</time>
      </trkpt>
      <trkpt lat="45.2646" lon="5.74308">
        <ele>686</ele>
        <time>2010-05-09T07:59:33Z</time>
      </trkpt>
      <trkpt lat="45.26463" lon="5.74308">
        <ele>686</ele>
        <time>2010-05-09T07:59:35Z</time>
      </trkpt>
      <trkpt lat="45.26466" lon="5.74307">
        <ele>686</ele>
        <time>2010-05-09T07:59:36Z</time>
      </trkpt>
      <trkpt lat="45.26469" lon="5.74305">
        <ele>686</ele>
        <time>2010-05-09T07:59:36Z</time>
      </trkpt>
      <trkpt lat="45.26472" lon="5.74303">
        <ele>686</ele>
        <time>2010-05-09T07:59:37Z</time>
      </trkpt>
      <trkpt lat="45.26474" lon="5.74305">
        <ele>686</ele>
        <time>2010-05-09T07:59:39Z</time>
      </trkpt>
      <trkpt lat="45.26477" lon="5.74307">
        <ele>687</ele>
        <time>2010-05-09T07:59:39Z</time>
      </trkpt>
      <trkpt lat="45.26479" lon="5.7431">
        <ele>688</ele>
        <time>2010-05-09T07:59:41Z</time>
      </trkpt>
      <trkpt lat="45.26482" lon="5.74312">
        <ele>688</ele>
        <time>2010-05-09T07:59:41Z</time>
      </trkpt>
      <trkpt lat="45.26484" lon="5.74314">
        <ele>688</ele>
        <time>2010-05-09T07:59:42Z</time>
      </trkpt>
      <trkpt lat="45.26486" lon="5.74318">
        <ele>688</ele>
        <time>2010-05-09T07:59:43Z</time>
      </trkpt>
      <trkpt lat="45.26487" lon="5.74321">
        <ele>688</ele>
        <time>2010-05-09T07:59:44Z</time>
      </trkpt>
      <trkpt lat="45.26488" lon="5.74325">
        <ele>688</ele>
        <time>2010-05-09T07:59:46Z</time>
      </trkpt>
      <trkpt lat="45.26489" lon="5.74329">
        <ele>687</ele>
        <time>2010-05-09T07:59:46Z</time>
      </trkpt>
      <trkpt lat="45.2649" lon="5.74331">
        <ele>686</ele>
        <time>2010-05-09T07:59:48Z</time>
      </trkpt>
      <trkpt lat="45.26491" lon="5.74334">
        <ele>685</ele>
        <time>2010-05-09T07:59:49Z</time>
      </trkpt>
      <trkpt lat="45.26493" lon="5.74338">
        <ele>684</ele>
        <time>2010-05-09T07:59:49Z</time>
      </trkpt>
      <trkpt lat="45.26495" lon="5.74342">
        <ele>683</ele>
        <time>2010-05-09T07:59:51Z</time>
      </trkpt>
      <trkpt lat="45.26497" lon="5.74346">
        <ele>682</ele>
        <time>2010-05-09T07:59:51Z</time>
      </trkpt>
      <trkpt lat="45.265" lon="5.74349">
        <ele>681</ele>
        <time>2010-05-09T07:59:53Z</time>
      </trkpt>
      <trkpt lat="45.26501" lon="5.74351">
        <ele>680</ele>
        <time>2010-05-09T07:59:53Z</time>
      </trkpt>
      <trkpt lat="45.26502" lon="5.74353">
        <ele>679</ele>
        <time>2010-05-09T07:59:54Z</time>
      </trkpt>
      <trkpt lat="45.26503" lon="5.74356">
        <ele>678</ele>
        <time>2010-05-09T07:59:56Z</time>
      </trkpt>
      <trkpt lat="45.26505" lon="5.74359">
        <ele>678</ele>
        <time>2010-05-09T07:59:56Z</time>
      </trkpt>
      <trkpt lat="45.26506" lon="5.74361">
        <ele>678</ele>
        <time>2010-05-09T07:59:57Z</time>
      </trkpt>
      <trkpt lat="45.26508" lon="5.74363">
        <ele>678</ele>
        <time>2010-05-09T07:59:58Z</time>
      </trkpt>
      <trkpt lat="45.2651" lon="5.74361">
        <ele>678</ele>
        <time>2010-05-09T08:00:01Z</time>
      </trkpt>
      <trkpt lat="45.26512" lon="5.74358">
        <ele>678</ele>
        <time>2010-05-09T08:00:01Z</time>
      </trkpt>
      <trkpt lat="45.26514" lon="5.74356">
        <ele>678</ele>
        <time>2010-05-09T08:00:02Z</time>
      </trkpt>
      <trkpt lat="45.26516" lon="5.74353">
        <ele>678</ele>
        <time>2010-05-09T08:00:03Z</time>
      </trkpt>
      <trkpt lat="45.26516" lon="5.7435">
        <ele>678</ele>
        <time>2010-05-09T08:00:05Z</time>
      </trkpt>
      <trkpt lat="45.26517" lon="5.74347">
        <ele>678</ele>
        <time>2010-05-09T08:00:06Z</time>
      </trkpt>
      <trkpt lat="45.2652" lon="5.74345">
        <ele>678</ele>
        <time>2010-05-09T08:00:06Z</time>
      </trkpt>
      <trkpt lat="45.26522" lon="5.74342">
        <ele>678</ele>
        <time>2010-05-09T08:00:07Z</time>
      </trkpt>
      <trkpt lat="45.26524" lon="5.7434">
        <ele>678</ele>
        <time>2010-05-09T08:00:08Z</time>
      </trkpt>
      <trkpt lat="45.26526" lon="5.74338">
        <ele>678</ele>
        <time>2010-05-09T08:00:09Z</time>
      </trkpt>
      <trkpt lat="45.26528" lon="5.74337">
        <ele>678</ele>
        <time>2010-05-09T08:00:10Z</time>
      </trkpt>
      <trkpt lat="45.26529" lon="5.74335">
        <ele>679</ele>
        <time>2010-05-09T08:00:12Z</time>
      </trkpt>
      <trkpt lat="45.2653" lon="5.74333">
        <ele>680</ele>
        <time>2010-05-09T08:00:12Z</time>
      </trkpt>
      <trkpt lat="45.26531" lon="5.74331">
        <ele>680</ele>
        <time>2010-05-09T08:00:13Z</time>
      </trkpt>
      <trkpt lat="45.26531" lon="5.7433">
        <ele>681</ele>
        <time>2010-05-09T08:00:14Z</time>
      </trkpt>
      <trkpt lat="45.26532" lon="5.74328">
        <ele>682</ele>
        <time>2010-05-09T08:00:18Z</time>
      </trkpt>
      <trkpt lat="45.26534" lon="5.74326">
        <ele>682</ele>
        <time>2010-05-09T08:00:20Z</time>
      </trkpt>
      <trkpt lat="45.26533" lon="5.74324">
        <ele>682</ele>
        <time>2010-05-09T08:00:20Z</time>
      </trkpt>
      <trkpt lat="45.26532" lon="5.74322">
        <ele>682</ele>
        <time>2010-05-09T08:00:21Z</time>
      </trkpt>
      <trkpt lat="45.2653" lon="5.74321">
        <ele>682</ele>
        <time>2010-05-09T08:00:23Z</time>
      </trkpt>
      <trkpt lat="45.26528" lon="5.74318">
        <ele>682</ele>
        <time>2010-05-09T08:00:23Z</time>
      </trkpt>
      <trkpt lat="45.26526" lon="5.74316">
        <ele>682</ele>
        <time>2010-05-09T08:00:24Z</time>
      </trkpt>
      <trkpt lat="45.26524" lon="5.74312">
        <ele>682</ele>
        <time>2010-05-09T08:00:25Z</time>
      </trkpt>
      <trkpt lat="45.26522" lon="5.74309">
        <ele>682</ele>
        <time>2010-05-09T08:00:26Z</time>
      </trkpt>
      <trkpt lat="45.26521" lon="5.74305">
        <ele>682</ele>
        <time>2010-05-09T08:00:28Z</time>
      </trkpt>
      <trkpt lat="45.26522" lon="5.74301">
        <ele>683</ele>
        <time>2010-05-09T08:00:28Z</time>
      </trkpt>
      <trkpt lat="45.26522" lon="5.74297">
        <ele>683</ele>
        <time>2010-05-09T08:00:29Z</time>
      </trkpt>
      <trkpt lat="45.26522" lon="5.74294">
        <ele>683</ele>
        <time>2010-05-09T08:00:30Z</time>
      </trkpt>
      <trkpt lat="45.26523" lon="5.74292">
        <ele>683</ele>
        <time>2010-05-09T08:00:32Z</time>
      </trkpt>
      <trkpt lat="45.26523" lon="5.74289">
        <ele>683</ele>
        <time>2010-05-09T08:00:33Z</time>
      </trkpt>
      <trkpt lat="45.26523" lon="5.74286">
        <ele>683</ele>
        <time>2010-05-09T08:00:34Z</time>
      </trkpt>
      <trkpt lat="45.26522" lon="5.74283">
        <ele>683</ele>
        <time>2010-05-09T08:00:34Z</time>
      </trkpt>
      <trkpt lat="45.26521" lon="5.74281">
        <ele>683</ele>
        <time>2010-05-09T08:00:35Z</time>
      </trkpt>
      <trkpt lat="45.26519" lon="5.74278">
        <ele>683</ele>
        <time>2010-05-09T08:00:36Z</time>
      </trkpt>
      <trkpt lat="45.26519" lon="5.74275">
        <ele>683</ele>
        <time>2010-05-09T08:00:38Z</time>
      </trkpt>
      <trkpt lat="45.26519" lon="5.74271">
        <ele>683</ele>
        <time>2010-05-09T08:00:38Z</time>
      </trkpt>
      <trkpt lat="45.26519" lon="5.74268">
        <ele>683</ele>
        <time>2010-05-09T08:00:39Z</time>
      </trkpt>
      <trkpt lat="45.2652" lon="5.74265">
        <ele>683</ele>
        <time>2010-05-09T08:00:40Z</time>
      </trkpt>
      <trkpt lat="45.26521" lon="5.74262">
        <ele>683</ele>
        <time>2010-05-09T08:00:41Z</time>
      </trkpt>
      <trkpt lat="45.26522" lon="5.74259">
        <ele>683</ele>
        <time>2010-05-09T08:00:42Z</time>
      </trkpt>
      <trkpt lat="45.26522" lon="5.74256">
        <ele>683</ele>
        <time>2010-05-09T08:00:44Z</time>
      </trkpt>
      <trkpt lat="45.26523" lon="5.74253">
        <ele>683</ele>
        <time>2010-05-09T08:00:44Z</time>
      </trkpt>
      <trkpt lat="45.26523" lon="5.7425">
        <ele>683</ele>
        <time>2010-05-09T08:00:45Z</time>
      </trkpt>
      <trkpt lat="45.26524" lon="5.74246">
        <ele>683</ele>
        <time>2010-05-09T08:00:46Z</time>
      </trkpt>
      <trkpt lat="45.26525" lon="5.74244">
        <ele>683</ele>
        <time>2010-05-09T08:00:47Z</time>
      </trkpt>
      <trkpt lat="45.26525" lon="5.74242">
        <ele>683</ele>
        <time>2010-05-09T08:00:49Z</time>
      </trkpt>
      <trkpt lat="45.26527" lon="5.7424">
        <ele>684</ele>
        <time>2010-05-09T08:00:49Z</time>
      </trkpt>
      <trkpt lat="45.26527" lon="5.74238">
        <ele>684</ele>
        <time>2010-05-09T08:00:50Z</time>
      </trkpt>
      <trkpt lat="45.26528" lon="5.74236">
        <ele>685</ele>
        <time>2010-05-09T08:00:51Z</time>
      </trkpt>
      <trkpt lat="45.26528" lon="5.74234">
        <ele>685</ele>
        <time>2010-05-09T08:00:52Z</time>
      </trkpt>
      <trkpt lat="45.26528" lon="5.74232">
        <ele>686</ele>
        <time>2010-05-09T08:00:54Z</time>
      </trkpt>
      <trkpt lat="45.26529" lon="5.7423">
        <ele>686</ele>
        <time>2010-05-09T08:00:54Z</time>
      </trkpt>
      <trkpt lat="45.26528" lon="5.74228">
        <ele>686</ele>
        <time>2010-05-09T08:00:57Z</time>
      </trkpt>
      <trkpt lat="45.26527" lon="5.74227">
        <ele>686</ele>
        <time>2010-05-09T08:00:57Z</time>
      </trkpt>
      <trkpt lat="45.26526" lon="5.74225">
        <ele>686</ele>
        <time>2010-05-09T08:00:58Z</time>
      </trkpt>
      <trkpt lat="45.26524" lon="5.74224">
        <ele>686</ele>
        <time>2010-05-09T08:01:00Z</time>
      </trkpt>
      <trkpt lat="45.26523" lon="5.74222">
        <ele>686</ele>
        <time>2010-05-09T08:01:00Z</time>
      </trkpt>
      <trkpt lat="45.26522" lon="5.74221">
        <ele>686</ele>
        <time>2010-05-09T08:01:02Z</time>
      </trkpt>
      <trkpt lat="45.2652" lon="5.74219">
        <ele>686</ele>
        <time>2010-05-09T08:01:02Z</time>
      </trkpt>
      <trkpt lat="45.26519" lon="5.74217">
        <ele>686</ele>
        <time>2010-05-09T08:01:03Z</time>
      </trkpt>
      <trkpt lat="45.26518" lon="5.74215">
        <ele>687</ele>
        <time>2010-05-09T08:01:05Z</time>
      </trkpt>
      <trkpt lat="45.26517" lon="5.74213">
        <ele>687</ele>
        <time>2010-05-09T08:01:05Z</time>
      </trkpt>
      <trkpt lat="45.26516" lon="5.74211">
        <ele>688</ele>
        <time>2010-05-09T08:01:06Z</time>
      </trkpt>
      <trkpt lat="45.26516" lon="5.74208">
        <ele>689</ele>
        <time>2010-05-09T08:01:07Z</time>
      </trkpt>
      <trkpt lat="45.26515" lon="5.74206">
        <ele>689</ele>
        <time>2010-05-09T08:01:08Z</time>
      </trkpt>
      <trkpt lat="45.26515" lon="5.74204">
        <ele>689</ele>
        <time>2010-05-09T08:01:10Z</time>
      </trkpt>
      <trkpt lat="45.26514" lon="5.74201">
        <ele>690</ele>
        <time>2010-05-09T08:01:10Z</time>
      </trkpt>
      <trkpt lat="45.26513" lon="5.742">
        <ele>690</ele>
        <time>2010-05-09T08:01:12Z</time>
      </trkpt>
      <trkpt lat="45.26512" lon="5.74198">
        <ele>690</ele>
        <time>2010-05-09T08:01:12Z</time>
      </trkpt>
      <trkpt lat="45.26511" lon="5.74197">
        <ele>690</ele>
        <time>2010-05-09T08:01:13Z</time>
      </trkpt>
      <trkpt lat="45.26509" lon="5.74196">
        <ele>691</ele>
        <time>2010-05-09T08:01:15Z</time>
      </trkpt>
      <trkpt lat="45.26507" lon="5.74195">
        <ele>691</ele>
        <time>2010-05-09T08:01:15Z</time>
      </trkpt>
      <trkpt lat="45.26507" lon="5.74193">
        <ele>692</ele>
        <time>2010-05-09T08:01:16Z</time>
      </trkpt>
      <trkpt lat="45.26506" lon="5.74192">
        <ele>693</ele>
        <time>2010-05-09T08:01:18Z</time>
      </trkpt>
      <trkpt lat="45.26506" lon="5.7419">
        <ele>693</ele>
        <time>2010-05-09T08:01:18Z</time>
      </trkpt>
      <trkpt lat="45.26506" lon="5.74189">
        <ele>694</ele>
        <time>2010-05-09T08:01:20Z</time>
      </trkpt>
      <trkpt lat="45.26505" lon="5.74187">
        <ele>694</ele>
        <time>2010-05-09T08:01:20Z</time>
      </trkpt>
      <trkpt lat="45.26505" lon="5.74185">
        <ele>694</ele>
        <time>2010-05-09T08:01:21Z</time>
      </trkpt>
      <trkpt lat="45.26504" lon="5.74183">
        <ele>695</ele>
        <time>2010-05-09T08:01:23Z</time>
      </trkpt>
      <trkpt lat="45.26503" lon="5.74181">
        <ele>695</ele>
        <time>2010-05-09T08:01:25Z</time>
      </trkpt>
      <trkpt lat="45.26503" lon="5.74179">
        <ele>696</ele>
        <time>2010-05-09T08:01:25Z</time>
      </trkpt>
      <trkpt lat="45.26502" lon="5.74177">
        <ele>696</ele>
        <time>2010-05-09T08:01:26Z</time>
      </trkpt>
      <trkpt lat="45.26502" lon="5.74175">
        <ele>697</ele>
        <time>2010-05-09T08:01:27Z</time>
      </trkpt>
      <trkpt lat="45.26502" lon="5.74173">
        <ele>697</ele>
        <time>2010-05-09T08:01:28Z</time>
      </trkpt>
      <trkpt lat="45.26501" lon="5.74171">
        <ele>697</ele>
        <time>2010-05-09T08:01:30Z</time>
      </trkpt>
      <trkpt lat="45.26501" lon="5.74169">
        <ele>698</ele>
        <time>2010-05-09T08:01:31Z</time>
      </trkpt>
      <trkpt lat="45.26501" lon="5.74165">
        <ele>698</ele>
        <time>2010-05-09T08:01:32Z</time>
      </trkpt>
      <trkpt lat="45.265" lon="5.74162">
        <ele>698</ele>
        <time>2010-05-09T08:01:32Z</time>
      </trkpt>
      <trkpt lat="45.26499" lon="5.74158">
        <ele>699</ele>
        <time>2010-05-09T08:01:33Z</time>
      </trkpt>
      <trkpt lat="45.26498" lon="5.74155">
        <ele>699</ele>
        <time>2010-05-09T08:01:35Z</time>
      </trkpt>
      <trkpt lat="45.26497" lon="5.74152">
        <ele>699</ele>
        <time>2010-05-09T08:01:35Z</time>
      </trkpt>
      <trkpt lat="45.26496" lon="5.7415">
        <ele>699</ele>
        <time>2010-05-09T08:01:36Z</time>
      </trkpt>
      <trkpt lat="45.26495" lon="5.74148">
        <ele>699</ele>
        <time>2010-05-09T08:01:37Z</time>
      </trkpt>
      <trkpt lat="45.26493" lon="5.74146">
        <ele>700</ele>
        <time>2010-05-09T08:01:40Z</time>
      </trkpt>
      <trkpt lat="45.26492" lon="5.74144">
        <ele>700</ele>
        <time>2010-05-09T08:01:40Z</time>
      </trkpt>
      <trkpt lat="45.26492" lon="5.74142">
        <ele>701</ele>
        <time>2010-05-09T08:01:41Z</time>
      </trkpt>
      <trkpt lat="45.26492" lon="5.74139">
        <ele>701</ele>
        <time>2010-05-09T08:01:42Z</time>
      </trkpt>
      <trkpt lat="45.26493" lon="5.74137">
        <ele>702</ele>
        <time>2010-05-09T08:01:43Z</time>
      </trkpt>
      <trkpt lat="45.26494" lon="5.74135">
        <ele>702</ele>
        <time>2010-05-09T08:01:45Z</time>
      </trkpt>
      <trkpt lat="45.26496" lon="5.74133">
        <ele>703</ele>
        <time>2010-05-09T08:01:46Z</time>
      </trkpt>
      <trkpt lat="45.26497" lon="5.74131">
        <ele>703</ele>
        <time>2010-05-09T08:01:48Z</time>
      </trkpt>
      <trkpt lat="45.26498" lon="5.7413">
        <ele>704</ele>
        <time>2010-05-09T08:01:48Z</time>
      </trkpt>
      <trkpt lat="45.26499" lon="5.74128">
        <ele>705</ele>
        <time>2010-05-09T08:01:50Z</time>
      </trkpt>
      <trkpt lat="45.265" lon="5.74127">
        <ele>705</ele>
        <time>2010-05-09T08:01:50Z</time>
      </trkpt>
      <trkpt lat="45.26501" lon="5.74125">
        <ele>706</ele>
        <time>2010-05-09T08:01:51Z</time>
      </trkpt>
      <trkpt lat="45.26501" lon="5.74122">
        <ele>707</ele>
        <time>2010-05-09T08:01:53Z</time>
      </trkpt>
      <trkpt lat="45.26501" lon="5.74119">
        <ele>707</ele>
        <time>2010-05-09T08:01:56Z</time>
      </trkpt>
      <trkpt lat="45.265" lon="5.74118">
        <ele>708</ele>
        <time>2010-05-09T08:01:56Z</time>
      </trkpt>
      <trkpt lat="45.265" lon="5.74116">
        <ele>709</ele>
        <time>2010-05-09T08:01:57Z</time>
      </trkpt>
      <trkpt lat="45.26501" lon="5.74115">
        <ele>709</ele>
        <time>2010-05-09T08:01:58Z</time>
      </trkpt>
      <trkpt lat="45.265" lon="5.74112">
        <ele>709</ele>
        <time>2010-05-09T08:02:00Z</time>
      </trkpt>
      <trkpt lat="45.265" lon="5.74111">
        <ele>709</ele>
        <time>2010-05-09T08:02:02Z</time>
      </trkpt>
      <trkpt lat="45.26499" lon="5.74109">
        <ele>709</ele>
        <time>2010-05-09T08:02:02Z</time>
      </trkpt>
      <trkpt lat="45.26498" lon="5.74107">
        <ele>709</ele>
        <time>2010-05-09T08:02:04Z</time>
      </trkpt>
      <trkpt lat="45.26498" lon="5.74104">
        <ele>709</ele>
        <time>2010-05-09T08:02:07Z</time>
      </trkpt>
      <trkpt lat="45.26497" lon="5.74101">
        <ele>709</ele>
        <time>2010-05-09T08:02:08Z</time>
      </trkpt>
      <trkpt lat="45.26497" lon="5.74099">
        <ele>709</ele>
        <time>2010-05-09T08:02:11Z</time>
      </trkpt>
      <trkpt lat="45.26496" lon="5.74097">
        <ele>709</ele>
        <time>2010-05-09T08:02:13Z</time>
      </trkpt>
      <trkpt lat="45.26495" lon="5.74095">
        <ele>710</ele>
        <time>2010-05-09T08:02:14Z</time>
      </trkpt>
      <trkpt lat="45.26494" lon="5.74093">
        <ele>710</ele>
        <time>2010-05-09T08:02:16Z</time>
      </trkpt>
      <trkpt lat="45.26493" lon="5.74091">
        <ele>711</ele>
        <time>2010-05-09T08:02:19Z</time>
      </trkpt>
      <trkpt lat="45.26491" lon="5.74089">
        <ele>712</ele>
        <time>2010-05-09T08:02:21Z</time>
      </trkpt>
      <trkpt lat="45.26491" lon="5.74087">
        <ele>713</ele>
        <time>2010-05-09T08:02:22Z</time>
      </trkpt>
      <trkpt lat="45.2649" lon="5.74085">
        <ele>713</ele>
        <time>2010-05-09T08:02:24Z</time>
      </trkpt>
      <trkpt lat="45.2649" lon="5.74083">
        <ele>714</ele>
        <time>2010-05-09T08:02:25Z</time>
      </trkpt>
      <trkpt lat="45.26488" lon="5.74081">
        <ele>714</ele>
        <time>2010-05-09T08:02:27Z</time>
      </trkpt>
      <trkpt lat="45.26487" lon="5.74079">
        <ele>715</ele>
        <time>2010-05-09T08:02:30Z</time>
      </trkpt>
      <trkpt lat="45.26486" lon="5.74078">
        <ele>715</ele>
        <time>2010-05-09T08:02:30Z</time>
      </trkpt>
      <trkpt lat="45.26486" lon="5.74076">
        <ele>715</ele>
        <time>2010-05-09T08:02:32Z</time>
      </trkpt>
      <trkpt lat="45.26484" lon="5.74075">
        <ele>715</ele>
        <time>2010-05-09T08:02:33Z</time>
      </trkpt>
      <trkpt lat="45.26482" lon="5.74075">
        <ele>716</ele>
        <time>2010-05-09T08:02:36Z</time>
      </trkpt>
      <trkpt lat="45.26481" lon="5.74073">
        <ele>718</ele>
        <time>2010-05-09T08:02:37Z</time>
      </trkpt>
      <trkpt lat="45.2648" lon="5.74071">
        <ele>718</ele>
        <time>2010-05-09T08:02:38Z</time>
      </trkpt>
      <trkpt lat="45.2648" lon="5.74069">
        <ele>719</ele>
        <time>2010-05-09T08:02:39Z</time>
      </trkpt>
      <trkpt lat="45.2648" lon="5.74067">
        <ele>719</ele>
        <time>2010-05-09T08:02:41Z</time>
      </trkpt>
      <trkpt lat="45.2648" lon="5.74065">
        <ele>719</ele>
        <time>2010-05-09T08:02:41Z</time>
      </trkpt>
      <trkpt lat="45.2648" lon="5.74063">
        <ele>719</ele>
        <time>2010-05-09T08:02:43Z</time>
      </trkpt>
      <trkpt lat="45.2648" lon="5.74061">
        <ele>719</ele>
        <time>2010-05-09T08:02:45Z</time>
      </trkpt>
      <trkpt lat="45.2648" lon="5.7406">
        <ele>719</ele>
        <time>2010-05-09T08:02:46Z</time>
      </trkpt>
      <trkpt lat="45.26481" lon="5.74058">
        <ele>719</ele>
        <time>2010-05-09T08:02:46Z</time>
      </trkpt>
      <trkpt lat="45.26481" lon="5.74057">
        <ele>719</ele>
        <time>2010-05-09T08:02:48Z</time>
      </trkpt>
      <trkpt lat="45.26481" lon="5.74055">
        <ele>719</ele>
        <time>2010-05-09T08:02:49Z</time>
      </trkpt>
      <trkpt lat="45.26481" lon="5.74053">
        <ele>719</ele>
        <time>2010-05-09T08:02:49Z</time>
      </trkpt>
      <trkpt lat="45.26481" lon="5.74052">
        <ele>719</ele>
        <time>2010-05-09T08:02:51Z</time>
      </trkpt>
      <trkpt lat="45.26484" lon="5.74051">
        <ele>720</ele>
        <time>2010-05-09T08:02:52Z</time>
      </trkpt>
      <trkpt lat="45.26485" lon="5.74051">
        <ele>720</ele>
        <time>2010-05-09T08:02:53Z</time>
      </trkpt>
      <trkpt lat="45.26486" lon="5.74051">
        <ele>721</ele>
        <time>2010-05-09T08:02:54Z</time>
      </trkpt>
      <trkpt lat="45.26488" lon="5.74053">
        <ele>721</ele>
        <time>2010-05-09T08:02:57Z</time>
      </trkpt>
      <trkpt lat="45.2649" lon="5.74055">
        <ele>721</ele>
        <time>2010-05-09T08:02:58Z</time>
      </trkpt>
      <trkpt lat="45.26492" lon="5.74057">
        <ele>721</ele>
        <time>2010-05-09T08:03:00Z</time>
      </trkpt>
      <trkpt lat="45.26493" lon="5.74056">
        <ele>722</ele>
        <time>2010-05-09T08:03:05Z</time>
      </trkpt>
      <trkpt lat="45.26494" lon="5.74057">
        <ele>723</ele>
        <time>2010-05-09T08:03:05Z</time>
      </trkpt>
      <trkpt lat="45.26495" lon="5.74057">
        <ele>723</ele>
        <time>2010-05-09T08:03:06Z</time>
      </trkpt>
      <trkpt lat="45.26497" lon="5.74058">
        <ele>723</ele>
        <time>2010-05-09T08:03:07Z</time>
      </trkpt>
      <trkpt lat="45.26498" lon="5.74059">
        <ele>724</ele>
        <time>2010-05-09T08:03:10Z</time>
      </trkpt>
      <trkpt lat="45.265" lon="5.7406">
        <ele>725</ele>
        <time>2010-05-09T08:03:11Z</time>
      </trkpt>
      <trkpt lat="45.26501" lon="5.74061">
        <ele>726</ele>
        <time>2010-05-09T08:03:12Z</time>
      </trkpt>
      <trkpt lat="45.26503" lon="5.74063">
        <ele>726</ele>
        <time>2010-05-09T08:03:13Z</time>
      </trkpt>
      <trkpt lat="45.26504" lon="5.74064">
        <ele>727</ele>
        <time>2010-05-09T08:03:15Z</time>
      </trkpt>
      <trkpt lat="45.26506" lon="5.74066">
        <ele>727</ele>
        <time>2010-05-09T08:03:15Z</time>
      </trkpt>
      <trkpt lat="45.26508" lon="5.74068">
        <ele>728</ele>
        <time>2010-05-09T08:03:16Z</time>
      </trkpt>
      <trkpt lat="45.2651" lon="5.74069">
        <ele>729</ele>
        <time>2010-05-09T08:03:17Z</time>
      </trkpt>
      <trkpt lat="45.26511" lon="5.7407">
        <ele>729</ele>
        <time>2010-05-09T08:03:18Z</time>
      </trkpt>
      <trkpt lat="45.26513" lon="5.74072">
        <ele>730</ele>
        <time>2010-05-09T08:03:20Z</time>
      </trkpt>
      <trkpt lat="45.26515" lon="5.74074">
        <ele>731</ele>
        <time>2010-05-09T08:03:20Z</time>
      </trkpt>
      <trkpt lat="45.26517" lon="5.74075">
        <ele>731</ele>
        <time>2010-05-09T08:03:21Z</time>
      </trkpt>
      <trkpt lat="45.26519" lon="5.74078">
        <ele>732</ele>
        <time>2010-05-09T08:03:22Z</time>
      </trkpt>
      <trkpt lat="45.26521" lon="5.7408">
        <ele>732</ele>
        <time>2010-05-09T08:03:23Z</time>
      </trkpt>
      <trkpt lat="45.26523" lon="5.74082">
        <ele>732</ele>
        <time>2010-05-09T08:03:25Z</time>
      </trkpt>
      <trkpt lat="45.26525" lon="5.74083">
        <ele>733</ele>
        <time>2010-05-09T08:03:25Z</time>
      </trkpt>
      <trkpt lat="45.26527" lon="5.74085">
        <ele>733</ele>
        <time>2010-05-09T08:03:26Z</time>
      </trkpt>
      <trkpt lat="45.26528" lon="5.74087">
        <ele>733</ele>
        <time>2010-05-09T08:03:27Z</time>
      </trkpt>
      <trkpt lat="45.26529" lon="5.74089">
        <ele>733</ele>
        <time>2010-05-09T08:03:28Z</time>
      </trkpt>
      <trkpt lat="45.26531" lon="5.7409">
        <ele>733</ele>
        <time>2010-05-09T08:03:30Z</time>
      </trkpt>
      <trkpt lat="45.26532" lon="5.74091">
        <ele>733</ele>
        <time>2010-05-09T08:03:30Z</time>
      </trkpt>
      <trkpt lat="45.26534" lon="5.74092">
        <ele>733</ele>
        <time>2010-05-09T08:03:31Z</time>
      </trkpt>
      <trkpt lat="45.26535" lon="5.74094">
        <ele>733</ele>
        <time>2010-05-09T08:03:32Z</time>
      </trkpt>
      <trkpt lat="45.26537" lon="5.74097">
        <ele>733</ele>
        <time>2010-05-09T08:03:33Z</time>
      </trkpt>
      <trkpt lat="45.26539" lon="5.74098">
        <ele>733</ele>
        <time>2010-05-09T08:03:35Z</time>
      </trkpt>
      <trkpt lat="45.26541" lon="5.74099">
        <ele>733</ele>
        <time>2010-05-09T08:03:36Z</time>
      </trkpt>
      <trkpt lat="45.26543" lon="5.74101">
        <ele>733</ele>
        <time>2010-05-09T08:03:36Z</time>
      </trkpt>
      <trkpt lat="45.26545" lon="5.74103">
        <ele>733</ele>
        <time>2010-05-09T08:03:37Z</time>
      </trkpt>
      <trkpt lat="45.26546" lon="5.74106">
        <ele>734</ele>
        <time>2010-05-09T08:03:38Z</time>
      </trkpt>
      <trkpt lat="45.26548" lon="5.74109">
        <ele>734</ele>
        <time>2010-05-09T08:03:40Z</time>
      </trkpt>
      <trkpt lat="45.26549" lon="5.74111">
        <ele>734</ele>
        <time>2010-05-09T08:03:40Z</time>
      </trkpt>
      <trkpt lat="45.26551" lon="5.74112">
        <ele>735</ele>
        <time>2010-05-09T08:03:42Z</time>
      </trkpt>
      <trkpt lat="45.26553" lon="5.74109">
        <ele>735</ele>
        <time>2010-05-09T08:03:45Z</time>
      </trkpt>
      <trkpt lat="45.26553" lon="5.74105">
        <ele>735</ele>
        <time>2010-05-09T08:03:45Z</time>
      </trkpt>
      <trkpt lat="45.26553" lon="5.74102">
        <ele>735</ele>
        <time>2010-05-09T08:03:46Z</time>
      </trkpt>
      <trkpt lat="45.26552" lon="5.74098">
        <ele>735</ele>
        <time>2010-05-09T08:03:47Z</time>
      </trkpt>
      <trkpt lat="45.26551" lon="5.74094">
        <ele>735</ele>
        <time>2010-05-09T08:03:48Z</time>
      </trkpt>
      <trkpt lat="45.26551" lon="5.7409">
        <ele>735</ele>
        <time>2010-05-09T08:03:50Z</time>
      </trkpt>
      <trkpt lat="45.26552" lon="5.74086">
        <ele>735</ele>
        <time>2010-05-09T08:03:50Z</time>
      </trkpt>
      <trkpt lat="45.26553" lon="5.74082">
        <ele>735</ele>
        <time>2010-05-09T08:03:51Z</time>
      </trkpt>
      <trkpt lat="45.26555" lon="5.74078">
        <ele>735</ele>
        <time>2010-05-09T08:03:52Z</time>
      </trkpt>
      <trkpt lat="45.26556" lon="5.74075">
        <ele>735</ele>
        <time>2010-05-09T08:03:53Z</time>
      </trkpt>
      <trkpt lat="45.26557" lon="5.74071">
        <ele>735</ele>
        <time>2010-05-09T08:03:55Z</time>
      </trkpt>
      <trkpt lat="45.26559" lon="5.74068">
        <ele>734</ele>
        <time>2010-05-09T08:03:55Z</time>
      </trkpt>
      <trkpt lat="45.26561" lon="5.74065">
        <ele>733</ele>
        <time>2010-05-09T08:03:56Z</time>
      </trkpt>
      <trkpt lat="45.26563" lon="5.74061">
        <ele>732</ele>
        <time>2010-05-09T08:03:57Z</time>
      </trkpt>
      <trkpt lat="45.26564" lon="5.74057">
        <ele>731</ele>
        <time>2010-05-09T08:03:58Z</time>
      </trkpt>
      <trkpt lat="45.26566" lon="5.74054">
        <ele>730</ele>
        <time>2010-05-09T08:04:00Z</time>
      </trkpt>
      <trkpt lat="45.26567" lon="5.7405">
        <ele>729</ele>
        <time>2010-05-09T08:04:00Z</time>
      </trkpt>
      <trkpt lat="45.26569" lon="5.74046">
        <ele>728</ele>
        <time>2010-05-09T08:04:01Z</time>
      </trkpt>
      <trkpt lat="45.26571" lon="5.74042">
        <ele>727</ele>
        <time>2010-05-09T08:04:02Z</time>
      </trkpt>
      <trkpt lat="45.26573" lon="5.74038">
        <ele>727</ele>
        <time>2010-05-09T08:04:03Z</time>
      </trkpt>
      <trkpt lat="45.26575" lon="5.74034">
        <ele>726</ele>
        <time>2010-05-09T08:04:05Z</time>
      </trkpt>
      <trkpt lat="45.26577" lon="5.7403">
        <ele>725</ele>
        <time>2010-05-09T08:04:05Z</time>
      </trkpt>
      <trkpt lat="45.26579" lon="5.74027">
        <ele>725</ele>
        <time>2010-05-09T08:04:06Z</time>
      </trkpt>
      <trkpt lat="45.2658" lon="5.74024">
        <ele>724</ele>
        <time>2010-05-09T08:04:07Z</time>
      </trkpt>
      <trkpt lat="45.26581" lon="5.7402">
        <ele>723</ele>
        <time>2010-05-09T08:04:08Z</time>
      </trkpt>
      <trkpt lat="45.26583" lon="5.74016">
        <ele>722</ele>
        <time>2010-05-09T08:04:10Z</time>
      </trkpt>
      <trkpt lat="45.26584" lon="5.74013">
        <ele>722</ele>
        <time>2010-05-09T08:04:10Z</time>
      </trkpt>
      <trkpt lat="45.26585" lon="5.7401">
        <ele>721</ele>
        <time>2010-05-09T08:04:11Z</time>
      </trkpt>
      <trkpt lat="45.26588" lon="5.74007">
        <ele>720</ele>
        <time>2010-05-09T08:04:12Z</time>
      </trkpt>
      <trkpt lat="45.2659" lon="5.74004">
        <ele>719</ele>
        <time>2010-05-09T08:04:13Z</time>
      </trkpt>
      <trkpt lat="45.26591" lon="5.74">
        <ele>719</ele>
        <time>2010-05-09T08:04:15Z</time>
      </trkpt>
      <trkpt lat="45.26594" lon="5.73997">
        <ele>718</ele>
        <time>2010-05-09T08:04:15Z</time>
      </trkpt>
      <trkpt lat="45.26596" lon="5.73994">
        <ele>717</ele>
        <time>2010-05-09T08:04:16Z</time>
      </trkpt>
      <trkpt lat="45.26598" lon="5.7399">
        <ele>717</ele>
        <time>2010-05-09T08:04:17Z</time>
      </trkpt>
      <trkpt lat="45.26601" lon="5.73988">
        <ele>716</ele>
        <time>2010-05-09T08:04:18Z</time>
      </trkpt>
      <trkpt lat="45.26603" lon="5.73985">
        <ele>716</ele>
        <time>2010-05-09T08:04:20Z</time>
      </trkpt>
      <trkpt lat="45.26606" lon="5.73982">
        <ele>715</ele>
        <time>2010-05-09T08:04:20Z</time>
      </trkpt>
      <trkpt lat="45.26609" lon="5.7398">
        <ele>715</ele>
        <time>2010-05-09T08:04:21Z</time>
      </trkpt>
      <trkpt lat="45.26611" lon="5.73978">
        <ele>714</ele>
        <time>2010-05-09T08:04:22Z</time>
      </trkpt>
      <trkpt lat="45.26614" lon="5.73975">
        <ele>714</ele>
        <time>2010-05-09T08:04:23Z</time>
      </trkpt>
      <trkpt lat="45.26617" lon="5.73973">
        <ele>714</ele>
        <time>2010-05-09T08:04:25Z</time>
      </trkpt>
      <trkpt lat="45.26618" lon="5.73969">
        <ele>714</ele>
        <time>2010-05-09T08:04:25Z</time>
      </trkpt>
      <trkpt lat="45.26618" lon="5.73966">
        <ele>713</ele>
        <time>2010-05-09T08:04:26Z</time>
      </trkpt>
      <trkpt lat="45.26617" lon="5.73964">
        <ele>713</ele>
        <time>2010-05-09T08:04:27Z</time>
      </trkpt>
      <trkpt lat="45.26615" lon="5.73962">
        <ele>712</ele>
        <time>2010-05-09T08:04:28Z</time>
      </trkpt>
      <trkpt lat="45.26614" lon="5.73959">
        <ele>712</ele>
        <time>2010-05-09T08:04:30Z</time>
      </trkpt>
      <trkpt lat="45.26612" lon="5.73954">
        <ele>712</ele>
        <time>2010-05-09T08:04:30Z</time>
      </trkpt>
      <trkpt lat="45.26611" lon="5.73951">
        <ele>712</ele>
        <time>2010-05-09T08:04:31Z</time>
      </trkpt>
      <trkpt lat="45.2661" lon="5.73948">
        <ele>712</ele>
        <time>2010-05-09T08:04:32Z</time>
      </trkpt>
      <trkpt lat="45.26609" lon="5.73944">
        <ele>712</ele>
        <time>2010-05-09T08:04:33Z</time>
      </trkpt>
      <trkpt lat="45.26607" lon="5.7394">
        <ele>712</ele>
        <time>2010-05-09T08:04:35Z</time>
      </trkpt>
      <trkpt lat="45.26606" lon="5.73937">
        <ele>711</ele>
        <time>2010-05-09T08:04:35Z</time>
      </trkpt>
      <trkpt lat="45.26604" lon="5.73934">
        <ele>710</ele>
        <time>2010-05-09T08:04:36Z</time>
      </trkpt>
      <trkpt lat="45.26603" lon="5.73932">
        <ele>709</ele>
        <time>2010-05-09T08:04:37Z</time>
      </trkpt>
      <trkpt lat="45.26602" lon="5.73928">
        <ele>708</ele>
        <time>2010-05-09T08:04:38Z</time>
      </trkpt>
      <trkpt lat="45.26601" lon="5.73924">
        <ele>707</ele>
        <time>2010-05-09T08:04:40Z</time>
      </trkpt>
      <trkpt lat="45.26602" lon="5.73921">
        <ele>706</ele>
        <time>2010-05-09T08:04:40Z</time>
      </trkpt>
      <trkpt lat="45.26603" lon="5.73918">
        <ele>705</ele>
        <time>2010-05-09T08:04:41Z</time>
      </trkpt>
      <trkpt lat="45.26603" lon="5.73915">
        <ele>704</ele>
        <time>2010-05-09T08:04:42Z</time>
      </trkpt>
      <trkpt lat="45.26604" lon="5.73911">
        <ele>703</ele>
        <time>2010-05-09T08:04:43Z</time>
      </trkpt>
      <trkpt lat="45.26605" lon="5.73907">
        <ele>702</ele>
        <time>2010-05-09T08:04:45Z</time>
      </trkpt>
      <trkpt lat="45.26606" lon="5.73903">
        <ele>701</ele>
        <time>2010-05-09T08:04:45Z</time>
      </trkpt>
      <trkpt lat="45.26607" lon="5.73899">
        <ele>700</ele>
        <time>2010-05-09T08:04:46Z</time>
      </trkpt>
      <trkpt lat="45.26608" lon="5.73896">
        <ele>699</ele>
        <time>2010-05-09T08:04:47Z</time>
      </trkpt>
      <trkpt lat="45.26609" lon="5.73892">
        <ele>698</ele>
        <time>2010-05-09T08:04:48Z</time>
      </trkpt>
      <trkpt lat="45.2661" lon="5.73889">
        <ele>697</ele>
        <time>2010-05-09T08:04:50Z</time>
      </trkpt>
      <trkpt lat="45.26611" lon="5.73886">
        <ele>696</ele>
        <time>2010-05-09T08:04:50Z</time>
      </trkpt>
      <trkpt lat="45.26612" lon="5.73882">
        <ele>696</ele>
        <time>2010-05-09T08:04:51Z</time>
      </trkpt>
      <trkpt lat="45.26614" lon="5.73877">
        <ele>696</ele>
        <time>2010-05-09T08:04:52Z</time>
      </trkpt>
      <trkpt lat="45.26615" lon="5.73872">
        <ele>696</ele>
        <time>2010-05-09T08:04:53Z</time>
      </trkpt>
      <trkpt lat="45.26617" lon="5.73869">
        <ele>696</ele>
        <time>2010-05-09T08:04:54Z</time>
      </trkpt>
      <trkpt lat="45.26619" lon="5.73866">
        <ele>696</ele>
        <time>2010-05-09T08:04:55Z</time>
      </trkpt>
      <trkpt lat="45.26622" lon="5.73862">
        <ele>696</ele>
        <time>2010-05-09T08:04:56Z</time>
      </trkpt>
      <trkpt lat="45.26626" lon="5.7386">
        <ele>696</ele>
        <time>2010-05-09T08:04:57Z</time>
      </trkpt>
      <trkpt lat="45.26629" lon="5.73858">
        <ele>696</ele>
        <time>2010-05-09T08:04:58Z</time>
      </trkpt>
      <trkpt lat="45.26632" lon="5.73857">
        <ele>696</ele>
        <time>2010-05-09T08:04:59Z</time>
      </trkpt>
      <trkpt lat="45.26633" lon="5.73855">
        <ele>696</ele>
        <time>2010-05-09T08:05:00Z</time>
      </trkpt>
      <trkpt lat="45.26634" lon="5.73851">
        <ele>696</ele>
        <time>2010-05-09T08:05:01Z</time>
      </trkpt>
      <trkpt lat="45.26634" lon="5.73847">
        <ele>696</ele>
        <time>2010-05-09T08:05:02Z</time>
      </trkpt>
      <trkpt lat="45.26633" lon="5.73845">
        <ele>696</ele>
        <time>2010-05-09T08:05:03Z</time>
      </trkpt>
      <trkpt lat="45.26632" lon="5.73844">
        <ele>695</ele>
        <time>2010-05-09T08:05:04Z</time>
      </trkpt>
      <trkpt lat="45.2663" lon="5.73841">
        <ele>694</ele>
        <time>2010-05-09T08:05:05Z</time>
      </trkpt>
      <trkpt lat="45.26628" lon="5.7384">
        <ele>693</ele>
        <time>2010-05-09T08:05:06Z</time>
      </trkpt>
      <trkpt lat="45.26626" lon="5.73838">
        <ele>692</ele>
        <time>2010-05-09T08:05:07Z</time>
      </trkpt>
      <trkpt lat="45.26624" lon="5.73836">
        <ele>691</ele>
        <time>2010-05-09T08:05:08Z</time>
      </trkpt>
      <trkpt lat="45.26621" lon="5.73833">
        <ele>690</ele>
        <time>2010-05-09T08:05:10Z</time>
      </trkpt>
      <trkpt lat="45.26619" lon="5.73831">
        <ele>688</ele>
        <time>2010-05-09T08:05:10Z</time>
      </trkpt>
      <trkpt lat="45.26617" lon="5.73828">
        <ele>687</ele>
        <time>2010-05-09T08:05:11Z</time>
      </trkpt>
      <trkpt lat="45.26614" lon="5.73826">
        <ele>686</ele>
        <time>2010-05-09T08:05:12Z</time>
      </trkpt>
      <trkpt lat="45.26612" lon="5.73823">
        <ele>685</ele>
        <time>2010-05-09T08:05:13Z</time>
      </trkpt>
      <trkpt lat="45.26611" lon="5.7382">
        <ele>684</ele>
        <time>2010-05-09T08:05:15Z</time>
      </trkpt>
      <trkpt lat="45.26609" lon="5.73816">
        <ele>683</ele>
        <time>2010-05-09T08:05:15Z</time>
      </trkpt>
      <trkpt lat="45.26607" lon="5.73812">
        <ele>682</ele>
        <time>2010-05-09T08:05:16Z</time>
      </trkpt>
      <trkpt lat="45.26606" lon="5.73808">
        <ele>681</ele>
        <time>2010-05-09T08:05:17Z</time>
      </trkpt>
      <trkpt lat="45.26604" lon="5.73804">
        <ele>680</ele>
        <time>2010-05-09T08:05:18Z</time>
      </trkpt>
      <trkpt lat="45.26602" lon="5.73801">
        <ele>679</ele>
        <time>2010-05-09T08:05:20Z</time>
      </trkpt>
      <trkpt lat="45.26599" lon="5.73797">
        <ele>678</ele>
        <time>2010-05-09T08:05:20Z</time>
      </trkpt>
      <trkpt lat="45.26596" lon="5.73794">
        <ele>677</ele>
        <time>2010-05-09T08:05:21Z</time>
      </trkpt>
      <trkpt lat="45.26593" lon="5.7379">
        <ele>676</ele>
        <time>2010-05-09T08:05:22Z</time>
      </trkpt>
      <trkpt lat="45.26591" lon="5.73786">
        <ele>675</ele>
        <time>2010-05-09T08:05:23Z</time>
      </trkpt>
      <trkpt lat="45.26588" lon="5.73783">
        <ele>674</ele>
        <time>2010-05-09T08:05:24Z</time>
      </trkpt>
      <trkpt lat="45.26586" lon="5.7378">
        <ele>673</ele>
        <time>2010-05-09T08:05:25Z</time>
      </trkpt>
      <trkpt lat="45.26584" lon="5.73776">
        <ele>672</ele>
        <time>2010-05-09T08:05:26Z</time>
      </trkpt>
      <trkpt lat="45.26582" lon="5.73773">
        <ele>671</ele>
        <time>2010-05-09T08:05:27Z</time>
      </trkpt>
      <trkpt lat="45.26579" lon="5.7377">
        <ele>670</ele>
        <time>2010-05-09T08:05:28Z</time>
      </trkpt>
      <trkpt lat="45.26577" lon="5.73767">
        <ele>669</ele>
        <time>2010-05-09T08:05:30Z</time>
      </trkpt>
      <trkpt lat="45.26574" lon="5.73764">
        <ele>669</ele>
        <time>2010-05-09T08:05:30Z</time>
      </trkpt>
      <trkpt lat="45.26572" lon="5.73759">
        <ele>669</ele>
        <time>2010-05-09T08:05:31Z</time>
      </trkpt>
      <trkpt lat="45.2657" lon="5.73756">
        <ele>669</ele>
        <time>2010-05-09T08:05:32Z</time>
      </trkpt>
      <trkpt lat="45.26568" lon="5.73752">
        <ele>669</ele>
        <time>2010-05-09T08:05:33Z</time>
      </trkpt>
      <trkpt lat="45.26566" lon="5.73749">
        <ele>669</ele>
        <time>2010-05-09T08:05:34Z</time>
      </trkpt>
      <trkpt lat="45.26564" lon="5.73746">
        <ele>669</ele>
        <time>2010-05-09T08:05:35Z</time>
      </trkpt>
      <trkpt lat="45.26563" lon="5.73743">
        <ele>669</ele>
        <time>2010-05-09T08:05:36Z</time>
      </trkpt>
      <trkpt lat="45.26561" lon="5.73741">
        <ele>669</ele>
        <time>2010-05-09T08:05:37Z</time>
      </trkpt>
      <trkpt lat="45.26558" lon="5.73739">
        <ele>669</ele>
        <time>2010-05-09T08:05:38Z</time>
      </trkpt>
      <trkpt lat="45.26556" lon="5.73738">
        <ele>669</ele>
        <time>2010-05-09T08:05:39Z</time>
      </trkpt>
      <trkpt lat="45.26553" lon="5.73737">
        <ele>669</ele>
        <time>2010-05-09T08:05:40Z</time>
      </trkpt>
      <trkpt lat="45.26551" lon="5.73736">
        <ele>669</ele>
        <time>2010-05-09T08:05:41Z</time>
      </trkpt>
      <trkpt lat="45.26547" lon="5.73735">
        <ele>669</ele>
        <time>2010-05-09T08:05:42Z</time>
      </trkpt>
      <trkpt lat="45.26544" lon="5.73734">
        <ele>670</ele>
        <time>2010-05-09T08:05:43Z</time>
      </trkpt>
      <trkpt lat="45.26541" lon="5.73734">
        <ele>671</ele>
        <time>2010-05-09T08:05:45Z</time>
      </trkpt>
      <trkpt lat="45.26539" lon="5.73733">
        <ele>671</ele>
        <time>2010-05-09T08:05:45Z</time>
      </trkpt>
      <trkpt lat="45.26536" lon="5.73733">
        <ele>672</ele>
        <time>2010-05-09T08:05:46Z</time>
      </trkpt>
      <trkpt lat="45.26533" lon="5.73732">
        <ele>673</ele>
        <time>2010-05-09T08:05:47Z</time>
      </trkpt>
      <trkpt lat="45.26529" lon="5.73732">
        <ele>673</ele>
        <time>2010-05-09T08:05:48Z</time>
      </trkpt>
      <trkpt lat="45.26526" lon="5.73732">
        <ele>673</ele>
        <time>2010-05-09T08:05:50Z</time>
      </trkpt>
      <trkpt lat="45.26523" lon="5.7373">
        <ele>674</ele>
        <time>2010-05-09T08:05:50Z</time>
      </trkpt>
      <trkpt lat="45.2652" lon="5.73727">
        <ele>674</ele>
        <time>2010-05-09T08:05:51Z</time>
      </trkpt>
      <trkpt lat="45.26518" lon="5.73724">
        <ele>674</ele>
        <time>2010-05-09T08:05:52Z</time>
      </trkpt>
      <trkpt lat="45.26516" lon="5.73721">
        <ele>674</ele>
        <time>2010-05-09T08:05:53Z</time>
      </trkpt>
      <trkpt lat="45.26513" lon="5.73719">
        <ele>674</ele>
        <time>2010-05-09T08:05:55Z</time>
      </trkpt>
      <trkpt lat="45.2651" lon="5.73715">
        <ele>674</ele>
        <time>2010-05-09T08:05:55Z</time>
      </trkpt>
      <trkpt lat="45.26508" lon="5.73712">
        <ele>674</ele>
        <time>2010-05-09T08:05:56Z</time>
      </trkpt>
      <trkpt lat="45.26504" lon="5.73709">
        <ele>674</ele>
        <time>2010-05-09T08:05:57Z</time>
      </trkpt>
      <trkpt lat="45.26501" lon="5.73706">
        <ele>674</ele>
        <time>2010-05-09T08:05:58Z</time>
      </trkpt>
      <trkpt lat="45.26499" lon="5.73703">
        <ele>674</ele>
        <time>2010-05-09T08:06:00Z</time>
      </trkpt>
      <trkpt lat="45.26498" lon="5.73699">
        <ele>674</ele>
        <time>2010-05-09T08:06:00Z</time>
      </trkpt>
      <trkpt lat="45.26496" lon="5.73697">
        <ele>674</ele>
        <time>2010-05-09T08:06:02Z</time>
      </trkpt>
      <trkpt lat="45.26495" lon="5.73694">
        <ele>674</ele>
        <time>2010-05-09T08:06:02Z</time>
      </trkpt>
      <trkpt lat="45.26493" lon="5.73691">
        <ele>674</ele>
        <time>2010-05-09T08:06:03Z</time>
      </trkpt>
      <trkpt lat="45.26491" lon="5.73688">
        <ele>674</ele>
        <time>2010-05-09T08:06:05Z</time>
      </trkpt>
      <trkpt lat="45.26489" lon="5.73686">
        <ele>674</ele>
        <time>2010-05-09T08:06:05Z</time>
      </trkpt>
      <trkpt lat="45.26487" lon="5.73683">
        <ele>674</ele>
        <time>2010-05-09T08:06:06Z</time>
      </trkpt>
      <trkpt lat="45.26485" lon="5.7368">
        <ele>674</ele>
        <time>2010-05-09T08:06:07Z</time>
      </trkpt>
      <trkpt lat="45.26482" lon="5.73678">
        <ele>674</ele>
        <time>2010-05-09T08:06:08Z</time>
      </trkpt>
      <trkpt lat="45.2648" lon="5.73675">
        <ele>674</ele>
        <time>2010-05-09T08:06:10Z</time>
      </trkpt>
      <trkpt lat="45.26478" lon="5.73672">
        <ele>674</ele>
        <time>2010-05-09T08:06:10Z</time>
      </trkpt>
      <trkpt lat="45.26475" lon="5.73669">
        <ele>674</ele>
        <time>2010-05-09T08:06:11Z</time>
      </trkpt>
      <trkpt lat="45.26472" lon="5.73666">
        <ele>674</ele>
        <time>2010-05-09T08:06:12Z</time>
      </trkpt>
      <trkpt lat="45.26469" lon="5.73663">
        <ele>674</ele>
        <time>2010-05-09T08:06:13Z</time>
      </trkpt>
      <trkpt lat="45.26467" lon="5.73662">
        <ele>674</ele>
        <time>2010-05-09T08:06:14Z</time>
      </trkpt>
      <trkpt lat="45.26464" lon="5.7366">
        <ele>674</ele>
        <time>2010-05-09T08:06:15Z</time>
      </trkpt>
      <trkpt lat="45.26461" lon="5.73659">
        <ele>674</ele>
        <time>2010-05-09T08:06:16Z</time>
      </trkpt>
      <trkpt lat="45.26458" lon="5.73659">
        <ele>674</ele>
        <time>2010-05-09T08:06:17Z</time>
      </trkpt>
      <trkpt lat="45.26456" lon="5.73658">
        <ele>674</ele>
        <time>2010-05-09T08:06:18Z</time>
      </trkpt>
      <trkpt lat="45.26453" lon="5.73658">
        <ele>674</ele>
        <time>2010-05-09T08:06:20Z</time>
      </trkpt>
      <trkpt lat="45.2645" lon="5.73658">
        <ele>674</ele>
        <time>2010-05-09T08:06:20Z</time>
      </trkpt>
      <trkpt lat="45.26447" lon="5.73657">
        <ele>674</ele>
        <time>2010-05-09T08:06:21Z</time>
      </trkpt>
      <trkpt lat="45.26444" lon="5.73656">
        <ele>674</ele>
        <time>2010-05-09T08:06:22Z</time>
      </trkpt>
      <trkpt lat="45.26441" lon="5.73654">
        <ele>674</ele>
        <time>2010-05-09T08:06:23Z</time>
      </trkpt>
      <trkpt lat="45.26438" lon="5.73652">
        <ele>673</ele>
        <time>2010-05-09T08:06:25Z</time>
      </trkpt>
      <trkpt lat="45.26435" lon="5.73649">
        <ele>673</ele>
        <time>2010-05-09T08:06:25Z</time>
      </trkpt>
      <trkpt lat="45.26433" lon="5.73647">
        <ele>673</ele>
        <time>2010-05-09T08:06:26Z</time>
      </trkpt>
      <trkpt lat="45.26431" lon="5.73644">
        <ele>673</ele>
        <time>2010-05-09T08:06:27Z</time>
      </trkpt>
      <trkpt lat="45.26429" lon="5.73642">
        <ele>673</ele>
        <time>2010-05-09T08:06:28Z</time>
      </trkpt>
      <trkpt lat="45.26426" lon="5.73639">
        <ele>673</ele>
        <time>2010-05-09T08:06:30Z</time>
      </trkpt>
      <trkpt lat="45.26424" lon="5.73637">
        <ele>673</ele>
        <time>2010-05-09T08:06:30Z</time>
      </trkpt>
      <trkpt lat="45.26422" lon="5.73633">
        <ele>673</ele>
        <time>2010-05-09T08:06:31Z</time>
      </trkpt>
      <trkpt lat="45.26421" lon="5.7363">
        <ele>673</ele>
        <time>2010-05-09T08:06:32Z</time>
      </trkpt>
      <trkpt lat="45.26419" lon="5.73627">
        <ele>673</ele>
        <time>2010-05-09T08:06:33Z</time>
      </trkpt>
      <trkpt lat="45.26418" lon="5.73624">
        <ele>673</ele>
        <time>2010-05-09T08:06:35Z</time>
      </trkpt>
      <trkpt lat="45.26416" lon="5.7362">
        <ele>673</ele>
        <time>2010-05-09T08:06:35Z</time>
      </trkpt>
      <trkpt lat="45.26414" lon="5.73617">
        <ele>673</ele>
        <time>2010-05-09T08:06:36Z</time>
      </trkpt>
      <trkpt lat="45.26413" lon="5.73614">
        <ele>673</ele>
        <time>2010-05-09T08:06:37Z</time>
      </trkpt>
      <trkpt lat="45.26411" lon="5.73611">
        <ele>673</ele>
        <time>2010-05-09T08:06:38Z</time>
      </trkpt>
      <trkpt lat="45.2641" lon="5.73608">
        <ele>673</ele>
        <time>2010-05-09T08:06:40Z</time>
      </trkpt>
      <trkpt lat="45.26409" lon="5.73604">
        <ele>673</ele>
        <time>2010-05-09T08:06:40Z</time>
      </trkpt>
      <trkpt lat="45.26408" lon="5.73601">
        <ele>673</ele>
        <time>2010-05-09T08:06:41Z</time>
      </trkpt>
      <trkpt lat="45.26407" lon="5.73598">
        <ele>673</ele>
        <time>2010-05-09T08:06:42Z</time>
      </trkpt>
      <trkpt lat="45.26406" lon="5.73594">
        <ele>673</ele>
        <time>2010-05-09T08:06:44Z</time>
      </trkpt>
      <trkpt lat="45.26406" lon="5.73591">
        <ele>673</ele>
        <time>2010-05-09T08:06:45Z</time>
      </trkpt>
      <trkpt lat="45.26404" lon="5.73588">
        <ele>673</ele>
        <time>2010-05-09T08:06:45Z</time>
      </trkpt>
      <trkpt lat="45.26403" lon="5.73585">
        <ele>673</ele>
        <time>2010-05-09T08:06:46Z</time>
      </trkpt>
      <trkpt lat="45.26401" lon="5.73583">
        <ele>673</ele>
        <time>2010-05-09T08:06:47Z</time>
      </trkpt>
      <trkpt lat="45.26399" lon="5.73581">
        <ele>673</ele>
        <time>2010-05-09T08:06:48Z</time>
      </trkpt>
      <trkpt lat="45.26397" lon="5.73579">
        <ele>673</ele>
        <time>2010-05-09T08:06:50Z</time>
      </trkpt>
      <trkpt lat="45.26395" lon="5.73577">
        <ele>673</ele>
        <time>2010-05-09T08:06:50Z</time>
      </trkpt>
      <trkpt lat="45.26393" lon="5.73575">
        <ele>673</ele>
        <time>2010-05-09T08:06:51Z</time>
      </trkpt>
      <trkpt lat="45.2639" lon="5.73573">
        <ele>673</ele>
        <time>2010-05-09T08:06:52Z</time>
      </trkpt>
      <trkpt lat="45.26388" lon="5.73571">
        <ele>673</ele>
        <time>2010-05-09T08:06:53Z</time>
      </trkpt>
      <trkpt lat="45.26386" lon="5.73568">
        <ele>673</ele>
        <time>2010-05-09T08:06:55Z</time>
      </trkpt>
      <trkpt lat="45.26384" lon="5.73565">
        <ele>673</ele>
        <time>2010-05-09T08:06:55Z</time>
      </trkpt>
      <trkpt lat="45.26381" lon="5.73562">
        <ele>673</ele>
        <time>2010-05-09T08:06:56Z</time>
      </trkpt>
      <trkpt lat="45.26379" lon="5.73559">
        <ele>673</ele>
        <time>2010-05-09T08:06:57Z</time>
      </trkpt>
      <trkpt lat="45.26376" lon="5.73557">
        <ele>673</ele>
        <time>2010-05-09T08:06:58Z</time>
      </trkpt>
      <trkpt lat="45.26373" lon="5.73556">
        <ele>673</ele>
        <time>2010-05-09T08:07:00Z</time>
      </trkpt>
      <trkpt lat="45.26369" lon="5.73555">
        <ele>673</ele>
        <time>2010-05-09T08:07:00Z</time>
      </trkpt>
      <trkpt lat="45.26366" lon="5.73553">
        <ele>673</ele>
        <time>2010-05-09T08:07:01Z</time>
      </trkpt>
      <trkpt lat="45.26362" lon="5.73552">
        <ele>673</ele>
        <time>2010-05-09T08:07:02Z</time>
      </trkpt>
      <trkpt lat="45.26358" lon="5.73552">
        <ele>673</ele>
        <time>2010-05-09T08:07:03Z</time>
      </trkpt>
      <trkpt lat="45.26355" lon="5.73552">
        <ele>673</ele>
        <time>2010-05-09T08:07:05Z</time>
      </trkpt>
      <trkpt lat="45.26353" lon="5.73551">
        <ele>673</ele>
        <time>2010-05-09T08:07:05Z</time>
      </trkpt>
      <trkpt lat="45.2635" lon="5.7355">
        <ele>673</ele>
        <time>2010-05-09T08:07:06Z</time>
      </trkpt>
      <trkpt lat="45.26347" lon="5.7355">
        <ele>673</ele>
        <time>2010-05-09T08:07:07Z</time>
      </trkpt>
      <trkpt lat="45.26345" lon="5.73549">
        <ele>673</ele>
        <time>2010-05-09T08:07:08Z</time>
      </trkpt>
      <trkpt lat="45.26342" lon="5.73548">
        <ele>673</ele>
        <time>2010-05-09T08:07:10Z</time>
      </trkpt>
      <trkpt lat="45.26339" lon="5.73546">
        <ele>673</ele>
        <time>2010-05-09T08:07:10Z</time>
      </trkpt>
      <trkpt lat="45.26337" lon="5.73545">
        <ele>673</ele>
        <time>2010-05-09T08:07:11Z</time>
      </trkpt>
      <trkpt lat="45.26335" lon="5.73545">
        <ele>673</ele>
        <time>2010-05-09T08:07:12Z</time>
      </trkpt>
      <trkpt lat="45.26332" lon="5.73545">
        <ele>673</ele>
        <time>2010-05-09T08:07:13Z</time>
      </trkpt>
      <trkpt lat="45.26328" lon="5.73544">
        <ele>673</ele>
        <time>2010-05-09T08:07:15Z</time>
      </trkpt>
      <trkpt lat="45.26325" lon="5.73543">
        <ele>673</ele>
        <time>2010-05-09T08:07:15Z</time>
      </trkpt>
      <trkpt lat="45.26321" lon="5.73542">
        <ele>673</ele>
        <time>2010-05-09T08:07:16Z</time>
      </trkpt>
      <trkpt lat="45.26318" lon="5.73541">
        <ele>673</ele>
        <time>2010-05-09T08:07:17Z</time>
      </trkpt>
      <trkpt lat="45.26315" lon="5.7354">
        <ele>672</ele>
        <time>2010-05-09T08:07:18Z</time>
      </trkpt>
      <trkpt lat="45.26312" lon="5.7354">
        <ele>672</ele>
        <time>2010-05-09T08:07:20Z</time>
      </trkpt>
      <trkpt lat="45.26309" lon="5.7354">
        <ele>671</ele>
        <time>2010-05-09T08:07:20Z</time>
      </trkpt>
      <trkpt lat="45.26306" lon="5.7354">
        <ele>671</ele>
        <time>2010-05-09T08:07:21Z</time>
      </trkpt>
      <trkpt lat="45.26302" lon="5.7354">
        <ele>671</ele>
        <time>2010-05-09T08:07:22Z</time>
      </trkpt>
      <trkpt lat="45.26299" lon="5.73539">
        <ele>671</ele>
        <time>2010-05-09T08:07:23Z</time>
      </trkpt>
      <trkpt lat="45.26296" lon="5.73538">
        <ele>670</ele>
        <time>2010-05-09T08:07:25Z</time>
      </trkpt>
      <trkpt lat="45.26293" lon="5.73537">
        <ele>670</ele>
        <time>2010-05-09T08:07:25Z</time>
      </trkpt>
      <trkpt lat="45.2629" lon="5.73536">
        <ele>670</ele>
        <time>2010-05-09T08:07:26Z</time>
      </trkpt>
      <trkpt lat="45.26287" lon="5.73536">
        <ele>670</ele>
        <time>2010-05-09T08:07:27Z</time>
      </trkpt>
      <trkpt lat="45.26283" lon="5.73536">
        <ele>670</ele>
        <time>2010-05-09T08:07:28Z</time>
      </trkpt>
      <trkpt lat="45.2628" lon="5.73536">
        <ele>670</ele>
        <time>2010-05-09T08:07:30Z</time>
      </trkpt>
      <trkpt lat="45.26277" lon="5.73535">
        <ele>670</ele>
        <time>2010-05-09T08:07:30Z</time>
      </trkpt>
      <trkpt lat="45.26274" lon="5.73534">
        <ele>670</ele>
        <time>2010-05-09T08:07:31Z</time>
      </trkpt>
      <trkpt lat="45.26271" lon="5.73533">
        <ele>670</ele>
        <time>2010-05-09T08:07:32Z</time>
      </trkpt>
      <trkpt lat="45.26267" lon="5.73533">
        <ele>670</ele>
        <time>2010-05-09T08:07:33Z</time>
      </trkpt>
      <trkpt lat="45.26264" lon="5.73532">
        <ele>670</ele>
        <time>2010-05-09T08:07:34Z</time>
      </trkpt>
      <trkpt lat="45.26262" lon="5.73531">
        <ele>670</ele>
        <time>2010-05-09T08:07:35Z</time>
      </trkpt>
      <trkpt lat="45.26259" lon="5.7353">
        <ele>670</ele>
        <time>2010-05-09T08:07:36Z</time>
      </trkpt>
      <trkpt lat="45.26257" lon="5.73528">
        <ele>670</ele>
        <time>2010-05-09T08:07:37Z</time>
      </trkpt>
      <trkpt lat="45.26254" lon="5.73526">
        <ele>670</ele>
        <time>2010-05-09T08:07:38Z</time>
      </trkpt>
      <trkpt lat="45.26252" lon="5.73525">
        <ele>670</ele>
        <time>2010-05-09T08:07:39Z</time>
      </trkpt>
      <trkpt lat="45.26249" lon="5.73524">
        <ele>670</ele>
        <time>2010-05-09T08:07:40Z</time>
      </trkpt>
      <trkpt lat="45.26246" lon="5.73524">
        <ele>670</ele>
        <time>2010-05-09T08:07:41Z</time>
      </trkpt>
      <trkpt lat="45.26244" lon="5.73524">
        <ele>670</ele>
        <time>2010-05-09T08:07:42Z</time>
      </trkpt>
      <trkpt lat="45.26242" lon="5.73523">
        <ele>670</ele>
        <time>2010-05-09T08:07:43Z</time>
      </trkpt>
      <trkpt lat="45.26239" lon="5.73522">
        <ele>670</ele>
        <time>2010-05-09T08:07:45Z</time>
      </trkpt>
      <trkpt lat="45.26236" lon="5.73521">
        <ele>670</ele>
        <time>2010-05-09T08:07:45Z</time>
      </trkpt>
      <trkpt lat="45.26233" lon="5.7352">
        <ele>670</ele>
        <time>2010-05-09T08:07:46Z</time>
      </trkpt>
      <trkpt lat="45.2623" lon="5.73519">
        <ele>670</ele>
        <time>2010-05-09T08:07:47Z</time>
      </trkpt>
      <trkpt lat="45.26227" lon="5.73518">
        <ele>670</ele>
        <time>2010-05-09T08:07:48Z</time>
      </trkpt>
      <trkpt lat="45.26224" lon="5.73517">
        <ele>670</ele>
        <time>2010-05-09T08:07:50Z</time>
      </trkpt>
      <trkpt lat="45.26221" lon="5.73516">
        <ele>670</ele>
        <time>2010-05-09T08:07:50Z</time>
      </trkpt>
      <trkpt lat="45.26218" lon="5.73515">
        <ele>670</ele>
        <time>2010-05-09T08:07:51Z</time>
      </trkpt>
      <trkpt lat="45.26215" lon="5.73514">
        <ele>670</ele>
        <time>2010-05-09T08:07:52Z</time>
      </trkpt>
      <trkpt lat="45.26212" lon="5.73512">
        <ele>670</ele>
        <time>2010-05-09T08:07:53Z</time>
      </trkpt>
      <trkpt lat="45.2621" lon="5.73509">
        <ele>670</ele>
        <time>2010-05-09T08:07:54Z</time>
      </trkpt>
      <trkpt lat="45.26207" lon="5.73506">
        <ele>670</ele>
        <time>2010-05-09T08:07:56Z</time>
      </trkpt>
      <trkpt lat="45.26205" lon="5.73504">
        <ele>670</ele>
        <time>2010-05-09T08:07:56Z</time>
      </trkpt>
      <trkpt lat="45.26202" lon="5.73501">
        <ele>670</ele>
        <time>2010-05-09T08:07:57Z</time>
      </trkpt>
      <trkpt lat="45.26199" lon="5.73498">
        <ele>670</ele>
        <time>2010-05-09T08:07:58Z</time>
      </trkpt>
      <trkpt lat="45.26196" lon="5.73495">
        <ele>670</ele>
        <time>2010-05-09T08:07:59Z</time>
      </trkpt>
      <trkpt lat="45.26194" lon="5.73493">
        <ele>670</ele>
        <time>2010-05-09T08:08:00Z</time>
      </trkpt>
      <trkpt lat="45.26191" lon="5.7349">
        <ele>670</ele>
        <time>2010-05-09T08:08:01Z</time>
      </trkpt>
      <trkpt lat="45.26189" lon="5.73487">
        <ele>670</ele>
        <time>2010-05-09T08:08:02Z</time>
      </trkpt>
      <trkpt lat="45.26187" lon="5.73485">
        <ele>670</ele>
        <time>2010-05-09T08:08:03Z</time>
      </trkpt>
      <trkpt lat="45.26184" lon="5.73483">
        <ele>670</ele>
        <time>2010-05-09T08:08:04Z</time>
      </trkpt>
      <trkpt lat="45.26182" lon="5.7348">
        <ele>670</ele>
        <time>2010-05-09T08:08:05Z</time>
      </trkpt>
      <trkpt lat="45.2618" lon="5.73479">
        <ele>670</ele>
        <time>2010-05-09T08:08:06Z</time>
      </trkpt>
      <trkpt lat="45.26177" lon="5.73476">
        <ele>670</ele>
        <time>2010-05-09T08:08:07Z</time>
      </trkpt>
      <trkpt lat="45.26174" lon="5.73473">
        <ele>670</ele>
        <time>2010-05-09T08:08:08Z</time>
      </trkpt>
      <trkpt lat="45.26171" lon="5.7347">
        <ele>670</ele>
        <time>2010-05-09T08:08:09Z</time>
      </trkpt>
      <trkpt lat="45.26168" lon="5.73467">
        <ele>670</ele>
        <time>2010-05-09T08:08:11Z</time>
      </trkpt>
      <trkpt lat="45.26165" lon="5.73465">
        <ele>670</ele>
        <time>2010-05-09T08:08:11Z</time>
      </trkpt>
      <trkpt lat="45.26162" lon="5.73462">
        <ele>670</ele>
        <time>2010-05-09T08:08:12Z</time>
      </trkpt>
      <trkpt lat="45.26159" lon="5.73459">
        <ele>670</ele>
        <time>2010-05-09T08:08:13Z</time>
      </trkpt>
      <trkpt lat="45.26157" lon="5.73457">
        <ele>670</ele>
        <time>2010-05-09T08:08:14Z</time>
      </trkpt>
      <trkpt lat="45.26153" lon="5.73454">
        <ele>670</ele>
        <time>2010-05-09T08:08:15Z</time>
      </trkpt>
      <trkpt lat="45.2615" lon="5.7345">
        <ele>670</ele>
        <time>2010-05-09T08:08:16Z</time>
      </trkpt>
      <trkpt lat="45.26147" lon="5.73447">
        <ele>670</ele>
        <time>2010-05-09T08:08:17Z</time>
      </trkpt>
      <trkpt lat="45.26145" lon="5.73444">
        <ele>670</ele>
        <time>2010-05-09T08:08:18Z</time>
      </trkpt>
      <trkpt lat="45.26142" lon="5.73442">
        <ele>670</ele>
        <time>2010-05-09T08:08:19Z</time>
      </trkpt>
      <trkpt lat="45.26139" lon="5.73438">
        <ele>670</ele>
        <time>2010-05-09T08:08:20Z</time>
      </trkpt>
      <trkpt lat="45.26136" lon="5.73435">
        <ele>670</ele>
        <time>2010-05-09T08:08:21Z</time>
      </trkpt>
      <trkpt lat="45.26133" lon="5.73431">
        <ele>670</ele>
        <time>2010-05-09T08:08:22Z</time>
      </trkpt>
      <trkpt lat="45.2613" lon="5.73428">
        <ele>670</ele>
        <time>2010-05-09T08:08:23Z</time>
      </trkpt>
      <trkpt lat="45.26128" lon="5.73425">
        <ele>670</ele>
        <time>2010-05-09T08:08:24Z</time>
      </trkpt>
      <trkpt lat="45.26125" lon="5.73421">
        <ele>670</ele>
        <time>2010-05-09T08:08:26Z</time>
      </trkpt>
      <trkpt lat="45.26122" lon="5.73418">
        <ele>670</ele>
        <time>2010-05-09T08:08:26Z</time>
      </trkpt>
      <trkpt lat="45.26119" lon="5.73415">
        <ele>670</ele>
        <time>2010-05-09T08:08:27Z</time>
      </trkpt>
      <trkpt lat="45.26116" lon="5.73412">
        <ele>670</ele>
        <time>2010-05-09T08:08:28Z</time>
      </trkpt>
      <trkpt lat="45.26112" lon="5.73409">
        <ele>670</ele>
        <time>2010-05-09T08:08:29Z</time>
      </trkpt>
      <trkpt lat="45.26109" lon="5.73405">
        <ele>670</ele>
        <time>2010-05-09T08:08:30Z</time>
      </trkpt>
      <trkpt lat="45.26106" lon="5.73402">
        <ele>670</ele>
        <time>2010-05-09T08:08:31Z</time>
      </trkpt>
      <trkpt lat="45.26104" lon="5.73399">
        <ele>670</ele>
        <time>2010-05-09T08:08:32Z</time>
      </trkpt>
      <trkpt lat="45.26101" lon="5.73396">
        <ele>670</ele>
        <time>2010-05-09T08:08:33Z</time>
      </trkpt>
      <trkpt lat="45.26098" lon="5.73392">
        <ele>670</ele>
        <time>2010-05-09T08:08:34Z</time>
      </trkpt>
      <trkpt lat="45.26095" lon="5.7339">
        <ele>670</ele>
        <time>2010-05-09T08:08:36Z</time>
      </trkpt>
      <trkpt lat="45.26092" lon="5.73388">
        <ele>670</ele>
        <time>2010-05-09T08:08:36Z</time>
      </trkpt>
      <trkpt lat="45.26088" lon="5.73386">
        <ele>670</ele>
        <time>2010-05-09T08:08:37Z</time>
      </trkpt>
      <trkpt lat="45.26084" lon="5.73384">
        <ele>670</ele>
        <time>2010-05-09T08:08:38Z</time>
      </trkpt>
      <trkpt lat="45.2608" lon="5.73382">
        <ele>670</ele>
        <time>2010-05-09T08:08:39Z</time>
      </trkpt>
      <trkpt lat="45.26077" lon="5.7338">
        <ele>670</ele>
        <time>2010-05-09T08:08:41Z</time>
      </trkpt>
      <trkpt lat="45.26073" lon="5.73378">
        <ele>670</ele>
        <time>2010-05-09T08:08:41Z</time>
      </trkpt>
      <trkpt lat="45.26069" lon="5.73376">
        <ele>670</ele>
        <time>2010-05-09T08:08:42Z</time>
      </trkpt>
      <trkpt lat="45.26065" lon="5.73374">
        <ele>670</ele>
        <time>2010-05-09T08:08:43Z</time>
      </trkpt>
      <trkpt lat="45.26062" lon="5.73373">
        <ele>670</ele>
        <time>2010-05-09T08:08:44Z</time>
      </trkpt>
      <trkpt lat="45.26059" lon="5.73371">
        <ele>670</ele>
        <time>2010-05-09T08:08:45Z</time>
      </trkpt>
      <trkpt lat="45.26055" lon="5.7337">
        <ele>670</ele>
        <time>2010-05-09T08:08:46Z</time>
      </trkpt>
      <trkpt lat="45.26052" lon="5.73367">
        <ele>670</ele>
        <time>2010-05-09T08:08:47Z</time>
      </trkpt>
      <trkpt lat="45.26049" lon="5.73364">
        <ele>670</ele>
        <time>2010-05-09T08:08:48Z</time>
      </trkpt>
      <trkpt lat="45.26047" lon="5.73361">
        <ele>670</ele>
        <time>2010-05-09T08:08:49Z</time>
      </trkpt>
      <trkpt lat="45.26044" lon="5.73358">
        <ele>670</ele>
        <time>2010-05-09T08:08:50Z</time>
      </trkpt>
      <trkpt lat="45.26041" lon="5.73355">
        <ele>670</ele>
        <time>2010-05-09T08:08:51Z</time>
      </trkpt>
      <trkpt lat="45.26039" lon="5.73352">
        <ele>670</ele>
        <time>2010-05-09T08:08:52Z</time>
      </trkpt>
      <trkpt lat="45.26036" lon="5.73348">
        <ele>670</ele>
        <time>2010-05-09T08:08:53Z</time>
      </trkpt>
      <trkpt lat="45.26033" lon="5.73345">
        <ele>670</ele>
        <time>2010-05-09T08:08:54Z</time>
      </trkpt>
      <trkpt lat="45.26031" lon="5.73341">
        <ele>670</ele>
        <time>2010-05-09T08:08:56Z</time>
      </trkpt>
      <trkpt lat="45.26028" lon="5.73336">
        <ele>670</ele>
        <time>2010-05-09T08:08:56Z</time>
      </trkpt>
      <trkpt lat="45.26025" lon="5.7333">
        <ele>670</ele>
        <time>2010-05-09T08:08:57Z</time>
      </trkpt>
      <trkpt lat="45.26023" lon="5.73326">
        <ele>670</ele>
        <time>2010-05-09T08:08:58Z</time>
      </trkpt>
      <trkpt lat="45.2602" lon="5.73321">
        <ele>670</ele>
        <time>2010-05-09T08:08:59Z</time>
      </trkpt>
      <trkpt lat="45.26018" lon="5.73317">
        <ele>670</ele>
        <time>2010-05-09T08:09:00Z</time>
      </trkpt>
      <trkpt lat="45.26016" lon="5.73314">
        <ele>670</ele>
        <time>2010-05-09T08:09:01Z</time>
      </trkpt>
      <trkpt lat="45.26014" lon="5.7331">
        <ele>669</ele>
        <time>2010-05-09T08:09:02Z</time>
      </trkpt>
      <trkpt lat="45.26012" lon="5.73306">
        <ele>669</ele>
        <time>2010-05-09T08:09:03Z</time>
      </trkpt>
      <trkpt lat="45.26011" lon="5.73302">
        <ele>669</ele>
        <time>2010-05-09T08:09:04Z</time>
      </trkpt>
      <trkpt lat="45.26009" lon="5.73299">
        <ele>669</ele>
        <time>2010-05-09T08:09:05Z</time>
      </trkpt>
      <trkpt lat="45.26008" lon="5.73295">
        <ele>669</ele>
        <time>2010-05-09T08:09:06Z</time>
      </trkpt>
      <trkpt lat="45.26006" lon="5.73292">
        <ele>669</ele>
        <time>2010-05-09T08:09:07Z</time>
      </trkpt>
      <trkpt lat="45.26004" lon="5.73288">
        <ele>669</ele>
        <time>2010-05-09T08:09:08Z</time>
      </trkpt>
      <trkpt lat="45.26004" lon="5.73284">
        <ele>669</ele>
        <time>2010-05-09T08:09:09Z</time>
      </trkpt>
      <trkpt lat="45.26002" lon="5.73281">
        <ele>669</ele>
        <time>2010-05-09T08:09:10Z</time>
      </trkpt>
      <trkpt lat="45.26001" lon="5.73278">
        <ele>669</ele>
        <time>2010-05-09T08:09:11Z</time>
      </trkpt>
      <trkpt lat="45.25999" lon="5.73275">
        <ele>669</ele>
        <time>2010-05-09T08:09:12Z</time>
      </trkpt>
      <trkpt lat="45.25998" lon="5.73272">
        <ele>669</ele>
        <time>2010-05-09T08:09:13Z</time>
      </trkpt>
      <trkpt lat="45.25996" lon="5.73268">
        <ele>669</ele>
        <time>2010-05-09T08:09:14Z</time>
      </trkpt>
      <trkpt lat="45.25994" lon="5.73265">
        <ele>669</ele>
        <time>2010-05-09T08:09:15Z</time>
      </trkpt>
      <trkpt lat="45.25993" lon="5.73261">
        <ele>669</ele>
        <time>2010-05-09T08:09:16Z</time>
      </trkpt>
      <trkpt lat="45.2599" lon="5.73258">
        <ele>669</ele>
        <time>2010-05-09T08:09:17Z</time>
      </trkpt>
      <trkpt lat="45.25988" lon="5.73254">
        <ele>669</ele>
        <time>2010-05-09T08:09:18Z</time>
      </trkpt>
      <trkpt lat="45.25987" lon="5.73251">
        <ele>669</ele>
        <time>2010-05-09T08:09:19Z</time>
      </trkpt>
      <trkpt lat="45.25985" lon="5.73247">
        <ele>669</ele>
        <time>2010-05-09T08:09:20Z</time>
      </trkpt>
      <trkpt lat="45.25983" lon="5.73244">
        <ele>669</ele>
        <time>2010-05-09T08:09:21Z</time>
      </trkpt>
      <trkpt lat="45.25981" lon="5.73241">
        <ele>669</ele>
        <time>2010-05-09T08:09:22Z</time>
      </trkpt>
      <trkpt lat="45.25979" lon="5.73237">
        <ele>669</ele>
        <time>2010-05-09T08:09:23Z</time>
      </trkpt>
      <trkpt lat="45.25978" lon="5.73233">
        <ele>669</ele>
        <time>2010-05-09T08:09:24Z</time>
      </trkpt>
      <trkpt lat="45.25976" lon="5.73229">
        <ele>669</ele>
        <time>2010-05-09T08:09:26Z</time>
      </trkpt>
      <trkpt lat="45.25975" lon="5.73225">
        <ele>669</ele>
        <time>2010-05-09T08:09:26Z</time>
      </trkpt>
      <trkpt lat="45.25973" lon="5.73222">
        <ele>669</ele>
        <time>2010-05-09T08:09:27Z</time>
      </trkpt>
      <trkpt lat="45.25972" lon="5.73219">
        <ele>669</ele>
        <time>2010-05-09T08:09:28Z</time>
      </trkpt>
      <trkpt lat="45.25971" lon="5.73215">
        <ele>669</ele>
        <time>2010-05-09T08:09:29Z</time>
      </trkpt>
      <trkpt lat="45.25969" lon="5.73212">
        <ele>669</ele>
        <time>2010-05-09T08:09:30Z</time>
      </trkpt>
      <trkpt lat="45.25968" lon="5.73209">
        <ele>670</ele>
        <time>2010-05-09T08:09:31Z</time>
      </trkpt>
      <trkpt lat="45.25966" lon="5.73205">
        <ele>671</ele>
        <time>2010-05-09T08:09:32Z</time>
      </trkpt>
      <trkpt lat="45.25964" lon="5.73202">
        <ele>672</ele>
        <time>2010-05-09T08:09:33Z</time>
      </trkpt>
      <trkpt lat="45.25962" lon="5.73199">
        <ele>672</ele>
        <time>2010-05-09T08:09:34Z</time>
      </trkpt>
      <trkpt lat="45.2596" lon="5.73196">
        <ele>673</ele>
        <time>2010-05-09T08:09:35Z</time>
      </trkpt>
      <trkpt lat="45.25958" lon="5.73193">
        <ele>674</ele>
        <time>2010-05-09T08:09:36Z</time>
      </trkpt>
      <trkpt lat="45.25957" lon="5.73189">
        <ele>674</ele>
        <time>2010-05-09T08:09:37Z</time>
      </trkpt>
      <trkpt lat="45.25955" lon="5.73186">
        <ele>675</ele>
        <time>2010-05-09T08:09:38Z</time>
      </trkpt>
      <trkpt lat="45.25953" lon="5.73183">
        <ele>675</ele>
        <time>2010-05-09T08:09:39Z</time>
      </trkpt>
      <trkpt lat="45.25951" lon="5.7318">
        <ele>676</ele>
        <time>2010-05-09T08:09:40Z</time>
      </trkpt>
      <trkpt lat="45.25949" lon="5.73178">
        <ele>676</ele>
        <time>2010-05-09T08:09:41Z</time>
      </trkpt>
      <trkpt lat="45.25947" lon="5.73175">
        <ele>677</ele>
        <time>2010-05-09T08:09:42Z</time>
      </trkpt>
      <trkpt lat="45.25945" lon="5.73172">
        <ele>677</ele>
        <time>2010-05-09T08:09:43Z</time>
      </trkpt>
      <trkpt lat="45.25943" lon="5.7317">
        <ele>677</ele>
        <time>2010-05-09T08:09:44Z</time>
      </trkpt>
      <trkpt lat="45.25941" lon="5.73167">
        <ele>678</ele>
        <time>2010-05-09T08:09:45Z</time>
      </trkpt>
      <trkpt lat="45.2594" lon="5.73164">
        <ele>678</ele>
        <time>2010-05-09T08:09:46Z</time>
      </trkpt>
      <trkpt lat="45.25938" lon="5.73161">
        <ele>678</ele>
        <time>2010-05-09T08:09:47Z</time>
      </trkpt>
      <trkpt lat="45.25936" lon="5.73159">
        <ele>678</ele>
        <time>2010-05-09T08:09:48Z</time>
      </trkpt>
      <trkpt lat="45.25935" lon="5.73158">
        <ele>678</ele>
        <time>2010-05-09T08:09:50Z</time>
      </trkpt>
      <trkpt lat="45.25933" lon="5.73154">
        <ele>678</ele>
        <time>2010-05-09T08:09:54Z</time>
      </trkpt>
      <trkpt lat="45.25931" lon="5.73151">
        <ele>678</ele>
        <time>2010-05-09T08:09:55Z</time>
      </trkpt>
      <trkpt lat="45.25929" lon="5.73149">
        <ele>678</ele>
        <time>2010-05-09T08:09:56Z</time>
      </trkpt>
      <trkpt lat="45.25927" lon="5.73146">
        <ele>678</ele>
        <time>2010-05-09T08:09:57Z</time>
      </trkpt>
      <trkpt lat="45.25925" lon="5.73144">
        <ele>678</ele>
        <time>2010-05-09T08:09:58Z</time>
      </trkpt>
      <trkpt lat="45.25922" lon="5.73142">
        <ele>678</ele>
        <time>2010-05-09T08:09:59Z</time>
      </trkpt>
      <trkpt lat="45.2592" lon="5.7314">
        <ele>678</ele>
        <time>2010-05-09T08:10:00Z</time>
      </trkpt>
      <trkpt lat="45.25917" lon="5.73138">
        <ele>678</ele>
        <time>2010-05-09T08:10:01Z</time>
      </trkpt>
      <trkpt lat="45.25915" lon="5.73135">
        <ele>678</ele>
        <time>2010-05-09T08:10:02Z</time>
      </trkpt>
      <trkpt lat="45.25912" lon="5.73133">
        <ele>678</ele>
        <time>2010-05-09T08:10:03Z</time>
      </trkpt>
      <trkpt lat="45.25909" lon="5.7313">
        <ele>678</ele>
        <time>2010-05-09T08:10:04Z</time>
      </trkpt>
      <trkpt lat="45.25907" lon="5.73127">
        <ele>678</ele>
        <time>2010-05-09T08:10:05Z</time>
      </trkpt>
      <trkpt lat="45.25905" lon="5.73124">
        <ele>678</ele>
        <time>2010-05-09T08:10:06Z</time>
      </trkpt>
      <trkpt lat="45.25902" lon="5.73121">
        <ele>678</ele>
        <time>2010-05-09T08:10:07Z</time>
      </trkpt>
      <trkpt lat="45.25899" lon="5.73118">
        <ele>678</ele>
        <time>2010-05-09T08:10:08Z</time>
      </trkpt>
      <trkpt lat="45.25897" lon="5.73115">
        <ele>678</ele>
        <time>2010-05-09T08:10:09Z</time>
      </trkpt>
      <trkpt lat="45.25894" lon="5.73112">
        <ele>678</ele>
        <time>2010-05-09T08:10:10Z</time>
      </trkpt>
      <trkpt lat="45.25891" lon="5.73109">
        <ele>678</ele>
        <time>2010-05-09T08:10:11Z</time>
      </trkpt>
      <trkpt lat="45.25888" lon="5.73107">
        <ele>678</ele>
        <time>2010-05-09T08:10:12Z</time>
      </trkpt>
      <trkpt lat="45.25886" lon="5.73104">
        <ele>678</ele>
        <time>2010-05-09T08:10:13Z</time>
      </trkpt>
      <trkpt lat="45.25884" lon="5.73101">
        <ele>678</ele>
        <time>2010-05-09T08:10:14Z</time>
      </trkpt>
      <trkpt lat="45.25881" lon="5.73097">
        <ele>678</ele>
        <time>2010-05-09T08:10:16Z</time>
      </trkpt>
      <trkpt lat="45.25878" lon="5.73095">
        <ele>678</ele>
        <time>2010-05-09T08:10:16Z</time>
      </trkpt>
      <trkpt lat="45.25876" lon="5.73092">
        <ele>678</ele>
        <time>2010-05-09T08:10:17Z</time>
      </trkpt>
      <trkpt lat="45.25873" lon="5.73088">
        <ele>678</ele>
        <time>2010-05-09T08:10:18Z</time>
      </trkpt>
      <trkpt lat="45.2587" lon="5.73085">
        <ele>678</ele>
        <time>2010-05-09T08:10:19Z</time>
      </trkpt>
      <trkpt lat="45.25867" lon="5.73083">
        <ele>677</ele>
        <time>2010-05-09T08:10:20Z</time>
      </trkpt>
      <trkpt lat="45.25864" lon="5.7308">
        <ele>677</ele>
        <time>2010-05-09T08:10:21Z</time>
      </trkpt>
      <trkpt lat="45.2586" lon="5.73076">
        <ele>676</ele>
        <time>2010-05-09T08:10:22Z</time>
      </trkpt>
      <trkpt lat="45.25857" lon="5.73073">
        <ele>676</ele>
        <time>2010-05-09T08:10:23Z</time>
      </trkpt>
      <trkpt lat="45.25854" lon="5.73071">
        <ele>675</ele>
        <time>2010-05-09T08:10:24Z</time>
      </trkpt>
      <trkpt lat="45.25851" lon="5.73068">
        <ele>674</ele>
        <time>2010-05-09T08:10:25Z</time>
      </trkpt>
      <trkpt lat="45.25847" lon="5.73066">
        <ele>673</ele>
        <time>2010-05-09T08:10:26Z</time>
      </trkpt>
      <trkpt lat="45.25844" lon="5.73063">
        <ele>673</ele>
        <time>2010-05-09T08:10:27Z</time>
      </trkpt>
      <trkpt lat="45.25841" lon="5.73061">
        <ele>672</ele>
        <time>2010-05-09T08:10:28Z</time>
      </trkpt>
      <trkpt lat="45.25837" lon="5.7306">
        <ele>671</ele>
        <time>2010-05-09T08:10:29Z</time>
      </trkpt>
      <trkpt lat="45.25833" lon="5.73058">
        <ele>670</ele>
        <time>2010-05-09T08:10:30Z</time>
      </trkpt>
      <trkpt lat="45.25829" lon="5.73057">
        <ele>670</ele>
        <time>2010-05-09T08:10:31Z</time>
      </trkpt>
      <trkpt lat="45.25826" lon="5.73056">
        <ele>669</ele>
        <time>2010-05-09T08:10:32Z</time>
      </trkpt>
      <trkpt lat="45.25822" lon="5.73055">
        <ele>668</ele>
        <time>2010-05-09T08:10:33Z</time>
      </trkpt>
      <trkpt lat="45.25819" lon="5.73055">
        <ele>668</ele>
        <time>2010-05-09T08:10:34Z</time>
      </trkpt>
      <trkpt lat="45.25816" lon="5.73054">
        <ele>667</ele>
        <time>2010-05-09T08:10:35Z</time>
      </trkpt>
      <trkpt lat="45.25813" lon="5.73053">
        <ele>667</ele>
        <time>2010-05-09T08:10:36Z</time>
      </trkpt>
      <trkpt lat="45.2581" lon="5.7305">
        <ele>667</ele>
        <time>2010-05-09T08:10:37Z</time>
      </trkpt>
      <trkpt lat="45.25807" lon="5.73046">
        <ele>667</ele>
        <time>2010-05-09T08:10:38Z</time>
      </trkpt>
      <trkpt lat="45.25805" lon="5.73043">
        <ele>667</ele>
        <time>2010-05-09T08:10:39Z</time>
      </trkpt>
      <trkpt lat="45.25802" lon="5.73041">
        <ele>667</ele>
        <time>2010-05-09T08:10:40Z</time>
      </trkpt>
      <trkpt lat="45.25799" lon="5.73038">
        <ele>666</ele>
        <time>2010-05-09T08:10:41Z</time>
      </trkpt>
      <trkpt lat="45.25797" lon="5.73036">
        <ele>666</ele>
        <time>2010-05-09T08:10:42Z</time>
      </trkpt>
      <trkpt lat="45.25793" lon="5.73034">
        <ele>665</ele>
        <time>2010-05-09T08:10:43Z</time>
      </trkpt>
      <trkpt lat="45.2579" lon="5.73031">
        <ele>665</ele>
        <time>2010-05-09T08:10:44Z</time>
      </trkpt>
      <trkpt lat="45.25786" lon="5.73029">
        <ele>665</ele>
        <time>2010-05-09T08:10:45Z</time>
      </trkpt>
      <trkpt lat="45.25782" lon="5.73027">
        <ele>665</ele>
        <time>2010-05-09T08:10:46Z</time>
      </trkpt>
      <trkpt lat="45.25779" lon="5.73024">
        <ele>665</ele>
        <time>2010-05-09T08:10:47Z</time>
      </trkpt>
      <trkpt lat="45.25775" lon="5.73022">
        <ele>665</ele>
        <time>2010-05-09T08:10:48Z</time>
      </trkpt>
      <trkpt lat="45.25771" lon="5.73019">
        <ele>665</ele>
        <time>2010-05-09T08:10:49Z</time>
      </trkpt>
      <trkpt lat="45.25767" lon="5.73016">
        <ele>665</ele>
        <time>2010-05-09T08:10:50Z</time>
      </trkpt>
      <trkpt lat="45.25764" lon="5.73013">
        <ele>665</ele>
        <time>2010-05-09T08:10:51Z</time>
      </trkpt>
      <trkpt lat="45.25761" lon="5.73011">
        <ele>665</ele>
        <time>2010-05-09T08:10:52Z</time>
      </trkpt>
      <trkpt lat="45.25758" lon="5.73008">
        <ele>665</ele>
        <time>2010-05-09T08:10:53Z</time>
      </trkpt>
      <trkpt lat="45.25755" lon="5.73005">
        <ele>665</ele>
        <time>2010-05-09T08:10:54Z</time>
      </trkpt>
      <trkpt lat="45.25753" lon="5.73">
        <ele>665</ele>
        <time>2010-05-09T08:10:55Z</time>
      </trkpt>
      <trkpt lat="45.25751" lon="5.72996">
        <ele>665</ele>
        <time>2010-05-09T08:10:56Z</time>
      </trkpt>
      <trkpt lat="45.25749" lon="5.72993">
        <ele>665</ele>
        <time>2010-05-09T08:10:57Z</time>
      </trkpt>
      <trkpt lat="45.25745" lon="5.7299">
        <ele>665</ele>
        <time>2010-05-09T08:10:58Z</time>
      </trkpt>
      <trkpt lat="45.25742" lon="5.72988">
        <ele>665</ele>
        <time>2010-05-09T08:10:59Z</time>
      </trkpt>
      <trkpt lat="45.25739" lon="5.72985">
        <ele>665</ele>
        <time>2010-05-09T08:11:00Z</time>
      </trkpt>
      <trkpt lat="45.25737" lon="5.72982">
        <ele>665</ele>
        <time>2010-05-09T08:11:01Z</time>
      </trkpt>
      <trkpt lat="45.25734" lon="5.72979">
        <ele>665</ele>
        <time>2010-05-09T08:11:02Z</time>
      </trkpt>
      <trkpt lat="45.25731" lon="5.72976">
        <ele>665</ele>
        <time>2010-05-09T08:11:03Z</time>
      </trkpt>
      <trkpt lat="45.25728" lon="5.72973">
        <ele>665</ele>
        <time>2010-05-09T08:11:04Z</time>
      </trkpt>
      <trkpt lat="45.25726" lon="5.7297">
        <ele>665</ele>
        <time>2010-05-09T08:11:05Z</time>
      </trkpt>
      <trkpt lat="45.25723" lon="5.72967">
        <ele>665</ele>
        <time>2010-05-09T08:11:06Z</time>
      </trkpt>
      <trkpt lat="45.2572" lon="5.72964">
        <ele>665</ele>
        <time>2010-05-09T08:11:07Z</time>
      </trkpt>
      <trkpt lat="45.25717" lon="5.72959">
        <ele>665</ele>
        <time>2010-05-09T08:11:08Z</time>
      </trkpt>
      <trkpt lat="45.25714" lon="5.72955">
        <ele>665</ele>
        <time>2010-05-09T08:11:09Z</time>
      </trkpt>
      <trkpt lat="45.25713" lon="5.72952">
        <ele>665</ele>
        <time>2010-05-09T08:11:10Z</time>
      </trkpt>
      <trkpt lat="45.25711" lon="5.72949">
        <ele>665</ele>
        <time>2010-05-09T08:11:11Z</time>
      </trkpt>
      <trkpt lat="45.25708" lon="5.72945">
        <ele>665</ele>
        <time>2010-05-09T08:11:12Z</time>
      </trkpt>
      <trkpt lat="45.25706" lon="5.7294">
        <ele>665</ele>
        <time>2010-05-09T08:11:13Z</time>
      </trkpt>
      <trkpt lat="45.25705" lon="5.72936">
        <ele>665</ele>
        <time>2010-05-09T08:11:14Z</time>
      </trkpt>
      <trkpt lat="45.25702" lon="5.72933">
        <ele>665</ele>
        <time>2010-05-09T08:11:15Z</time>
      </trkpt>
      <trkpt lat="45.257" lon="5.72931">
        <ele>665</ele>
        <time>2010-05-09T08:11:16Z</time>
      </trkpt>
      <trkpt lat="45.25697" lon="5.72931">
        <ele>665</ele>
        <time>2010-05-09T08:11:17Z</time>
      </trkpt>
      <trkpt lat="45.25696" lon="5.72931">
        <ele>665</ele>
        <time>2010-05-09T08:11:18Z</time>
      </trkpt>
      <trkpt lat="45.25694" lon="5.7293">
        <ele>665</ele>
        <time>2010-05-09T08:11:19Z</time>
      </trkpt>
      <trkpt lat="45.25692" lon="5.72928">
        <ele>665</ele>
        <time>2010-05-09T08:11:20Z</time>
      </trkpt>
      <trkpt lat="45.25689" lon="5.72928">
        <ele>665</ele>
        <time>2010-05-09T08:11:21Z</time>
      </trkpt>
      <trkpt lat="45.25686" lon="5.72926">
        <ele>665</ele>
        <time>2010-05-09T08:11:22Z</time>
      </trkpt>
      <trkpt lat="45.25683" lon="5.72924">
        <ele>665</ele>
        <time>2010-05-09T08:11:23Z</time>
      </trkpt>
      <trkpt lat="45.25681" lon="5.72921">
        <ele>665</ele>
        <time>2010-05-09T08:11:24Z</time>
      </trkpt>
      <trkpt lat="45.25678" lon="5.72918">
        <ele>665</ele>
        <time>2010-05-09T08:11:25Z</time>
      </trkpt>
      <trkpt lat="45.25675" lon="5.72916">
        <ele>665</ele>
        <time>2010-05-09T08:11:26Z</time>
      </trkpt>
      <trkpt lat="45.25673" lon="5.72913">
        <ele>665</ele>
        <time>2010-05-09T08:11:27Z</time>
      </trkpt>
      <trkpt lat="45.2567" lon="5.7291">
        <ele>665</ele>
        <time>2010-05-09T08:11:28Z</time>
      </trkpt>
      <trkpt lat="45.25668" lon="5.72906">
        <ele>665</ele>
        <time>2010-05-09T08:11:29Z</time>
      </trkpt>
      <trkpt lat="45.25666" lon="5.72902">
        <ele>665</ele>
        <time>2010-05-09T08:11:30Z</time>
      </trkpt>
      <trkpt lat="45.25663" lon="5.729">
        <ele>665</ele>
        <time>2010-05-09T08:11:31Z</time>
      </trkpt>
      <trkpt lat="45.2566" lon="5.72896">
        <ele>665</ele>
        <time>2010-05-09T08:11:32Z</time>
      </trkpt>
      <trkpt lat="45.25659" lon="5.72893">
        <ele>665</ele>
        <time>2010-05-09T08:11:33Z</time>
      </trkpt>
      <trkpt lat="45.25657" lon="5.7289">
        <ele>665</ele>
        <time>2010-05-09T08:11:34Z</time>
      </trkpt>
      <trkpt lat="45.25655" lon="5.72886">
        <ele>665</ele>
        <time>2010-05-09T08:11:35Z</time>
      </trkpt>
      <trkpt lat="45.25652" lon="5.72882">
        <ele>665</ele>
        <time>2010-05-09T08:11:36Z</time>
      </trkpt>
      <trkpt lat="45.2565" lon="5.72879">
        <ele>665</ele>
        <time>2010-05-09T08:11:37Z</time>
      </trkpt>
      <trkpt lat="45.25648" lon="5.72875">
        <ele>665</ele>
        <time>2010-05-09T08:11:38Z</time>
      </trkpt>
      <trkpt lat="45.25647" lon="5.7287">
        <ele>665</ele>
        <time>2010-05-09T08:11:39Z</time>
      </trkpt>
      <trkpt lat="45.25647" lon="5.72865">
        <ele>665</ele>
        <time>2010-05-09T08:11:40Z</time>
      </trkpt>
      <trkpt lat="45.25647" lon="5.7286">
        <ele>665</ele>
        <time>2010-05-09T08:11:41Z</time>
      </trkpt>
      <trkpt lat="45.25647" lon="5.72855">
        <ele>665</ele>
        <time>2010-05-09T08:11:42Z</time>
      </trkpt>
      <trkpt lat="45.25649" lon="5.7285">
        <ele>665</ele>
        <time>2010-05-09T08:11:43Z</time>
      </trkpt>
      <trkpt lat="45.2565" lon="5.72845">
        <ele>665</ele>
        <time>2010-05-09T08:11:44Z</time>
      </trkpt>
      <trkpt lat="45.2565" lon="5.72841">
        <ele>665</ele>
        <time>2010-05-09T08:11:45Z</time>
      </trkpt>
      <trkpt lat="45.2565" lon="5.72836">
        <ele>665</ele>
        <time>2010-05-09T08:11:46Z</time>
      </trkpt>
      <trkpt lat="45.25649" lon="5.72832">
        <ele>665</ele>
        <time>2010-05-09T08:11:47Z</time>
      </trkpt>
      <trkpt lat="45.25648" lon="5.72827">
        <ele>665</ele>
        <time>2010-05-09T08:11:48Z</time>
      </trkpt>
      <trkpt lat="45.25647" lon="5.72822">
        <ele>665</ele>
        <time>2010-05-09T08:11:49Z</time>
      </trkpt>
      <trkpt lat="45.25647" lon="5.72817">
        <ele>665</ele>
        <time>2010-05-09T08:11:50Z</time>
      </trkpt>
      <trkpt lat="45.25646" lon="5.72813">
        <ele>665</ele>
        <time>2010-05-09T08:11:51Z</time>
      </trkpt>
      <trkpt lat="45.25644" lon="5.72808">
        <ele>665</ele>
        <time>2010-05-09T08:11:52Z</time>
      </trkpt>
      <trkpt lat="45.25642" lon="5.72803">
        <ele>665</ele>
        <time>2010-05-09T08:11:53Z</time>
      </trkpt>
      <trkpt lat="45.2564" lon="5.72799">
        <ele>665</ele>
        <time>2010-05-09T08:11:54Z</time>
      </trkpt>
      <trkpt lat="45.25639" lon="5.72795">
        <ele>665</ele>
        <time>2010-05-09T08:11:55Z</time>
      </trkpt>
      <trkpt lat="45.25637" lon="5.72791">
        <ele>665</ele>
        <time>2010-05-09T08:11:56Z</time>
      </trkpt>
      <trkpt lat="45.25634" lon="5.72787">
        <ele>665</ele>
        <time>2010-05-09T08:11:57Z</time>
      </trkpt>
      <trkpt lat="45.25632" lon="5.72783">
        <ele>665</ele>
        <time>2010-05-09T08:11:58Z</time>
      </trkpt>
      <trkpt lat="45.2563" lon="5.72779">
        <ele>665</ele>
        <time>2010-05-09T08:11:59Z</time>
      </trkpt>
      <trkpt lat="45.25627" lon="5.72775">
        <ele>665</ele>
        <time>2010-05-09T08:12:00Z</time>
      </trkpt>
      <trkpt lat="45.25625" lon="5.7277">
        <ele>665</ele>
        <time>2010-05-09T08:12:01Z</time>
      </trkpt>
      <trkpt lat="45.25623" lon="5.72766">
        <ele>665</ele>
        <time>2010-05-09T08:12:02Z</time>
      </trkpt>
      <trkpt lat="45.2562" lon="5.72762">
        <ele>665</ele>
        <time>2010-05-09T08:12:03Z</time>
      </trkpt>
      <trkpt lat="45.25617" lon="5.72759">
        <ele>665</ele>
        <time>2010-05-09T08:12:04Z</time>
      </trkpt>
      <trkpt lat="45.25614" lon="5.72756">
        <ele>665</ele>
        <time>2010-05-09T08:12:05Z</time>
      </trkpt>
      <trkpt lat="45.25611" lon="5.72754">
        <ele>665</ele>
        <time>2010-05-09T08:12:06Z</time>
      </trkpt>
      <trkpt lat="45.25609" lon="5.72751">
        <ele>665</ele>
        <time>2010-05-09T08:12:07Z</time>
      </trkpt>
      <trkpt lat="45.25607" lon="5.72747">
        <ele>665</ele>
        <time>2010-05-09T08:12:08Z</time>
      </trkpt>
      <trkpt lat="45.25604" lon="5.72742">
        <ele>665</ele>
        <time>2010-05-09T08:12:09Z</time>
      </trkpt>
      <trkpt lat="45.25601" lon="5.72739">
        <ele>665</ele>
        <time>2010-05-09T08:12:10Z</time>
      </trkpt>
      <trkpt lat="45.25598" lon="5.72736">
        <ele>665</ele>
        <time>2010-05-09T08:12:11Z</time>
      </trkpt>
      <trkpt lat="45.25596" lon="5.72733">
        <ele>665</ele>
        <time>2010-05-09T08:12:12Z</time>
      </trkpt>
      <trkpt lat="45.25593" lon="5.72729">
        <ele>665</ele>
        <time>2010-05-09T08:12:13Z</time>
      </trkpt>
      <trkpt lat="45.25591" lon="5.72726">
        <ele>665</ele>
        <time>2010-05-09T08:12:14Z</time>
      </trkpt>
      <trkpt lat="45.25588" lon="5.72722">
        <ele>665</ele>
        <time>2010-05-09T08:12:15Z</time>
      </trkpt>
      <trkpt lat="45.25586" lon="5.72718">
        <ele>665</ele>
        <time>2010-05-09T08:12:16Z</time>
      </trkpt>
      <trkpt lat="45.25583" lon="5.72713">
        <ele>665</ele>
        <time>2010-05-09T08:12:17Z</time>
      </trkpt>
      <trkpt lat="45.25579" lon="5.7271">
        <ele>665</ele>
        <time>2010-05-09T08:12:18Z</time>
      </trkpt>
      <trkpt lat="45.25577" lon="5.72707">
        <ele>665</ele>
        <time>2010-05-09T08:12:19Z</time>
      </trkpt>
      <trkpt lat="45.25573" lon="5.72704">
        <ele>665</ele>
        <time>2010-05-09T08:12:20Z</time>
      </trkpt>
      <trkpt lat="45.2557" lon="5.727">
        <ele>665</ele>
        <time>2010-05-09T08:12:21Z</time>
      </trkpt>
      <trkpt lat="45.25566" lon="5.72697">
        <ele>665</ele>
        <time>2010-05-09T08:12:22Z</time>
      </trkpt>
      <trkpt lat="45.25563" lon="5.72695">
        <ele>665</ele>
        <time>2010-05-09T08:12:23Z</time>
      </trkpt>
      <trkpt lat="45.2556" lon="5.72692">
        <ele>665</ele>
        <time>2010-05-09T08:12:24Z</time>
      </trkpt>
      <trkpt lat="45.25558" lon="5.72688">
        <ele>665</ele>
        <time>2010-05-09T08:12:25Z</time>
      </trkpt>
      <trkpt lat="45.25557" lon="5.72683">
        <ele>665</ele>
        <time>2010-05-09T08:12:26Z</time>
      </trkpt>
      <trkpt lat="45.25555" lon="5.72678">
        <ele>665</ele>
        <time>2010-05-09T08:12:27Z</time>
      </trkpt>
      <trkpt lat="45.25553" lon="5.72674">
        <ele>665</ele>
        <time>2010-05-09T08:12:28Z</time>
      </trkpt>
      <trkpt lat="45.25551" lon="5.72671">
        <ele>665</ele>
        <time>2010-05-09T08:12:29Z</time>
      </trkpt>
      <trkpt lat="45.25549" lon="5.72668">
        <ele>665</ele>
        <time>2010-05-09T08:12:30Z</time>
      </trkpt>
      <trkpt lat="45.25547" lon="5.72665">
        <ele>665</ele>
        <time>2010-05-09T08:12:31Z</time>
      </trkpt>
      <trkpt lat="45.25544" lon="5.72662">
        <ele>665</ele>
        <time>2010-05-09T08:12:32Z</time>
      </trkpt>
      <trkpt lat="45.25541" lon="5.72659">
        <ele>665</ele>
        <time>2010-05-09T08:12:33Z</time>
      </trkpt>
      <trkpt lat="45.25538" lon="5.72655">
        <ele>665</ele>
        <time>2010-05-09T08:12:34Z</time>
      </trkpt>
      <trkpt lat="45.25535" lon="5.72652">
        <ele>665</ele>
        <time>2010-05-09T08:12:35Z</time>
      </trkpt>
      <trkpt lat="45.25533" lon="5.72648">
        <ele>664</ele>
        <time>2010-05-09T08:12:36Z</time>
      </trkpt>
      <trkpt lat="45.2553" lon="5.72645">
        <ele>663</ele>
        <time>2010-05-09T08:12:37Z</time>
      </trkpt>
      <trkpt lat="45.25527" lon="5.7264">
        <ele>662</ele>
        <time>2010-05-09T08:12:38Z</time>
      </trkpt>
      <trkpt lat="45.25525" lon="5.72637">
        <ele>661</ele>
        <time>2010-05-09T08:12:39Z</time>
      </trkpt>
      <trkpt lat="45.25523" lon="5.72634">
        <ele>661</ele>
        <time>2010-05-09T08:12:40Z</time>
      </trkpt>
      <trkpt lat="45.2552" lon="5.72631">
        <ele>660</ele>
        <time>2010-05-09T08:12:41Z</time>
      </trkpt>
      <trkpt lat="45.25519" lon="5.72627">
        <ele>660</ele>
        <time>2010-05-09T08:12:42Z</time>
      </trkpt>
      <trkpt lat="45.25517" lon="5.72623">
        <ele>659</ele>
        <time>2010-05-09T08:12:43Z</time>
      </trkpt>
      <trkpt lat="45.25516" lon="5.72619">
        <ele>659</ele>
        <time>2010-05-09T08:12:44Z</time>
      </trkpt>
      <trkpt lat="45.25515" lon="5.72614">
        <ele>659</ele>
        <time>2010-05-09T08:12:45Z</time>
      </trkpt>
      <trkpt lat="45.25515" lon="5.7261">
        <ele>658</ele>
        <time>2010-05-09T08:12:46Z</time>
      </trkpt>
      <trkpt lat="45.25514" lon="5.72605">
        <ele>658</ele>
        <time>2010-05-09T08:12:47Z</time>
      </trkpt>
      <trkpt lat="45.25512" lon="5.72601">
        <ele>657</ele>
        <time>2010-05-09T08:12:48Z</time>
      </trkpt>
      <trkpt lat="45.25512" lon="5.72596">
        <ele>657</ele>
        <time>2010-05-09T08:12:49Z</time>
      </trkpt>
      <trkpt lat="45.25512" lon="5.72591">
        <ele>657</ele>
        <time>2010-05-09T08:12:50Z</time>
      </trkpt>
      <trkpt lat="45.25511" lon="5.72587">
        <ele>656</ele>
        <time>2010-05-09T08:12:51Z</time>
      </trkpt>
      <trkpt lat="45.2551" lon="5.72582">
        <ele>656</ele>
        <time>2010-05-09T08:12:52Z</time>
      </trkpt>
      <trkpt lat="45.2551" lon="5.72578">
        <ele>656</ele>
        <time>2010-05-09T08:12:53Z</time>
      </trkpt>
      <trkpt lat="45.25509" lon="5.72574">
        <ele>655</ele>
        <time>2010-05-09T08:12:54Z</time>
      </trkpt>
      <trkpt lat="45.25509" lon="5.7257">
        <ele>655</ele>
        <time>2010-05-09T08:12:55Z</time>
      </trkpt>
      <trkpt lat="45.25509" lon="5.72565">
        <ele>654</ele>
        <time>2010-05-09T08:12:56Z</time>
      </trkpt>
      <trkpt lat="45.25508" lon="5.7256">
        <ele>653</ele>
        <time>2010-05-09T08:12:57Z</time>
      </trkpt>
      <trkpt lat="45.25507" lon="5.72555">
        <ele>652</ele>
        <time>2010-05-09T08:12:58Z</time>
      </trkpt>
      <trkpt lat="45.25506" lon="5.72549">
        <ele>651</ele>
        <time>2010-05-09T08:12:59Z</time>
      </trkpt>
      <trkpt lat="45.25505" lon="5.72543">
        <ele>650</ele>
        <time>2010-05-09T08:13:00Z</time>
      </trkpt>
      <trkpt lat="45.25504" lon="5.72539">
        <ele>649</ele>
        <time>2010-05-09T08:13:01Z</time>
      </trkpt>
      <trkpt lat="45.25502" lon="5.72533">
        <ele>649</ele>
        <time>2010-05-09T08:13:02Z</time>
      </trkpt>
      <trkpt lat="45.25501" lon="5.72528">
        <ele>649</ele>
        <time>2010-05-09T08:13:03Z</time>
      </trkpt>
      <trkpt lat="45.255" lon="5.72523">
        <ele>649</ele>
        <time>2010-05-09T08:13:04Z</time>
      </trkpt>
      <trkpt lat="45.25499" lon="5.72518">
        <ele>649</ele>
        <time>2010-05-09T08:13:05Z</time>
      </trkpt>
      <trkpt lat="45.25498" lon="5.72513">
        <ele>649</ele>
        <time>2010-05-09T08:13:06Z</time>
      </trkpt>
      <trkpt lat="45.25498" lon="5.72508">
        <ele>649</ele>
        <time>2010-05-09T08:13:07Z</time>
      </trkpt>
      <trkpt lat="45.25497" lon="5.72503">
        <ele>649</ele>
        <time>2010-05-09T08:13:08Z</time>
      </trkpt>
      <trkpt lat="45.25497" lon="5.72498">
        <ele>648</ele>
        <time>2010-05-09T08:13:09Z</time>
      </trkpt>
      <trkpt lat="45.25496" lon="5.72493">
        <ele>648</ele>
        <time>2010-05-09T08:13:10Z</time>
      </trkpt>
      <trkpt lat="45.25496" lon="5.72488">
        <ele>647</ele>
        <time>2010-05-09T08:13:11Z</time>
      </trkpt>
      <trkpt lat="45.25497" lon="5.72483">
        <ele>647</ele>
        <time>2010-05-09T08:13:12Z</time>
      </trkpt>
      <trkpt lat="45.25497" lon="5.72478">
        <ele>646</ele>
        <time>2010-05-09T08:13:13Z</time>
      </trkpt>
      <trkpt lat="45.25499" lon="5.72474">
        <ele>646</ele>
        <time>2010-05-09T08:13:14Z</time>
      </trkpt>
      <trkpt lat="45.255" lon="5.72469">
        <ele>645</ele>
        <time>2010-05-09T08:13:15Z</time>
      </trkpt>
      <trkpt lat="45.25501" lon="5.72465">
        <ele>644</ele>
        <time>2010-05-09T08:13:16Z</time>
      </trkpt>
      <trkpt lat="45.25503" lon="5.72461">
        <ele>644</ele>
        <time>2010-05-09T08:13:17Z</time>
      </trkpt>
      <trkpt lat="45.25504" lon="5.72458">
        <ele>643</ele>
        <time>2010-05-09T08:13:18Z</time>
      </trkpt>
      <trkpt lat="45.25506" lon="5.72454">
        <ele>643</ele>
        <time>2010-05-09T08:13:19Z</time>
      </trkpt>
      <trkpt lat="45.25507" lon="5.7245">
        <ele>643</ele>
        <time>2010-05-09T08:13:20Z</time>
      </trkpt>
      <trkpt lat="45.25509" lon="5.72446">
        <ele>642</ele>
        <time>2010-05-09T08:13:21Z</time>
      </trkpt>
      <trkpt lat="45.25511" lon="5.72442">
        <ele>642</ele>
        <time>2010-05-09T08:13:22Z</time>
      </trkpt>
      <trkpt lat="45.25512" lon="5.72438">
        <ele>642</ele>
        <time>2010-05-09T08:13:23Z</time>
      </trkpt>
      <trkpt lat="45.25513" lon="5.72434">
        <ele>642</ele>
        <time>2010-05-09T08:13:24Z</time>
      </trkpt>
      <trkpt lat="45.25515" lon="5.7243">
        <ele>642</ele>
        <time>2010-05-09T08:13:25Z</time>
      </trkpt>
      <trkpt lat="45.25517" lon="5.72425">
        <ele>642</ele>
        <time>2010-05-09T08:13:26Z</time>
      </trkpt>
      <trkpt lat="45.2552" lon="5.72421">
        <ele>642</ele>
        <time>2010-05-09T08:13:27Z</time>
      </trkpt>
      <trkpt lat="45.25523" lon="5.72417">
        <ele>642</ele>
        <time>2010-05-09T08:13:28Z</time>
      </trkpt>
      <trkpt lat="45.25526" lon="5.72414">
        <ele>642</ele>
        <time>2010-05-09T08:13:29Z</time>
      </trkpt>
      <trkpt lat="45.25528" lon="5.7241">
        <ele>642</ele>
        <time>2010-05-09T08:13:30Z</time>
      </trkpt>
      <trkpt lat="45.25529" lon="5.72406">
        <ele>642</ele>
        <time>2010-05-09T08:13:31Z</time>
      </trkpt>
      <trkpt lat="45.25531" lon="5.72402">
        <ele>642</ele>
        <time>2010-05-09T08:13:32Z</time>
      </trkpt>
      <trkpt lat="45.25533" lon="5.72398">
        <ele>642</ele>
        <time>2010-05-09T08:13:33Z</time>
      </trkpt>
      <trkpt lat="45.25535" lon="5.72394">
        <ele>642</ele>
        <time>2010-05-09T08:13:34Z</time>
      </trkpt>
      <trkpt lat="45.25537" lon="5.7239">
        <ele>642</ele>
        <time>2010-05-09T08:13:35Z</time>
      </trkpt>
      <trkpt lat="45.25539" lon="5.72387">
        <ele>642</ele>
        <time>2010-05-09T08:13:36Z</time>
      </trkpt>
      <trkpt lat="45.25542" lon="5.72383">
        <ele>642</ele>
        <time>2010-05-09T08:13:37Z</time>
      </trkpt>
      <trkpt lat="45.25544" lon="5.72378">
        <ele>642</ele>
        <time>2010-05-09T08:13:38Z</time>
      </trkpt>
      <trkpt lat="45.25546" lon="5.72374">
        <ele>642</ele>
        <time>2010-05-09T08:13:39Z</time>
      </trkpt>
      <trkpt lat="45.25547" lon="5.7237">
        <ele>642</ele>
        <time>2010-05-09T08:13:40Z</time>
      </trkpt>
      <trkpt lat="45.25549" lon="5.72366">
        <ele>642</ele>
        <time>2010-05-09T08:13:41Z</time>
      </trkpt>
      <trkpt lat="45.25551" lon="5.72361">
        <ele>642</ele>
        <time>2010-05-09T08:13:42Z</time>
      </trkpt>
      <trkpt lat="45.25552" lon="5.72357">
        <ele>642</ele>
        <time>2010-05-09T08:13:43Z</time>
      </trkpt>
      <trkpt lat="45.25554" lon="5.72353">
        <ele>642</ele>
        <time>2010-05-09T08:13:44Z</time>
      </trkpt>
      <trkpt lat="45.25556" lon="5.72349">
        <ele>642</ele>
        <time>2010-05-09T08:13:45Z</time>
      </trkpt>
      <trkpt lat="45.25558" lon="5.72345">
        <ele>642</ele>
        <time>2010-05-09T08:13:46Z</time>
      </trkpt>
      <trkpt lat="45.2556" lon="5.72342">
        <ele>642</ele>
        <time>2010-05-09T08:13:47Z</time>
      </trkpt>
      <trkpt lat="45.25562" lon="5.72338">
        <ele>642</ele>
        <time>2010-05-09T08:13:48Z</time>
      </trkpt>
      <trkpt lat="45.25563" lon="5.72334">
        <ele>642</ele>
        <time>2010-05-09T08:13:49Z</time>
      </trkpt>
      <trkpt lat="45.25565" lon="5.7233">
        <ele>642</ele>
        <time>2010-05-09T08:13:50Z</time>
      </trkpt>
      <trkpt lat="45.25566" lon="5.72326">
        <ele>642</ele>
        <time>2010-05-09T08:13:51Z</time>
      </trkpt>
      <trkpt lat="45.25566" lon="5.72321">
        <ele>641</ele>
        <time>2010-05-09T08:13:52Z</time>
      </trkpt>
      <trkpt lat="45.25568" lon="5.72316">
        <ele>641</ele>
        <time>2010-05-09T08:13:53Z</time>
      </trkpt>
      <trkpt lat="45.25569" lon="5.72311">
        <ele>640</ele>
        <time>2010-05-09T08:13:54Z</time>
      </trkpt>
      <trkpt lat="45.2557" lon="5.72306">
        <ele>640</ele>
        <time>2010-05-09T08:13:55Z</time>
      </trkpt>
      <trkpt lat="45.25571" lon="5.72303">
        <ele>639</ele>
        <time>2010-05-09T08:13:56Z</time>
      </trkpt>
      <trkpt lat="45.25571" lon="5.72299">
        <ele>638</ele>
        <time>2010-05-09T08:13:57Z</time>
      </trkpt>
      <trkpt lat="45.25571" lon="5.72296">
        <ele>637</ele>
        <time>2010-05-09T08:13:58Z</time>
      </trkpt>
      <trkpt lat="45.25572" lon="5.72293">
        <ele>636</ele>
        <time>2010-05-09T08:13:59Z</time>
      </trkpt>
      <trkpt lat="45.25571" lon="5.72289">
        <ele>635</ele>
        <time>2010-05-09T08:14:00Z</time>
      </trkpt>
      <trkpt lat="45.25571" lon="5.72286">
        <ele>634</ele>
        <time>2010-05-09T08:14:01Z</time>
      </trkpt>
      <trkpt lat="45.25571" lon="5.72282">
        <ele>633</ele>
        <time>2010-05-09T08:14:02Z</time>
      </trkpt>
      <trkpt lat="45.2557" lon="5.72277">
        <ele>632</ele>
        <time>2010-05-09T08:14:03Z</time>
      </trkpt>
      <trkpt lat="45.25569" lon="5.72272">
        <ele>631</ele>
        <time>2010-05-09T08:14:04Z</time>
      </trkpt>
      <trkpt lat="45.25567" lon="5.72267">
        <ele>630</ele>
        <time>2010-05-09T08:14:05Z</time>
      </trkpt>
      <trkpt lat="45.25565" lon="5.72262">
        <ele>629</ele>
        <time>2010-05-09T08:14:06Z</time>
      </trkpt>
      <trkpt lat="45.25564" lon="5.72257">
        <ele>628</ele>
        <time>2010-05-09T08:14:07Z</time>
      </trkpt>
      <trkpt lat="45.25563" lon="5.72251">
        <ele>627</ele>
        <time>2010-05-09T08:14:08Z</time>
      </trkpt>
      <trkpt lat="45.25561" lon="5.72246">
        <ele>626</ele>
        <time>2010-05-09T08:14:09Z</time>
      </trkpt>
      <trkpt lat="45.2556" lon="5.72241">
        <ele>625</ele>
        <time>2010-05-09T08:14:10Z</time>
      </trkpt>
      <trkpt lat="45.2556" lon="5.72238">
        <ele>624</ele>
        <time>2010-05-09T08:14:11Z</time>
      </trkpt>
      <trkpt lat="45.2556" lon="5.72233">
        <ele>623</ele>
        <time>2010-05-09T08:14:12Z</time>
      </trkpt>
      <trkpt lat="45.25561" lon="5.72228">
        <ele>622</ele>
        <time>2010-05-09T08:14:13Z</time>
      </trkpt>
      <trkpt lat="45.25563" lon="5.72224">
        <ele>621</ele>
        <time>2010-05-09T08:14:14Z</time>
      </trkpt>
      <trkpt lat="45.25565" lon="5.72221">
        <ele>620</ele>
        <time>2010-05-09T08:14:15Z</time>
      </trkpt>
      <trkpt lat="45.25566" lon="5.72218">
        <ele>619</ele>
        <time>2010-05-09T08:14:16Z</time>
      </trkpt>
      <trkpt lat="45.25568" lon="5.72216">
        <ele>619</ele>
        <time>2010-05-09T08:14:17Z</time>
      </trkpt>
      <trkpt lat="45.2557" lon="5.72213">
        <ele>619</ele>
        <time>2010-05-09T08:14:18Z</time>
      </trkpt>
      <trkpt lat="45.25572" lon="5.72209">
        <ele>619</ele>
        <time>2010-05-09T08:14:19Z</time>
      </trkpt>
      <trkpt lat="45.25575" lon="5.72205">
        <ele>619</ele>
        <time>2010-05-09T08:14:20Z</time>
      </trkpt>
      <trkpt lat="45.25577" lon="5.72203">
        <ele>619</ele>
        <time>2010-05-09T08:14:21Z</time>
      </trkpt>
      <trkpt lat="45.2558" lon="5.72201">
        <ele>619</ele>
        <time>2010-05-09T08:14:22Z</time>
      </trkpt>
      <trkpt lat="45.25583" lon="5.72199">
        <ele>619</ele>
        <time>2010-05-09T08:14:23Z</time>
      </trkpt>
      <trkpt lat="45.25586" lon="5.72197">
        <ele>619</ele>
        <time>2010-05-09T08:14:24Z</time>
      </trkpt>
      <trkpt lat="45.25588" lon="5.72195">
        <ele>619</ele>
        <time>2010-05-09T08:14:25Z</time>
      </trkpt>
      <trkpt lat="45.25591" lon="5.72194">
        <ele>619</ele>
        <time>2010-05-09T08:14:26Z</time>
      </trkpt>
      <trkpt lat="45.25594" lon="5.72192">
        <ele>619</ele>
        <time>2010-05-09T08:14:27Z</time>
      </trkpt>
      <trkpt lat="45.25597" lon="5.72191">
        <ele>619</ele>
        <time>2010-05-09T08:14:28Z</time>
      </trkpt>
      <trkpt lat="45.256" lon="5.72189">
        <ele>619</ele>
        <time>2010-05-09T08:14:29Z</time>
      </trkpt>
      <trkpt lat="45.25602" lon="5.72186">
        <ele>619</ele>
        <time>2010-05-09T08:14:30Z</time>
      </trkpt>
      <trkpt lat="45.25604" lon="5.72184">
        <ele>620</ele>
        <time>2010-05-09T08:14:31Z</time>
      </trkpt>
      <trkpt lat="45.25608" lon="5.72181">
        <ele>620</ele>
        <time>2010-05-09T08:14:32Z</time>
      </trkpt>
      <trkpt lat="45.2561" lon="5.72179">
        <ele>621</ele>
        <time>2010-05-09T08:14:33Z</time>
      </trkpt>
      <trkpt lat="45.25613" lon="5.72177">
        <ele>622</ele>
        <time>2010-05-09T08:14:34Z</time>
      </trkpt>
      <trkpt lat="45.25615" lon="5.72175">
        <ele>622</ele>
        <time>2010-05-09T08:14:35Z</time>
      </trkpt>
      <trkpt lat="45.25618" lon="5.72172">
        <ele>623</ele>
        <time>2010-05-09T08:14:36Z</time>
      </trkpt>
      <trkpt lat="45.25621" lon="5.7217">
        <ele>623</ele>
        <time>2010-05-09T08:14:37Z</time>
      </trkpt>
      <trkpt lat="45.25623" lon="5.72167">
        <ele>624</ele>
        <time>2010-05-09T08:14:38Z</time>
      </trkpt>
      <trkpt lat="45.25626" lon="5.72165">
        <ele>625</ele>
        <time>2010-05-09T08:14:39Z</time>
      </trkpt>
      <trkpt lat="45.25628" lon="5.72164">
        <ele>625</ele>
        <time>2010-05-09T08:14:40Z</time>
      </trkpt>
      <trkpt lat="45.25631" lon="5.72163">
        <ele>626</ele>
        <time>2010-05-09T08:14:41Z</time>
      </trkpt>
      <trkpt lat="45.25633" lon="5.72161">
        <ele>626</ele>
        <time>2010-05-09T08:14:42Z</time>
      </trkpt>
      <trkpt lat="45.25636" lon="5.72159">
        <ele>627</ele>
        <time>2010-05-09T08:14:43Z</time>
      </trkpt>
      <trkpt lat="45.25638" lon="5.72157">
        <ele>627</ele>
        <time>2010-05-09T08:14:44Z</time>
      </trkpt>
      <trkpt lat="45.25641" lon="5.72155">
        <ele>628</ele>
        <time>2010-05-09T08:14:45Z</time>
      </trkpt>
      <trkpt lat="45.25643" lon="5.72153">
        <ele>628</ele>
        <time>2010-05-09T08:14:46Z</time>
      </trkpt>
      <trkpt lat="45.25646" lon="5.72151">
        <ele>628</ele>
        <time>2010-05-09T08:14:47Z</time>
      </trkpt>
      <trkpt lat="45.25648" lon="5.7215">
        <ele>629</ele>
        <time>2010-05-09T08:14:48Z</time>
      </trkpt>
      <trkpt lat="45.25651" lon="5.72149">
        <ele>629</ele>
        <time>2010-05-09T08:14:49Z</time>
      </trkpt>
      <trkpt lat="45.25653" lon="5.72148">
        <ele>629</ele>
        <time>2010-05-09T08:14:50Z</time>
      </trkpt>
      <trkpt lat="45.25655" lon="5.72147">
        <ele>629</ele>
        <time>2010-05-09T08:14:51Z</time>
      </trkpt>
      <trkpt lat="45.25657" lon="5.72146">
        <ele>629</ele>
        <time>2010-05-09T08:14:52Z</time>
      </trkpt>
      <trkpt lat="45.2566" lon="5.72145">
        <ele>629</ele>
        <time>2010-05-09T08:14:53Z</time>
      </trkpt>
      <trkpt lat="45.25662" lon="5.72145">
        <ele>630</ele>
        <time>2010-05-09T08:14:54Z</time>
      </trkpt>
      <trkpt lat="45.25665" lon="5.72145">
        <ele>630</ele>
        <time>2010-05-09T08:14:55Z</time>
      </trkpt>
      <trkpt lat="45.25667" lon="5.72145">
        <ele>630</ele>
        <time>2010-05-09T08:14:56Z</time>
      </trkpt>
      <trkpt lat="45.2567" lon="5.72145">
        <ele>631</ele>
        <time>2010-05-09T08:14:57Z</time>
      </trkpt>
      <trkpt lat="45.25672" lon="5.72145">
        <ele>631</ele>
        <time>2010-05-09T08:14:58Z</time>
      </trkpt>
      <trkpt lat="45.25674" lon="5.72145">
        <ele>631</ele>
        <time>2010-05-09T08:14:59Z</time>
      </trkpt>
      <trkpt lat="45.25676" lon="5.72144">
        <ele>632</ele>
        <time>2010-05-09T08:15:00Z</time>
      </trkpt>
      <trkpt lat="45.25678" lon="5.72143">
        <ele>633</ele>
        <time>2010-05-09T08:15:01Z</time>
      </trkpt>
      <trkpt lat="45.25681" lon="5.72143">
        <ele>633</ele>
        <time>2010-05-09T08:15:02Z</time>
      </trkpt>
      <trkpt lat="45.25683" lon="5.72143">
        <ele>634</ele>
        <time>2010-05-09T08:15:03Z</time>
      </trkpt>
      <trkpt lat="45.25685" lon="5.72142">
        <ele>635</ele>
        <time>2010-05-09T08:15:04Z</time>
      </trkpt>
      <trkpt lat="45.25687" lon="5.72142">
        <ele>636</ele>
        <time>2010-05-09T08:15:05Z</time>
      </trkpt>
      <trkpt lat="45.25689" lon="5.72142">
        <ele>636</ele>
        <time>2010-05-09T08:15:06Z</time>
      </trkpt>
      <trkpt lat="45.25692" lon="5.72143">
        <ele>637</ele>
        <time>2010-05-09T08:15:07Z</time>
      </trkpt>
      <trkpt lat="45.25694" lon="5.72143">
        <ele>637</ele>
        <time>2010-05-09T08:15:08Z</time>
      </trkpt>
      <trkpt lat="45.25696" lon="5.72143">
        <ele>637</ele>
        <time>2010-05-09T08:15:09Z</time>
      </trkpt>
      <trkpt lat="45.25698" lon="5.72143">
        <ele>638</ele>
        <time>2010-05-09T08:15:10Z</time>
      </trkpt>
      <trkpt lat="45.25701" lon="5.72144">
        <ele>638</ele>
        <time>2010-05-09T08:15:11Z</time>
      </trkpt>
      <trkpt lat="45.25703" lon="5.72144">
        <ele>638</ele>
        <time>2010-05-09T08:15:12Z</time>
      </trkpt>
      <trkpt lat="45.25705" lon="5.72144">
        <ele>639</ele>
        <time>2010-05-09T08:15:13Z</time>
      </trkpt>
      <trkpt lat="45.25707" lon="5.72144">
        <ele>639</ele>
        <time>2010-05-09T08:15:14Z</time>
      </trkpt>
      <trkpt lat="45.2571" lon="5.72144">
        <ele>640</ele>
        <time>2010-05-09T08:15:15Z</time>
      </trkpt>
      <trkpt lat="45.25712" lon="5.72144">
        <ele>640</ele>
        <time>2010-05-09T08:15:16Z</time>
      </trkpt>
      <trkpt lat="45.25714" lon="5.72144">
        <ele>640</ele>
        <time>2010-05-09T08:15:17Z</time>
      </trkpt>
      <trkpt lat="45.25716" lon="5.72144">
        <ele>641</ele>
        <time>2010-05-09T08:15:18Z</time>
      </trkpt>
      <trkpt lat="45.25718" lon="5.72144">
        <ele>641</ele>
        <time>2010-05-09T08:15:19Z</time>
      </trkpt>
      <trkpt lat="45.2572" lon="5.72143">
        <ele>641</ele>
        <time>2010-05-09T08:15:20Z</time>
      </trkpt>
      <trkpt lat="45.25722" lon="5.72143">
        <ele>641</ele>
        <time>2010-05-09T08:15:21Z</time>
      </trkpt>
      <trkpt lat="45.25724" lon="5.72143">
        <ele>641</ele>
        <time>2010-05-09T08:15:22Z</time>
      </trkpt>
      <trkpt lat="45.25726" lon="5.72143">
        <ele>641</ele>
        <time>2010-05-09T08:15:23Z</time>
      </trkpt>
      <trkpt lat="45.25728" lon="5.72143">
        <ele>642</ele>
        <time>2010-05-09T08:15:24Z</time>
      </trkpt>
      <trkpt lat="45.2573" lon="5.72142">
        <ele>642</ele>
        <time>2010-05-09T08:15:25Z</time>
      </trkpt>
      <trkpt lat="45.25732" lon="5.72141">
        <ele>642</ele>
        <time>2010-05-09T08:15:26Z</time>
      </trkpt>
      <trkpt lat="45.25734" lon="5.7214">
        <ele>642</ele>
        <time>2010-05-09T08:15:27Z</time>
      </trkpt>
      <trkpt lat="45.25737" lon="5.7214">
        <ele>642</ele>
        <time>2010-05-09T08:15:28Z</time>
      </trkpt>
      <trkpt lat="45.25739" lon="5.72139">
        <ele>642</ele>
        <time>2010-05-09T08:15:29Z</time>
      </trkpt>
      <trkpt lat="45.25741" lon="5.72138">
        <ele>642</ele>
        <time>2010-05-09T08:15:30Z</time>
      </trkpt>
      <trkpt lat="45.25743" lon="5.72137">
        <ele>642</ele>
        <time>2010-05-09T08:15:31Z</time>
      </trkpt>
      <trkpt lat="45.25745" lon="5.72137">
        <ele>642</ele>
        <time>2010-05-09T08:15:32Z</time>
      </trkpt>
      <trkpt lat="45.25747" lon="5.72136">
        <ele>642</ele>
        <time>2010-05-09T08:15:33Z</time>
      </trkpt>
      <trkpt lat="45.2575" lon="5.72135">
        <ele>642</ele>
        <time>2010-05-09T08:15:34Z</time>
      </trkpt>
      <trkpt lat="45.25751" lon="5.72134">
        <ele>642</ele>
        <time>2010-05-09T08:15:35Z</time>
      </trkpt>
      <trkpt lat="45.25753" lon="5.72134">
        <ele>642</ele>
        <time>2010-05-09T08:15:36Z</time>
      </trkpt>
      <trkpt lat="45.25755" lon="5.72133">
        <ele>642</ele>
        <time>2010-05-09T08:15:37Z</time>
      </trkpt>
      <trkpt lat="45.25758" lon="5.72132">
        <ele>643</ele>
        <time>2010-05-09T08:15:38Z</time>
      </trkpt>
      <trkpt lat="45.2576" lon="5.72131">
        <ele>643</ele>
        <time>2010-05-09T08:15:39Z</time>
      </trkpt>
      <trkpt lat="45.25762" lon="5.7213">
        <ele>643</ele>
        <time>2010-05-09T08:15:40Z</time>
      </trkpt>
      <trkpt lat="45.25764" lon="5.7213">
        <ele>644</ele>
        <time>2010-05-09T08:15:41Z</time>
      </trkpt>
      <trkpt lat="45.25767" lon="5.72129">
        <ele>644</ele>
        <time>2010-05-09T08:15:42Z</time>
      </trkpt>
      <trkpt lat="45.25769" lon="5.72128">
        <ele>645</ele>
        <time>2010-05-09T08:15:43Z</time>
      </trkpt>
      <trkpt lat="45.25771" lon="5.72128">
        <ele>645</ele>
        <time>2010-05-09T08:15:44Z</time>
      </trkpt>
      <trkpt lat="45.25773" lon="5.72127">
        <ele>645</ele>
        <time>2010-05-09T08:15:45Z</time>
      </trkpt>
      <trkpt lat="45.25775" lon="5.72127">
        <ele>646</ele>
        <time>2010-05-09T08:15:46Z</time>
      </trkpt>
      <trkpt lat="45.25777" lon="5.72127">
        <ele>646</ele>
        <time>2010-05-09T08:15:47Z</time>
      </trkpt>
      <trkpt lat="45.2578" lon="5.72126">
        <ele>646</ele>
        <time>2010-05-09T08:15:48Z</time>
      </trkpt>
      <trkpt lat="45.25782" lon="5.72127">
        <ele>646</ele>
        <time>2010-05-09T08:15:49Z</time>
      </trkpt>
      <trkpt lat="45.25785" lon="5.72127">
        <ele>646</ele>
        <time>2010-05-09T08:15:50Z</time>
      </trkpt>
      <trkpt lat="45.25787" lon="5.72126">
        <ele>646</ele>
        <time>2010-05-09T08:15:51Z</time>
      </trkpt>
      <trkpt lat="45.25789" lon="5.72125">
        <ele>646</ele>
        <time>2010-05-09T08:15:52Z</time>
      </trkpt>
      <trkpt lat="45.25791" lon="5.72124">
        <ele>646</ele>
        <time>2010-05-09T08:15:53Z</time>
      </trkpt>
      <trkpt lat="45.25793" lon="5.72124">
        <ele>646</ele>
        <time>2010-05-09T08:15:54Z</time>
      </trkpt>
      <trkpt lat="45.25795" lon="5.72123">
        <ele>646</ele>
        <time>2010-05-09T08:15:55Z</time>
      </trkpt>
      <trkpt lat="45.25798" lon="5.72123">
        <ele>646</ele>
        <time>2010-05-09T08:15:56Z</time>
      </trkpt>
      <trkpt lat="45.258" lon="5.72122">
        <ele>647</ele>
        <time>2010-05-09T08:15:57Z</time>
      </trkpt>
      <trkpt lat="45.25802" lon="5.72121">
        <ele>647</ele>
        <time>2010-05-09T08:15:58Z</time>
      </trkpt>
      <trkpt lat="45.25804" lon="5.7212">
        <ele>647</ele>
        <time>2010-05-09T08:15:59Z</time>
      </trkpt>
      <trkpt lat="45.25806" lon="5.72119">
        <ele>647</ele>
        <time>2010-05-09T08:16:00Z</time>
      </trkpt>
      <trkpt lat="45.25808" lon="5.72117">
        <ele>647</ele>
        <time>2010-05-09T08:16:01Z</time>
      </trkpt>
      <trkpt lat="45.2581" lon="5.72116">
        <ele>648</ele>
        <time>2010-05-09T08:16:02Z</time>
      </trkpt>
      <trkpt lat="45.25812" lon="5.72114">
        <ele>648</ele>
        <time>2010-05-09T08:16:03Z</time>
      </trkpt>
      <trkpt lat="45.25814" lon="5.72112">
        <ele>648</ele>
        <time>2010-05-09T08:16:04Z</time>
      </trkpt>
      <trkpt lat="45.25816" lon="5.72111">
        <ele>649</ele>
        <time>2010-05-09T08:16:05Z</time>
      </trkpt>
      <trkpt lat="45.25817" lon="5.72108">
        <ele>649</ele>
        <time>2010-05-09T08:16:06Z</time>
      </trkpt>
      <trkpt lat="45.25819" lon="5.72106">
        <ele>649</ele>
        <time>2010-05-09T08:16:07Z</time>
      </trkpt>
      <trkpt lat="45.25821" lon="5.72104">
        <ele>649</ele>
        <time>2010-05-09T08:16:08Z</time>
      </trkpt>
      <trkpt lat="45.25822" lon="5.72102">
        <ele>650</ele>
        <time>2010-05-09T08:16:09Z</time>
      </trkpt>
      <trkpt lat="45.25824" lon="5.721">
        <ele>650</ele>
        <time>2010-05-09T08:16:10Z</time>
      </trkpt>
      <trkpt lat="45.25826" lon="5.72098">
        <ele>650</ele>
        <time>2010-05-09T08:16:11Z</time>
      </trkpt>
      <trkpt lat="45.25827" lon="5.72096">
        <ele>650</ele>
        <time>2010-05-09T08:16:12Z</time>
      </trkpt>
      <trkpt lat="45.25829" lon="5.72095">
        <ele>651</ele>
        <time>2010-05-09T08:16:13Z</time>
      </trkpt>
      <trkpt lat="45.2583" lon="5.72093">
        <ele>651</ele>
        <time>2010-05-09T08:16:14Z</time>
      </trkpt>
      <trkpt lat="45.25832" lon="5.72091">
        <ele>651</ele>
        <time>2010-05-09T08:16:15Z</time>
      </trkpt>
      <trkpt lat="45.25834" lon="5.7209">
        <ele>651</ele>
        <time>2010-05-09T08:16:16Z</time>
      </trkpt>
      <trkpt lat="45.25835" lon="5.72088">
        <ele>651</ele>
        <time>2010-05-09T08:16:17Z</time>
      </trkpt>
      <trkpt lat="45.25836" lon="5.72086">
        <ele>652</ele>
        <time>2010-05-09T08:16:18Z</time>
      </trkpt>
      <trkpt lat="45.25837" lon="5.72084">
        <ele>652</ele>
        <time>2010-05-09T08:16:19Z</time>
      </trkpt>
      <trkpt lat="45.2584" lon="5.72081">
        <ele>653</ele>
        <time>2010-05-09T08:16:20Z</time>
      </trkpt>
      <trkpt lat="45.25841" lon="5.72079">
        <ele>653</ele>
        <time>2010-05-09T08:16:21Z</time>
      </trkpt>
      <trkpt lat="45.25843" lon="5.72077">
        <ele>654</ele>
        <time>2010-05-09T08:16:22Z</time>
      </trkpt>
      <trkpt lat="45.25845" lon="5.72075">
        <ele>654</ele>
        <time>2010-05-09T08:16:23Z</time>
      </trkpt>
      <trkpt lat="45.25846" lon="5.72073">
        <ele>654</ele>
        <time>2010-05-09T08:16:24Z</time>
      </trkpt>
      <trkpt lat="45.25848" lon="5.72071">
        <ele>655</ele>
        <time>2010-05-09T08:16:25Z</time>
      </trkpt>
      <trkpt lat="45.25849" lon="5.72069">
        <ele>655</ele>
        <time>2010-05-09T08:16:26Z</time>
      </trkpt>
      <trkpt lat="45.25851" lon="5.72066">
        <ele>655</ele>
        <time>2010-05-09T08:16:27Z</time>
      </trkpt>
      <trkpt lat="45.25852" lon="5.72063">
        <ele>655</ele>
        <time>2010-05-09T08:16:28Z</time>
      </trkpt>
      <trkpt lat="45.25853" lon="5.7206">
        <ele>655</ele>
        <time>2010-05-09T08:16:29Z</time>
      </trkpt>
      <trkpt lat="45.25854" lon="5.72057">
        <ele>655</ele>
        <time>2010-05-09T08:16:30Z</time>
      </trkpt>
      <trkpt lat="45.25855" lon="5.72054">
        <ele>655</ele>
        <time>2010-05-09T08:16:31Z</time>
      </trkpt>
      <trkpt lat="45.25856" lon="5.72051">
        <ele>655</ele>
        <time>2010-05-09T08:16:32Z</time>
      </trkpt>
      <trkpt lat="45.25857" lon="5.72048">
        <ele>656</ele>
        <time>2010-05-09T08:16:33Z</time>
      </trkpt>
      <trkpt lat="45.25858" lon="5.72044">
        <ele>656</ele>
        <time>2010-05-09T08:16:34Z</time>
      </trkpt>
      <trkpt lat="45.25859" lon="5.72041">
        <ele>656</ele>
        <time>2010-05-09T08:16:35Z</time>
      </trkpt>
      <trkpt lat="45.25859" lon="5.72037">
        <ele>656</ele>
        <time>2010-05-09T08:16:36Z</time>
      </trkpt>
      <trkpt lat="45.2586" lon="5.72034">
        <ele>656</ele>
        <time>2010-05-09T08:16:37Z</time>
      </trkpt>
      <trkpt lat="45.25861" lon="5.7203">
        <ele>656</ele>
        <time>2010-05-09T08:16:38Z</time>
      </trkpt>
      <trkpt lat="45.25862" lon="5.72026">
        <ele>656</ele>
        <time>2010-05-09T08:16:39Z</time>
      </trkpt>
      <trkpt lat="45.25863" lon="5.72024">
        <ele>656</ele>
        <time>2010-05-09T08:16:40Z</time>
      </trkpt>
      <trkpt lat="45.25864" lon="5.72021">
        <ele>656</ele>
        <time>2010-05-09T08:16:41Z</time>
      </trkpt>
      <trkpt lat="45.25865" lon="5.72018">
        <ele>657</ele>
        <time>2010-05-09T08:16:42Z</time>
      </trkpt>
      <trkpt lat="45.25865" lon="5.72015">
        <ele>657</ele>
        <time>2010-05-09T08:16:43Z</time>
      </trkpt>
      <trkpt lat="45.25866" lon="5.72012">
        <ele>657</ele>
        <time>2010-05-09T08:16:44Z</time>
      </trkpt>
      <trkpt lat="45.25867" lon="5.72009">
        <ele>658</ele>
        <time>2010-05-09T08:16:45Z</time>
      </trkpt>
      <trkpt lat="45.25868" lon="5.72006">
        <ele>658</ele>
        <time>2010-05-09T08:16:46Z</time>
      </trkpt>
      <trkpt lat="45.25869" lon="5.72004">
        <ele>658</ele>
        <time>2010-05-09T08:16:47Z</time>
      </trkpt>
      <trkpt lat="45.2587" lon="5.72001">
        <ele>659</ele>
        <time>2010-05-09T08:16:48Z</time>
      </trkpt>
      <trkpt lat="45.25871" lon="5.71999">
        <ele>659</ele>
        <time>2010-05-09T08:16:49Z</time>
      </trkpt>
      <trkpt lat="45.25871" lon="5.71997">
        <ele>659</ele>
        <time>2010-05-09T08:16:50Z</time>
      </trkpt>
      <trkpt lat="45.25871" lon="5.71994">
        <ele>660</ele>
        <time>2010-05-09T08:16:51Z</time>
      </trkpt>
      <trkpt lat="45.25871" lon="5.7199">
        <ele>660</ele>
        <time>2010-05-09T08:16:52Z</time>
      </trkpt>
      <trkpt lat="45.25871" lon="5.71986">
        <ele>660</ele>
        <time>2010-05-09T08:16:53Z</time>
      </trkpt>
      <trkpt lat="45.25871" lon="5.71982">
        <ele>661</ele>
        <time>2010-05-09T08:16:54Z</time>
      </trkpt>
      <trkpt lat="45.25871" lon="5.71978">
        <ele>661</ele>
        <time>2010-05-09T08:16:55Z</time>
      </trkpt>
      <trkpt lat="45.25872" lon="5.71975">
        <ele>661</ele>
        <time>2010-05-09T08:16:56Z</time>
      </trkpt>
      <trkpt lat="45.25872" lon="5.71971">
        <ele>662</ele>
        <time>2010-05-09T08:16:57Z</time>
      </trkpt>
      <trkpt lat="45.25873" lon="5.71969">
        <ele>662</ele>
        <time>2010-05-09T08:16:58Z</time>
      </trkpt>
      <trkpt lat="45.25874" lon="5.71966">
        <ele>662</ele>
        <time>2010-05-09T08:16:59Z</time>
      </trkpt>
      <trkpt lat="45.25874" lon="5.71964">
        <ele>662</ele>
        <time>2010-05-09T08:17:00Z</time>
      </trkpt>
      <trkpt lat="45.25874" lon="5.71961">
        <ele>663</ele>
        <time>2010-05-09T08:17:01Z</time>
      </trkpt>
      <trkpt lat="45.25874" lon="5.71957">
        <ele>663</ele>
        <time>2010-05-09T08:17:02Z</time>
      </trkpt>
      <trkpt lat="45.25875" lon="5.71954">
        <ele>663</ele>
        <time>2010-05-09T08:17:03Z</time>
      </trkpt>
      <trkpt lat="45.25877" lon="5.71952">
        <ele>663</ele>
        <time>2010-05-09T08:17:04Z</time>
      </trkpt>
      <trkpt lat="45.25878" lon="5.7195">
        <ele>663</ele>
        <time>2010-05-09T08:17:05Z</time>
      </trkpt>
      <trkpt lat="45.2588" lon="5.71947">
        <ele>663</ele>
        <time>2010-05-09T08:17:06Z</time>
      </trkpt>
      <trkpt lat="45.25881" lon="5.71945">
        <ele>663</ele>
        <time>2010-05-09T08:17:07Z</time>
      </trkpt>
      <trkpt lat="45.25883" lon="5.71944">
        <ele>663</ele>
        <time>2010-05-09T08:17:08Z</time>
      </trkpt>
      <trkpt lat="45.25886" lon="5.71943">
        <ele>663</ele>
        <time>2010-05-09T08:17:09Z</time>
      </trkpt>
      <trkpt lat="45.25888" lon="5.71942">
        <ele>663</ele>
        <time>2010-05-09T08:17:10Z</time>
      </trkpt>
      <trkpt lat="45.25891" lon="5.71942">
        <ele>663</ele>
        <time>2010-05-09T08:17:11Z</time>
      </trkpt>
      <trkpt lat="45.25893" lon="5.71942">
        <ele>663</ele>
        <time>2010-05-09T08:17:12Z</time>
      </trkpt>
      <trkpt lat="45.25895" lon="5.71943">
        <ele>663</ele>
        <time>2010-05-09T08:17:13Z</time>
      </trkpt>
      <trkpt lat="45.25897" lon="5.71945">
        <ele>663</ele>
        <time>2010-05-09T08:17:14Z</time>
      </trkpt>
      <trkpt lat="45.25899" lon="5.71947">
        <ele>663</ele>
        <time>2010-05-09T08:17:15Z</time>
      </trkpt>
      <trkpt lat="45.25901" lon="5.71949">
        <ele>663</ele>
        <time>2010-05-09T08:17:16Z</time>
      </trkpt>
      <trkpt lat="45.25902" lon="5.71952">
        <ele>663</ele>
        <time>2010-05-09T08:17:17Z</time>
      </trkpt>
      <trkpt lat="45.25904" lon="5.71954">
        <ele>663</ele>
        <time>2010-05-09T08:17:18Z</time>
      </trkpt>
      <trkpt lat="45.25905" lon="5.71957">
        <ele>663</ele>
        <time>2010-05-09T08:17:19Z</time>
      </trkpt>
      <trkpt lat="45.25906" lon="5.71959">
        <ele>663</ele>
        <time>2010-05-09T08:17:20Z</time>
      </trkpt>
      <trkpt lat="45.25908" lon="5.71961">
        <ele>663</ele>
        <time>2010-05-09T08:17:21Z</time>
      </trkpt>
      <trkpt lat="45.2591" lon="5.71963">
        <ele>663</ele>
        <time>2010-05-09T08:17:22Z</time>
      </trkpt>
      <trkpt lat="45.25911" lon="5.71964">
        <ele>663</ele>
        <time>2010-05-09T08:17:23Z</time>
      </trkpt>
      <trkpt lat="45.25913" lon="5.71965">
        <ele>664</ele>
        <time>2010-05-09T08:17:24Z</time>
      </trkpt>
      <trkpt lat="45.25915" lon="5.71966">
        <ele>664</ele>
        <time>2010-05-09T08:17:25Z</time>
      </trkpt>
      <trkpt lat="45.25917" lon="5.71967">
        <ele>665</ele>
        <time>2010-05-09T08:17:26Z</time>
      </trkpt>
      <trkpt lat="45.25919" lon="5.71967">
        <ele>666</ele>
        <time>2010-05-09T08:17:27Z</time>
      </trkpt>
      <trkpt lat="45.25921" lon="5.71966">
        <ele>667</ele>
        <time>2010-05-09T08:17:28Z</time>
      </trkpt>
      <trkpt lat="45.25924" lon="5.71965">
        <ele>668</ele>
        <time>2010-05-09T08:17:29Z</time>
      </trkpt>
      <trkpt lat="45.25925" lon="5.71964">
        <ele>668</ele>
        <time>2010-05-09T08:17:30Z</time>
      </trkpt>
      <trkpt lat="45.25927" lon="5.71963">
        <ele>669</ele>
        <time>2010-05-09T08:17:31Z</time>
      </trkpt>
      <trkpt lat="45.25929" lon="5.71961">
        <ele>670</ele>
        <time>2010-05-09T08:17:32Z</time>
      </trkpt>
      <trkpt lat="45.2593" lon="5.71958">
        <ele>670</ele>
        <time>2010-05-09T08:17:33Z</time>
      </trkpt>
      <trkpt lat="45.25932" lon="5.71956">
        <ele>671</ele>
        <time>2010-05-09T08:17:34Z</time>
      </trkpt>
      <trkpt lat="45.25934" lon="5.71954">
        <ele>671</ele>
        <time>2010-05-09T08:17:35Z</time>
      </trkpt>
      <trkpt lat="45.25936" lon="5.71951">
        <ele>672</ele>
        <time>2010-05-09T08:17:36Z</time>
      </trkpt>
      <trkpt lat="45.25937" lon="5.71949">
        <ele>672</ele>
        <time>2010-05-09T08:17:37Z</time>
      </trkpt>
      <trkpt lat="45.25938" lon="5.71946">
        <ele>672</ele>
        <time>2010-05-09T08:17:38Z</time>
      </trkpt>
      <trkpt lat="45.2594" lon="5.71944">
        <ele>672</ele>
        <time>2010-05-09T08:17:39Z</time>
      </trkpt>
      <trkpt lat="45.25941" lon="5.71942">
        <ele>672</ele>
        <time>2010-05-09T08:17:40Z</time>
      </trkpt>
      <trkpt lat="45.25942" lon="5.7194">
        <ele>672</ele>
        <time>2010-05-09T08:17:41Z</time>
      </trkpt>
      <trkpt lat="45.25943" lon="5.71937">
        <ele>672</ele>
        <time>2010-05-09T08:17:42Z</time>
      </trkpt>
      <trkpt lat="45.25944" lon="5.71935">
        <ele>672</ele>
        <time>2010-05-09T08:17:43Z</time>
      </trkpt>
      <trkpt lat="45.25944" lon="5.71932">
        <ele>673</ele>
        <time>2010-05-09T08:17:44Z</time>
      </trkpt>
      <trkpt lat="45.25945" lon="5.7193">
        <ele>673</ele>
        <time>2010-05-09T08:17:45Z</time>
      </trkpt>
      <trkpt lat="45.25946" lon="5.71928">
        <ele>673</ele>
        <time>2010-05-09T08:17:46Z</time>
      </trkpt>
      <trkpt lat="45.25947" lon="5.71925">
        <ele>674</ele>
        <time>2010-05-09T08:17:48Z</time>
      </trkpt>
      <trkpt lat="45.25948" lon="5.71922">
        <ele>674</ele>
        <time>2010-05-09T08:17:48Z</time>
      </trkpt>
      <trkpt lat="45.25948" lon="5.71919">
        <ele>674</ele>
        <time>2010-05-09T08:17:49Z</time>
      </trkpt>
      <trkpt lat="45.25948" lon="5.71916">
        <ele>674</ele>
        <time>2010-05-09T08:17:50Z</time>
      </trkpt>
      <trkpt lat="45.25948" lon="5.71911">
        <ele>675</ele>
        <time>2010-05-09T08:17:51Z</time>
      </trkpt>
      <trkpt lat="45.25947" lon="5.71908">
        <ele>676</ele>
        <time>2010-05-09T08:17:52Z</time>
      </trkpt>
      <trkpt lat="45.25947" lon="5.71905">
        <ele>676</ele>
        <time>2010-05-09T08:17:53Z</time>
      </trkpt>
      <trkpt lat="45.25946" lon="5.71901">
        <ele>676</ele>
        <time>2010-05-09T08:17:54Z</time>
      </trkpt>
      <trkpt lat="45.25947" lon="5.71896">
        <ele>677</ele>
        <time>2010-05-09T08:17:55Z</time>
      </trkpt>
      <trkpt lat="45.25946" lon="5.71893">
        <ele>677</ele>
        <time>2010-05-09T08:17:56Z</time>
      </trkpt>
      <trkpt lat="45.25946" lon="5.7189">
        <ele>677</ele>
        <time>2010-05-09T08:17:57Z</time>
      </trkpt>
      <trkpt lat="45.25946" lon="5.71888">
        <ele>677</ele>
        <time>2010-05-09T08:17:58Z</time>
      </trkpt>
      <trkpt lat="45.25946" lon="5.71886">
        <ele>678</ele>
        <time>2010-05-09T08:17:59Z</time>
      </trkpt>
      <trkpt lat="45.25947" lon="5.71882">
        <ele>678</ele>
        <time>2010-05-09T08:18:00Z</time>
      </trkpt>
      <trkpt lat="45.25947" lon="5.71879">
        <ele>679</ele>
        <time>2010-05-09T08:18:01Z</time>
      </trkpt>
      <trkpt lat="45.25947" lon="5.71875">
        <ele>679</ele>
        <time>2010-05-09T08:18:02Z</time>
      </trkpt>
      <trkpt lat="45.25947" lon="5.71873">
        <ele>679</ele>
        <time>2010-05-09T08:18:03Z</time>
      </trkpt>
      <trkpt lat="45.25946" lon="5.7187">
        <ele>679</ele>
        <time>2010-05-09T08:18:04Z</time>
      </trkpt>
      <trkpt lat="45.25946" lon="5.71868">
        <ele>679</ele>
        <time>2010-05-09T08:18:05Z</time>
      </trkpt>
      <trkpt lat="45.25945" lon="5.71865">
        <ele>679</ele>
        <time>2010-05-09T08:18:06Z</time>
      </trkpt>
      <trkpt lat="45.25945" lon="5.71862">
        <ele>679</ele>
        <time>2010-05-09T08:18:07Z</time>
      </trkpt>
      <trkpt lat="45.25944" lon="5.7186">
        <ele>679</ele>
        <time>2010-05-09T08:18:08Z</time>
      </trkpt>
      <trkpt lat="45.25943" lon="5.71857">
        <ele>679</ele>
        <time>2010-05-09T08:18:09Z</time>
      </trkpt>
      <trkpt lat="45.25942" lon="5.71855">
        <ele>679</ele>
        <time>2010-05-09T08:18:10Z</time>
      </trkpt>
      <trkpt lat="45.25941" lon="5.71852">
        <ele>679</ele>
        <time>2010-05-09T08:18:11Z</time>
      </trkpt>
      <trkpt lat="45.2594" lon="5.7185">
        <ele>679</ele>
        <time>2010-05-09T08:18:12Z</time>
      </trkpt>
      <trkpt lat="45.2594" lon="5.71848">
        <ele>680</ele>
        <time>2010-05-09T08:18:13Z</time>
      </trkpt>
      <trkpt lat="45.25939" lon="5.71845">
        <ele>680</ele>
        <time>2010-05-09T08:18:14Z</time>
      </trkpt>
      <trkpt lat="45.25939" lon="5.71843">
        <ele>680</ele>
        <time>2010-05-09T08:18:15Z</time>
      </trkpt>
      <trkpt lat="45.25938" lon="5.7184">
        <ele>680</ele>
        <time>2010-05-09T08:18:16Z</time>
      </trkpt>
      <trkpt lat="45.25937" lon="5.71838">
        <ele>680</ele>
        <time>2010-05-09T08:18:17Z</time>
      </trkpt>
      <trkpt lat="45.25937" lon="5.71835">
        <ele>680</ele>
        <time>2010-05-09T08:18:18Z</time>
      </trkpt>
      <trkpt lat="45.25936" lon="5.71832">
        <ele>680</ele>
        <time>2010-05-09T08:18:19Z</time>
      </trkpt>
      <trkpt lat="45.25935" lon="5.7183">
        <ele>680</ele>
        <time>2010-05-09T08:18:20Z</time>
      </trkpt>
      <trkpt lat="45.25933" lon="5.71827">
        <ele>680</ele>
        <time>2010-05-09T08:18:21Z</time>
      </trkpt>
      <trkpt lat="45.25933" lon="5.71825">
        <ele>680</ele>
        <time>2010-05-09T08:18:22Z</time>
      </trkpt>
      <trkpt lat="45.25932" lon="5.71821">
        <ele>680</ele>
        <time>2010-05-09T08:18:23Z</time>
      </trkpt>
      <trkpt lat="45.25932" lon="5.71819">
        <ele>680</ele>
        <time>2010-05-09T08:18:24Z</time>
      </trkpt>
      <trkpt lat="45.25931" lon="5.71816">
        <ele>680</ele>
        <time>2010-05-09T08:18:25Z</time>
      </trkpt>
      <trkpt lat="45.25931" lon="5.71814">
        <ele>680</ele>
        <time>2010-05-09T08:18:26Z</time>
      </trkpt>
      <trkpt lat="45.2593" lon="5.71812">
        <ele>680</ele>
        <time>2010-05-09T08:18:27Z</time>
      </trkpt>
      <trkpt lat="45.2593" lon="5.7181">
        <ele>680</ele>
        <time>2010-05-09T08:18:28Z</time>
      </trkpt>
      <trkpt lat="45.25929" lon="5.71808">
        <ele>680</ele>
        <time>2010-05-09T08:18:29Z</time>
      </trkpt>
      <trkpt lat="45.25928" lon="5.71806">
        <ele>680</ele>
        <time>2010-05-09T08:18:30Z</time>
      </trkpt>
      <trkpt lat="45.25928" lon="5.71803">
        <ele>680</ele>
        <time>2010-05-09T08:18:31Z</time>
      </trkpt>
      <trkpt lat="45.25927" lon="5.71801">
        <ele>680</ele>
        <time>2010-05-09T08:18:32Z</time>
      </trkpt>
      <trkpt lat="45.25927" lon="5.71798">
        <ele>680</ele>
        <time>2010-05-09T08:18:33Z</time>
      </trkpt>
      <trkpt lat="45.25925" lon="5.71796">
        <ele>680</ele>
        <time>2010-05-09T08:18:34Z</time>
      </trkpt>
      <trkpt lat="45.25924" lon="5.71794">
        <ele>680</ele>
        <time>2010-05-09T08:18:36Z</time>
      </trkpt>
      <trkpt lat="45.25922" lon="5.71791">
        <ele>680</ele>
        <time>2010-05-09T08:18:38Z</time>
      </trkpt>
      <trkpt lat="45.25922" lon="5.71789">
        <ele>680</ele>
        <time>2010-05-09T08:18:39Z</time>
      </trkpt>
      <trkpt lat="45.2592" lon="5.71787">
        <ele>680</ele>
        <time>2010-05-09T08:18:40Z</time>
      </trkpt>
      <trkpt lat="45.2592" lon="5.71785">
        <ele>681</ele>
        <time>2010-05-09T08:18:41Z</time>
      </trkpt>
      <trkpt lat="45.25919" lon="5.71785">
        <ele>681</ele>
        <time>2010-05-09T08:18:42Z</time>
      </trkpt>
      <trkpt lat="45.25918" lon="5.71783">
        <ele>681</ele>
        <time>2010-05-09T08:18:43Z</time>
      </trkpt>
      <trkpt lat="45.25916" lon="5.71781">
        <ele>682</ele>
        <time>2010-05-09T08:18:45Z</time>
      </trkpt>
      <trkpt lat="45.25915" lon="5.71779">
        <ele>683</ele>
        <time>2010-05-09T08:18:46Z</time>
      </trkpt>
      <trkpt lat="45.25914" lon="5.71778">
        <ele>683</ele>
        <time>2010-05-09T08:18:47Z</time>
      </trkpt>
      <trkpt lat="45.25913" lon="5.71775">
        <ele>684</ele>
        <time>2010-05-09T08:18:49Z</time>
      </trkpt>
      <trkpt lat="45.25912" lon="5.71773">
        <ele>685</ele>
        <time>2010-05-09T08:18:50Z</time>
      </trkpt>
      <trkpt lat="45.25912" lon="5.71772">
        <ele>685</ele>
        <time>2010-05-09T08:18:51Z</time>
      </trkpt>
      <trkpt lat="45.25911" lon="5.7177">
        <ele>685</ele>
        <time>2010-05-09T08:18:52Z</time>
      </trkpt>
      <trkpt lat="45.25911" lon="5.71768">
        <ele>685</ele>
        <time>2010-05-09T08:18:53Z</time>
      </trkpt>
      <trkpt lat="45.25911" lon="5.71766">
        <ele>685</ele>
        <time>2010-05-09T08:18:54Z</time>
      </trkpt>
      <trkpt lat="45.25911" lon="5.71764">
        <ele>685</ele>
        <time>2010-05-09T08:18:55Z</time>
      </trkpt>
      <trkpt lat="45.25911" lon="5.71762">
        <ele>685</ele>
        <time>2010-05-09T08:18:56Z</time>
      </trkpt>
      <trkpt lat="45.25911" lon="5.7176">
        <ele>685</ele>
        <time>2010-05-09T08:18:57Z</time>
      </trkpt>
      <trkpt lat="45.2591" lon="5.71757">
        <ele>685</ele>
        <time>2010-05-09T08:18:58Z</time>
      </trkpt>
      <trkpt lat="45.2591" lon="5.71755">
        <ele>685</ele>
        <time>2010-05-09T08:18:59Z</time>
      </trkpt>
      <trkpt lat="45.25909" lon="5.71754">
        <ele>685</ele>
        <time>2010-05-09T08:19:00Z</time>
      </trkpt>
      <trkpt lat="45.25908" lon="5.71752">
        <ele>685</ele>
        <time>2010-05-09T08:19:01Z</time>
      </trkpt>
      <trkpt lat="45.25908" lon="5.71751">
        <ele>686</ele>
        <time>2010-05-09T08:19:02Z</time>
      </trkpt>
      <trkpt lat="45.25908" lon="5.71749">
        <ele>686</ele>
        <time>2010-05-09T08:19:03Z</time>
      </trkpt>
      <trkpt lat="45.25907" lon="5.71747">
        <ele>686</ele>
        <time>2010-05-09T08:19:04Z</time>
      </trkpt>
      <trkpt lat="45.25906" lon="5.71744">
        <ele>686</ele>
        <time>2010-05-09T08:19:06Z</time>
      </trkpt>
      <trkpt lat="45.25906" lon="5.71743">
        <ele>686</ele>
        <time>2010-05-09T08:19:07Z</time>
      </trkpt>
      <trkpt lat="45.25906" lon="5.71741">
        <ele>686</ele>
        <time>2010-05-09T08:19:08Z</time>
      </trkpt>
      <trkpt lat="45.25905" lon="5.71739">
        <ele>686</ele>
        <time>2010-05-09T08:19:09Z</time>
      </trkpt>
      <trkpt lat="45.25904" lon="5.71737">
        <ele>686</ele>
        <time>2010-05-09T08:19:10Z</time>
      </trkpt>
      <trkpt lat="45.25903" lon="5.71736">
        <ele>686</ele>
        <time>2010-05-09T08:19:11Z</time>
      </trkpt>
      <trkpt lat="45.25902" lon="5.71734">
        <ele>686</ele>
        <time>2010-05-09T08:19:12Z</time>
      </trkpt>
      <trkpt lat="45.25902" lon="5.71733">
        <ele>686</ele>
        <time>2010-05-09T08:19:13Z</time>
      </trkpt>
      <trkpt lat="45.25902" lon="5.71731">
        <ele>686</ele>
        <time>2010-05-09T08:19:14Z</time>
      </trkpt>
      <trkpt lat="45.25902" lon="5.71729">
        <ele>686</ele>
        <time>2010-05-09T08:19:15Z</time>
      </trkpt>
      <trkpt lat="45.25901" lon="5.71728">
        <ele>686</ele>
        <time>2010-05-09T08:19:16Z</time>
      </trkpt>
      <trkpt lat="45.25901" lon="5.71726">
        <ele>687</ele>
        <time>2010-05-09T08:19:17Z</time>
      </trkpt>
      <trkpt lat="45.259" lon="5.71724">
        <ele>687</ele>
        <time>2010-05-09T08:19:18Z</time>
      </trkpt>
      <trkpt lat="45.259" lon="5.71722">
        <ele>687</ele>
        <time>2010-05-09T08:19:19Z</time>
      </trkpt>
      <trkpt lat="45.25898" lon="5.71721">
        <ele>687</ele>
        <time>2010-05-09T08:19:20Z</time>
      </trkpt>
      <trkpt lat="45.25898" lon="5.71719">
        <ele>687</ele>
        <time>2010-05-09T08:19:21Z</time>
      </trkpt>
      <trkpt lat="45.25897" lon="5.71717">
        <ele>688</ele>
        <time>2010-05-09T08:19:22Z</time>
      </trkpt>
      <trkpt lat="45.25896" lon="5.71716">
        <ele>688</ele>
        <time>2010-05-09T08:19:23Z</time>
      </trkpt>
      <trkpt lat="45.25895" lon="5.71714">
        <ele>688</ele>
        <time>2010-05-09T08:19:24Z</time>
      </trkpt>
      <trkpt lat="45.25895" lon="5.71713">
        <ele>689</ele>
        <time>2010-05-09T08:19:25Z</time>
      </trkpt>
      <trkpt lat="45.25893" lon="5.7171">
        <ele>689</ele>
        <time>2010-05-09T08:19:27Z</time>
      </trkpt>
      <trkpt lat="45.25893" lon="5.71708">
        <ele>690</ele>
        <time>2010-05-09T08:19:28Z</time>
      </trkpt>
      <trkpt lat="45.25891" lon="5.71706">
        <ele>690</ele>
        <time>2010-05-09T08:19:30Z</time>
      </trkpt>
      <trkpt lat="45.25891" lon="5.71704">
        <ele>690</ele>
        <time>2010-05-09T08:19:31Z</time>
      </trkpt>
      <trkpt lat="45.2589" lon="5.71703">
        <ele>691</ele>
        <time>2010-05-09T08:19:32Z</time>
      </trkpt>
      <trkpt lat="45.25889" lon="5.717">
        <ele>691</ele>
        <time>2010-05-09T08:19:34Z</time>
      </trkpt>
      <trkpt lat="45.25888" lon="5.71698">
        <ele>691</ele>
        <time>2010-05-09T08:19:35Z</time>
      </trkpt>
      <trkpt lat="45.25888" lon="5.71696">
        <ele>692</ele>
        <time>2010-05-09T08:19:36Z</time>
      </trkpt>
      <trkpt lat="45.25887" lon="5.71694">
        <ele>692</ele>
        <time>2010-05-09T08:19:37Z</time>
      </trkpt>
      <trkpt lat="45.25887" lon="5.71692">
        <ele>692</ele>
        <time>2010-05-09T08:19:38Z</time>
      </trkpt>
      <trkpt lat="45.25887" lon="5.7169">
        <ele>692</ele>
        <time>2010-05-09T08:19:39Z</time>
      </trkpt>
      <trkpt lat="45.25887" lon="5.71688">
        <ele>693</ele>
        <time>2010-05-09T08:19:40Z</time>
      </trkpt>
      <trkpt lat="45.25887" lon="5.71686">
        <ele>693</ele>
        <time>2010-05-09T08:19:41Z</time>
      </trkpt>
      <trkpt lat="45.25887" lon="5.71683">
        <ele>694</ele>
        <time>2010-05-09T08:19:42Z</time>
      </trkpt>
      <trkpt lat="45.25886" lon="5.71681">
        <ele>694</ele>
        <time>2010-05-09T08:19:43Z</time>
      </trkpt>
      <trkpt lat="45.25886" lon="5.7168">
        <ele>695</ele>
        <time>2010-05-09T08:19:44Z</time>
      </trkpt>
      <trkpt lat="45.25885" lon="5.71677">
        <ele>696</ele>
        <time>2010-05-09T08:19:46Z</time>
      </trkpt>
      <trkpt lat="45.25885" lon="5.71675">
        <ele>696</ele>
        <time>2010-05-09T08:19:47Z</time>
      </trkpt>
      <trkpt lat="45.25884" lon="5.71672">
        <ele>697</ele>
        <time>2010-05-09T08:19:49Z</time>
      </trkpt>
      <trkpt lat="45.25883" lon="5.71669">
        <ele>697</ele>
        <time>2010-05-09T08:19:51Z</time>
      </trkpt>
      <trkpt lat="45.25884" lon="5.71667">
        <ele>698</ele>
        <time>2010-05-09T08:19:52Z</time>
      </trkpt>
      <trkpt lat="45.25884" lon="5.71664">
        <ele>698</ele>
        <time>2010-05-09T08:19:54Z</time>
      </trkpt>
      <trkpt lat="45.25884" lon="5.71662">
        <ele>698</ele>
        <time>2010-05-09T08:19:56Z</time>
      </trkpt>
      <trkpt lat="45.25884" lon="5.71661">
        <ele>699</ele>
        <time>2010-05-09T08:19:57Z</time>
      </trkpt>
      <trkpt lat="45.25884" lon="5.71659">
        <ele>699</ele>
        <time>2010-05-09T08:19:58Z</time>
      </trkpt>
      <trkpt lat="45.25884" lon="5.71656">
        <ele>699</ele>
        <time>2010-05-09T08:20:00Z</time>
      </trkpt>
      <trkpt lat="45.25885" lon="5.71654">
        <ele>700</ele>
        <time>2010-05-09T08:20:02Z</time>
      </trkpt>
      <trkpt lat="45.25885" lon="5.71651">
        <ele>700</ele>
        <time>2010-05-09T08:20:03Z</time>
      </trkpt>
      <trkpt lat="45.25886" lon="5.71649">
        <ele>700</ele>
        <time>2010-05-09T08:20:04Z</time>
      </trkpt>
      <trkpt lat="45.25887" lon="5.71646">
        <ele>700</ele>
        <time>2010-05-09T08:20:05Z</time>
      </trkpt>
      <trkpt lat="45.25889" lon="5.71644">
        <ele>700</ele>
        <time>2010-05-09T08:20:06Z</time>
      </trkpt>
      <trkpt lat="45.25891" lon="5.71642">
        <ele>700</ele>
        <time>2010-05-09T08:20:07Z</time>
      </trkpt>
      <trkpt lat="45.25893" lon="5.7164">
        <ele>700</ele>
        <time>2010-05-09T08:20:08Z</time>
      </trkpt>
      <trkpt lat="45.25896" lon="5.71638">
        <ele>700</ele>
        <time>2010-05-09T08:20:09Z</time>
      </trkpt>
      <trkpt lat="45.25898" lon="5.71637">
        <ele>700</ele>
        <time>2010-05-09T08:20:10Z</time>
      </trkpt>
      <trkpt lat="45.259" lon="5.71636">
        <ele>701</ele>
        <time>2010-05-09T08:20:11Z</time>
      </trkpt>
      <trkpt lat="45.25903" lon="5.71635">
        <ele>701</ele>
        <time>2010-05-09T08:20:12Z</time>
      </trkpt>
      <trkpt lat="45.25905" lon="5.71634">
        <ele>701</ele>
        <time>2010-05-09T08:20:13Z</time>
      </trkpt>
      <trkpt lat="45.25906" lon="5.71633">
        <ele>702</ele>
        <time>2010-05-09T08:20:14Z</time>
      </trkpt>
      <trkpt lat="45.25908" lon="5.71633">
        <ele>702</ele>
        <time>2010-05-09T08:20:15Z</time>
      </trkpt>
      <trkpt lat="45.2591" lon="5.71632">
        <ele>703</ele>
        <time>2010-05-09T08:20:16Z</time>
      </trkpt>
      <trkpt lat="45.25911" lon="5.71631">
        <ele>703</ele>
        <time>2010-05-09T08:20:17Z</time>
      </trkpt>
      <trkpt lat="45.25914" lon="5.71632">
        <ele>704</ele>
        <time>2010-05-09T08:20:18Z</time>
      </trkpt>
      <trkpt lat="45.25916" lon="5.71631">
        <ele>704</ele>
        <time>2010-05-09T08:20:19Z</time>
      </trkpt>
      <trkpt lat="45.25918" lon="5.71631">
        <ele>704</ele>
        <time>2010-05-09T08:20:20Z</time>
      </trkpt>
      <trkpt lat="45.25921" lon="5.71629">
        <ele>705</ele>
        <time>2010-05-09T08:20:21Z</time>
      </trkpt>
      <trkpt lat="45.25923" lon="5.71627">
        <ele>705</ele>
        <time>2010-05-09T08:20:23Z</time>
      </trkpt>
      <trkpt lat="45.25924" lon="5.71625">
        <ele>705</ele>
        <time>2010-05-09T08:20:24Z</time>
      </trkpt>
      <trkpt lat="45.25925" lon="5.71623">
        <ele>706</ele>
        <time>2010-05-09T08:20:25Z</time>
      </trkpt>
      <trkpt lat="45.25927" lon="5.7162">
        <ele>707</ele>
        <time>2010-05-09T08:20:26Z</time>
      </trkpt>
      <trkpt lat="45.25929" lon="5.71618">
        <ele>708</ele>
        <time>2010-05-09T08:20:27Z</time>
      </trkpt>
      <trkpt lat="45.2593" lon="5.71617">
        <ele>710</ele>
        <time>2010-05-09T08:20:29Z</time>
      </trkpt>
      <trkpt lat="45.25932" lon="5.71614">
        <ele>712</ele>
        <time>2010-05-09T08:20:31Z</time>
      </trkpt>
      <trkpt lat="45.25934" lon="5.71611">
        <ele>714</ele>
        <time>2010-05-09T08:20:33Z</time>
      </trkpt>
      <trkpt lat="45.25936" lon="5.7161">
        <ele>716</ele>
        <time>2010-05-09T08:20:35Z</time>
      </trkpt>
      <trkpt lat="45.25938" lon="5.71608">
        <ele>718</ele>
        <time>2010-05-09T08:20:37Z</time>
      </trkpt>
      <trkpt lat="45.2594" lon="5.71606">
        <ele>720</ele>
        <time>2010-05-09T08:20:39Z</time>
      </trkpt>
      <trkpt lat="45.25941" lon="5.71604">
        <ele>720</ele>
        <time>2010-05-09T08:20:41Z</time>
      </trkpt>
      <trkpt lat="45.25943" lon="5.71602">
        <ele>720</ele>
        <time>2010-05-09T08:20:43Z</time>
      </trkpt>
      <trkpt lat="45.25945" lon="5.71601">
        <ele>720</ele>
        <time>2010-05-09T08:20:44Z</time>
      </trkpt>
      <trkpt lat="45.25947" lon="5.716">
        <ele>720</ele>
        <time>2010-05-09T08:20:46Z</time>
      </trkpt>
      <trkpt lat="45.25949" lon="5.71599">
        <ele>720</ele>
        <time>2010-05-09T08:20:47Z</time>
      </trkpt>
      <trkpt lat="45.2595" lon="5.71597">
        <ele>720</ele>
        <time>2010-05-09T08:20:48Z</time>
      </trkpt>
      <trkpt lat="45.25951" lon="5.71595">
        <ele>720</ele>
        <time>2010-05-09T08:20:49Z</time>
      </trkpt>
      <trkpt lat="45.25953" lon="5.71593">
        <ele>720</ele>
        <time>2010-05-09T08:20:50Z</time>
      </trkpt>
      <trkpt lat="45.25954" lon="5.71591">
        <ele>720</ele>
        <time>2010-05-09T08:20:51Z</time>
      </trkpt>
      <trkpt lat="45.25956" lon="5.71589">
        <ele>720</ele>
        <time>2010-05-09T08:20:52Z</time>
      </trkpt>
      <trkpt lat="45.25958" lon="5.71587">
        <ele>720</ele>
        <time>2010-05-09T08:20:53Z</time>
      </trkpt>
      <trkpt lat="45.2596" lon="5.71586">
        <ele>720</ele>
        <time>2010-05-09T08:20:54Z</time>
      </trkpt>
      <trkpt lat="45.25962" lon="5.71586">
        <ele>720</ele>
        <time>2010-05-09T08:20:55Z</time>
      </trkpt>
      <trkpt lat="45.25964" lon="5.71585">
        <ele>720</ele>
        <time>2010-05-09T08:20:56Z</time>
      </trkpt>
      <trkpt lat="45.25966" lon="5.71584">
        <ele>720</ele>
        <time>2010-05-09T08:20:57Z</time>
      </trkpt>
      <trkpt lat="45.25968" lon="5.71584">
        <ele>720</ele>
        <time>2010-05-09T08:20:58Z</time>
      </trkpt>
      <trkpt lat="45.2597" lon="5.71582">
        <ele>720</ele>
        <time>2010-05-09T08:20:59Z</time>
      </trkpt>
      <trkpt lat="45.25972" lon="5.71581">
        <ele>720</ele>
        <time>2010-05-09T08:21:00Z</time>
      </trkpt>
      <trkpt lat="45.25974" lon="5.71579">
        <ele>720</ele>
        <time>2010-05-09T08:21:01Z</time>
      </trkpt>
      <trkpt lat="45.25976" lon="5.71578">
        <ele>720</ele>
        <time>2010-05-09T08:21:02Z</time>
      </trkpt>
      <trkpt lat="45.25979" lon="5.71577">
        <ele>720</ele>
        <time>2010-05-09T08:21:03Z</time>
      </trkpt>
      <trkpt lat="45.25981" lon="5.71576">
        <ele>721</ele>
        <time>2010-05-09T08:21:04Z</time>
      </trkpt>
      <trkpt lat="45.25984" lon="5.71575">
        <ele>721</ele>
        <time>2010-05-09T08:21:05Z</time>
      </trkpt>
      <trkpt lat="45.25986" lon="5.71574">
        <ele>721</ele>
        <time>2010-05-09T08:21:06Z</time>
      </trkpt>
      <trkpt lat="45.25989" lon="5.71574">
        <ele>721</ele>
        <time>2010-05-09T08:21:07Z</time>
      </trkpt>
      <trkpt lat="45.25992" lon="5.71573">
        <ele>721</ele>
        <time>2010-05-09T08:21:08Z</time>
      </trkpt>
      <trkpt lat="45.25995" lon="5.71573">
        <ele>721</ele>
        <time>2010-05-09T08:21:09Z</time>
      </trkpt>
      <trkpt lat="45.25997" lon="5.71572">
        <ele>722</ele>
        <time>2010-05-09T08:21:10Z</time>
      </trkpt>
      <trkpt lat="45.26" lon="5.71571">
        <ele>722</ele>
        <time>2010-05-09T08:21:11Z</time>
      </trkpt>
      <trkpt lat="45.26002" lon="5.7157">
        <ele>722</ele>
        <time>2010-05-09T08:21:12Z</time>
      </trkpt>
      <trkpt lat="45.26005" lon="5.71569">
        <ele>723</ele>
        <time>2010-05-09T08:21:13Z</time>
      </trkpt>
      <trkpt lat="45.26007" lon="5.71568">
        <ele>723</ele>
        <time>2010-05-09T08:21:14Z</time>
      </trkpt>
      <trkpt lat="45.2601" lon="5.71566">
        <ele>724</ele>
        <time>2010-05-09T08:21:15Z</time>
      </trkpt>
      <trkpt lat="45.26012" lon="5.71565">
        <ele>724</ele>
        <time>2010-05-09T08:21:16Z</time>
      </trkpt>
      <trkpt lat="45.26015" lon="5.71566">
        <ele>725</ele>
        <time>2010-05-09T08:21:17Z</time>
      </trkpt>
      <trkpt lat="45.26017" lon="5.71565">
        <ele>725</ele>
        <time>2010-05-09T08:21:18Z</time>
      </trkpt>
      <trkpt lat="45.2602" lon="5.71565">
        <ele>726</ele>
        <time>2010-05-09T08:21:19Z</time>
      </trkpt>
      <trkpt lat="45.26022" lon="5.71564">
        <ele>726</ele>
        <time>2010-05-09T08:21:20Z</time>
      </trkpt>
      <trkpt lat="45.26025" lon="5.71563">
        <ele>726</ele>
        <time>2010-05-09T08:21:21Z</time>
      </trkpt>
      <trkpt lat="45.26027" lon="5.71563">
        <ele>726</ele>
        <time>2010-05-09T08:21:22Z</time>
      </trkpt>
      <trkpt lat="45.2603" lon="5.71563">
        <ele>726</ele>
        <time>2010-05-09T08:21:23Z</time>
      </trkpt>
      <trkpt lat="45.26032" lon="5.71562">
        <ele>726</ele>
        <time>2010-05-09T08:21:24Z</time>
      </trkpt>
      <trkpt lat="45.26035" lon="5.71561">
        <ele>727</ele>
        <time>2010-05-09T08:21:25Z</time>
      </trkpt>
      <trkpt lat="45.26037" lon="5.71561">
        <ele>727</ele>
        <time>2010-05-09T08:21:26Z</time>
      </trkpt>
      <trkpt lat="45.26039" lon="5.7156">
        <ele>727</ele>
        <time>2010-05-09T08:21:27Z</time>
      </trkpt>
      <trkpt lat="45.26041" lon="5.71561">
        <ele>727</ele>
        <time>2010-05-09T08:21:28Z</time>
      </trkpt>
      <trkpt lat="45.26044" lon="5.71561">
        <ele>727</ele>
        <time>2010-05-09T08:21:29Z</time>
      </trkpt>
      <trkpt lat="45.26046" lon="5.71561">
        <ele>727</ele>
        <time>2010-05-09T08:21:30Z</time>
      </trkpt>
      <trkpt lat="45.26049" lon="5.71559">
        <ele>727</ele>
        <time>2010-05-09T08:21:31Z</time>
      </trkpt>
      <trkpt lat="45.26052" lon="5.7156">
        <ele>727</ele>
        <time>2010-05-09T08:21:32Z</time>
      </trkpt>
      <trkpt lat="45.26054" lon="5.71561">
        <ele>727</ele>
        <time>2010-05-09T08:21:33Z</time>
      </trkpt>
      <trkpt lat="45.26056" lon="5.71561">
        <ele>727</ele>
        <time>2010-05-09T08:21:34Z</time>
      </trkpt>
      <trkpt lat="45.26058" lon="5.71562">
        <ele>727</ele>
        <time>2010-05-09T08:21:35Z</time>
      </trkpt>
      <trkpt lat="45.2606" lon="5.71562">
        <ele>727</ele>
        <time>2010-05-09T08:21:36Z</time>
      </trkpt>
      <trkpt lat="45.26062" lon="5.7156">
        <ele>727</ele>
        <time>2010-05-09T08:21:37Z</time>
      </trkpt>
      <trkpt lat="45.26064" lon="5.71561">
        <ele>727</ele>
        <time>2010-05-09T08:21:38Z</time>
      </trkpt>
      <trkpt lat="45.26066" lon="5.71561">
        <ele>727</ele>
        <time>2010-05-09T08:21:39Z</time>
      </trkpt>
      <trkpt lat="45.26067" lon="5.71562">
        <ele>727</ele>
        <time>2010-05-09T08:21:40Z</time>
      </trkpt>
      <trkpt lat="45.2607" lon="5.71562">
        <ele>727</ele>
        <time>2010-05-09T08:21:42Z</time>
      </trkpt>
      <trkpt lat="45.26072" lon="5.71562">
        <ele>727</ele>
        <time>2010-05-09T08:21:44Z</time>
      </trkpt>
      <trkpt lat="45.26073" lon="5.71563">
        <ele>727</ele>
        <time>2010-05-09T08:21:45Z</time>
      </trkpt>
      <trkpt lat="45.26075" lon="5.71563">
        <ele>727</ele>
        <time>2010-05-09T08:21:46Z</time>
      </trkpt>
      <trkpt lat="45.26078" lon="5.71563">
        <ele>727</ele>
        <time>2010-05-09T08:21:47Z</time>
      </trkpt>
      <trkpt lat="45.2608" lon="5.71562">
        <ele>727</ele>
        <time>2010-05-09T08:21:48Z</time>
      </trkpt>
      <trkpt lat="45.26082" lon="5.71562">
        <ele>727</ele>
        <time>2010-05-09T08:21:49Z</time>
      </trkpt>
      <trkpt lat="45.26084" lon="5.71561">
        <ele>727</ele>
        <time>2010-05-09T08:21:50Z</time>
      </trkpt>
      <trkpt lat="45.26087" lon="5.7156">
        <ele>726</ele>
        <time>2010-05-09T08:21:51Z</time>
      </trkpt>
      <trkpt lat="45.26089" lon="5.7156">
        <ele>726</ele>
        <time>2010-05-09T08:21:52Z</time>
      </trkpt>
      <trkpt lat="45.26092" lon="5.71559">
        <ele>725</ele>
        <time>2010-05-09T08:21:53Z</time>
      </trkpt>
      <trkpt lat="45.26095" lon="5.71558">
        <ele>725</ele>
        <time>2010-05-09T08:21:54Z</time>
      </trkpt>
      <trkpt lat="45.26097" lon="5.71557">
        <ele>725</ele>
        <time>2010-05-09T08:21:55Z</time>
      </trkpt>
      <trkpt lat="45.261" lon="5.71556">
        <ele>724</ele>
        <time>2010-05-09T08:21:56Z</time>
      </trkpt>
      <trkpt lat="45.26102" lon="5.71556">
        <ele>723</ele>
        <time>2010-05-09T08:21:57Z</time>
      </trkpt>
      <trkpt lat="45.26105" lon="5.71554">
        <ele>723</ele>
        <time>2010-05-09T08:21:58Z</time>
      </trkpt>
      <trkpt lat="45.26108" lon="5.71553">
        <ele>722</ele>
        <time>2010-05-09T08:21:59Z</time>
      </trkpt>
      <trkpt lat="45.2611" lon="5.71553">
        <ele>722</ele>
        <time>2010-05-09T08:22:00Z</time>
      </trkpt>
      <trkpt lat="45.26112" lon="5.71554">
        <ele>722</ele>
        <time>2010-05-09T08:22:01Z</time>
      </trkpt>
      <trkpt lat="45.26115" lon="5.71553">
        <ele>722</ele>
        <time>2010-05-09T08:22:02Z</time>
      </trkpt>
      <trkpt lat="45.26117" lon="5.71553">
        <ele>722</ele>
        <time>2010-05-09T08:22:03Z</time>
      </trkpt>
      <trkpt lat="45.26119" lon="5.71551">
        <ele>722</ele>
        <time>2010-05-09T08:22:04Z</time>
      </trkpt>
      <trkpt lat="45.26122" lon="5.7155">
        <ele>722</ele>
        <time>2010-05-09T08:22:05Z</time>
      </trkpt>
      <trkpt lat="45.26124" lon="5.71547">
        <ele>722</ele>
        <time>2010-05-09T08:22:06Z</time>
      </trkpt>
      <trkpt lat="45.26127" lon="5.71544">
        <ele>722</ele>
        <time>2010-05-09T08:22:07Z</time>
      </trkpt>
      <trkpt lat="45.26129" lon="5.71541">
        <ele>722</ele>
        <time>2010-05-09T08:22:08Z</time>
      </trkpt>
      <trkpt lat="45.26132" lon="5.71538">
        <ele>722</ele>
        <time>2010-05-09T08:22:09Z</time>
      </trkpt>
      <trkpt lat="45.26134" lon="5.71535">
        <ele>722</ele>
        <time>2010-05-09T08:22:10Z</time>
      </trkpt>
      <trkpt lat="45.26137" lon="5.71533">
        <ele>722</ele>
        <time>2010-05-09T08:22:11Z</time>
      </trkpt>
      <trkpt lat="45.2614" lon="5.71531">
        <ele>722</ele>
        <time>2010-05-09T08:22:12Z</time>
      </trkpt>
      <trkpt lat="45.26143" lon="5.71529">
        <ele>722</ele>
        <time>2010-05-09T08:22:13Z</time>
      </trkpt>
      <trkpt lat="45.26147" lon="5.71527">
        <ele>722</ele>
        <time>2010-05-09T08:22:14Z</time>
      </trkpt>
      <trkpt lat="45.26151" lon="5.71525">
        <ele>722</ele>
        <time>2010-05-09T08:22:15Z</time>
      </trkpt>
      <trkpt lat="45.26155" lon="5.71523">
        <ele>722</ele>
        <time>2010-05-09T08:22:16Z</time>
      </trkpt>
      <trkpt lat="45.26159" lon="5.7152">
        <ele>722</ele>
        <time>2010-05-09T08:22:17Z</time>
      </trkpt>
      <trkpt lat="45.26163" lon="5.71516">
        <ele>722</ele>
        <time>2010-05-09T08:22:18Z</time>
      </trkpt>
      <trkpt lat="45.26167" lon="5.71514">
        <ele>722</ele>
        <time>2010-05-09T08:22:19Z</time>
      </trkpt>
      <trkpt lat="45.2617" lon="5.7151">
        <ele>722</ele>
        <time>2010-05-09T08:22:20Z</time>
      </trkpt>
      <trkpt lat="45.26173" lon="5.71508">
        <ele>723</ele>
        <time>2010-05-09T08:22:21Z</time>
      </trkpt>
      <trkpt lat="45.26175" lon="5.71504">
        <ele>724</ele>
        <time>2010-05-09T08:22:22Z</time>
      </trkpt>
      <trkpt lat="45.26177" lon="5.71501">
        <ele>724</ele>
        <time>2010-05-09T08:22:23Z</time>
      </trkpt>
      <trkpt lat="45.26179" lon="5.71498">
        <ele>724</ele>
        <time>2010-05-09T08:22:24Z</time>
      </trkpt>
      <trkpt lat="45.26182" lon="5.71495">
        <ele>724</ele>
        <time>2010-05-09T08:22:25Z</time>
      </trkpt>
      <trkpt lat="45.26185" lon="5.71492">
        <ele>724</ele>
        <time>2010-05-09T08:22:26Z</time>
      </trkpt>
      <trkpt lat="45.26187" lon="5.7149">
        <ele>724</ele>
        <time>2010-05-09T08:22:27Z</time>
      </trkpt>
      <trkpt lat="45.2619" lon="5.71487">
        <ele>724</ele>
        <time>2010-05-09T08:22:28Z</time>
      </trkpt>
      <trkpt lat="45.26192" lon="5.71484">
        <ele>724</ele>
        <time>2010-05-09T08:22:29Z</time>
      </trkpt>
      <trkpt lat="45.26194" lon="5.71481">
        <ele>724</ele>
        <time>2010-05-09T08:22:30Z</time>
      </trkpt>
      <trkpt lat="45.26195" lon="5.71478">
        <ele>724</ele>
        <time>2010-05-09T08:22:31Z</time>
      </trkpt>
      <trkpt lat="45.26196" lon="5.71475">
        <ele>724</ele>
        <time>2010-05-09T08:22:32Z</time>
      </trkpt>
      <trkpt lat="45.26198" lon="5.71472">
        <ele>724</ele>
        <time>2010-05-09T08:22:33Z</time>
      </trkpt>
      <trkpt lat="45.262" lon="5.71467">
        <ele>723</ele>
        <time>2010-05-09T08:22:34Z</time>
      </trkpt>
      <trkpt lat="45.26202" lon="5.71463">
        <ele>722</ele>
        <time>2010-05-09T08:22:35Z</time>
      </trkpt>
      <trkpt lat="45.26205" lon="5.7146">
        <ele>721</ele>
        <time>2010-05-09T08:22:36Z</time>
      </trkpt>
      <trkpt lat="45.26207" lon="5.71456">
        <ele>720</ele>
        <time>2010-05-09T08:22:37Z</time>
      </trkpt>
      <trkpt lat="45.26209" lon="5.71452">
        <ele>719</ele>
        <time>2010-05-09T08:22:38Z</time>
      </trkpt>
      <trkpt lat="45.26212" lon="5.71449">
        <ele>718</ele>
        <time>2010-05-09T08:22:39Z</time>
      </trkpt>
      <trkpt lat="45.26214" lon="5.71446">
        <ele>717</ele>
        <time>2010-05-09T08:22:40Z</time>
      </trkpt>
      <trkpt lat="45.26217" lon="5.71443">
        <ele>716</ele>
        <time>2010-05-09T08:22:41Z</time>
      </trkpt>
      <trkpt lat="45.26219" lon="5.71439">
        <ele>716</ele>
        <time>2010-05-09T08:22:42Z</time>
      </trkpt>
      <trkpt lat="45.26221" lon="5.71436">
        <ele>715</ele>
        <time>2010-05-09T08:22:43Z</time>
      </trkpt>
      <trkpt lat="45.26223" lon="5.71434">
        <ele>714</ele>
        <time>2010-05-09T08:22:44Z</time>
      </trkpt>
      <trkpt lat="45.26221" lon="5.71433">
        <ele>712</ele>
        <time>2010-05-09T08:22:46Z</time>
      </trkpt>
      <trkpt lat="45.26219" lon="5.71433">
        <ele>711</ele>
        <time>2010-05-09T08:22:47Z</time>
      </trkpt>
      <trkpt lat="45.26216" lon="5.71432">
        <ele>710</ele>
        <time>2010-05-09T08:22:48Z</time>
      </trkpt>
      <trkpt lat="45.26213" lon="5.71431">
        <ele>709</ele>
        <time>2010-05-09T08:22:49Z</time>
      </trkpt>
      <trkpt lat="45.2621" lon="5.7143">
        <ele>708</ele>
        <time>2010-05-09T08:22:50Z</time>
      </trkpt>
      <trkpt lat="45.26208" lon="5.71429">
        <ele>707</ele>
        <time>2010-05-09T08:22:51Z</time>
      </trkpt>
      <trkpt lat="45.26206" lon="5.71429">
        <ele>706</ele>
        <time>2010-05-09T08:22:52Z</time>
      </trkpt>
      <trkpt lat="45.26204" lon="5.71428">
        <ele>705</ele>
        <time>2010-05-09T08:22:53Z</time>
      </trkpt>
      <trkpt lat="45.26201" lon="5.71427">
        <ele>703</ele>
        <time>2010-05-09T08:22:54Z</time>
      </trkpt>
      <trkpt lat="45.26198" lon="5.71426">
        <ele>701</ele>
        <time>2010-05-09T08:22:55Z</time>
      </trkpt>
      <trkpt lat="45.26195" lon="5.71426">
        <ele>700</ele>
        <time>2010-05-09T08:22:56Z</time>
      </trkpt>
      <trkpt lat="45.26192" lon="5.71426">
        <ele>698</ele>
        <time>2010-05-09T08:22:57Z</time>
      </trkpt>
      <trkpt lat="45.26189" lon="5.71426">
        <ele>697</ele>
        <time>2010-05-09T08:22:58Z</time>
      </trkpt>
      <trkpt lat="45.26186" lon="5.71427">
        <ele>696</ele>
        <time>2010-05-09T08:22:59Z</time>
      </trkpt>
      <trkpt lat="45.26183" lon="5.71427">
        <ele>695</ele>
        <time>2010-05-09T08:23:00Z</time>
      </trkpt>
      <trkpt lat="45.26181" lon="5.71427">
        <ele>693</ele>
        <time>2010-05-09T08:23:01Z</time>
      </trkpt>
      <trkpt lat="45.26179" lon="5.71427">
        <ele>692</ele>
        <time>2010-05-09T08:23:02Z</time>
      </trkpt>
      <trkpt lat="45.26176" lon="5.71428">
        <ele>691</ele>
        <time>2010-05-09T08:23:03Z</time>
      </trkpt>
      <trkpt lat="45.26173" lon="5.71429">
        <ele>690</ele>
        <time>2010-05-09T08:23:04Z</time>
      </trkpt>
      <trkpt lat="45.26171" lon="5.71429">
        <ele>689</ele>
        <time>2010-05-09T08:23:05Z</time>
      </trkpt>
      <trkpt lat="45.2617" lon="5.7143">
        <ele>688</ele>
        <time>2010-05-09T08:23:06Z</time>
      </trkpt>
      <trkpt lat="45.26166" lon="5.7143">
        <ele>687</ele>
        <time>2010-05-09T08:23:07Z</time>
      </trkpt>
      <trkpt lat="45.26164" lon="5.71429">
        <ele>686</ele>
        <time>2010-05-09T08:23:08Z</time>
      </trkpt>
      <trkpt lat="45.26162" lon="5.71428">
        <ele>685</ele>
        <time>2010-05-09T08:23:09Z</time>
      </trkpt>
      <trkpt lat="45.26159" lon="5.71427">
        <ele>684</ele>
        <time>2010-05-09T08:23:10Z</time>
      </trkpt>
      <trkpt lat="45.26155" lon="5.71426">
        <ele>683</ele>
        <time>2010-05-09T08:23:11Z</time>
      </trkpt>
      <trkpt lat="45.26151" lon="5.71426">
        <ele>682</ele>
        <time>2010-05-09T08:23:12Z</time>
      </trkpt>
      <trkpt lat="45.26148" lon="5.71424">
        <ele>681</ele>
        <time>2010-05-09T08:23:13Z</time>
      </trkpt>
      <trkpt lat="45.26145" lon="5.71422">
        <ele>680</ele>
        <time>2010-05-09T08:23:14Z</time>
      </trkpt>
      <trkpt lat="45.26142" lon="5.7142">
        <ele>679</ele>
        <time>2010-05-09T08:23:15Z</time>
      </trkpt>
      <trkpt lat="45.26139" lon="5.71417">
        <ele>678</ele>
        <time>2010-05-09T08:23:16Z</time>
      </trkpt>
      <trkpt lat="45.26137" lon="5.71414">
        <ele>676</ele>
        <time>2010-05-09T08:23:17Z</time>
      </trkpt>
      <trkpt lat="45.26134" lon="5.71411">
        <ele>675</ele>
        <time>2010-05-09T08:23:18Z</time>
      </trkpt>
      <trkpt lat="45.26131" lon="5.71409">
        <ele>673</ele>
        <time>2010-05-09T08:23:19Z</time>
      </trkpt>
      <trkpt lat="45.26127" lon="5.71407">
        <ele>671</ele>
        <time>2010-05-09T08:23:20Z</time>
      </trkpt>
      <trkpt lat="45.26124" lon="5.71405">
        <ele>670</ele>
        <time>2010-05-09T08:23:21Z</time>
      </trkpt>
      <trkpt lat="45.26121" lon="5.71401">
        <ele>669</ele>
        <time>2010-05-09T08:23:22Z</time>
      </trkpt>
      <trkpt lat="45.26118" lon="5.71397">
        <ele>668</ele>
        <time>2010-05-09T08:23:23Z</time>
      </trkpt>
      <trkpt lat="45.26116" lon="5.71394">
        <ele>667</ele>
        <time>2010-05-09T08:23:24Z</time>
      </trkpt>
      <trkpt lat="45.26114" lon="5.71391">
        <ele>666</ele>
        <time>2010-05-09T08:23:25Z</time>
      </trkpt>
      <trkpt lat="45.2611" lon="5.71388">
        <ele>665</ele>
        <time>2010-05-09T08:23:26Z</time>
      </trkpt>
      <trkpt lat="45.26108" lon="5.71386">
        <ele>664</ele>
        <time>2010-05-09T08:23:27Z</time>
      </trkpt>
      <trkpt lat="45.26105" lon="5.71383">
        <ele>663</ele>
        <time>2010-05-09T08:23:28Z</time>
      </trkpt>
      <trkpt lat="45.26102" lon="5.7138">
        <ele>662</ele>
        <time>2010-05-09T08:23:29Z</time>
      </trkpt>
      <trkpt lat="45.26099" lon="5.71375">
        <ele>661</ele>
        <time>2010-05-09T08:23:30Z</time>
      </trkpt>
      <trkpt lat="45.26096" lon="5.71372">
        <ele>660</ele>
        <time>2010-05-09T08:23:31Z</time>
      </trkpt>
      <trkpt lat="45.26093" lon="5.7137">
        <ele>659</ele>
        <time>2010-05-09T08:23:32Z</time>
      </trkpt>
      <trkpt lat="45.2609" lon="5.71367">
        <ele>658</ele>
        <time>2010-05-09T08:23:33Z</time>
      </trkpt>
      <trkpt lat="45.26088" lon="5.71364">
        <ele>657</ele>
        <time>2010-05-09T08:23:34Z</time>
      </trkpt>
      <trkpt lat="45.26085" lon="5.71362">
        <ele>656</ele>
        <time>2010-05-09T08:23:35Z</time>
      </trkpt>
      <trkpt lat="45.26082" lon="5.71359">
        <ele>655</ele>
        <time>2010-05-09T08:23:36Z</time>
      </trkpt>
      <trkpt lat="45.26081" lon="5.71358">
        <ele>654</ele>
        <time>2010-05-09T08:23:37Z</time>
      </trkpt>
      <trkpt lat="45.26079" lon="5.71356">
        <ele>653</ele>
        <time>2010-05-09T08:23:38Z</time>
      </trkpt>
      <trkpt lat="45.26077" lon="5.71355">
        <ele>653</ele>
        <time>2010-05-09T08:23:39Z</time>
      </trkpt>
      <trkpt lat="45.26075" lon="5.71354">
        <ele>652</ele>
        <time>2010-05-09T08:23:40Z</time>
      </trkpt>
      <trkpt lat="45.26072" lon="5.71354">
        <ele>651</ele>
        <time>2010-05-09T08:23:41Z</time>
      </trkpt>
      <trkpt lat="45.2607" lon="5.71354">
        <ele>650</ele>
        <time>2010-05-09T08:23:42Z</time>
      </trkpt>
      <trkpt lat="45.26067" lon="5.71353">
        <ele>649</ele>
        <time>2010-05-09T08:23:43Z</time>
      </trkpt>
      <trkpt lat="45.26064" lon="5.71352">
        <ele>648</ele>
        <time>2010-05-09T08:23:44Z</time>
      </trkpt>
      <trkpt lat="45.26061" lon="5.71351">
        <ele>647</ele>
        <time>2010-05-09T08:23:45Z</time>
      </trkpt>
      <trkpt lat="45.26058" lon="5.71349">
        <ele>646</ele>
        <time>2010-05-09T08:23:46Z</time>
      </trkpt>
      <trkpt lat="45.26055" lon="5.71348">
        <ele>645</ele>
        <time>2010-05-09T08:23:47Z</time>
      </trkpt>
      <trkpt lat="45.26052" lon="5.71346">
        <ele>644</ele>
        <time>2010-05-09T08:23:48Z</time>
      </trkpt>
      <trkpt lat="45.2605" lon="5.71344">
        <ele>643</ele>
        <time>2010-05-09T08:23:49Z</time>
      </trkpt>
      <trkpt lat="45.26047" lon="5.71342">
        <ele>642</ele>
        <time>2010-05-09T08:23:50Z</time>
      </trkpt>
      <trkpt lat="45.26045" lon="5.71341">
        <ele>641</ele>
        <time>2010-05-09T08:23:51Z</time>
      </trkpt>
      <trkpt lat="45.26043" lon="5.7134">
        <ele>640</ele>
        <time>2010-05-09T08:23:52Z</time>
      </trkpt>
      <trkpt lat="45.2604" lon="5.7134">
        <ele>639</ele>
        <time>2010-05-09T08:23:53Z</time>
      </trkpt>
      <trkpt lat="45.26038" lon="5.71339">
        <ele>638</ele>
        <time>2010-05-09T08:23:54Z</time>
      </trkpt>
      <trkpt lat="45.26035" lon="5.7134">
        <ele>637</ele>
        <time>2010-05-09T08:23:55Z</time>
      </trkpt>
      <trkpt lat="45.26031" lon="5.71339">
        <ele>636</ele>
        <time>2010-05-09T08:23:56Z</time>
      </trkpt>
      <trkpt lat="45.26029" lon="5.71338">
        <ele>636</ele>
        <time>2010-05-09T08:23:57Z</time>
      </trkpt>
      <trkpt lat="45.26027" lon="5.71337">
        <ele>635</ele>
        <time>2010-05-09T08:23:58Z</time>
      </trkpt>
      <trkpt lat="45.26025" lon="5.71335">
        <ele>634</ele>
        <time>2010-05-09T08:23:59Z</time>
      </trkpt>
      <trkpt lat="45.26023" lon="5.71333">
        <ele>634</ele>
        <time>2010-05-09T08:24:00Z</time>
      </trkpt>
      <trkpt lat="45.26021" lon="5.71331">
        <ele>633</ele>
        <time>2010-05-09T08:24:01Z</time>
      </trkpt>
      <trkpt lat="45.26018" lon="5.71329">
        <ele>632</ele>
        <time>2010-05-09T08:24:02Z</time>
      </trkpt>
      <trkpt lat="45.26014" lon="5.71328">
        <ele>632</ele>
        <time>2010-05-09T08:24:03Z</time>
      </trkpt>
      <trkpt lat="45.2601" lon="5.71326">
        <ele>631</ele>
        <time>2010-05-09T08:24:04Z</time>
      </trkpt>
      <trkpt lat="45.26007" lon="5.71325">
        <ele>630</ele>
        <time>2010-05-09T08:24:05Z</time>
      </trkpt>
      <trkpt lat="45.26005" lon="5.71322">
        <ele>629</ele>
        <time>2010-05-09T08:24:06Z</time>
      </trkpt>
      <trkpt lat="45.26002" lon="5.71319">
        <ele>628</ele>
        <time>2010-05-09T08:24:07Z</time>
      </trkpt>
      <trkpt lat="45.25999" lon="5.71316">
        <ele>627</ele>
        <time>2010-05-09T08:24:08Z</time>
      </trkpt>
      <trkpt lat="45.25996" lon="5.71313">
        <ele>626</ele>
        <time>2010-05-09T08:24:09Z</time>
      </trkpt>
      <trkpt lat="45.25993" lon="5.7131">
        <ele>625</ele>
        <time>2010-05-09T08:24:10Z</time>
      </trkpt>
      <trkpt lat="45.2599" lon="5.71307">
        <ele>624</ele>
        <time>2010-05-09T08:24:11Z</time>
      </trkpt>
      <trkpt lat="45.25988" lon="5.71303">
        <ele>623</ele>
        <time>2010-05-09T08:24:12Z</time>
      </trkpt>
      <trkpt lat="45.25986" lon="5.713">
        <ele>622</ele>
        <time>2010-05-09T08:24:13Z</time>
      </trkpt>
      <trkpt lat="45.25984" lon="5.71297">
        <ele>621</ele>
        <time>2010-05-09T08:24:14Z</time>
      </trkpt>
      <trkpt lat="45.25982" lon="5.71293">
        <ele>620</ele>
        <time>2010-05-09T08:24:15Z</time>
      </trkpt>
      <trkpt lat="45.2598" lon="5.71289">
        <ele>619</ele>
        <time>2010-05-09T08:24:16Z</time>
      </trkpt>
      <trkpt lat="45.25977" lon="5.71286">
        <ele>618</ele>
        <time>2010-05-09T08:24:17Z</time>
      </trkpt>
      <trkpt lat="45.25975" lon="5.71282">
        <ele>617</ele>
        <time>2010-05-09T08:24:18Z</time>
      </trkpt>
      <trkpt lat="45.25973" lon="5.71278">
        <ele>616</ele>
        <time>2010-05-09T08:24:19Z</time>
      </trkpt>
      <trkpt lat="45.25972" lon="5.71274">
        <ele>615</ele>
        <time>2010-05-09T08:24:20Z</time>
      </trkpt>
      <trkpt lat="45.2597" lon="5.71269">
        <ele>614</ele>
        <time>2010-05-09T08:24:21Z</time>
      </trkpt>
      <trkpt lat="45.25968" lon="5.71266">
        <ele>614</ele>
        <time>2010-05-09T08:24:22Z</time>
      </trkpt>
      <trkpt lat="45.25965" lon="5.71264">
        <ele>613</ele>
        <time>2010-05-09T08:24:23Z</time>
      </trkpt>
      <trkpt lat="45.25962" lon="5.7126">
        <ele>613</ele>
        <time>2010-05-09T08:24:24Z</time>
      </trkpt>
      <trkpt lat="45.25959" lon="5.71257">
        <ele>613</ele>
        <time>2010-05-09T08:24:25Z</time>
      </trkpt>
      <trkpt lat="45.25955" lon="5.71256">
        <ele>613</ele>
        <time>2010-05-09T08:24:26Z</time>
      </trkpt>
      <trkpt lat="45.25952" lon="5.71255">
        <ele>612</ele>
        <time>2010-05-09T08:24:27Z</time>
      </trkpt>
      <trkpt lat="45.25948" lon="5.71254">
        <ele>612</ele>
        <time>2010-05-09T08:24:28Z</time>
      </trkpt>
      <trkpt lat="45.25945" lon="5.71253">
        <ele>612</ele>
        <time>2010-05-09T08:24:29Z</time>
      </trkpt>
      <trkpt lat="45.2594" lon="5.71252">
        <ele>611</ele>
        <time>2010-05-09T08:24:30Z</time>
      </trkpt>
      <trkpt lat="45.25936" lon="5.71251">
        <ele>611</ele>
        <time>2010-05-09T08:24:31Z</time>
      </trkpt>
      <trkpt lat="45.25934" lon="5.7125">
        <ele>611</ele>
        <time>2010-05-09T08:24:32Z</time>
      </trkpt>
      <trkpt lat="45.25932" lon="5.71249">
        <ele>610</ele>
        <time>2010-05-09T08:24:33Z</time>
      </trkpt>
      <trkpt lat="45.25929" lon="5.71248">
        <ele>609</ele>
        <time>2010-05-09T08:24:34Z</time>
      </trkpt>
      <trkpt lat="45.25926" lon="5.71249">
        <ele>608</ele>
        <time>2010-05-09T08:24:35Z</time>
      </trkpt>
      <trkpt lat="45.25922" lon="5.71251">
        <ele>607</ele>
        <time>2010-05-09T08:24:36Z</time>
      </trkpt>
      <trkpt lat="45.25918" lon="5.71252">
        <ele>607</ele>
        <time>2010-05-09T08:24:37Z</time>
      </trkpt>
      <trkpt lat="45.25914" lon="5.71252">
        <ele>606</ele>
        <time>2010-05-09T08:24:38Z</time>
      </trkpt>
      <trkpt lat="45.25911" lon="5.71252">
        <ele>605</ele>
        <time>2010-05-09T08:24:39Z</time>
      </trkpt>
      <trkpt lat="45.25909" lon="5.71251">
        <ele>604</ele>
        <time>2010-05-09T08:24:40Z</time>
      </trkpt>
      <trkpt lat="45.25906" lon="5.71249">
        <ele>603</ele>
        <time>2010-05-09T08:24:41Z</time>
      </trkpt>
      <trkpt lat="45.25903" lon="5.71246">
        <ele>602</ele>
        <time>2010-05-09T08:24:42Z</time>
      </trkpt>
      <trkpt lat="45.25901" lon="5.71242">
        <ele>601</ele>
        <time>2010-05-09T08:24:43Z</time>
      </trkpt>
      <trkpt lat="45.25898" lon="5.71239">
        <ele>600</ele>
        <time>2010-05-09T08:24:44Z</time>
      </trkpt>
      <trkpt lat="45.25896" lon="5.71236">
        <ele>599</ele>
        <time>2010-05-09T08:24:45Z</time>
      </trkpt>
      <trkpt lat="45.25895" lon="5.71232">
        <ele>598</ele>
        <time>2010-05-09T08:24:46Z</time>
      </trkpt>
      <trkpt lat="45.25894" lon="5.71228">
        <ele>597</ele>
        <time>2010-05-09T08:24:47Z</time>
      </trkpt>
      <trkpt lat="45.25891" lon="5.71223">
        <ele>596</ele>
        <time>2010-05-09T08:24:48Z</time>
      </trkpt>
      <trkpt lat="45.2589" lon="5.71217">
        <ele>595</ele>
        <time>2010-05-09T08:24:49Z</time>
      </trkpt>
      <trkpt lat="45.2589" lon="5.71212">
        <ele>594</ele>
        <time>2010-05-09T08:24:50Z</time>
      </trkpt>
      <trkpt lat="45.25888" lon="5.71208">
        <ele>593</ele>
        <time>2010-05-09T08:24:51Z</time>
      </trkpt>
      <trkpt lat="45.25886" lon="5.71204">
        <ele>592</ele>
        <time>2010-05-09T08:24:52Z</time>
      </trkpt>
      <trkpt lat="45.25882" lon="5.71202">
        <ele>591</ele>
        <time>2010-05-09T08:24:53Z</time>
      </trkpt>
      <trkpt lat="45.2588" lon="5.71201">
        <ele>590</ele>
        <time>2010-05-09T08:24:54Z</time>
      </trkpt>
      <trkpt lat="45.25877" lon="5.712">
        <ele>589</ele>
        <time>2010-05-09T08:24:55Z</time>
      </trkpt>
      <trkpt lat="45.25874" lon="5.71199">
        <ele>589</ele>
        <time>2010-05-09T08:24:56Z</time>
      </trkpt>
      <trkpt lat="45.25871" lon="5.71199">
        <ele>589</ele>
        <time>2010-05-09T08:24:57Z</time>
      </trkpt>
      <trkpt lat="45.25869" lon="5.71199">
        <ele>589</ele>
        <time>2010-05-09T08:24:58Z</time>
      </trkpt>
      <trkpt lat="45.25865" lon="5.712">
        <ele>588</ele>
        <time>2010-05-09T08:24:59Z</time>
      </trkpt>
      <trkpt lat="45.25863" lon="5.712">
        <ele>587</ele>
        <time>2010-05-09T08:25:00Z</time>
      </trkpt>
      <trkpt lat="45.25859" lon="5.71201">
        <ele>587</ele>
        <time>2010-05-09T08:25:01Z</time>
      </trkpt>
      <trkpt lat="45.25857" lon="5.71201">
        <ele>586</ele>
        <time>2010-05-09T08:25:02Z</time>
      </trkpt>
      <trkpt lat="45.25855" lon="5.71203">
        <ele>585</ele>
        <time>2010-05-09T08:25:03Z</time>
      </trkpt>
      <trkpt lat="45.25853" lon="5.71205">
        <ele>584</ele>
        <time>2010-05-09T08:25:04Z</time>
      </trkpt>
      <trkpt lat="45.25851" lon="5.71207">
        <ele>583</ele>
        <time>2010-05-09T08:25:05Z</time>
      </trkpt>
      <trkpt lat="45.25848" lon="5.7121">
        <ele>583</ele>
        <time>2010-05-09T08:25:06Z</time>
      </trkpt>
      <trkpt lat="45.25845" lon="5.71214">
        <ele>582</ele>
        <time>2010-05-09T08:25:07Z</time>
      </trkpt>
      <trkpt lat="45.25842" lon="5.71218">
        <ele>582</ele>
        <time>2010-05-09T08:25:08Z</time>
      </trkpt>
      <trkpt lat="45.25839" lon="5.71221">
        <ele>581</ele>
        <time>2010-05-09T08:25:09Z</time>
      </trkpt>
      <trkpt lat="45.25836" lon="5.71225">
        <ele>580</ele>
        <time>2010-05-09T08:25:10Z</time>
      </trkpt>
      <trkpt lat="45.25835" lon="5.71229">
        <ele>579</ele>
        <time>2010-05-09T08:25:11Z</time>
      </trkpt>
      <trkpt lat="45.25833" lon="5.71233">
        <ele>579</ele>
        <time>2010-05-09T08:25:12Z</time>
      </trkpt>
      <trkpt lat="45.25831" lon="5.71237">
        <ele>578</ele>
        <time>2010-05-09T08:25:13Z</time>
      </trkpt>
      <trkpt lat="45.25829" lon="5.71242">
        <ele>577</ele>
        <time>2010-05-09T08:25:14Z</time>
      </trkpt>
      <trkpt lat="45.25827" lon="5.71246">
        <ele>576</ele>
        <time>2010-05-09T08:25:15Z</time>
      </trkpt>
      <trkpt lat="45.25825" lon="5.7125">
        <ele>575</ele>
        <time>2010-05-09T08:25:16Z</time>
      </trkpt>
      <trkpt lat="45.25822" lon="5.71254">
        <ele>574</ele>
        <time>2010-05-09T08:25:17Z</time>
      </trkpt>
      <trkpt lat="45.2582" lon="5.71258">
        <ele>573</ele>
        <time>2010-05-09T08:25:18Z</time>
      </trkpt>
      <trkpt lat="45.25817" lon="5.71262">
        <ele>573</ele>
        <time>2010-05-09T08:25:19Z</time>
      </trkpt>
      <trkpt lat="45.25814" lon="5.71265">
        <ele>572</ele>
        <time>2010-05-09T08:25:20Z</time>
      </trkpt>
      <trkpt lat="45.25811" lon="5.71267">
        <ele>572</ele>
        <time>2010-05-09T08:25:21Z</time>
      </trkpt>
      <trkpt lat="45.25807" lon="5.71269">
        <ele>571</ele>
        <time>2010-05-09T08:25:22Z</time>
      </trkpt>
      <trkpt lat="45.25803" lon="5.7127">
        <ele>571</ele>
        <time>2010-05-09T08:25:23Z</time>
      </trkpt>
      <trkpt lat="45.25799" lon="5.7127">
        <ele>570</ele>
        <time>2010-05-09T08:25:24Z</time>
      </trkpt>
      <trkpt lat="45.25795" lon="5.71269">
        <ele>569</ele>
        <time>2010-05-09T08:25:25Z</time>
      </trkpt>
      <trkpt lat="45.25793" lon="5.71267">
        <ele>568</ele>
        <time>2010-05-09T08:25:26Z</time>
      </trkpt>
      <trkpt lat="45.2579" lon="5.71265">
        <ele>567</ele>
        <time>2010-05-09T08:25:27Z</time>
      </trkpt>
      <trkpt lat="45.25787" lon="5.71264">
        <ele>566</ele>
        <time>2010-05-09T08:25:28Z</time>
      </trkpt>
      <trkpt lat="45.25784" lon="5.71262">
        <ele>565</ele>
        <time>2010-05-09T08:25:29Z</time>
      </trkpt>
      <trkpt lat="45.25781" lon="5.7126">
        <ele>564</ele>
        <time>2010-05-09T08:25:30Z</time>
      </trkpt>
      <trkpt lat="45.25778" lon="5.71259">
        <ele>563</ele>
        <time>2010-05-09T08:25:31Z</time>
      </trkpt>
      <trkpt lat="45.25775" lon="5.71258">
        <ele>562</ele>
        <time>2010-05-09T08:25:32Z</time>
      </trkpt>
      <trkpt lat="45.25771" lon="5.7126">
        <ele>561</ele>
        <time>2010-05-09T08:25:33Z</time>
      </trkpt>
      <trkpt lat="45.25768" lon="5.71262">
        <ele>560</ele>
        <time>2010-05-09T08:25:34Z</time>
      </trkpt>
      <trkpt lat="45.25765" lon="5.71265">
        <ele>559</ele>
        <time>2010-05-09T08:25:35Z</time>
      </trkpt>
      <trkpt lat="45.25761" lon="5.71268">
        <ele>558</ele>
        <time>2010-05-09T08:25:36Z</time>
      </trkpt>
      <trkpt lat="45.25758" lon="5.71271">
        <ele>557</ele>
        <time>2010-05-09T08:25:37Z</time>
      </trkpt>
      <trkpt lat="45.25754" lon="5.71272">
        <ele>557</ele>
        <time>2010-05-09T08:25:38Z</time>
      </trkpt>
      <trkpt lat="45.25751" lon="5.71274">
        <ele>556</ele>
        <time>2010-05-09T08:25:39Z</time>
      </trkpt>
      <trkpt lat="45.25747" lon="5.71276">
        <ele>556</ele>
        <time>2010-05-09T08:25:40Z</time>
      </trkpt>
      <trkpt lat="45.25743" lon="5.71277">
        <ele>556</ele>
        <time>2010-05-09T08:25:41Z</time>
      </trkpt>
      <trkpt lat="45.25739" lon="5.71278">
        <ele>555</ele>
        <time>2010-05-09T08:25:42Z</time>
      </trkpt>
      <trkpt lat="45.25735" lon="5.71277">
        <ele>555</ele>
        <time>2010-05-09T08:25:43Z</time>
      </trkpt>
      <trkpt lat="45.2573" lon="5.71276">
        <ele>555</ele>
        <time>2010-05-09T08:25:44Z</time>
      </trkpt>
      <trkpt lat="45.25726" lon="5.71274">
        <ele>554</ele>
        <time>2010-05-09T08:25:45Z</time>
      </trkpt>
      <trkpt lat="45.25721" lon="5.71272">
        <ele>554</ele>
        <time>2010-05-09T08:25:46Z</time>
      </trkpt>
      <trkpt lat="45.25717" lon="5.71268">
        <ele>553</ele>
        <time>2010-05-09T08:25:47Z</time>
      </trkpt>
      <trkpt lat="45.25714" lon="5.71264">
        <ele>552</ele>
        <time>2010-05-09T08:25:48Z</time>
      </trkpt>
      <trkpt lat="45.25712" lon="5.71259">
        <ele>552</ele>
        <time>2010-05-09T08:25:49Z</time>
      </trkpt>
      <trkpt lat="45.25709" lon="5.71254">
        <ele>551</ele>
        <time>2010-05-09T08:25:50Z</time>
      </trkpt>
      <trkpt lat="45.25706" lon="5.71248">
        <ele>551</ele>
        <time>2010-05-09T08:25:51Z</time>
      </trkpt>
      <trkpt lat="45.25704" lon="5.71243">
        <ele>551</ele>
        <time>2010-05-09T08:25:52Z</time>
      </trkpt>
      <trkpt lat="45.25703" lon="5.71237">
        <ele>550</ele>
        <time>2010-05-09T08:25:53Z</time>
      </trkpt>
      <trkpt lat="45.25702" lon="5.71231">
        <ele>550</ele>
        <time>2010-05-09T08:25:54Z</time>
      </trkpt>
      <trkpt lat="45.25701" lon="5.71225">
        <ele>550</ele>
        <time>2010-05-09T08:25:55Z</time>
      </trkpt>
      <trkpt lat="45.257" lon="5.71219">
        <ele>550</ele>
        <time>2010-05-09T08:25:56Z</time>
      </trkpt>
      <trkpt lat="45.25699" lon="5.71214">
        <ele>549</ele>
        <time>2010-05-09T08:25:57Z</time>
      </trkpt>
      <trkpt lat="45.25698" lon="5.71208">
        <ele>549</ele>
        <time>2010-05-09T08:25:58Z</time>
      </trkpt>
      <trkpt lat="45.25698" lon="5.71203">
        <ele>549</ele>
        <time>2010-05-09T08:25:59Z</time>
      </trkpt>
      <trkpt lat="45.25697" lon="5.71197">
        <ele>549</ele>
        <time>2010-05-09T08:26:00Z</time>
      </trkpt>
      <trkpt lat="45.25696" lon="5.71191">
        <ele>549</ele>
        <time>2010-05-09T08:26:01Z</time>
      </trkpt>
      <trkpt lat="45.25695" lon="5.71185">
        <ele>548</ele>
        <time>2010-05-09T08:26:02Z</time>
      </trkpt>
      <trkpt lat="45.25694" lon="5.71179">
        <ele>548</ele>
        <time>2010-05-09T08:26:03Z</time>
      </trkpt>
      <trkpt lat="45.25693" lon="5.71173">
        <ele>548</ele>
        <time>2010-05-09T08:26:04Z</time>
      </trkpt>
      <trkpt lat="45.25691" lon="5.71169">
        <ele>547</ele>
        <time>2010-05-09T08:26:05Z</time>
      </trkpt>
      <trkpt lat="45.25689" lon="5.71164">
        <ele>547</ele>
        <time>2010-05-09T08:26:06Z</time>
      </trkpt>
      <trkpt lat="45.25686" lon="5.71159">
        <ele>546</ele>
        <time>2010-05-09T08:26:07Z</time>
      </trkpt>
      <trkpt lat="45.25683" lon="5.71154">
        <ele>545</ele>
        <time>2010-05-09T08:26:08Z</time>
      </trkpt>
      <trkpt lat="45.25681" lon="5.71149">
        <ele>545</ele>
        <time>2010-05-09T08:26:09Z</time>
      </trkpt>
      <trkpt lat="45.25678" lon="5.71146">
        <ele>544</ele>
        <time>2010-05-09T08:26:10Z</time>
      </trkpt>
      <trkpt lat="45.25676" lon="5.71142">
        <ele>544</ele>
        <time>2010-05-09T08:26:11Z</time>
      </trkpt>
      <trkpt lat="45.25673" lon="5.71139">
        <ele>543</ele>
        <time>2010-05-09T08:26:12Z</time>
      </trkpt>
      <trkpt lat="45.2567" lon="5.71135">
        <ele>543</ele>
        <time>2010-05-09T08:26:13Z</time>
      </trkpt>
      <trkpt lat="45.25666" lon="5.71132">
        <ele>542</ele>
        <time>2010-05-09T08:26:14Z</time>
      </trkpt>
      <trkpt lat="45.25663" lon="5.71128">
        <ele>542</ele>
        <time>2010-05-09T08:26:15Z</time>
      </trkpt>
      <trkpt lat="45.2566" lon="5.71125">
        <ele>541</ele>
        <time>2010-05-09T08:26:16Z</time>
      </trkpt>
      <trkpt lat="45.25657" lon="5.7112">
        <ele>541</ele>
        <time>2010-05-09T08:26:17Z</time>
      </trkpt>
      <trkpt lat="45.25654" lon="5.71116">
        <ele>540</ele>
        <time>2010-05-09T08:26:18Z</time>
      </trkpt>
      <trkpt lat="45.25652" lon="5.71112">
        <ele>540</ele>
        <time>2010-05-09T08:26:19Z</time>
      </trkpt>
      <trkpt lat="45.25649" lon="5.71107">
        <ele>539</ele>
        <time>2010-05-09T08:26:20Z</time>
      </trkpt>
      <trkpt lat="45.25647" lon="5.71103">
        <ele>539</ele>
        <time>2010-05-09T08:26:21Z</time>
      </trkpt>
      <trkpt lat="45.25645" lon="5.71098">
        <ele>538</ele>
        <time>2010-05-09T08:26:22Z</time>
      </trkpt>
      <trkpt lat="45.25645" lon="5.71092">
        <ele>537</ele>
        <time>2010-05-09T08:26:23Z</time>
      </trkpt>
      <trkpt lat="45.25644" lon="5.71086">
        <ele>537</ele>
        <time>2010-05-09T08:26:24Z</time>
      </trkpt>
      <trkpt lat="45.25643" lon="5.7108">
        <ele>536</ele>
        <time>2010-05-09T08:26:25Z</time>
      </trkpt>
      <trkpt lat="45.25643" lon="5.71074">
        <ele>535</ele>
        <time>2010-05-09T08:26:26Z</time>
      </trkpt>
      <trkpt lat="45.25642" lon="5.71069">
        <ele>534</ele>
        <time>2010-05-09T08:26:27Z</time>
      </trkpt>
      <trkpt lat="45.2564" lon="5.71066">
        <ele>534</ele>
        <time>2010-05-09T08:26:28Z</time>
      </trkpt>
      <trkpt lat="45.25639" lon="5.71064">
        <ele>533</ele>
        <time>2010-05-09T08:26:29Z</time>
      </trkpt>
      <trkpt lat="45.25637" lon="5.71066">
        <ele>532</ele>
        <time>2010-05-09T08:26:30Z</time>
      </trkpt>
      <trkpt lat="45.25636" lon="5.71069">
        <ele>531</ele>
        <time>2010-05-09T08:26:31Z</time>
      </trkpt>
      <trkpt lat="45.25635" lon="5.71074">
        <ele>531</ele>
        <time>2010-05-09T08:26:32Z</time>
      </trkpt>
      <trkpt lat="45.25634" lon="5.71079">
        <ele>530</ele>
        <time>2010-05-09T08:26:33Z</time>
      </trkpt>
      <trkpt lat="45.25634" lon="5.71084">
        <ele>530</ele>
        <time>2010-05-09T08:26:34Z</time>
      </trkpt>
      <trkpt lat="45.25633" lon="5.7109">
        <ele>529</ele>
        <time>2010-05-09T08:26:35Z</time>
      </trkpt>
      <trkpt lat="45.25633" lon="5.71095">
        <ele>529</ele>
        <time>2010-05-09T08:26:36Z</time>
      </trkpt>
      <trkpt lat="45.25634" lon="5.71101">
        <ele>529</ele>
        <time>2010-05-09T08:26:37Z</time>
      </trkpt>
      <trkpt lat="45.25634" lon="5.71107">
        <ele>529</ele>
        <time>2010-05-09T08:26:38Z</time>
      </trkpt>
      <trkpt lat="45.25635" lon="5.71113">
        <ele>529</ele>
        <time>2010-05-09T08:26:39Z</time>
      </trkpt>
      <trkpt lat="45.25636" lon="5.71118">
        <ele>529</ele>
        <time>2010-05-09T08:26:40Z</time>
      </trkpt>
      <trkpt lat="45.25637" lon="5.71123">
        <ele>529</ele>
        <time>2010-05-09T08:26:41Z</time>
      </trkpt>
      <trkpt lat="45.25638" lon="5.71128">
        <ele>529</ele>
        <time>2010-05-09T08:26:42Z</time>
      </trkpt>
      <trkpt lat="45.25639" lon="5.71134">
        <ele>529</ele>
        <time>2010-05-09T08:26:43Z</time>
      </trkpt>
      <trkpt lat="45.2564" lon="5.71139">
        <ele>529</ele>
        <time>2010-05-09T08:26:44Z</time>
      </trkpt>
      <trkpt lat="45.25642" lon="5.71144">
        <ele>529</ele>
        <time>2010-05-09T08:26:45Z</time>
      </trkpt>
      <trkpt lat="45.25643" lon="5.71148">
        <ele>529</ele>
        <time>2010-05-09T08:26:46Z</time>
      </trkpt>
      <trkpt lat="45.25645" lon="5.71153">
        <ele>529</ele>
        <time>2010-05-09T08:26:47Z</time>
      </trkpt>
      <trkpt lat="45.25646" lon="5.71158">
        <ele>529</ele>
        <time>2010-05-09T08:26:48Z</time>
      </trkpt>
      <trkpt lat="45.25648" lon="5.71164">
        <ele>529</ele>
        <time>2010-05-09T08:26:49Z</time>
      </trkpt>
      <trkpt lat="45.2565" lon="5.71169">
        <ele>529</ele>
        <time>2010-05-09T08:26:50Z</time>
      </trkpt>
      <trkpt lat="45.25651" lon="5.71173">
        <ele>529</ele>
        <time>2010-05-09T08:26:51Z</time>
      </trkpt>
      <trkpt lat="45.25652" lon="5.71178">
        <ele>529</ele>
        <time>2010-05-09T08:26:52Z</time>
      </trkpt>
      <trkpt lat="45.25652" lon="5.71183">
        <ele>529</ele>
        <time>2010-05-09T08:26:53Z</time>
      </trkpt>
      <trkpt lat="45.25652" lon="5.71188">
        <ele>529</ele>
        <time>2010-05-09T08:26:54Z</time>
      </trkpt>
      <trkpt lat="45.25651" lon="5.71194">
        <ele>529</ele>
        <time>2010-05-09T08:26:55Z</time>
      </trkpt>
      <trkpt lat="45.25651" lon="5.71199">
        <ele>529</ele>
        <time>2010-05-09T08:26:56Z</time>
      </trkpt>
      <trkpt lat="45.2565" lon="5.71204">
        <ele>529</ele>
        <time>2010-05-09T08:26:57Z</time>
      </trkpt>
      <trkpt lat="45.2565" lon="5.71209">
        <ele>529</ele>
        <time>2010-05-09T08:26:58Z</time>
      </trkpt>
      <trkpt lat="45.25648" lon="5.71214">
        <ele>529</ele>
        <time>2010-05-09T08:26:59Z</time>
      </trkpt>
      <trkpt lat="45.25646" lon="5.71218">
        <ele>529</ele>
        <time>2010-05-09T08:27:00Z</time>
      </trkpt>
      <trkpt lat="45.25644" lon="5.71223">
        <ele>529</ele>
        <time>2010-05-09T08:27:01Z</time>
      </trkpt>
      <trkpt lat="45.25642" lon="5.71227">
        <ele>529</ele>
        <time>2010-05-09T08:27:02Z</time>
      </trkpt>
      <trkpt lat="45.25639" lon="5.71232">
        <ele>530</ele>
        <time>2010-05-09T08:27:03Z</time>
      </trkpt>
      <trkpt lat="45.25637" lon="5.71236">
        <ele>530</ele>
        <time>2010-05-09T08:27:04Z</time>
      </trkpt>
      <trkpt lat="45.25634" lon="5.71239">
        <ele>530</ele>
        <time>2010-05-09T08:27:05Z</time>
      </trkpt>
      <trkpt lat="45.25631" lon="5.71242">
        <ele>530</ele>
        <time>2010-05-09T08:27:06Z</time>
      </trkpt>
      <trkpt lat="45.25627" lon="5.71245">
        <ele>530</ele>
        <time>2010-05-09T08:27:07Z</time>
      </trkpt>
      <trkpt lat="45.25623" lon="5.71248">
        <ele>530</ele>
        <time>2010-05-09T08:27:08Z</time>
      </trkpt>
      <trkpt lat="45.25619" lon="5.71252">
        <ele>530</ele>
        <time>2010-05-09T08:27:09Z</time>
      </trkpt>
      <trkpt lat="45.25616" lon="5.71256">
        <ele>530</ele>
        <time>2010-05-09T08:27:10Z</time>
      </trkpt>
      <trkpt lat="45.25613" lon="5.71259">
        <ele>530</ele>
        <time>2010-05-09T08:27:11Z</time>
      </trkpt>
      <trkpt lat="45.2561" lon="5.71261">
        <ele>530</ele>
        <time>2010-05-09T08:27:12Z</time>
      </trkpt>
      <trkpt lat="45.25607" lon="5.71261">
        <ele>530</ele>
        <time>2010-05-09T08:27:13Z</time>
      </trkpt>
      <trkpt lat="45.25603" lon="5.71262">
        <ele>530</ele>
        <time>2010-05-09T08:27:14Z</time>
      </trkpt>
      <trkpt lat="45.25599" lon="5.71265">
        <ele>530</ele>
        <time>2010-05-09T08:27:15Z</time>
      </trkpt>
      <trkpt lat="45.25596" lon="5.71268">
        <ele>531</ele>
        <time>2010-05-09T08:27:16Z</time>
      </trkpt>
      <trkpt lat="45.25592" lon="5.7127">
        <ele>531</ele>
        <time>2010-05-09T08:27:17Z</time>
      </trkpt>
      <trkpt lat="45.25589" lon="5.71271">
        <ele>531</ele>
        <time>2010-05-09T08:27:18Z</time>
      </trkpt>
      <trkpt lat="45.25585" lon="5.71272">
        <ele>531</ele>
        <time>2010-05-09T08:27:19Z</time>
      </trkpt>
      <trkpt lat="45.25581" lon="5.71272">
        <ele>531</ele>
        <time>2010-05-09T08:27:20Z</time>
      </trkpt>
      <trkpt lat="45.25577" lon="5.71272">
        <ele>531</ele>
        <time>2010-05-09T08:27:21Z</time>
      </trkpt>
      <trkpt lat="45.25574" lon="5.71274">
        <ele>531</ele>
        <time>2010-05-09T08:27:22Z</time>
      </trkpt>
      <trkpt lat="45.25571" lon="5.71275">
        <ele>531</ele>
        <time>2010-05-09T08:27:23Z</time>
      </trkpt>
      <trkpt lat="45.25566" lon="5.71277">
        <ele>532</ele>
        <time>2010-05-09T08:27:24Z</time>
      </trkpt>
      <trkpt lat="45.25561" lon="5.71277">
        <ele>533</ele>
        <time>2010-05-09T08:27:25Z</time>
      </trkpt>
      <trkpt lat="45.25557" lon="5.71279">
        <ele>533</ele>
        <time>2010-05-09T08:27:26Z</time>
      </trkpt>
      <trkpt lat="45.25551" lon="5.71282">
        <ele>534</ele>
        <time>2010-05-09T08:27:27Z</time>
      </trkpt>
      <trkpt lat="45.25548" lon="5.71285">
        <ele>535</ele>
        <time>2010-05-09T08:27:28Z</time>
      </trkpt>
      <trkpt lat="45.25544" lon="5.71288">
        <ele>535</ele>
        <time>2010-05-09T08:27:29Z</time>
      </trkpt>
      <trkpt lat="45.25541" lon="5.71291">
        <ele>535</ele>
        <time>2010-05-09T08:27:30Z</time>
      </trkpt>
      <trkpt lat="45.25537" lon="5.71294">
        <ele>535</ele>
        <time>2010-05-09T08:27:31Z</time>
      </trkpt>
      <trkpt lat="45.25533" lon="5.71296">
        <ele>535</ele>
        <time>2010-05-09T08:27:32Z</time>
      </trkpt>
      <trkpt lat="45.25529" lon="5.71298">
        <ele>535</ele>
        <time>2010-05-09T08:27:33Z</time>
      </trkpt>
      <trkpt lat="45.25527" lon="5.71299">
        <ele>535</ele>
        <time>2010-05-09T08:27:34Z</time>
      </trkpt>
      <trkpt lat="45.25524" lon="5.71301">
        <ele>535</ele>
        <time>2010-05-09T08:27:35Z</time>
      </trkpt>
      <trkpt lat="45.25521" lon="5.71302">
        <ele>535</ele>
        <time>2010-05-09T08:27:36Z</time>
      </trkpt>
      <trkpt lat="45.25518" lon="5.71303">
        <ele>535</ele>
        <time>2010-05-09T08:27:37Z</time>
      </trkpt>
      <trkpt lat="45.25514" lon="5.71304">
        <ele>535</ele>
        <time>2010-05-09T08:27:38Z</time>
      </trkpt>
      <trkpt lat="45.2551" lon="5.71306">
        <ele>535</ele>
        <time>2010-05-09T08:27:39Z</time>
      </trkpt>
      <trkpt lat="45.25506" lon="5.71308">
        <ele>535</ele>
        <time>2010-05-09T08:27:40Z</time>
      </trkpt>
      <trkpt lat="45.25503" lon="5.71311">
        <ele>535</ele>
        <time>2010-05-09T08:27:41Z</time>
      </trkpt>
      <trkpt lat="45.25499" lon="5.71313">
        <ele>535</ele>
        <time>2010-05-09T08:27:42Z</time>
      </trkpt>
      <trkpt lat="45.25495" lon="5.71315">
        <ele>535</ele>
        <time>2010-05-09T08:27:43Z</time>
      </trkpt>
      <trkpt lat="45.25491" lon="5.71318">
        <ele>535</ele>
        <time>2010-05-09T08:27:44Z</time>
      </trkpt>
      <trkpt lat="45.25489" lon="5.71322">
        <ele>534</ele>
        <time>2010-05-09T08:27:45Z</time>
      </trkpt>
      <trkpt lat="45.25486" lon="5.71325">
        <ele>534</ele>
        <time>2010-05-09T08:27:46Z</time>
      </trkpt>
      <trkpt lat="45.25482" lon="5.71327">
        <ele>534</ele>
        <time>2010-05-09T08:27:47Z</time>
      </trkpt>
      <trkpt lat="45.2548" lon="5.71329">
        <ele>534</ele>
        <time>2010-05-09T08:27:48Z</time>
      </trkpt>
      <trkpt lat="45.25477" lon="5.71331">
        <ele>534</ele>
        <time>2010-05-09T08:27:49Z</time>
      </trkpt>
      <trkpt lat="45.25474" lon="5.71333">
        <ele>534</ele>
        <time>2010-05-09T08:27:50Z</time>
      </trkpt>
      <trkpt lat="45.25471" lon="5.71335">
        <ele>534</ele>
        <time>2010-05-09T08:27:51Z</time>
      </trkpt>
      <trkpt lat="45.25468" lon="5.71336">
        <ele>534</ele>
        <time>2010-05-09T08:27:52Z</time>
      </trkpt>
      <trkpt lat="45.25465" lon="5.71337">
        <ele>534</ele>
        <time>2010-05-09T08:27:53Z</time>
      </trkpt>
      <trkpt lat="45.25461" lon="5.71338">
        <ele>533</ele>
        <time>2010-05-09T08:27:54Z</time>
      </trkpt>
      <trkpt lat="45.25458" lon="5.7134">
        <ele>533</ele>
        <time>2010-05-09T08:27:55Z</time>
      </trkpt>
      <trkpt lat="45.25455" lon="5.71341">
        <ele>533</ele>
        <time>2010-05-09T08:27:56Z</time>
      </trkpt>
      <trkpt lat="45.25452" lon="5.71344">
        <ele>533</ele>
        <time>2010-05-09T08:27:57Z</time>
      </trkpt>
      <trkpt lat="45.25448" lon="5.71345">
        <ele>533</ele>
        <time>2010-05-09T08:27:58Z</time>
      </trkpt>
      <trkpt lat="45.25445" lon="5.71347">
        <ele>533</ele>
        <time>2010-05-09T08:27:59Z</time>
      </trkpt>
      <trkpt lat="45.25442" lon="5.71348">
        <ele>533</ele>
        <time>2010-05-09T08:28:00Z</time>
      </trkpt>
      <trkpt lat="45.25438" lon="5.71349">
        <ele>533</ele>
        <time>2010-05-09T08:28:01Z</time>
      </trkpt>
      <trkpt lat="45.25434" lon="5.7135">
        <ele>533</ele>
        <time>2010-05-09T08:28:02Z</time>
      </trkpt>
      <trkpt lat="45.25431" lon="5.7135">
        <ele>533</ele>
        <time>2010-05-09T08:28:03Z</time>
      </trkpt>
      <trkpt lat="45.25429" lon="5.71351">
        <ele>533</ele>
        <time>2010-05-09T08:28:04Z</time>
      </trkpt>
      <trkpt lat="45.25426" lon="5.71351">
        <ele>534</ele>
        <time>2010-05-09T08:28:05Z</time>
      </trkpt>
      <trkpt lat="45.25423" lon="5.71351">
        <ele>534</ele>
        <time>2010-05-09T08:28:06Z</time>
      </trkpt>
      <trkpt lat="45.2542" lon="5.71351">
        <ele>535</ele>
        <time>2010-05-09T08:28:07Z</time>
      </trkpt>
      <trkpt lat="45.25418" lon="5.71352">
        <ele>536</ele>
        <time>2010-05-09T08:28:08Z</time>
      </trkpt>
      <trkpt lat="45.25415" lon="5.71352">
        <ele>537</ele>
        <time>2010-05-09T08:28:09Z</time>
      </trkpt>
      <trkpt lat="45.25411" lon="5.71354">
        <ele>537</ele>
        <time>2010-05-09T08:28:10Z</time>
      </trkpt>
      <trkpt lat="45.25407" lon="5.71356">
        <ele>537</ele>
        <time>2010-05-09T08:28:11Z</time>
      </trkpt>
      <trkpt lat="45.25404" lon="5.71357">
        <ele>537</ele>
        <time>2010-05-09T08:28:12Z</time>
      </trkpt>
      <trkpt lat="45.254" lon="5.71359">
        <ele>537</ele>
        <time>2010-05-09T08:28:13Z</time>
      </trkpt>
      <trkpt lat="45.25397" lon="5.71361">
        <ele>537</ele>
        <time>2010-05-09T08:28:14Z</time>
      </trkpt>
      <trkpt lat="45.25394" lon="5.71362">
        <ele>537</ele>
        <time>2010-05-09T08:28:15Z</time>
      </trkpt>
      <trkpt lat="45.25391" lon="5.71365">
        <ele>537</ele>
        <time>2010-05-09T08:28:16Z</time>
      </trkpt>
      <trkpt lat="45.25388" lon="5.71368">
        <ele>537</ele>
        <time>2010-05-09T08:28:17Z</time>
      </trkpt>
      <trkpt lat="45.25386" lon="5.71371">
        <ele>537</ele>
        <time>2010-05-09T08:28:18Z</time>
      </trkpt>
      <trkpt lat="45.25383" lon="5.71374">
        <ele>537</ele>
        <time>2010-05-09T08:28:19Z</time>
      </trkpt>
      <trkpt lat="45.2538" lon="5.71376">
        <ele>537</ele>
        <time>2010-05-09T08:28:20Z</time>
      </trkpt>
      <trkpt lat="45.25378" lon="5.71378">
        <ele>537</ele>
        <time>2010-05-09T08:28:21Z</time>
      </trkpt>
      <trkpt lat="45.25375" lon="5.71381">
        <ele>537</ele>
        <time>2010-05-09T08:28:22Z</time>
      </trkpt>
      <trkpt lat="45.25373" lon="5.71383">
        <ele>537</ele>
        <time>2010-05-09T08:28:23Z</time>
      </trkpt>
      <trkpt lat="45.2537" lon="5.71386">
        <ele>537</ele>
        <time>2010-05-09T08:28:24Z</time>
      </trkpt>
      <trkpt lat="45.25368" lon="5.71389">
        <ele>537</ele>
        <time>2010-05-09T08:28:25Z</time>
      </trkpt>
      <trkpt lat="45.25365" lon="5.71393">
        <ele>537</ele>
        <time>2010-05-09T08:28:26Z</time>
      </trkpt>
      <trkpt lat="45.25362" lon="5.71396">
        <ele>537</ele>
        <time>2010-05-09T08:28:27Z</time>
      </trkpt>
      <trkpt lat="45.2536" lon="5.714">
        <ele>537</ele>
        <time>2010-05-09T08:28:28Z</time>
      </trkpt>
      <trkpt lat="45.25357" lon="5.71403">
        <ele>536</ele>
        <time>2010-05-09T08:28:29Z</time>
      </trkpt>
      <trkpt lat="45.25355" lon="5.71406">
        <ele>536</ele>
        <time>2010-05-09T08:28:30Z</time>
      </trkpt>
      <trkpt lat="45.25352" lon="5.7141">
        <ele>536</ele>
        <time>2010-05-09T08:28:31Z</time>
      </trkpt>
      <trkpt lat="45.2535" lon="5.71413">
        <ele>535</ele>
        <time>2010-05-09T08:28:32Z</time>
      </trkpt>
      <trkpt lat="45.25348" lon="5.71417">
        <ele>535</ele>
        <time>2010-05-09T08:28:33Z</time>
      </trkpt>
      <trkpt lat="45.25346" lon="5.71421">
        <ele>534</ele>
        <time>2010-05-09T08:28:34Z</time>
      </trkpt>
      <trkpt lat="45.25344" lon="5.71424">
        <ele>534</ele>
        <time>2010-05-09T08:28:35Z</time>
      </trkpt>
      <trkpt lat="45.25342" lon="5.71428">
        <ele>534</ele>
        <time>2010-05-09T08:28:36Z</time>
      </trkpt>
      <trkpt lat="45.25341" lon="5.71433">
        <ele>534</ele>
        <time>2010-05-09T08:28:37Z</time>
      </trkpt>
      <trkpt lat="45.25339" lon="5.71438">
        <ele>534</ele>
        <time>2010-05-09T08:28:38Z</time>
      </trkpt>
      <trkpt lat="45.25338" lon="5.71443">
        <ele>534</ele>
        <time>2010-05-09T08:28:39Z</time>
      </trkpt>
      <trkpt lat="45.25335" lon="5.71446">
        <ele>534</ele>
        <time>2010-05-09T08:28:40Z</time>
      </trkpt>
      <trkpt lat="45.25333" lon="5.7145">
        <ele>534</ele>
        <time>2010-05-09T08:28:41Z</time>
      </trkpt>
      <trkpt lat="45.2533" lon="5.71454">
        <ele>534</ele>
        <time>2010-05-09T08:28:42Z</time>
      </trkpt>
      <trkpt lat="45.25327" lon="5.71457">
        <ele>534</ele>
        <time>2010-05-09T08:28:43Z</time>
      </trkpt>
      <trkpt lat="45.25325" lon="5.71462">
        <ele>534</ele>
        <time>2010-05-09T08:28:44Z</time>
      </trkpt>
      <trkpt lat="45.25323" lon="5.71466">
        <ele>534</ele>
        <time>2010-05-09T08:28:45Z</time>
      </trkpt>
      <trkpt lat="45.25321" lon="5.7147">
        <ele>534</ele>
        <time>2010-05-09T08:28:46Z</time>
      </trkpt>
      <trkpt lat="45.25318" lon="5.71474">
        <ele>534</ele>
        <time>2010-05-09T08:28:47Z</time>
      </trkpt>
      <trkpt lat="45.25316" lon="5.71478">
        <ele>534</ele>
        <time>2010-05-09T08:28:48Z</time>
      </trkpt>
      <trkpt lat="45.25316" lon="5.71482">
        <ele>534</ele>
        <time>2010-05-09T08:28:49Z</time>
      </trkpt>
      <trkpt lat="45.25315" lon="5.71487">
        <ele>534</ele>
        <time>2010-05-09T08:28:50Z</time>
      </trkpt>
      <trkpt lat="45.25314" lon="5.71492">
        <ele>534</ele>
        <time>2010-05-09T08:28:51Z</time>
      </trkpt>
      <trkpt lat="45.25312" lon="5.71497">
        <ele>534</ele>
        <time>2010-05-09T08:28:52Z</time>
      </trkpt>
      <trkpt lat="45.25312" lon="5.71501">
        <ele>534</ele>
        <time>2010-05-09T08:28:53Z</time>
      </trkpt>
      <trkpt lat="45.25312" lon="5.71506">
        <ele>534</ele>
        <time>2010-05-09T08:28:54Z</time>
      </trkpt>
      <trkpt lat="45.25311" lon="5.71512">
        <ele>534</ele>
        <time>2010-05-09T08:28:55Z</time>
      </trkpt>
      <trkpt lat="45.25311" lon="5.71517">
        <ele>534</ele>
        <time>2010-05-09T08:28:56Z</time>
      </trkpt>
      <trkpt lat="45.25311" lon="5.71523">
        <ele>534</ele>
        <time>2010-05-09T08:28:57Z</time>
      </trkpt>
      <trkpt lat="45.2531" lon="5.71528">
        <ele>534</ele>
        <time>2010-05-09T08:28:58Z</time>
      </trkpt>
      <trkpt lat="45.25309" lon="5.71533">
        <ele>534</ele>
        <time>2010-05-09T08:28:59Z</time>
      </trkpt>
      <trkpt lat="45.25309" lon="5.71538">
        <ele>534</ele>
        <time>2010-05-09T08:29:00Z</time>
      </trkpt>
      <trkpt lat="45.25308" lon="5.71543">
        <ele>534</ele>
        <time>2010-05-09T08:29:01Z</time>
      </trkpt>
      <trkpt lat="45.25307" lon="5.71548">
        <ele>534</ele>
        <time>2010-05-09T08:29:02Z</time>
      </trkpt>
      <trkpt lat="45.25306" lon="5.71552">
        <ele>534</ele>
        <time>2010-05-09T08:29:03Z</time>
      </trkpt>
      <trkpt lat="45.25305" lon="5.71557">
        <ele>534</ele>
        <time>2010-05-09T08:29:04Z</time>
      </trkpt>
      <trkpt lat="45.25303" lon="5.71561">
        <ele>534</ele>
        <time>2010-05-09T08:29:05Z</time>
      </trkpt>
      <trkpt lat="45.25302" lon="5.71566">
        <ele>534</ele>
        <time>2010-05-09T08:29:06Z</time>
      </trkpt>
      <trkpt lat="45.25302" lon="5.71571">
        <ele>534</ele>
        <time>2010-05-09T08:29:07Z</time>
      </trkpt>
      <trkpt lat="45.25301" lon="5.71576">
        <ele>534</ele>
        <time>2010-05-09T08:29:08Z</time>
      </trkpt>
      <trkpt lat="45.253" lon="5.71581">
        <ele>534</ele>
        <time>2010-05-09T08:29:09Z</time>
      </trkpt>
      <trkpt lat="45.253" lon="5.71586">
        <ele>534</ele>
        <time>2010-05-09T08:29:10Z</time>
      </trkpt>
      <trkpt lat="45.25299" lon="5.71591">
        <ele>534</ele>
        <time>2010-05-09T08:29:11Z</time>
      </trkpt>
      <trkpt lat="45.25299" lon="5.71595">
        <ele>534</ele>
        <time>2010-05-09T08:29:12Z</time>
      </trkpt>
      <trkpt lat="45.25299" lon="5.71599">
        <ele>534</ele>
        <time>2010-05-09T08:29:13Z</time>
      </trkpt>
      <trkpt lat="45.25298" lon="5.71603">
        <ele>534</ele>
        <time>2010-05-09T08:29:14Z</time>
      </trkpt>
      <trkpt lat="45.25298" lon="5.71608">
        <ele>534</ele>
        <time>2010-05-09T08:29:15Z</time>
      </trkpt>
      <trkpt lat="45.25298" lon="5.71613">
        <ele>534</ele>
        <time>2010-05-09T08:29:16Z</time>
      </trkpt>
      <trkpt lat="45.25298" lon="5.71618">
        <ele>534</ele>
        <time>2010-05-09T08:29:17Z</time>
      </trkpt>
      <trkpt lat="45.25298" lon="5.71622">
        <ele>534</ele>
        <time>2010-05-09T08:29:18Z</time>
      </trkpt>
      <trkpt lat="45.25299" lon="5.71627">
        <ele>534</ele>
        <time>2010-05-09T08:29:19Z</time>
      </trkpt>
      <trkpt lat="45.253" lon="5.71631">
        <ele>534</ele>
        <time>2010-05-09T08:29:20Z</time>
      </trkpt>
      <trkpt lat="45.25301" lon="5.71636">
        <ele>534</ele>
        <time>2010-05-09T08:29:21Z</time>
      </trkpt>
      <trkpt lat="45.25302" lon="5.7164">
        <ele>534</ele>
        <time>2010-05-09T08:29:22Z</time>
      </trkpt>
      <trkpt lat="45.25303" lon="5.71645">
        <ele>534</ele>
        <time>2010-05-09T08:29:23Z</time>
      </trkpt>
      <trkpt lat="45.25304" lon="5.7165">
        <ele>534</ele>
        <time>2010-05-09T08:29:24Z</time>
      </trkpt>
      <trkpt lat="45.25304" lon="5.71654">
        <ele>534</ele>
        <time>2010-05-09T08:29:25Z</time>
      </trkpt>
      <trkpt lat="45.25305" lon="5.71658">
        <ele>534</ele>
        <time>2010-05-09T08:29:26Z</time>
      </trkpt>
      <trkpt lat="45.25306" lon="5.71662">
        <ele>534</ele>
        <time>2010-05-09T08:29:27Z</time>
      </trkpt>
      <trkpt lat="45.25307" lon="5.71666">
        <ele>534</ele>
        <time>2010-05-09T08:29:28Z</time>
      </trkpt>
      <trkpt lat="45.25308" lon="5.71671">
        <ele>534</ele>
        <time>2010-05-09T08:29:29Z</time>
      </trkpt>
      <trkpt lat="45.25309" lon="5.71676">
        <ele>534</ele>
        <time>2010-05-09T08:29:30Z</time>
      </trkpt>
      <trkpt lat="45.25312" lon="5.71681">
        <ele>534</ele>
        <time>2010-05-09T08:29:31Z</time>
      </trkpt>
      <trkpt lat="45.25312" lon="5.71687">
        <ele>534</ele>
        <time>2010-05-09T08:29:32Z</time>
      </trkpt>
      <trkpt lat="45.25313" lon="5.71691">
        <ele>534</ele>
        <time>2010-05-09T08:29:33Z</time>
      </trkpt>
      <trkpt lat="45.25317" lon="5.71695">
        <ele>534</ele>
        <time>2010-05-09T08:29:34Z</time>
      </trkpt>
      <trkpt lat="45.25319" lon="5.71699">
        <ele>534</ele>
        <time>2010-05-09T08:29:35Z</time>
      </trkpt>
      <trkpt lat="45.2532" lon="5.71703">
        <ele>534</ele>
        <time>2010-05-09T08:29:36Z</time>
      </trkpt>
      <trkpt lat="45.2532" lon="5.71707">
        <ele>534</ele>
        <time>2010-05-09T08:29:37Z</time>
      </trkpt>
      <trkpt lat="45.2532" lon="5.71712">
        <ele>534</ele>
        <time>2010-05-09T08:29:38Z</time>
      </trkpt>
      <trkpt lat="45.2532" lon="5.71717">
        <ele>534</ele>
        <time>2010-05-09T08:29:39Z</time>
      </trkpt>
      <trkpt lat="45.25321" lon="5.71722">
        <ele>534</ele>
        <time>2010-05-09T08:29:40Z</time>
      </trkpt>
      <trkpt lat="45.25321" lon="5.71726">
        <ele>534</ele>
        <time>2010-05-09T08:29:41Z</time>
      </trkpt>
      <trkpt lat="45.25321" lon="5.71726">
        <ele>534</ele>
        <time>2010-05-09T08:29:41Z</time>
      </trkpt>
    </trkseg>
  </trk>
</gpx>